<?xml version="1.0" encoding="UTF-8" standalone="no" ?>
<gpx xmlns="http://www.topografix.com/GPX/1/1" xmlns:xsi="http://www.w3.org/2001/XMLSchema-instance" xsi:schemaLocation="http://www.topografix.com/GPX/1/1 http://www.topografix.com/GPX/1/1/gpx.xsd" version="1.1" creator="VisuGPX - https://www.visugpx.com">
  <metadata>
    <name>Le Gros Cerveau par piste de feu</name>
    <desc><![CDATA[De la Cadière à Bandol par une portion VTT puis ascension vers le gros cerveau sur piste de feu, retour à la Cadière  par Sanary, Bandol. réalisé en vélo électrique de location Var Ouest E-Bike ]]></desc>
  </metadata>
  <trk>
    <name><![CDATA[Le Gros Cerveau VTT E-BIKE]]></name>
    <trkseg>
      <trkpt lat="43.19579" lon="5.75746">
        <ele>135.60000610352</ele>
        <time>2016-05-14T14:19:56.000Z</time>
      </trkpt>
      <trkpt lat="43.19577" lon="5.75747">
        <ele>135</ele>
        <time>2016-05-14T14:20:57.000Z</time>
      </trkpt>
      <trkpt lat="43.19575" lon="5.75749">
        <ele>134.39999389648</ele>
        <time>2016-05-14T14:20:59.000Z</time>
      </trkpt>
      <trkpt lat="43.19563" lon="5.75759">
        <ele>131.19999694824</ele>
        <time>2016-05-14T14:21:03.000Z</time>
      </trkpt>
      <trkpt lat="43.19548" lon="5.75776">
        <ele>128.19999694824</ele>
        <time>2016-05-14T14:21:07.000Z</time>
      </trkpt>
      <trkpt lat="43.19545" lon="5.75779">
        <ele>127.80000305176</ele>
        <time>2016-05-14T14:21:08.000Z</time>
      </trkpt>
      <trkpt lat="43.19537" lon="5.75789">
        <ele>127</ele>
        <time>2016-05-14T14:21:11.000Z</time>
      </trkpt>
      <trkpt lat="43.19533" lon="5.75793">
        <ele>126.40000152588</ele>
        <time>2016-05-14T14:21:13.000Z</time>
      </trkpt>
      <trkpt lat="43.19532" lon="5.75797">
        <ele>126.40000152588</ele>
        <time>2016-05-14T14:21:14.000Z</time>
      </trkpt>
      <trkpt lat="43.19533" lon="5.75802">
        <ele>126.40000152588</ele>
        <time>2016-05-14T14:21:15.000Z</time>
      </trkpt>
      <trkpt lat="43.19533" lon="5.75808">
        <ele>126.19999694824</ele>
        <time>2016-05-14T14:21:16.000Z</time>
      </trkpt>
      <trkpt lat="43.19534" lon="5.75822">
        <ele>125.40000152588</ele>
        <time>2016-05-14T14:21:18.000Z</time>
      </trkpt>
      <trkpt lat="43.19532" lon="5.75829">
        <ele>124.80000305176</ele>
        <time>2016-05-14T14:21:19.000Z</time>
      </trkpt>
      <trkpt lat="43.19528" lon="5.75835">
        <ele>124</ele>
        <time>2016-05-14T14:21:20.000Z</time>
      </trkpt>
      <trkpt lat="43.19519" lon="5.75848">
        <ele>122.19999694824</ele>
        <time>2016-05-14T14:21:22.000Z</time>
      </trkpt>
      <trkpt lat="43.19509" lon="5.75865">
        <ele>120</ele>
        <time>2016-05-14T14:21:24.000Z</time>
      </trkpt>
      <trkpt lat="43.19504" lon="5.75874">
        <ele>118.59999847412</ele>
        <time>2016-05-14T14:21:25.000Z</time>
      </trkpt>
      <trkpt lat="43.19495" lon="5.75891">
        <ele>116</ele>
        <time>2016-05-14T14:21:27.000Z</time>
      </trkpt>
      <trkpt lat="43.19491" lon="5.75898">
        <ele>115</ele>
        <time>2016-05-14T14:21:28.000Z</time>
      </trkpt>
      <trkpt lat="43.19485" lon="5.75902">
        <ele>114</ele>
        <time>2016-05-14T14:21:29.000Z</time>
      </trkpt>
      <trkpt lat="43.19478" lon="5.75905">
        <ele>112.80000305176</ele>
        <time>2016-05-14T14:21:30.000Z</time>
      </trkpt>
      <trkpt lat="43.19471" lon="5.75904">
        <ele>111.40000152588</ele>
        <time>2016-05-14T14:21:31.000Z</time>
      </trkpt>
      <trkpt lat="43.19464" lon="5.759">
        <ele>110.19999694824</ele>
        <time>2016-05-14T14:21:32.000Z</time>
      </trkpt>
      <trkpt lat="43.19453" lon="5.75886">
        <ele>108.59999847412</ele>
        <time>2016-05-14T14:21:34.000Z</time>
      </trkpt>
      <trkpt lat="43.1945" lon="5.75877">
        <ele>108.80000305176</ele>
        <time>2016-05-14T14:21:35.000Z</time>
      </trkpt>
      <trkpt lat="43.19451" lon="5.7586">
        <ele>110.59999847412</ele>
        <time>2016-05-14T14:21:37.000Z</time>
      </trkpt>
      <trkpt lat="43.19452" lon="5.75852">
        <ele>111.19999694824</ele>
        <time>2016-05-14T14:21:38.000Z</time>
      </trkpt>
      <trkpt lat="43.19453" lon="5.75806">
        <ele>114.80000305176</ele>
        <time>2016-05-14T14:21:44.000Z</time>
      </trkpt>
      <trkpt lat="43.19454" lon="5.75799">
        <ele>115.19999694824</ele>
        <time>2016-05-14T14:21:45.000Z</time>
      </trkpt>
      <trkpt lat="43.19456" lon="5.75792">
        <ele>115.59999847412</ele>
        <time>2016-05-14T14:21:46.000Z</time>
      </trkpt>
      <trkpt lat="43.19462" lon="5.75778">
        <ele>116.59999847412</ele>
        <time>2016-05-14T14:21:48.000Z</time>
      </trkpt>
      <trkpt lat="43.19469" lon="5.75757">
        <ele>118</ele>
        <time>2016-05-14T14:21:51.000Z</time>
      </trkpt>
      <trkpt lat="43.19475" lon="5.75735">
        <ele>119.19999694824</ele>
        <time>2016-05-14T14:21:54.000Z</time>
      </trkpt>
      <trkpt lat="43.19477" lon="5.75727">
        <ele>119.40000152588</ele>
        <time>2016-05-14T14:21:55.000Z</time>
      </trkpt>
      <trkpt lat="43.19477" lon="5.75719">
        <ele>119.80000305176</ele>
        <time>2016-05-14T14:21:56.000Z</time>
      </trkpt>
      <trkpt lat="43.19477" lon="5.75696">
        <ele>120.59999847412</ele>
        <time>2016-05-14T14:21:59.000Z</time>
      </trkpt>
      <trkpt lat="43.19476" lon="5.75689">
        <ele>120.59999847412</ele>
        <time>2016-05-14T14:22:00.000Z</time>
      </trkpt>
      <trkpt lat="43.19475" lon="5.75681">
        <ele>120.59999847412</ele>
        <time>2016-05-14T14:22:01.000Z</time>
      </trkpt>
      <trkpt lat="43.19473" lon="5.75674">
        <ele>120.59999847412</ele>
        <time>2016-05-14T14:22:02.000Z</time>
      </trkpt>
      <trkpt lat="43.19469" lon="5.75652">
        <ele>120.59999847412</ele>
        <time>2016-05-14T14:22:05.000Z</time>
      </trkpt>
      <trkpt lat="43.19469" lon="5.75644">
        <ele>120.59999847412</ele>
        <time>2016-05-14T14:22:06.000Z</time>
      </trkpt>
      <trkpt lat="43.19472" lon="5.75623">
        <ele>121.59999847412</ele>
        <time>2016-05-14T14:22:09.000Z</time>
      </trkpt>
      <trkpt lat="43.19474" lon="5.75616">
        <ele>122.19999694824</ele>
        <time>2016-05-14T14:22:10.000Z</time>
      </trkpt>
      <trkpt lat="43.1948" lon="5.75603">
        <ele>123.40000152588</ele>
        <time>2016-05-14T14:22:12.000Z</time>
      </trkpt>
      <trkpt lat="43.19489" lon="5.75584">
        <ele>125</ele>
        <time>2016-05-14T14:22:15.000Z</time>
      </trkpt>
      <trkpt lat="43.19495" lon="5.75571">
        <ele>126.19999694824</ele>
        <time>2016-05-14T14:22:17.000Z</time>
      </trkpt>
      <trkpt lat="43.195" lon="5.75557">
        <ele>127.19999694824</ele>
        <time>2016-05-14T14:22:19.000Z</time>
      </trkpt>
      <trkpt lat="43.19504" lon="5.75534">
        <ele>128.39999389648</ele>
        <time>2016-05-14T14:22:22.000Z</time>
      </trkpt>
      <trkpt lat="43.19507" lon="5.75503">
        <ele>129.19999694824</ele>
        <time>2016-05-14T14:22:26.000Z</time>
      </trkpt>
      <trkpt lat="43.1951" lon="5.75479">
        <ele>129.80000305176</ele>
        <time>2016-05-14T14:22:29.000Z</time>
      </trkpt>
      <trkpt lat="43.19512" lon="5.75463">
        <ele>130.39999389648</ele>
        <time>2016-05-14T14:22:31.000Z</time>
      </trkpt>
      <trkpt lat="43.19515" lon="5.75434">
        <ele>132.39999389648</ele>
        <time>2016-05-14T14:22:35.000Z</time>
      </trkpt>
      <trkpt lat="43.19519" lon="5.75406">
        <ele>134.39999389648</ele>
        <time>2016-05-14T14:22:39.000Z</time>
      </trkpt>
      <trkpt lat="43.19519" lon="5.75371">
        <ele>135.19999694824</ele>
        <time>2016-05-14T14:22:45.000Z</time>
      </trkpt>
      <trkpt lat="43.19514" lon="5.7537">
        <ele>134.19999694824</ele>
        <time>2016-05-14T14:22:46.000Z</time>
      </trkpt>
      <trkpt lat="43.19509" lon="5.7537">
        <ele>133.39999389648</ele>
        <time>2016-05-14T14:22:47.000Z</time>
      </trkpt>
      <trkpt lat="43.19497" lon="5.7537">
        <ele>132</ele>
        <time>2016-05-14T14:22:49.000Z</time>
      </trkpt>
      <trkpt lat="43.19483" lon="5.75369">
        <ele>130</ele>
        <time>2016-05-14T14:22:51.000Z</time>
      </trkpt>
      <trkpt lat="43.19455" lon="5.75366">
        <ele>125.80000305176</ele>
        <time>2016-05-14T14:22:55.000Z</time>
      </trkpt>
      <trkpt lat="43.19448" lon="5.75364">
        <ele>125</ele>
        <time>2016-05-14T14:22:56.000Z</time>
      </trkpt>
      <trkpt lat="43.19442" lon="5.7536">
        <ele>124</ele>
        <time>2016-05-14T14:22:57.000Z</time>
      </trkpt>
      <trkpt lat="43.1943" lon="5.75348">
        <ele>122.19999694824</ele>
        <time>2016-05-14T14:22:59.000Z</time>
      </trkpt>
      <trkpt lat="43.19421" lon="5.7533">
        <ele>120.80000305176</ele>
        <time>2016-05-14T14:23:01.000Z</time>
      </trkpt>
      <trkpt lat="43.19413" lon="5.75311">
        <ele>119.59999847412</ele>
        <time>2016-05-14T14:23:03.000Z</time>
      </trkpt>
      <trkpt lat="43.19409" lon="5.75302">
        <ele>119</ele>
        <time>2016-05-14T14:23:04.000Z</time>
      </trkpt>
      <trkpt lat="43.19397" lon="5.75284">
        <ele>117.19999694824</ele>
        <time>2016-05-14T14:23:06.000Z</time>
      </trkpt>
      <trkpt lat="43.1939" lon="5.75275">
        <ele>116.40000152588</ele>
        <time>2016-05-14T14:23:07.000Z</time>
      </trkpt>
      <trkpt lat="43.19382" lon="5.75266">
        <ele>115.19999694824</ele>
        <time>2016-05-14T14:23:08.000Z</time>
      </trkpt>
      <trkpt lat="43.19368" lon="5.75249">
        <ele>113.19999694824</ele>
        <time>2016-05-14T14:23:10.000Z</time>
      </trkpt>
      <trkpt lat="43.19354" lon="5.75234">
        <ele>111.19999694824</ele>
        <time>2016-05-14T14:23:12.000Z</time>
      </trkpt>
      <trkpt lat="43.19339" lon="5.7522">
        <ele>109.59999847412</ele>
        <time>2016-05-14T14:23:14.000Z</time>
      </trkpt>
      <trkpt lat="43.1933" lon="5.75216">
        <ele>109</ele>
        <time>2016-05-14T14:23:15.000Z</time>
      </trkpt>
      <trkpt lat="43.19322" lon="5.75213">
        <ele>108.59999847412</ele>
        <time>2016-05-14T14:23:16.000Z</time>
      </trkpt>
      <trkpt lat="43.19314" lon="5.7521">
        <ele>108</ele>
        <time>2016-05-14T14:23:17.000Z</time>
      </trkpt>
      <trkpt lat="43.19305" lon="5.75205">
        <ele>107.59999847412</ele>
        <time>2016-05-14T14:23:18.000Z</time>
      </trkpt>
      <trkpt lat="43.19297" lon="5.75199">
        <ele>107.19999694824</ele>
        <time>2016-05-14T14:23:19.000Z</time>
      </trkpt>
      <trkpt lat="43.19288" lon="5.75192">
        <ele>107</ele>
        <time>2016-05-14T14:23:20.000Z</time>
      </trkpt>
      <trkpt lat="43.19281" lon="5.75183">
        <ele>106.80000305176</ele>
        <time>2016-05-14T14:23:21.000Z</time>
      </trkpt>
      <trkpt lat="43.19274" lon="5.75173">
        <ele>107</ele>
        <time>2016-05-14T14:23:22.000Z</time>
      </trkpt>
      <trkpt lat="43.19262" lon="5.75152">
        <ele>107.19999694824</ele>
        <time>2016-05-14T14:23:24.000Z</time>
      </trkpt>
      <trkpt lat="43.19256" lon="5.75141">
        <ele>107.19999694824</ele>
        <time>2016-05-14T14:23:25.000Z</time>
      </trkpt>
      <trkpt lat="43.1925" lon="5.75131">
        <ele>106.80000305176</ele>
        <time>2016-05-14T14:23:26.000Z</time>
      </trkpt>
      <trkpt lat="43.19239" lon="5.75111">
        <ele>105.80000305176</ele>
        <time>2016-05-14T14:23:28.000Z</time>
      </trkpt>
      <trkpt lat="43.19228" lon="5.75091">
        <ele>105</ele>
        <time>2016-05-14T14:23:30.000Z</time>
      </trkpt>
      <trkpt lat="43.19216" lon="5.75071">
        <ele>104.19999694824</ele>
        <time>2016-05-14T14:23:32.000Z</time>
      </trkpt>
      <trkpt lat="43.19195" lon="5.75034">
        <ele>103</ele>
        <time>2016-05-14T14:23:36.000Z</time>
      </trkpt>
      <trkpt lat="43.19186" lon="5.75018">
        <ele>102.59999847412</ele>
        <time>2016-05-14T14:23:38.000Z</time>
      </trkpt>
      <trkpt lat="43.19178" lon="5.75002">
        <ele>102.59999847412</ele>
        <time>2016-05-14T14:23:40.000Z</time>
      </trkpt>
      <trkpt lat="43.19173" lon="5.74986">
        <ele>103.59999847412</ele>
        <time>2016-05-14T14:23:42.000Z</time>
      </trkpt>
      <trkpt lat="43.19171" lon="5.74978">
        <ele>104</ele>
        <time>2016-05-14T14:23:43.000Z</time>
      </trkpt>
      <trkpt lat="43.19168" lon="5.74952">
        <ele>105</ele>
        <time>2016-05-14T14:23:46.000Z</time>
      </trkpt>
      <trkpt lat="43.19167" lon="5.74935">
        <ele>105.80000305176</ele>
        <time>2016-05-14T14:23:48.000Z</time>
      </trkpt>
      <trkpt lat="43.19165" lon="5.74926">
        <ele>106.40000152588</ele>
        <time>2016-05-14T14:23:49.000Z</time>
      </trkpt>
      <trkpt lat="43.19157" lon="5.74902">
        <ele>107.59999847412</ele>
        <time>2016-05-14T14:23:52.000Z</time>
      </trkpt>
      <trkpt lat="43.19139" lon="5.74876">
        <ele>108.59999847412</ele>
        <time>2016-05-14T14:23:56.000Z</time>
      </trkpt>
      <trkpt lat="43.19134" lon="5.74871">
        <ele>108.80000305176</ele>
        <time>2016-05-14T14:23:57.000Z</time>
      </trkpt>
      <trkpt lat="43.19117" lon="5.74861">
        <ele>109</ele>
        <time>2016-05-14T14:24:00.000Z</time>
      </trkpt>
      <trkpt lat="43.19104" lon="5.74858">
        <ele>109.19999694824</ele>
        <time>2016-05-14T14:24:02.000Z</time>
      </trkpt>
      <trkpt lat="43.19078" lon="5.74851">
        <ele>110.19999694824</ele>
        <time>2016-05-14T14:24:06.000Z</time>
      </trkpt>
      <trkpt lat="43.19048" lon="5.74838">
        <ele>111.80000305176</ele>
        <time>2016-05-14T14:24:11.000Z</time>
      </trkpt>
      <trkpt lat="43.19037" lon="5.7483">
        <ele>112.40000152588</ele>
        <time>2016-05-14T14:24:13.000Z</time>
      </trkpt>
      <trkpt lat="43.19032" lon="5.74826">
        <ele>112.80000305176</ele>
        <time>2016-05-14T14:24:14.000Z</time>
      </trkpt>
      <trkpt lat="43.19018" lon="5.74811">
        <ele>113.59999847412</ele>
        <time>2016-05-14T14:24:17.000Z</time>
      </trkpt>
      <trkpt lat="43.19014" lon="5.74805">
        <ele>113.80000305176</ele>
        <time>2016-05-14T14:24:18.000Z</time>
      </trkpt>
      <trkpt lat="43.19009" lon="5.74799">
        <ele>114</ele>
        <time>2016-05-14T14:24:19.000Z</time>
      </trkpt>
      <trkpt lat="43.19006" lon="5.74793">
        <ele>113.80000305176</ele>
        <time>2016-05-14T14:24:20.000Z</time>
      </trkpt>
      <trkpt lat="43.19" lon="5.7478">
        <ele>113.59999847412</ele>
        <time>2016-05-14T14:24:22.000Z</time>
      </trkpt>
      <trkpt lat="43.18997" lon="5.74773">
        <ele>113.40000152588</ele>
        <time>2016-05-14T14:24:23.000Z</time>
      </trkpt>
      <trkpt lat="43.18994" lon="5.74766">
        <ele>113.40000152588</ele>
        <time>2016-05-14T14:24:24.000Z</time>
      </trkpt>
      <trkpt lat="43.18992" lon="5.74758">
        <ele>113.19999694824</ele>
        <time>2016-05-14T14:24:25.000Z</time>
      </trkpt>
      <trkpt lat="43.18984" lon="5.74735">
        <ele>113</ele>
        <time>2016-05-14T14:24:28.000Z</time>
      </trkpt>
      <trkpt lat="43.18977" lon="5.74711">
        <ele>113.40000152588</ele>
        <time>2016-05-14T14:24:31.000Z</time>
      </trkpt>
      <trkpt lat="43.18974" lon="5.74704">
        <ele>113.59999847412</ele>
        <time>2016-05-14T14:24:32.000Z</time>
      </trkpt>
      <trkpt lat="43.18965" lon="5.74682">
        <ele>114.59999847412</ele>
        <time>2016-05-14T14:24:35.000Z</time>
      </trkpt>
      <trkpt lat="43.18957" lon="5.74669">
        <ele>115.19999694824</ele>
        <time>2016-05-14T14:24:37.000Z</time>
      </trkpt>
      <trkpt lat="43.18952" lon="5.74664">
        <ele>115.19999694824</ele>
        <time>2016-05-14T14:24:38.000Z</time>
      </trkpt>
      <trkpt lat="43.18929" lon="5.74647">
        <ele>115.40000152588</ele>
        <time>2016-05-14T14:24:42.000Z</time>
      </trkpt>
      <trkpt lat="43.18909" lon="5.74628">
        <ele>116.40000152588</ele>
        <time>2016-05-14T14:24:46.000Z</time>
      </trkpt>
      <trkpt lat="43.18899" lon="5.7462">
        <ele>116.59999847412</ele>
        <time>2016-05-14T14:24:48.000Z</time>
      </trkpt>
      <trkpt lat="43.18894" lon="5.74617">
        <ele>116.80000305176</ele>
        <time>2016-05-14T14:24:49.000Z</time>
      </trkpt>
      <trkpt lat="43.18889" lon="5.74615">
        <ele>116.80000305176</ele>
        <time>2016-05-14T14:24:50.000Z</time>
      </trkpt>
      <trkpt lat="43.18879" lon="5.74616">
        <ele>116.80000305176</ele>
        <time>2016-05-14T14:24:52.000Z</time>
      </trkpt>
      <trkpt lat="43.18865" lon="5.74623">
        <ele>116.59999847412</ele>
        <time>2016-05-14T14:24:55.000Z</time>
      </trkpt>
      <trkpt lat="43.18855" lon="5.74629">
        <ele>116.40000152588</ele>
        <time>2016-05-14T14:24:57.000Z</time>
      </trkpt>
      <trkpt lat="43.18825" lon="5.74645">
        <ele>115.80000305176</ele>
        <time>2016-05-14T14:25:02.000Z</time>
      </trkpt>
      <trkpt lat="43.1879" lon="5.7467">
        <ele>115</ele>
        <time>2016-05-14T14:25:08.000Z</time>
      </trkpt>
      <trkpt lat="43.18779" lon="5.74677">
        <ele>116.19999694824</ele>
        <time>2016-05-14T14:25:10.000Z</time>
      </trkpt>
      <trkpt lat="43.18738" lon="5.74696">
        <ele>121.59999847412</ele>
        <time>2016-05-14T14:25:17.000Z</time>
      </trkpt>
      <trkpt lat="43.187" lon="5.747">
        <ele>128.60000610352</ele>
        <time>2016-05-14T14:25:23.000Z</time>
      </trkpt>
      <trkpt lat="43.18689" lon="5.74681">
        <ele>129.19999694824</ele>
        <time>2016-05-14T14:25:26.000Z</time>
      </trkpt>
      <trkpt lat="43.18686" lon="5.74675">
        <ele>129.19999694824</ele>
        <time>2016-05-14T14:25:27.000Z</time>
      </trkpt>
      <trkpt lat="43.18684" lon="5.74668">
        <ele>129.19999694824</ele>
        <time>2016-05-14T14:25:28.000Z</time>
      </trkpt>
      <trkpt lat="43.18678" lon="5.74658">
        <ele>129.39999389648</ele>
        <time>2016-05-14T14:25:30.000Z</time>
      </trkpt>
      <trkpt lat="43.18674" lon="5.74654">
        <ele>129.60000610352</ele>
        <time>2016-05-14T14:25:31.000Z</time>
      </trkpt>
      <trkpt lat="43.18665" lon="5.74649">
        <ele>130.60000610352</ele>
        <time>2016-05-14T14:25:33.000Z</time>
      </trkpt>
      <trkpt lat="43.1866" lon="5.74647">
        <ele>131</ele>
        <time>2016-05-14T14:25:34.000Z</time>
      </trkpt>
      <trkpt lat="43.18655" lon="5.74646">
        <ele>131.60000610352</ele>
        <time>2016-05-14T14:25:35.000Z</time>
      </trkpt>
      <trkpt lat="43.18631" lon="5.74634">
        <ele>133.80000305176</ele>
        <time>2016-05-14T14:25:40.000Z</time>
      </trkpt>
      <trkpt lat="43.18621" lon="5.74629">
        <ele>134.60000610352</ele>
        <time>2016-05-14T14:25:42.000Z</time>
      </trkpt>
      <trkpt lat="43.18603" lon="5.74618">
        <ele>135.60000610352</ele>
        <time>2016-05-14T14:25:46.000Z</time>
      </trkpt>
      <trkpt lat="43.18598" lon="5.74619">
        <ele>136.39999389648</ele>
        <time>2016-05-14T14:25:47.000Z</time>
      </trkpt>
      <trkpt lat="43.18593" lon="5.74622">
        <ele>137.19999694824</ele>
        <time>2016-05-14T14:25:48.000Z</time>
      </trkpt>
      <trkpt lat="43.18585" lon="5.74627">
        <ele>138.39999389648</ele>
        <time>2016-05-14T14:25:50.000Z</time>
      </trkpt>
      <trkpt lat="43.1858" lon="5.7463">
        <ele>138.39999389648</ele>
        <time>2016-05-14T14:25:51.000Z</time>
      </trkpt>
      <trkpt lat="43.18569" lon="5.74634">
        <ele>138.60000610352</ele>
        <time>2016-05-14T14:25:53.000Z</time>
      </trkpt>
      <trkpt lat="43.18559" lon="5.74634">
        <ele>138.39999389648</ele>
        <time>2016-05-14T14:25:55.000Z</time>
      </trkpt>
      <trkpt lat="43.18554" lon="5.74634">
        <ele>138.39999389648</ele>
        <time>2016-05-14T14:25:56.000Z</time>
      </trkpt>
      <trkpt lat="43.18546" lon="5.74637">
        <ele>138.39999389648</ele>
        <time>2016-05-14T14:25:58.000Z</time>
      </trkpt>
      <trkpt lat="43.18537" lon="5.7464">
        <ele>138.60000610352</ele>
        <time>2016-05-14T14:26:00.000Z</time>
      </trkpt>
      <trkpt lat="43.18533" lon="5.74641">
        <ele>138.60000610352</ele>
        <time>2016-05-14T14:26:01.000Z</time>
      </trkpt>
      <trkpt lat="43.18528" lon="5.74642">
        <ele>138.60000610352</ele>
        <time>2016-05-14T14:26:02.000Z</time>
      </trkpt>
      <trkpt lat="43.18512" lon="5.74642">
        <ele>138.39999389648</ele>
        <time>2016-05-14T14:26:05.000Z</time>
      </trkpt>
      <trkpt lat="43.18506" lon="5.7464">
        <ele>138.39999389648</ele>
        <time>2016-05-14T14:26:06.000Z</time>
      </trkpt>
      <trkpt lat="43.1847" lon="5.74629">
        <ele>138.60000610352</ele>
        <time>2016-05-14T14:26:11.000Z</time>
      </trkpt>
      <trkpt lat="43.18456" lon="5.74626">
        <ele>138.80000305176</ele>
        <time>2016-05-14T14:26:13.000Z</time>
      </trkpt>
      <trkpt lat="43.18442" lon="5.74629">
        <ele>139.19999694824</ele>
        <time>2016-05-14T14:26:15.000Z</time>
      </trkpt>
      <trkpt lat="43.18424" lon="5.74637">
        <ele>140.60000610352</ele>
        <time>2016-05-14T14:26:18.000Z</time>
      </trkpt>
      <trkpt lat="43.18418" lon="5.74639">
        <ele>141.39999389648</ele>
        <time>2016-05-14T14:26:19.000Z</time>
      </trkpt>
      <trkpt lat="43.18406" lon="5.74642">
        <ele>143.39999389648</ele>
        <time>2016-05-14T14:26:21.000Z</time>
      </trkpt>
      <trkpt lat="43.18388" lon="5.74637">
        <ele>145.60000610352</ele>
        <time>2016-05-14T14:26:24.000Z</time>
      </trkpt>
      <trkpt lat="43.18385" lon="5.74632">
        <ele>146</ele>
        <time>2016-05-14T14:26:25.000Z</time>
      </trkpt>
      <trkpt lat="43.18371" lon="5.74621">
        <ele>147.19999694824</ele>
        <time>2016-05-14T14:26:28.000Z</time>
      </trkpt>
      <trkpt lat="43.18366" lon="5.74618">
        <ele>147.80000305176</ele>
        <time>2016-05-14T14:26:29.000Z</time>
      </trkpt>
      <trkpt lat="43.1836" lon="5.74615">
        <ele>148.39999389648</ele>
        <time>2016-05-14T14:26:30.000Z</time>
      </trkpt>
      <trkpt lat="43.18355" lon="5.74613">
        <ele>149</ele>
        <time>2016-05-14T14:26:31.000Z</time>
      </trkpt>
      <trkpt lat="43.18339" lon="5.74605">
        <ele>151</ele>
        <time>2016-05-14T14:26:34.000Z</time>
      </trkpt>
      <trkpt lat="43.18334" lon="5.74602">
        <ele>151.60000610352</ele>
        <time>2016-05-14T14:26:35.000Z</time>
      </trkpt>
      <trkpt lat="43.18328" lon="5.74599">
        <ele>152.19999694824</ele>
        <time>2016-05-14T14:26:36.000Z</time>
      </trkpt>
      <trkpt lat="43.18312" lon="5.74592">
        <ele>154.39999389648</ele>
        <time>2016-05-14T14:26:39.000Z</time>
      </trkpt>
      <trkpt lat="43.18296" lon="5.74586">
        <ele>156.60000610352</ele>
        <time>2016-05-14T14:26:42.000Z</time>
      </trkpt>
      <trkpt lat="43.18281" lon="5.74566">
        <ele>157.60000610352</ele>
        <time>2016-05-14T14:26:46.000Z</time>
      </trkpt>
      <trkpt lat="43.1828" lon="5.74558">
        <ele>157.19999694824</ele>
        <time>2016-05-14T14:26:47.000Z</time>
      </trkpt>
      <trkpt lat="43.18278" lon="5.74544">
        <ele>157.19999694824</ele>
        <time>2016-05-14T14:26:49.000Z</time>
      </trkpt>
      <trkpt lat="43.18276" lon="5.74538">
        <ele>157.60000610352</ele>
        <time>2016-05-14T14:26:50.000Z</time>
      </trkpt>
      <trkpt lat="43.1827" lon="5.74527">
        <ele>158.39999389648</ele>
        <time>2016-05-14T14:26:52.000Z</time>
      </trkpt>
      <trkpt lat="43.18261" lon="5.7452">
        <ele>159.80000305176</ele>
        <time>2016-05-14T14:26:54.000Z</time>
      </trkpt>
      <trkpt lat="43.18256" lon="5.74517">
        <ele>160.39999389648</ele>
        <time>2016-05-14T14:26:55.000Z</time>
      </trkpt>
      <trkpt lat="43.18247" lon="5.74512">
        <ele>161.60000610352</ele>
        <time>2016-05-14T14:26:57.000Z</time>
      </trkpt>
      <trkpt lat="43.18237" lon="5.74511">
        <ele>163</ele>
        <time>2016-05-14T14:26:59.000Z</time>
      </trkpt>
      <trkpt lat="43.18232" lon="5.74512">
        <ele>163.60000610352</ele>
        <time>2016-05-14T14:27:00.000Z</time>
      </trkpt>
      <trkpt lat="43.18222" lon="5.74516">
        <ele>165.19999694824</ele>
        <time>2016-05-14T14:27:02.000Z</time>
      </trkpt>
      <trkpt lat="43.18218" lon="5.74519">
        <ele>165.60000610352</ele>
        <time>2016-05-14T14:27:03.000Z</time>
      </trkpt>
      <trkpt lat="43.18213" lon="5.74521">
        <ele>166.19999694824</ele>
        <time>2016-05-14T14:27:04.000Z</time>
      </trkpt>
      <trkpt lat="43.18208" lon="5.74523">
        <ele>166.80000305176</ele>
        <time>2016-05-14T14:27:05.000Z</time>
      </trkpt>
      <trkpt lat="43.18203" lon="5.74523">
        <ele>167.39999389648</ele>
        <time>2016-05-14T14:27:06.000Z</time>
      </trkpt>
      <trkpt lat="43.18192" lon="5.74522">
        <ele>168.60000610352</ele>
        <time>2016-05-14T14:27:08.000Z</time>
      </trkpt>
      <trkpt lat="43.18187" lon="5.7452">
        <ele>169.19999694824</ele>
        <time>2016-05-14T14:27:09.000Z</time>
      </trkpt>
      <trkpt lat="43.18177" lon="5.74514">
        <ele>170.60000610352</ele>
        <time>2016-05-14T14:27:11.000Z</time>
      </trkpt>
      <trkpt lat="43.18165" lon="5.745">
        <ele>172.39999389648</ele>
        <time>2016-05-14T14:27:14.000Z</time>
      </trkpt>
      <trkpt lat="43.1816" lon="5.74486">
        <ele>173.19999694824</ele>
        <time>2016-05-14T14:27:16.000Z</time>
      </trkpt>
      <trkpt lat="43.18157" lon="5.74473">
        <ele>173.80000305176</ele>
        <time>2016-05-14T14:27:18.000Z</time>
      </trkpt>
      <trkpt lat="43.18153" lon="5.74461">
        <ele>174</ele>
        <time>2016-05-14T14:27:20.000Z</time>
      </trkpt>
      <trkpt lat="43.18149" lon="5.74449">
        <ele>174.19999694824</ele>
        <time>2016-05-14T14:27:22.000Z</time>
      </trkpt>
      <trkpt lat="43.18144" lon="5.74438">
        <ele>174.80000305176</ele>
        <time>2016-05-14T14:27:24.000Z</time>
      </trkpt>
      <trkpt lat="43.18141" lon="5.74432">
        <ele>175</ele>
        <time>2016-05-14T14:27:25.000Z</time>
      </trkpt>
      <trkpt lat="43.18134" lon="5.74419">
        <ele>175.60000610352</ele>
        <time>2016-05-14T14:27:27.000Z</time>
      </trkpt>
      <trkpt lat="43.18127" lon="5.74398">
        <ele>176.19999694824</ele>
        <time>2016-05-14T14:27:30.000Z</time>
      </trkpt>
      <trkpt lat="43.18124" lon="5.74384">
        <ele>176.19999694824</ele>
        <time>2016-05-14T14:27:32.000Z</time>
      </trkpt>
      <trkpt lat="43.18114" lon="5.74358">
        <ele>175.80000305176</ele>
        <time>2016-05-14T14:27:36.000Z</time>
      </trkpt>
      <trkpt lat="43.18103" lon="5.7434">
        <ele>176</ele>
        <time>2016-05-14T14:27:39.000Z</time>
      </trkpt>
      <trkpt lat="43.18091" lon="5.74322">
        <ele>176.60000610352</ele>
        <time>2016-05-14T14:27:42.000Z</time>
      </trkpt>
      <trkpt lat="43.18072" lon="5.74294">
        <ele>177</ele>
        <time>2016-05-14T14:27:47.000Z</time>
      </trkpt>
      <trkpt lat="43.18062" lon="5.74285">
        <ele>177.60000610352</ele>
        <time>2016-05-14T14:27:49.000Z</time>
      </trkpt>
      <trkpt lat="43.18051" lon="5.74277">
        <ele>178.19999694824</ele>
        <time>2016-05-14T14:27:51.000Z</time>
      </trkpt>
      <trkpt lat="43.1804" lon="5.74269">
        <ele>179</ele>
        <time>2016-05-14T14:27:53.000Z</time>
      </trkpt>
      <trkpt lat="43.18036" lon="5.74263">
        <ele>179.19999694824</ele>
        <time>2016-05-14T14:27:54.000Z</time>
      </trkpt>
      <trkpt lat="43.18004" lon="5.74226">
        <ele>180.60000610352</ele>
        <time>2016-05-14T14:28:01.000Z</time>
      </trkpt>
      <trkpt lat="43.18001" lon="5.74219">
        <ele>180.80000305176</ele>
        <time>2016-05-14T14:28:02.000Z</time>
      </trkpt>
      <trkpt lat="43.17989" lon="5.74184">
        <ele>181.80000305176</ele>
        <time>2016-05-14T14:28:07.000Z</time>
      </trkpt>
      <trkpt lat="43.17985" lon="5.74171">
        <ele>182</ele>
        <time>2016-05-14T14:28:09.000Z</time>
      </trkpt>
      <trkpt lat="43.17978" lon="5.74146">
        <ele>182.19999694824</ele>
        <time>2016-05-14T14:28:13.000Z</time>
      </trkpt>
      <trkpt lat="43.17974" lon="5.74134">
        <ele>182.60000610352</ele>
        <time>2016-05-14T14:28:15.000Z</time>
      </trkpt>
      <trkpt lat="43.17971" lon="5.74129">
        <ele>183.19999694824</ele>
        <time>2016-05-14T14:28:16.000Z</time>
      </trkpt>
      <trkpt lat="43.17967" lon="5.74125">
        <ele>183.60000610352</ele>
        <time>2016-05-14T14:28:17.000Z</time>
      </trkpt>
      <trkpt lat="43.1796" lon="5.74118">
        <ele>184.80000305176</ele>
        <time>2016-05-14T14:28:19.000Z</time>
      </trkpt>
      <trkpt lat="43.17955" lon="5.74115">
        <ele>185.60000610352</ele>
        <time>2016-05-14T14:28:20.000Z</time>
      </trkpt>
      <trkpt lat="43.17947" lon="5.74108">
        <ele>186.80000305176</ele>
        <time>2016-05-14T14:28:22.000Z</time>
      </trkpt>
      <trkpt lat="43.17934" lon="5.741">
        <ele>189</ele>
        <time>2016-05-14T14:28:25.000Z</time>
      </trkpt>
      <trkpt lat="43.1792" lon="5.74095">
        <ele>191.19999694824</ele>
        <time>2016-05-14T14:28:28.000Z</time>
      </trkpt>
      <trkpt lat="43.17906" lon="5.74093">
        <ele>193</ele>
        <time>2016-05-14T14:28:31.000Z</time>
      </trkpt>
      <trkpt lat="43.17897" lon="5.74091">
        <ele>194.39999389648</ele>
        <time>2016-05-14T14:28:33.000Z</time>
      </trkpt>
      <trkpt lat="43.17893" lon="5.7409">
        <ele>195</ele>
        <time>2016-05-14T14:28:34.000Z</time>
      </trkpt>
      <trkpt lat="43.17884" lon="5.74085">
        <ele>196</ele>
        <time>2016-05-14T14:28:36.000Z</time>
      </trkpt>
      <trkpt lat="43.17866" lon="5.74075">
        <ele>198.60000610352</ele>
        <time>2016-05-14T14:28:40.000Z</time>
      </trkpt>
      <trkpt lat="43.17861" lon="5.74073">
        <ele>199.19999694824</ele>
        <time>2016-05-14T14:28:41.000Z</time>
      </trkpt>
      <trkpt lat="43.17852" lon="5.74067">
        <ele>200.80000305176</ele>
        <time>2016-05-14T14:28:43.000Z</time>
      </trkpt>
      <trkpt lat="43.17829" lon="5.74051">
        <ele>204.19999694824</ele>
        <time>2016-05-14T14:28:48.000Z</time>
      </trkpt>
      <trkpt lat="43.17821" lon="5.74045">
        <ele>204.80000305176</ele>
        <time>2016-05-14T14:28:50.000Z</time>
      </trkpt>
      <trkpt lat="43.17817" lon="5.74043">
        <ele>205.39999389648</ele>
        <time>2016-05-14T14:28:51.000Z</time>
      </trkpt>
      <trkpt lat="43.17809" lon="5.74038">
        <ele>206.39999389648</ele>
        <time>2016-05-14T14:28:53.000Z</time>
      </trkpt>
      <trkpt lat="43.17804" lon="5.74036">
        <ele>206.80000305176</ele>
        <time>2016-05-14T14:28:54.000Z</time>
      </trkpt>
      <trkpt lat="43.17797" lon="5.74031">
        <ele>207.60000610352</ele>
        <time>2016-05-14T14:28:56.000Z</time>
      </trkpt>
      <trkpt lat="43.17793" lon="5.74029">
        <ele>208</ele>
        <time>2016-05-14T14:28:58.000Z</time>
      </trkpt>
      <trkpt lat="43.17791" lon="5.74028">
        <ele>208.19999694824</ele>
        <time>2016-05-14T14:29:00.000Z</time>
      </trkpt>
      <trkpt lat="43.1779" lon="5.74028">
        <ele>208.39999389648</ele>
        <time>2016-05-14T14:30:14.000Z</time>
      </trkpt>
      <trkpt lat="43.17776" lon="5.7402">
        <ele>210</ele>
        <time>2016-05-14T14:30:17.000Z</time>
      </trkpt>
      <trkpt lat="43.17758" lon="5.74012">
        <ele>212.39999389648</ele>
        <time>2016-05-14T14:30:21.000Z</time>
      </trkpt>
      <trkpt lat="43.17754" lon="5.74011">
        <ele>212.80000305176</ele>
        <time>2016-05-14T14:30:22.000Z</time>
      </trkpt>
      <trkpt lat="43.17749" lon="5.74009">
        <ele>213</ele>
        <time>2016-05-14T14:30:23.000Z</time>
      </trkpt>
      <trkpt lat="43.1774" lon="5.74006">
        <ele>213.39999389648</ele>
        <time>2016-05-14T14:30:25.000Z</time>
      </trkpt>
      <trkpt lat="43.17736" lon="5.74005">
        <ele>213.80000305176</ele>
        <time>2016-05-14T14:30:26.000Z</time>
      </trkpt>
      <trkpt lat="43.17731" lon="5.74005">
        <ele>214.39999389648</ele>
        <time>2016-05-14T14:30:27.000Z</time>
      </trkpt>
      <trkpt lat="43.17722" lon="5.74006">
        <ele>216.19999694824</ele>
        <time>2016-05-14T14:30:29.000Z</time>
      </trkpt>
      <trkpt lat="43.17717" lon="5.74008">
        <ele>217.19999694824</ele>
        <time>2016-05-14T14:30:30.000Z</time>
      </trkpt>
      <trkpt lat="43.17713" lon="5.7401">
        <ele>218</ele>
        <time>2016-05-14T14:30:31.000Z</time>
      </trkpt>
      <trkpt lat="43.17708" lon="5.7401">
        <ele>218.39999389648</ele>
        <time>2016-05-14T14:30:32.000Z</time>
      </trkpt>
      <trkpt lat="43.17697" lon="5.74011">
        <ele>219.39999389648</ele>
        <time>2016-05-14T14:30:34.000Z</time>
      </trkpt>
      <trkpt lat="43.17692" lon="5.7401">
        <ele>219.60000610352</ele>
        <time>2016-05-14T14:30:35.000Z</time>
      </trkpt>
      <trkpt lat="43.17687" lon="5.7401">
        <ele>220</ele>
        <time>2016-05-14T14:30:36.000Z</time>
      </trkpt>
      <trkpt lat="43.17681" lon="5.7401">
        <ele>220.39999389648</ele>
        <time>2016-05-14T14:30:37.000Z</time>
      </trkpt>
      <trkpt lat="43.17664" lon="5.74007">
        <ele>217.80000305176</ele>
        <time>2016-05-14T14:30:41.000Z</time>
      </trkpt>
      <trkpt lat="43.1766" lon="5.74006">
        <ele>217</ele>
        <time>2016-05-14T14:30:42.000Z</time>
      </trkpt>
      <trkpt lat="43.17653" lon="5.74004">
        <ele>215.60000610352</ele>
        <time>2016-05-14T14:30:44.000Z</time>
      </trkpt>
      <trkpt lat="43.17644" lon="5.74004">
        <ele>214.39999389648</ele>
        <time>2016-05-14T14:30:46.000Z</time>
      </trkpt>
      <trkpt lat="43.17637" lon="5.74004">
        <ele>213.19999694824</ele>
        <time>2016-05-14T14:30:48.000Z</time>
      </trkpt>
      <trkpt lat="43.17633" lon="5.74004">
        <ele>212.60000610352</ele>
        <time>2016-05-14T14:30:49.000Z</time>
      </trkpt>
      <trkpt lat="43.17627" lon="5.7401">
        <ele>212.60000610352</ele>
        <time>2016-05-14T14:30:51.000Z</time>
      </trkpt>
      <trkpt lat="43.17625" lon="5.74015">
        <ele>212.80000305176</ele>
        <time>2016-05-14T14:30:52.000Z</time>
      </trkpt>
      <trkpt lat="43.17625" lon="5.74042">
        <ele>216.19999694824</ele>
        <time>2016-05-14T14:30:56.000Z</time>
      </trkpt>
      <trkpt lat="43.17625" lon="5.7405">
        <ele>217.39999389648</ele>
        <time>2016-05-14T14:30:57.000Z</time>
      </trkpt>
      <trkpt lat="43.17625" lon="5.74073">
        <ele>221.80000305176</ele>
        <time>2016-05-14T14:31:00.000Z</time>
      </trkpt>
      <trkpt lat="43.17623" lon="5.7408">
        <ele>223</ele>
        <time>2016-05-14T14:31:01.000Z</time>
      </trkpt>
      <trkpt lat="43.17611" lon="5.74091">
        <ele>225.39999389648</ele>
        <time>2016-05-14T14:31:04.000Z</time>
      </trkpt>
      <trkpt lat="43.1759" lon="5.74093">
        <ele>224.60000610352</ele>
        <time>2016-05-14T14:31:08.000Z</time>
      </trkpt>
      <trkpt lat="43.17579" lon="5.74096">
        <ele>225.60000610352</ele>
        <time>2016-05-14T14:31:10.000Z</time>
      </trkpt>
      <trkpt lat="43.17569" lon="5.74101">
        <ele>227.19999694824</ele>
        <time>2016-05-14T14:31:12.000Z</time>
      </trkpt>
      <trkpt lat="43.17564" lon="5.74103">
        <ele>228</ele>
        <time>2016-05-14T14:31:13.000Z</time>
      </trkpt>
      <trkpt lat="43.17559" lon="5.74107">
        <ele>229</ele>
        <time>2016-05-14T14:31:14.000Z</time>
      </trkpt>
      <trkpt lat="43.17534" lon="5.74121">
        <ele>232</ele>
        <time>2016-05-14T14:31:19.000Z</time>
      </trkpt>
      <trkpt lat="43.17513" lon="5.74125">
        <ele>232.39999389648</ele>
        <time>2016-05-14T14:31:23.000Z</time>
      </trkpt>
      <trkpt lat="43.17497" lon="5.74126">
        <ele>234.19999694824</ele>
        <time>2016-05-14T14:31:26.000Z</time>
      </trkpt>
      <trkpt lat="43.17486" lon="5.74128">
        <ele>235.19999694824</ele>
        <time>2016-05-14T14:31:28.000Z</time>
      </trkpt>
      <trkpt lat="43.17481" lon="5.74128">
        <ele>235.80000305176</ele>
        <time>2016-05-14T14:31:29.000Z</time>
      </trkpt>
      <trkpt lat="43.17469" lon="5.74127">
        <ele>236.19999694824</ele>
        <time>2016-05-14T14:31:31.000Z</time>
      </trkpt>
      <trkpt lat="43.17464" lon="5.74125">
        <ele>236.19999694824</ele>
        <time>2016-05-14T14:31:32.000Z</time>
      </trkpt>
      <trkpt lat="43.17459" lon="5.74122">
        <ele>235.80000305176</ele>
        <time>2016-05-14T14:31:33.000Z</time>
      </trkpt>
      <trkpt lat="43.17449" lon="5.74117">
        <ele>235</ele>
        <time>2016-05-14T14:31:35.000Z</time>
      </trkpt>
      <trkpt lat="43.17445" lon="5.74114">
        <ele>234.80000305176</ele>
        <time>2016-05-14T14:31:36.000Z</time>
      </trkpt>
      <trkpt lat="43.17441" lon="5.74112">
        <ele>234.39999389648</ele>
        <time>2016-05-14T14:31:37.000Z</time>
      </trkpt>
      <trkpt lat="43.17434" lon="5.7411">
        <ele>234.39999389648</ele>
        <time>2016-05-14T14:31:39.000Z</time>
      </trkpt>
      <trkpt lat="43.17425" lon="5.74109">
        <ele>234.39999389648</ele>
        <time>2016-05-14T14:31:41.000Z</time>
      </trkpt>
      <trkpt lat="43.17416" lon="5.74107">
        <ele>233.60000610352</ele>
        <time>2016-05-14T14:31:43.000Z</time>
      </trkpt>
      <trkpt lat="43.17407" lon="5.74106">
        <ele>233</ele>
        <time>2016-05-14T14:31:45.000Z</time>
      </trkpt>
      <trkpt lat="43.17399" lon="5.74106">
        <ele>232.80000305176</ele>
        <time>2016-05-14T14:31:47.000Z</time>
      </trkpt>
      <trkpt lat="43.17394" lon="5.74106">
        <ele>232.60000610352</ele>
        <time>2016-05-14T14:31:48.000Z</time>
      </trkpt>
      <trkpt lat="43.17389" lon="5.74107">
        <ele>232.60000610352</ele>
        <time>2016-05-14T14:31:49.000Z</time>
      </trkpt>
      <trkpt lat="43.17364" lon="5.74111">
        <ele>233</ele>
        <time>2016-05-14T14:31:54.000Z</time>
      </trkpt>
      <trkpt lat="43.17357" lon="5.74112">
        <ele>233</ele>
        <time>2016-05-14T14:31:55.000Z</time>
      </trkpt>
      <trkpt lat="43.17324" lon="5.74116">
        <ele>232.80000305176</ele>
        <time>2016-05-14T14:31:59.000Z</time>
      </trkpt>
      <trkpt lat="43.17314" lon="5.74117">
        <ele>231.39999389648</ele>
        <time>2016-05-14T14:32:00.000Z</time>
      </trkpt>
      <trkpt lat="43.17296" lon="5.74121">
        <ele>229</ele>
        <time>2016-05-14T14:32:02.000Z</time>
      </trkpt>
      <trkpt lat="43.1728" lon="5.74128">
        <ele>227</ele>
        <time>2016-05-14T14:32:04.000Z</time>
      </trkpt>
      <trkpt lat="43.17273" lon="5.74134">
        <ele>226.39999389648</ele>
        <time>2016-05-14T14:32:05.000Z</time>
      </trkpt>
      <trkpt lat="43.17259" lon="5.7415">
        <ele>226.19999694824</ele>
        <time>2016-05-14T14:32:07.000Z</time>
      </trkpt>
      <trkpt lat="43.17251" lon="5.74158">
        <ele>226.80000305176</ele>
        <time>2016-05-14T14:32:08.000Z</time>
      </trkpt>
      <trkpt lat="43.17236" lon="5.74171">
        <ele>227.39999389648</ele>
        <time>2016-05-14T14:32:10.000Z</time>
      </trkpt>
      <trkpt lat="43.17214" lon="5.74187">
        <ele>226.60000610352</ele>
        <time>2016-05-14T14:32:13.000Z</time>
      </trkpt>
      <trkpt lat="43.1718" lon="5.74214">
        <ele>220.39999389648</ele>
        <time>2016-05-14T14:32:19.000Z</time>
      </trkpt>
      <trkpt lat="43.17176" lon="5.7422">
        <ele>220.39999389648</ele>
        <time>2016-05-14T14:32:20.000Z</time>
      </trkpt>
      <trkpt lat="43.17166" lon="5.74239">
        <ele>220.39999389648</ele>
        <time>2016-05-14T14:32:23.000Z</time>
      </trkpt>
      <trkpt lat="43.17143" lon="5.74274">
        <ele>220</ele>
        <time>2016-05-14T14:32:28.000Z</time>
      </trkpt>
      <trkpt lat="43.17134" lon="5.74289">
        <ele>216</ele>
        <time>2016-05-14T14:32:30.000Z</time>
      </trkpt>
      <trkpt lat="43.17122" lon="5.7431">
        <ele>212.19999694824</ele>
        <time>2016-05-14T14:32:33.000Z</time>
      </trkpt>
      <trkpt lat="43.17114" lon="5.74323">
        <ele>212.39999389648</ele>
        <time>2016-05-14T14:32:35.000Z</time>
      </trkpt>
      <trkpt lat="43.17108" lon="5.74335">
        <ele>209.60000610352</ele>
        <time>2016-05-14T14:32:37.000Z</time>
      </trkpt>
      <trkpt lat="43.171" lon="5.74346">
        <ele>206.39999389648</ele>
        <time>2016-05-14T14:32:39.000Z</time>
      </trkpt>
      <trkpt lat="43.17095" lon="5.74352">
        <ele>204.80000305176</ele>
        <time>2016-05-14T14:32:40.000Z</time>
      </trkpt>
      <trkpt lat="43.1709" lon="5.74357">
        <ele>203.80000305176</ele>
        <time>2016-05-14T14:32:41.000Z</time>
      </trkpt>
      <trkpt lat="43.17079" lon="5.74367">
        <ele>202</ele>
        <time>2016-05-14T14:32:43.000Z</time>
      </trkpt>
      <trkpt lat="43.17067" lon="5.74375">
        <ele>199</ele>
        <time>2016-05-14T14:32:45.000Z</time>
      </trkpt>
      <trkpt lat="43.1706" lon="5.74378">
        <ele>197.60000610352</ele>
        <time>2016-05-14T14:32:46.000Z</time>
      </trkpt>
      <trkpt lat="43.17054" lon="5.74382">
        <ele>195.80000305176</ele>
        <time>2016-05-14T14:32:47.000Z</time>
      </trkpt>
      <trkpt lat="43.17042" lon="5.74392">
        <ele>193.80000305176</ele>
        <time>2016-05-14T14:32:49.000Z</time>
      </trkpt>
      <trkpt lat="43.1703" lon="5.74402">
        <ele>193.39999389648</ele>
        <time>2016-05-14T14:32:51.000Z</time>
      </trkpt>
      <trkpt lat="43.17023" lon="5.74404">
        <ele>192.60000610352</ele>
        <time>2016-05-14T14:32:52.000Z</time>
      </trkpt>
      <trkpt lat="43.17015" lon="5.74407">
        <ele>191.39999389648</ele>
        <time>2016-05-14T14:32:53.000Z</time>
      </trkpt>
      <trkpt lat="43.17005" lon="5.74408">
        <ele>190.19999694824</ele>
        <time>2016-05-14T14:32:54.000Z</time>
      </trkpt>
      <trkpt lat="43.16994" lon="5.74407">
        <ele>189</ele>
        <time>2016-05-14T14:32:55.000Z</time>
      </trkpt>
      <trkpt lat="43.16984" lon="5.74406">
        <ele>187.80000305176</ele>
        <time>2016-05-14T14:32:56.000Z</time>
      </trkpt>
      <trkpt lat="43.16973" lon="5.74405">
        <ele>186.60000610352</ele>
        <time>2016-05-14T14:32:57.000Z</time>
      </trkpt>
      <trkpt lat="43.16961" lon="5.74404">
        <ele>185.19999694824</ele>
        <time>2016-05-14T14:32:58.000Z</time>
      </trkpt>
      <trkpt lat="43.16951" lon="5.74405">
        <ele>184</ele>
        <time>2016-05-14T14:32:59.000Z</time>
      </trkpt>
      <trkpt lat="43.1694" lon="5.74405">
        <ele>182.60000610352</ele>
        <time>2016-05-14T14:33:00.000Z</time>
      </trkpt>
      <trkpt lat="43.16922" lon="5.74408">
        <ele>179.39999389648</ele>
        <time>2016-05-14T14:33:02.000Z</time>
      </trkpt>
      <trkpt lat="43.16897" lon="5.74413">
        <ele>175</ele>
        <time>2016-05-14T14:33:05.000Z</time>
      </trkpt>
      <trkpt lat="43.16888" lon="5.74412">
        <ele>173.60000610352</ele>
        <time>2016-05-14T14:33:06.000Z</time>
      </trkpt>
      <trkpt lat="43.1688" lon="5.74412">
        <ele>172.39999389648</ele>
        <time>2016-05-14T14:33:07.000Z</time>
      </trkpt>
      <trkpt lat="43.16873" lon="5.74412">
        <ele>171.19999694824</ele>
        <time>2016-05-14T14:33:08.000Z</time>
      </trkpt>
      <trkpt lat="43.16867" lon="5.74412">
        <ele>170</ele>
        <time>2016-05-14T14:33:09.000Z</time>
      </trkpt>
      <trkpt lat="43.16862" lon="5.74412">
        <ele>169</ele>
        <time>2016-05-14T14:33:10.000Z</time>
      </trkpt>
      <trkpt lat="43.16856" lon="5.7441">
        <ele>167.80000305176</ele>
        <time>2016-05-14T14:33:11.000Z</time>
      </trkpt>
      <trkpt lat="43.1685" lon="5.74407">
        <ele>166.60000610352</ele>
        <time>2016-05-14T14:33:12.000Z</time>
      </trkpt>
      <trkpt lat="43.16845" lon="5.74403">
        <ele>165.80000305176</ele>
        <time>2016-05-14T14:33:13.000Z</time>
      </trkpt>
      <trkpt lat="43.1684" lon="5.74399">
        <ele>165.19999694824</ele>
        <time>2016-05-14T14:33:14.000Z</time>
      </trkpt>
      <trkpt lat="43.16834" lon="5.74394">
        <ele>164.39999389648</ele>
        <time>2016-05-14T14:33:15.000Z</time>
      </trkpt>
      <trkpt lat="43.16827" lon="5.7439">
        <ele>163.60000610352</ele>
        <time>2016-05-14T14:33:16.000Z</time>
      </trkpt>
      <trkpt lat="43.16818" lon="5.74387">
        <ele>162.60000610352</ele>
        <time>2016-05-14T14:33:17.000Z</time>
      </trkpt>
      <trkpt lat="43.16809" lon="5.74385">
        <ele>161.60000610352</ele>
        <time>2016-05-14T14:33:18.000Z</time>
      </trkpt>
      <trkpt lat="43.16799" lon="5.74383">
        <ele>160.60000610352</ele>
        <time>2016-05-14T14:33:19.000Z</time>
      </trkpt>
      <trkpt lat="43.1678" lon="5.74379">
        <ele>158.39999389648</ele>
        <time>2016-05-14T14:33:21.000Z</time>
      </trkpt>
      <trkpt lat="43.1676" lon="5.74375">
        <ele>156.60000610352</ele>
        <time>2016-05-14T14:33:23.000Z</time>
      </trkpt>
      <trkpt lat="43.16751" lon="5.74373">
        <ele>157.19999694824</ele>
        <time>2016-05-14T14:33:24.000Z</time>
      </trkpt>
      <trkpt lat="43.16742" lon="5.74371">
        <ele>157.60000610352</ele>
        <time>2016-05-14T14:33:25.000Z</time>
      </trkpt>
      <trkpt lat="43.16725" lon="5.74373">
        <ele>157.19999694824</ele>
        <time>2016-05-14T14:33:27.000Z</time>
      </trkpt>
      <trkpt lat="43.16717" lon="5.74375">
        <ele>157</ele>
        <time>2016-05-14T14:33:28.000Z</time>
      </trkpt>
      <trkpt lat="43.16709" lon="5.74378">
        <ele>156.39999389648</ele>
        <time>2016-05-14T14:33:29.000Z</time>
      </trkpt>
      <trkpt lat="43.16692" lon="5.74383">
        <ele>155.80000305176</ele>
        <time>2016-05-14T14:33:31.000Z</time>
      </trkpt>
      <trkpt lat="43.16667" lon="5.74387">
        <ele>153.80000305176</ele>
        <time>2016-05-14T14:33:34.000Z</time>
      </trkpt>
      <trkpt lat="43.1665" lon="5.74387">
        <ele>151.39999389648</ele>
        <time>2016-05-14T14:33:36.000Z</time>
      </trkpt>
      <trkpt lat="43.16633" lon="5.74385">
        <ele>149.39999389648</ele>
        <time>2016-05-14T14:33:38.000Z</time>
      </trkpt>
      <trkpt lat="43.16625" lon="5.74382">
        <ele>148.60000610352</ele>
        <time>2016-05-14T14:33:39.000Z</time>
      </trkpt>
      <trkpt lat="43.16617" lon="5.74379">
        <ele>148</ele>
        <time>2016-05-14T14:33:40.000Z</time>
      </trkpt>
      <trkpt lat="43.16598" lon="5.74368">
        <ele>146.80000305176</ele>
        <time>2016-05-14T14:33:43.000Z</time>
      </trkpt>
      <trkpt lat="43.16593" lon="5.74363">
        <ele>146.60000610352</ele>
        <time>2016-05-14T14:33:44.000Z</time>
      </trkpt>
      <trkpt lat="43.16585" lon="5.74347">
        <ele>147.80000305176</ele>
        <time>2016-05-14T14:33:46.000Z</time>
      </trkpt>
      <trkpt lat="43.1658" lon="5.7433">
        <ele>149.19999694824</ele>
        <time>2016-05-14T14:33:48.000Z</time>
      </trkpt>
      <trkpt lat="43.16576" lon="5.74324">
        <ele>149.39999389648</ele>
        <time>2016-05-14T14:33:49.000Z</time>
      </trkpt>
      <trkpt lat="43.16572" lon="5.74319">
        <ele>149.39999389648</ele>
        <time>2016-05-14T14:33:50.000Z</time>
      </trkpt>
      <trkpt lat="43.16558" lon="5.74305">
        <ele>149.39999389648</ele>
        <time>2016-05-14T14:33:53.000Z</time>
      </trkpt>
      <trkpt lat="43.16544" lon="5.74293">
        <ele>149.39999389648</ele>
        <time>2016-05-14T14:33:56.000Z</time>
      </trkpt>
      <trkpt lat="43.16514" lon="5.74269">
        <ele>148.39999389648</ele>
        <time>2016-05-14T14:34:03.000Z</time>
      </trkpt>
      <trkpt lat="43.16503" lon="5.74265">
        <ele>149.39999389648</ele>
        <time>2016-05-14T14:34:05.000Z</time>
      </trkpt>
      <trkpt lat="43.16489" lon="5.74271">
        <ele>150.19999694824</ele>
        <time>2016-05-14T14:34:07.000Z</time>
      </trkpt>
      <trkpt lat="43.16482" lon="5.74274">
        <ele>150.39999389648</ele>
        <time>2016-05-14T14:34:08.000Z</time>
      </trkpt>
      <trkpt lat="43.1647" lon="5.74285">
        <ele>149.19999694824</ele>
        <time>2016-05-14T14:34:10.000Z</time>
      </trkpt>
      <trkpt lat="43.16464" lon="5.74292">
        <ele>148.39999389648</ele>
        <time>2016-05-14T14:34:11.000Z</time>
      </trkpt>
      <trkpt lat="43.16459" lon="5.74298">
        <ele>147.39999389648</ele>
        <time>2016-05-14T14:34:12.000Z</time>
      </trkpt>
      <trkpt lat="43.16454" lon="5.74305">
        <ele>146.60000610352</ele>
        <time>2016-05-14T14:34:13.000Z</time>
      </trkpt>
      <trkpt lat="43.16449" lon="5.74312">
        <ele>146.39999389648</ele>
        <time>2016-05-14T14:34:14.000Z</time>
      </trkpt>
      <trkpt lat="43.16441" lon="5.74328">
        <ele>144.60000610352</ele>
        <time>2016-05-14T14:34:16.000Z</time>
      </trkpt>
      <trkpt lat="43.16435" lon="5.74342">
        <ele>142</ele>
        <time>2016-05-14T14:34:18.000Z</time>
      </trkpt>
      <trkpt lat="43.16424" lon="5.7436">
        <ele>139.19999694824</ele>
        <time>2016-05-14T14:34:21.000Z</time>
      </trkpt>
      <trkpt lat="43.16419" lon="5.74366">
        <ele>139</ele>
        <time>2016-05-14T14:34:22.000Z</time>
      </trkpt>
      <trkpt lat="43.164" lon="5.74384">
        <ele>137</ele>
        <time>2016-05-14T14:34:26.000Z</time>
      </trkpt>
      <trkpt lat="43.16391" lon="5.74396">
        <ele>136.60000610352</ele>
        <time>2016-05-14T14:34:28.000Z</time>
      </trkpt>
      <trkpt lat="43.16378" lon="5.74415">
        <ele>136.80000305176</ele>
        <time>2016-05-14T14:34:31.000Z</time>
      </trkpt>
      <trkpt lat="43.16352" lon="5.74449">
        <ele>133.60000610352</ele>
        <time>2016-05-14T14:34:36.000Z</time>
      </trkpt>
      <trkpt lat="43.16348" lon="5.74454">
        <ele>133</ele>
        <time>2016-05-14T14:34:37.000Z</time>
      </trkpt>
      <trkpt lat="43.16343" lon="5.7446">
        <ele>132.39999389648</ele>
        <time>2016-05-14T14:34:38.000Z</time>
      </trkpt>
      <trkpt lat="43.16337" lon="5.74467">
        <ele>131.60000610352</ele>
        <time>2016-05-14T14:34:40.000Z</time>
      </trkpt>
      <trkpt lat="43.16334" lon="5.7447">
        <ele>130.80000305176</ele>
        <time>2016-05-14T14:34:41.000Z</time>
      </trkpt>
      <trkpt lat="43.16328" lon="5.74478">
        <ele>130.39999389648</ele>
        <time>2016-05-14T14:34:43.000Z</time>
      </trkpt>
      <trkpt lat="43.16315" lon="5.74493">
        <ele>129.39999389648</ele>
        <time>2016-05-14T14:34:46.000Z</time>
      </trkpt>
      <trkpt lat="43.16309" lon="5.74498">
        <ele>129.19999694824</ele>
        <time>2016-05-14T14:34:47.000Z</time>
      </trkpt>
      <trkpt lat="43.16302" lon="5.74503">
        <ele>128.80000305176</ele>
        <time>2016-05-14T14:34:48.000Z</time>
      </trkpt>
      <trkpt lat="43.16296" lon="5.74506">
        <ele>128.60000610352</ele>
        <time>2016-05-14T14:34:49.000Z</time>
      </trkpt>
      <trkpt lat="43.16282" lon="5.74514">
        <ele>126</ele>
        <time>2016-05-14T14:34:51.000Z</time>
      </trkpt>
      <trkpt lat="43.16275" lon="5.74518">
        <ele>124.80000305176</ele>
        <time>2016-05-14T14:34:52.000Z</time>
      </trkpt>
      <trkpt lat="43.16261" lon="5.74525">
        <ele>122.59999847412</ele>
        <time>2016-05-14T14:34:54.000Z</time>
      </trkpt>
      <trkpt lat="43.16237" lon="5.74531">
        <ele>121.59999847412</ele>
        <time>2016-05-14T14:34:57.000Z</time>
      </trkpt>
      <trkpt lat="43.1622" lon="5.74535">
        <ele>120</ele>
        <time>2016-05-14T14:34:59.000Z</time>
      </trkpt>
      <trkpt lat="43.16206" lon="5.74542">
        <ele>118.19999694824</ele>
        <time>2016-05-14T14:35:01.000Z</time>
      </trkpt>
      <trkpt lat="43.16183" lon="5.74551">
        <ele>115.59999847412</ele>
        <time>2016-05-14T14:35:04.000Z</time>
      </trkpt>
      <trkpt lat="43.16167" lon="5.74556">
        <ele>114.19999694824</ele>
        <time>2016-05-14T14:35:06.000Z</time>
      </trkpt>
      <trkpt lat="43.16142" lon="5.7456">
        <ele>112.19999694824</ele>
        <time>2016-05-14T14:35:09.000Z</time>
      </trkpt>
      <trkpt lat="43.16133" lon="5.7456">
        <ele>111.40000152588</ele>
        <time>2016-05-14T14:35:10.000Z</time>
      </trkpt>
      <trkpt lat="43.16124" lon="5.74559">
        <ele>110.59999847412</ele>
        <time>2016-05-14T14:35:11.000Z</time>
      </trkpt>
      <trkpt lat="43.16107" lon="5.74557">
        <ele>109.19999694824</ele>
        <time>2016-05-14T14:35:13.000Z</time>
      </trkpt>
      <trkpt lat="43.16091" lon="5.74555">
        <ele>108</ele>
        <time>2016-05-14T14:35:15.000Z</time>
      </trkpt>
      <trkpt lat="43.16082" lon="5.74553">
        <ele>108.19999694824</ele>
        <time>2016-05-14T14:35:16.000Z</time>
      </trkpt>
      <trkpt lat="43.16065" lon="5.7455">
        <ele>109</ele>
        <time>2016-05-14T14:35:18.000Z</time>
      </trkpt>
      <trkpt lat="43.16048" lon="5.74547">
        <ele>109.59999847412</ele>
        <time>2016-05-14T14:35:20.000Z</time>
      </trkpt>
      <trkpt lat="43.16032" lon="5.74547">
        <ele>109.80000305176</ele>
        <time>2016-05-14T14:35:22.000Z</time>
      </trkpt>
      <trkpt lat="43.16024" lon="5.74546">
        <ele>109.80000305176</ele>
        <time>2016-05-14T14:35:23.000Z</time>
      </trkpt>
      <trkpt lat="43.16008" lon="5.74546">
        <ele>110.19999694824</ele>
        <time>2016-05-14T14:35:25.000Z</time>
      </trkpt>
      <trkpt lat="43.15994" lon="5.74545">
        <ele>111</ele>
        <time>2016-05-14T14:35:27.000Z</time>
      </trkpt>
      <trkpt lat="43.15988" lon="5.74544">
        <ele>111.19999694824</ele>
        <time>2016-05-14T14:35:28.000Z</time>
      </trkpt>
      <trkpt lat="43.15963" lon="5.7454">
        <ele>112.40000152588</ele>
        <time>2016-05-14T14:35:33.000Z</time>
      </trkpt>
      <trkpt lat="43.15949" lon="5.74542">
        <ele>111.80000305176</ele>
        <time>2016-05-14T14:35:36.000Z</time>
      </trkpt>
      <trkpt lat="43.1593" lon="5.74548">
        <ele>110</ele>
        <time>2016-05-14T14:35:40.000Z</time>
      </trkpt>
      <trkpt lat="43.15893" lon="5.74568">
        <ele>109.80000305176</ele>
        <time>2016-05-14T14:35:48.000Z</time>
      </trkpt>
      <trkpt lat="43.15888" lon="5.7457">
        <ele>110.19999694824</ele>
        <time>2016-05-14T14:35:49.000Z</time>
      </trkpt>
      <trkpt lat="43.15863" lon="5.74573">
        <ele>111.59999847412</ele>
        <time>2016-05-14T14:35:54.000Z</time>
      </trkpt>
      <trkpt lat="43.15838" lon="5.74574">
        <ele>110.40000152588</ele>
        <time>2016-05-14T14:35:59.000Z</time>
      </trkpt>
      <trkpt lat="43.15833" lon="5.74572">
        <ele>110.80000305176</ele>
        <time>2016-05-14T14:36:00.000Z</time>
      </trkpt>
      <trkpt lat="43.15821" lon="5.74568">
        <ele>111.80000305176</ele>
        <time>2016-05-14T14:36:02.000Z</time>
      </trkpt>
      <trkpt lat="43.1581" lon="5.7457">
        <ele>112</ele>
        <time>2016-05-14T14:36:04.000Z</time>
      </trkpt>
      <trkpt lat="43.15805" lon="5.74573">
        <ele>111.59999847412</ele>
        <time>2016-05-14T14:36:05.000Z</time>
      </trkpt>
      <trkpt lat="43.1579" lon="5.7459">
        <ele>110.19999694824</ele>
        <time>2016-05-14T14:36:08.000Z</time>
      </trkpt>
      <trkpt lat="43.15786" lon="5.74596">
        <ele>110</ele>
        <time>2016-05-14T14:36:09.000Z</time>
      </trkpt>
      <trkpt lat="43.15782" lon="5.746">
        <ele>109.80000305176</ele>
        <time>2016-05-14T14:36:10.000Z</time>
      </trkpt>
      <trkpt lat="43.1577" lon="5.74613">
        <ele>109.59999847412</ele>
        <time>2016-05-14T14:36:13.000Z</time>
      </trkpt>
      <trkpt lat="43.15749" lon="5.74635">
        <ele>107.80000305176</ele>
        <time>2016-05-14T14:36:19.000Z</time>
      </trkpt>
      <trkpt lat="43.1574" lon="5.74641">
        <ele>107.40000152588</ele>
        <time>2016-05-14T14:36:21.000Z</time>
      </trkpt>
      <trkpt lat="43.15724" lon="5.7464">
        <ele>107</ele>
        <time>2016-05-14T14:36:24.000Z</time>
      </trkpt>
      <trkpt lat="43.15706" lon="5.74625">
        <ele>106.80000305176</ele>
        <time>2016-05-14T14:36:28.000Z</time>
      </trkpt>
      <trkpt lat="43.15703" lon="5.7462">
        <ele>106.80000305176</ele>
        <time>2016-05-14T14:36:29.000Z</time>
      </trkpt>
      <trkpt lat="43.15693" lon="5.74595">
        <ele>106.80000305176</ele>
        <time>2016-05-14T14:36:33.000Z</time>
      </trkpt>
      <trkpt lat="43.1569" lon="5.74581">
        <ele>107</ele>
        <time>2016-05-14T14:36:35.000Z</time>
      </trkpt>
      <trkpt lat="43.15687" lon="5.74558">
        <ele>107.59999847412</ele>
        <time>2016-05-14T14:36:38.000Z</time>
      </trkpt>
      <trkpt lat="43.15686" lon="5.74515">
        <ele>108.80000305176</ele>
        <time>2016-05-14T14:36:44.000Z</time>
      </trkpt>
      <trkpt lat="43.15685" lon="5.74508">
        <ele>108.80000305176</ele>
        <time>2016-05-14T14:36:45.000Z</time>
      </trkpt>
      <trkpt lat="43.15682" lon="5.74495">
        <ele>109</ele>
        <time>2016-05-14T14:36:47.000Z</time>
      </trkpt>
      <trkpt lat="43.15676" lon="5.74475">
        <ele>109</ele>
        <time>2016-05-14T14:36:50.000Z</time>
      </trkpt>
      <trkpt lat="43.15672" lon="5.74469">
        <ele>109.19999694824</ele>
        <time>2016-05-14T14:36:51.000Z</time>
      </trkpt>
      <trkpt lat="43.15655" lon="5.74444">
        <ele>110.80000305176</ele>
        <time>2016-05-14T14:36:55.000Z</time>
      </trkpt>
      <trkpt lat="43.15647" lon="5.74434">
        <ele>111.40000152588</ele>
        <time>2016-05-14T14:36:57.000Z</time>
      </trkpt>
      <trkpt lat="43.15632" lon="5.74425">
        <ele>112.40000152588</ele>
        <time>2016-05-14T14:37:01.000Z</time>
      </trkpt>
      <trkpt lat="43.15629" lon="5.74424">
        <ele>112.40000152588</ele>
        <time>2016-05-14T14:37:02.000Z</time>
      </trkpt>
      <trkpt lat="43.15626" lon="5.74425">
        <ele>112.40000152588</ele>
        <time>2016-05-14T14:37:03.000Z</time>
      </trkpt>
      <trkpt lat="43.15622" lon="5.7443">
        <ele>112</ele>
        <time>2016-05-14T14:37:05.000Z</time>
      </trkpt>
      <trkpt lat="43.1562" lon="5.74435">
        <ele>111.59999847412</ele>
        <time>2016-05-14T14:37:06.000Z</time>
      </trkpt>
      <trkpt lat="43.15617" lon="5.74446">
        <ele>110.80000305176</ele>
        <time>2016-05-14T14:37:08.000Z</time>
      </trkpt>
      <trkpt lat="43.15616" lon="5.74452">
        <ele>110.40000152588</ele>
        <time>2016-05-14T14:37:09.000Z</time>
      </trkpt>
      <trkpt lat="43.15608" lon="5.7448">
        <ele>108.80000305176</ele>
        <time>2016-05-14T14:37:13.000Z</time>
      </trkpt>
      <trkpt lat="43.15602" lon="5.74494">
        <ele>107.80000305176</ele>
        <time>2016-05-14T14:37:15.000Z</time>
      </trkpt>
      <trkpt lat="43.15597" lon="5.7451">
        <ele>106.80000305176</ele>
        <time>2016-05-14T14:37:17.000Z</time>
      </trkpt>
      <trkpt lat="43.1559" lon="5.74542">
        <ele>105.19999694824</ele>
        <time>2016-05-14T14:37:21.000Z</time>
      </trkpt>
      <trkpt lat="43.15586" lon="5.74559">
        <ele>104.80000305176</ele>
        <time>2016-05-14T14:37:23.000Z</time>
      </trkpt>
      <trkpt lat="43.1558" lon="5.74598">
        <ele>104.59999847412</ele>
        <time>2016-05-14T14:37:28.000Z</time>
      </trkpt>
      <trkpt lat="43.15579" lon="5.74605">
        <ele>104.59999847412</ele>
        <time>2016-05-14T14:37:29.000Z</time>
      </trkpt>
      <trkpt lat="43.15579" lon="5.74613">
        <ele>104.40000152588</ele>
        <time>2016-05-14T14:37:30.000Z</time>
      </trkpt>
      <trkpt lat="43.15578" lon="5.7462">
        <ele>104.40000152588</ele>
        <time>2016-05-14T14:37:31.000Z</time>
      </trkpt>
      <trkpt lat="43.15575" lon="5.74634">
        <ele>103.80000305176</ele>
        <time>2016-05-14T14:37:33.000Z</time>
      </trkpt>
      <trkpt lat="43.1557" lon="5.74647">
        <ele>103.59999847412</ele>
        <time>2016-05-14T14:37:35.000Z</time>
      </trkpt>
      <trkpt lat="43.15553" lon="5.74688">
        <ele>103.19999694824</ele>
        <time>2016-05-14T14:37:41.000Z</time>
      </trkpt>
      <trkpt lat="43.1554" lon="5.74723">
        <ele>100</ele>
        <time>2016-05-14T14:37:46.000Z</time>
      </trkpt>
      <trkpt lat="43.15537" lon="5.7473">
        <ele>99.599998474121</ele>
        <time>2016-05-14T14:37:47.000Z</time>
      </trkpt>
      <trkpt lat="43.15528" lon="5.74741">
        <ele>98.400001525879</ele>
        <time>2016-05-14T14:37:49.000Z</time>
      </trkpt>
      <trkpt lat="43.15519" lon="5.74756">
        <ele>95.400001525879</ele>
        <time>2016-05-14T14:37:51.000Z</time>
      </trkpt>
      <trkpt lat="43.15515" lon="5.74765">
        <ele>93.800003051758</ele>
        <time>2016-05-14T14:37:52.000Z</time>
      </trkpt>
      <trkpt lat="43.15511" lon="5.74775">
        <ele>92</ele>
        <time>2016-05-14T14:37:53.000Z</time>
      </trkpt>
      <trkpt lat="43.15508" lon="5.74784">
        <ele>90.599998474121</ele>
        <time>2016-05-14T14:37:54.000Z</time>
      </trkpt>
      <trkpt lat="43.15502" lon="5.748">
        <ele>88.599998474121</ele>
        <time>2016-05-14T14:37:56.000Z</time>
      </trkpt>
      <trkpt lat="43.15499" lon="5.74808">
        <ele>88.400001525879</ele>
        <time>2016-05-14T14:37:57.000Z</time>
      </trkpt>
      <trkpt lat="43.15492" lon="5.74819">
        <ele>88.400001525879</ele>
        <time>2016-05-14T14:37:59.000Z</time>
      </trkpt>
      <trkpt lat="43.15483" lon="5.74826">
        <ele>89</ele>
        <time>2016-05-14T14:38:01.000Z</time>
      </trkpt>
      <trkpt lat="43.15478" lon="5.74827">
        <ele>89.800003051758</ele>
        <time>2016-05-14T14:38:02.000Z</time>
      </trkpt>
      <trkpt lat="43.15466" lon="5.74829">
        <ele>91.199996948242</ele>
        <time>2016-05-14T14:38:04.000Z</time>
      </trkpt>
      <trkpt lat="43.15461" lon="5.74832">
        <ele>91.599998474121</ele>
        <time>2016-05-14T14:38:05.000Z</time>
      </trkpt>
      <trkpt lat="43.15456" lon="5.74837">
        <ele>91.599998474121</ele>
        <time>2016-05-14T14:38:06.000Z</time>
      </trkpt>
      <trkpt lat="43.15448" lon="5.74849">
        <ele>89.599998474121</ele>
        <time>2016-05-14T14:38:08.000Z</time>
      </trkpt>
      <trkpt lat="43.15445" lon="5.74857">
        <ele>88.400001525879</ele>
        <time>2016-05-14T14:38:09.000Z</time>
      </trkpt>
      <trkpt lat="43.15442" lon="5.74865">
        <ele>87.199996948242</ele>
        <time>2016-05-14T14:38:10.000Z</time>
      </trkpt>
      <trkpt lat="43.15432" lon="5.74888">
        <ele>83.800003051758</ele>
        <time>2016-05-14T14:38:13.000Z</time>
      </trkpt>
      <trkpt lat="43.15421" lon="5.74912">
        <ele>83.400001525879</ele>
        <time>2016-05-14T14:38:16.000Z</time>
      </trkpt>
      <trkpt lat="43.1541" lon="5.74933">
        <ele>83.599998474121</ele>
        <time>2016-05-14T14:38:19.000Z</time>
      </trkpt>
      <trkpt lat="43.15397" lon="5.7496">
        <ele>82.199996948242</ele>
        <time>2016-05-14T14:38:23.000Z</time>
      </trkpt>
      <trkpt lat="43.15388" lon="5.74977">
        <ele>81.400001525879</ele>
        <time>2016-05-14T14:38:26.000Z</time>
      </trkpt>
      <trkpt lat="43.15383" lon="5.74985">
        <ele>81.599998474121</ele>
        <time>2016-05-14T14:38:28.000Z</time>
      </trkpt>
      <trkpt lat="43.15376" lon="5.74994">
        <ele>82</ele>
        <time>2016-05-14T14:38:32.000Z</time>
      </trkpt>
      <trkpt lat="43.15369" lon="5.75002">
        <ele>82</ele>
        <time>2016-05-14T14:38:38.000Z</time>
      </trkpt>
      <trkpt lat="43.15368" lon="5.75004">
        <ele>82</ele>
        <time>2016-05-14T14:39:58.000Z</time>
      </trkpt>
      <trkpt lat="43.15368" lon="5.75007">
        <ele>81.599998474121</ele>
        <time>2016-05-14T14:39:59.000Z</time>
      </trkpt>
      <trkpt lat="43.15358" lon="5.75023">
        <ele>80.400001525879</ele>
        <time>2016-05-14T14:40:03.000Z</time>
      </trkpt>
      <trkpt lat="43.15336" lon="5.75052">
        <ele>78.199996948242</ele>
        <time>2016-05-14T14:40:09.000Z</time>
      </trkpt>
      <trkpt lat="43.1533" lon="5.75061">
        <ele>77.400001525879</ele>
        <time>2016-05-14T14:40:11.000Z</time>
      </trkpt>
      <trkpt lat="43.15323" lon="5.75071">
        <ele>76.599998474121</ele>
        <time>2016-05-14T14:40:13.000Z</time>
      </trkpt>
      <trkpt lat="43.15321" lon="5.75077">
        <ele>76.400001525879</ele>
        <time>2016-05-14T14:40:14.000Z</time>
      </trkpt>
      <trkpt lat="43.15319" lon="5.75083">
        <ele>76</ele>
        <time>2016-05-14T14:40:15.000Z</time>
      </trkpt>
      <trkpt lat="43.15321" lon="5.75102">
        <ele>75.199996948242</ele>
        <time>2016-05-14T14:40:18.000Z</time>
      </trkpt>
      <trkpt lat="43.15321" lon="5.75107">
        <ele>75</ele>
        <time>2016-05-14T14:40:19.000Z</time>
      </trkpt>
      <trkpt lat="43.15325" lon="5.75137">
        <ele>73.199996948242</ele>
        <time>2016-05-14T14:40:25.000Z</time>
      </trkpt>
      <trkpt lat="43.15326" lon="5.7514">
        <ele>73</ele>
        <time>2016-05-14T14:40:26.000Z</time>
      </trkpt>
      <trkpt lat="43.15331" lon="5.75146">
        <ele>72.800003051758</ele>
        <time>2016-05-14T14:41:22.000Z</time>
      </trkpt>
      <trkpt lat="43.15329" lon="5.75154">
        <ele>72.199996948242</ele>
        <time>2016-05-14T14:41:26.000Z</time>
      </trkpt>
      <trkpt lat="43.15316" lon="5.75156">
        <ele>71.599998474121</ele>
        <time>2016-05-14T14:41:30.000Z</time>
      </trkpt>
      <trkpt lat="43.15312" lon="5.75157">
        <ele>71.199996948242</ele>
        <time>2016-05-14T14:41:31.000Z</time>
      </trkpt>
      <trkpt lat="43.15302" lon="5.75163">
        <ele>70.400001525879</ele>
        <time>2016-05-14T14:41:34.000Z</time>
      </trkpt>
      <trkpt lat="43.15297" lon="5.75169">
        <ele>69.800003051758</ele>
        <time>2016-05-14T14:41:36.000Z</time>
      </trkpt>
      <trkpt lat="43.15291" lon="5.75174">
        <ele>69.400001525879</ele>
        <time>2016-05-14T14:41:38.000Z</time>
      </trkpt>
      <trkpt lat="43.15274" lon="5.75193">
        <ele>67.800003051758</ele>
        <time>2016-05-14T14:41:44.000Z</time>
      </trkpt>
      <trkpt lat="43.15262" lon="5.75201">
        <ele>67</ele>
        <time>2016-05-14T14:41:48.000Z</time>
      </trkpt>
      <trkpt lat="43.15249" lon="5.75211">
        <ele>66.199996948242</ele>
        <time>2016-05-14T14:41:52.000Z</time>
      </trkpt>
      <trkpt lat="43.15236" lon="5.75222">
        <ele>64.400001525879</ele>
        <time>2016-05-14T14:41:57.000Z</time>
      </trkpt>
      <trkpt lat="43.15226" lon="5.75237">
        <ele>63.799999237061</ele>
        <time>2016-05-14T14:42:02.000Z</time>
      </trkpt>
      <trkpt lat="43.15225" lon="5.75241">
        <ele>63.599998474121</ele>
        <time>2016-05-14T14:42:04.000Z</time>
      </trkpt>
      <trkpt lat="43.15225" lon="5.75243">
        <ele>63.599998474121</ele>
        <time>2016-05-14T14:42:05.000Z</time>
      </trkpt>
      <trkpt lat="43.15226" lon="5.75246">
        <ele>63.599998474121</ele>
        <time>2016-05-14T14:42:07.000Z</time>
      </trkpt>
      <trkpt lat="43.15227" lon="5.75247">
        <ele>63.599998474121</ele>
        <time>2016-05-14T14:42:09.000Z</time>
      </trkpt>
      <trkpt lat="43.15232" lon="5.75247">
        <ele>64</ele>
        <time>2016-05-14T14:42:33.000Z</time>
      </trkpt>
      <trkpt lat="43.15234" lon="5.75246">
        <ele>64</ele>
        <time>2016-05-14T14:42:34.000Z</time>
      </trkpt>
      <trkpt lat="43.15241" lon="5.75244">
        <ele>64.400001525879</ele>
        <time>2016-05-14T14:42:37.000Z</time>
      </trkpt>
      <trkpt lat="43.15246" lon="5.7524">
        <ele>64.800003051758</ele>
        <time>2016-05-14T14:42:40.000Z</time>
      </trkpt>
      <trkpt lat="43.1525" lon="5.75244">
        <ele>65</ele>
        <time>2016-05-14T14:42:44.000Z</time>
      </trkpt>
      <trkpt lat="43.15248" lon="5.75248">
        <ele>64.800003051758</ele>
        <time>2016-05-14T14:42:46.000Z</time>
      </trkpt>
      <trkpt lat="43.15243" lon="5.75256">
        <ele>64.400001525879</ele>
        <time>2016-05-14T14:42:49.000Z</time>
      </trkpt>
      <trkpt lat="43.15237" lon="5.75262">
        <ele>64</ele>
        <time>2016-05-14T14:42:51.000Z</time>
      </trkpt>
      <trkpt lat="43.1523" lon="5.7527">
        <ele>63.599998474121</ele>
        <time>2016-05-14T14:42:54.000Z</time>
      </trkpt>
      <trkpt lat="43.15225" lon="5.75273">
        <ele>62.799999237061</ele>
        <time>2016-05-14T14:42:57.000Z</time>
      </trkpt>
      <trkpt lat="43.15224" lon="5.75273">
        <ele>62.799999237061</ele>
        <time>2016-05-14T14:43:11.000Z</time>
      </trkpt>
      <trkpt lat="43.1522" lon="5.75277">
        <ele>61.799999237061</ele>
        <time>2016-05-14T14:43:13.000Z</time>
      </trkpt>
      <trkpt lat="43.15205" lon="5.75281">
        <ele>59.599998474121</ele>
        <time>2016-05-14T14:43:17.000Z</time>
      </trkpt>
      <trkpt lat="43.15192" lon="5.7528">
        <ele>58</ele>
        <time>2016-05-14T14:43:21.000Z</time>
      </trkpt>
      <trkpt lat="43.15188" lon="5.75279">
        <ele>57.599998474121</ele>
        <time>2016-05-14T14:43:22.000Z</time>
      </trkpt>
      <trkpt lat="43.15179" lon="5.75266">
        <ele>57.400001525879</ele>
        <time>2016-05-14T14:43:26.000Z</time>
      </trkpt>
      <trkpt lat="43.15175" lon="5.75258">
        <ele>58.200000762939</ele>
        <time>2016-05-14T14:43:28.000Z</time>
      </trkpt>
      <trkpt lat="43.1517" lon="5.75241">
        <ele>60.200000762939</ele>
        <time>2016-05-14T14:43:32.000Z</time>
      </trkpt>
      <trkpt lat="43.15168" lon="5.75239">
        <ele>60.400001525879</ele>
        <time>2016-05-14T14:43:33.000Z</time>
      </trkpt>
      <trkpt lat="43.15167" lon="5.75239">
        <ele>60.599998474121</ele>
        <time>2016-05-14T14:43:34.000Z</time>
      </trkpt>
      <trkpt lat="43.15162" lon="5.75232">
        <ele>61.799999237061</ele>
        <time>2016-05-14T14:43:41.000Z</time>
      </trkpt>
      <trkpt lat="43.15157" lon="5.75225">
        <ele>62.799999237061</ele>
        <time>2016-05-14T14:43:43.000Z</time>
      </trkpt>
      <trkpt lat="43.1515" lon="5.75225">
        <ele>63.599998474121</ele>
        <time>2016-05-14T14:43:46.000Z</time>
      </trkpt>
      <trkpt lat="43.15144" lon="5.75232">
        <ele>63.599998474121</ele>
        <time>2016-05-14T14:43:49.000Z</time>
      </trkpt>
      <trkpt lat="43.15139" lon="5.75236">
        <ele>63.799999237061</ele>
        <time>2016-05-14T14:43:51.000Z</time>
      </trkpt>
      <trkpt lat="43.15123" lon="5.75232">
        <ele>66</ele>
        <time>2016-05-14T14:43:55.000Z</time>
      </trkpt>
      <trkpt lat="43.15113" lon="5.7523">
        <ele>67.199996948242</ele>
        <time>2016-05-14T14:43:59.000Z</time>
      </trkpt>
      <trkpt lat="43.15113" lon="5.75241">
        <ele>66.400001525879</ele>
        <time>2016-05-14T14:44:03.000Z</time>
      </trkpt>
      <trkpt lat="43.15121" lon="5.75255">
        <ele>64.400001525879</ele>
        <time>2016-05-14T14:44:08.000Z</time>
      </trkpt>
      <trkpt lat="43.15123" lon="5.75258">
        <ele>64</ele>
        <time>2016-05-14T14:44:09.000Z</time>
      </trkpt>
      <trkpt lat="43.15126" lon="5.75264">
        <ele>63.200000762939</ele>
        <time>2016-05-14T14:44:11.000Z</time>
      </trkpt>
      <trkpt lat="43.15137" lon="5.75279">
        <ele>61</ele>
        <time>2016-05-14T14:44:14.000Z</time>
      </trkpt>
      <trkpt lat="43.15139" lon="5.75284">
        <ele>60.400001525879</ele>
        <time>2016-05-14T14:44:15.000Z</time>
      </trkpt>
      <trkpt lat="43.15141" lon="5.75289">
        <ele>59.799999237061</ele>
        <time>2016-05-14T14:44:16.000Z</time>
      </trkpt>
      <trkpt lat="43.15142" lon="5.75302">
        <ele>58.799999237061</ele>
        <time>2016-05-14T14:44:18.000Z</time>
      </trkpt>
      <trkpt lat="43.15142" lon="5.7531">
        <ele>58.799999237061</ele>
        <time>2016-05-14T14:44:19.000Z</time>
      </trkpt>
      <trkpt lat="43.15138" lon="5.75339">
        <ele>60</ele>
        <time>2016-05-14T14:44:23.000Z</time>
      </trkpt>
      <trkpt lat="43.15135" lon="5.75353">
        <ele>59.400001525879</ele>
        <time>2016-05-14T14:44:25.000Z</time>
      </trkpt>
      <trkpt lat="43.15133" lon="5.75359">
        <ele>58.200000762939</ele>
        <time>2016-05-14T14:44:26.000Z</time>
      </trkpt>
      <trkpt lat="43.15129" lon="5.75373">
        <ele>56</ele>
        <time>2016-05-14T14:44:28.000Z</time>
      </trkpt>
      <trkpt lat="43.15127" lon="5.75379">
        <ele>55</ele>
        <time>2016-05-14T14:44:29.000Z</time>
      </trkpt>
      <trkpt lat="43.15123" lon="5.75391">
        <ele>53.799999237061</ele>
        <time>2016-05-14T14:44:31.000Z</time>
      </trkpt>
      <trkpt lat="43.15117" lon="5.75402">
        <ele>55</ele>
        <time>2016-05-14T14:44:33.000Z</time>
      </trkpt>
      <trkpt lat="43.15102" lon="5.75432">
        <ele>50.400001525879</ele>
        <time>2016-05-14T14:44:38.000Z</time>
      </trkpt>
      <trkpt lat="43.15095" lon="5.7545">
        <ele>46.799999237061</ele>
        <time>2016-05-14T14:44:41.000Z</time>
      </trkpt>
      <trkpt lat="43.15092" lon="5.75461">
        <ele>46.400001525879</ele>
        <time>2016-05-14T14:44:43.000Z</time>
      </trkpt>
      <trkpt lat="43.15091" lon="5.75466">
        <ele>46</ele>
        <time>2016-05-14T14:44:44.000Z</time>
      </trkpt>
      <trkpt lat="43.1509" lon="5.75476">
        <ele>45.599998474121</ele>
        <time>2016-05-14T14:44:46.000Z</time>
      </trkpt>
      <trkpt lat="43.15089" lon="5.75487">
        <ele>45.400001525879</ele>
        <time>2016-05-14T14:44:48.000Z</time>
      </trkpt>
      <trkpt lat="43.15086" lon="5.75499">
        <ele>45.599998474121</ele>
        <time>2016-05-14T14:44:50.000Z</time>
      </trkpt>
      <trkpt lat="43.15078" lon="5.75526">
        <ele>46.400001525879</ele>
        <time>2016-05-14T14:44:55.000Z</time>
      </trkpt>
      <trkpt lat="43.15077" lon="5.75531">
        <ele>46.400001525879</ele>
        <time>2016-05-14T14:44:56.000Z</time>
      </trkpt>
      <trkpt lat="43.15078" lon="5.75544">
        <ele>45.799999237061</ele>
        <time>2016-05-14T14:44:59.000Z</time>
      </trkpt>
      <trkpt lat="43.15078" lon="5.75552">
        <ele>45</ele>
        <time>2016-05-14T14:45:01.000Z</time>
      </trkpt>
      <trkpt lat="43.15079" lon="5.75578">
        <ele>45</ele>
        <time>2016-05-14T14:45:06.000Z</time>
      </trkpt>
      <trkpt lat="43.15079" lon="5.75583">
        <ele>45.200000762939</ele>
        <time>2016-05-14T14:45:07.000Z</time>
      </trkpt>
      <trkpt lat="43.15079" lon="5.75604">
        <ele>45.400001525879</ele>
        <time>2016-05-14T14:45:11.000Z</time>
      </trkpt>
      <trkpt lat="43.1508" lon="5.7561">
        <ele>45.400001525879</ele>
        <time>2016-05-14T14:45:12.000Z</time>
      </trkpt>
      <trkpt lat="43.1508" lon="5.75616">
        <ele>45.400001525879</ele>
        <time>2016-05-14T14:45:13.000Z</time>
      </trkpt>
      <trkpt lat="43.1508" lon="5.75622">
        <ele>45.599998474121</ele>
        <time>2016-05-14T14:45:14.000Z</time>
      </trkpt>
      <trkpt lat="43.15079" lon="5.75638">
        <ele>45.200000762939</ele>
        <time>2016-05-14T14:45:17.000Z</time>
      </trkpt>
      <trkpt lat="43.15079" lon="5.75643">
        <ele>45.200000762939</ele>
        <time>2016-05-14T14:45:18.000Z</time>
      </trkpt>
      <trkpt lat="43.15074" lon="5.75664">
        <ele>45.400001525879</ele>
        <time>2016-05-14T14:45:22.000Z</time>
      </trkpt>
      <trkpt lat="43.15068" lon="5.75688">
        <ele>45.599998474121</ele>
        <time>2016-05-14T14:45:27.000Z</time>
      </trkpt>
      <trkpt lat="43.15067" lon="5.75693">
        <ele>45.599998474121</ele>
        <time>2016-05-14T14:45:28.000Z</time>
      </trkpt>
      <trkpt lat="43.15058" lon="5.75727">
        <ele>46.400001525879</ele>
        <time>2016-05-14T14:45:34.000Z</time>
      </trkpt>
      <trkpt lat="43.15048" lon="5.75763">
        <ele>48.200000762939</ele>
        <time>2016-05-14T14:45:40.000Z</time>
      </trkpt>
      <trkpt lat="43.15046" lon="5.75773">
        <ele>47</ele>
        <time>2016-05-14T14:45:42.000Z</time>
      </trkpt>
      <trkpt lat="43.15044" lon="5.75787">
        <ele>45.599998474121</ele>
        <time>2016-05-14T14:45:45.000Z</time>
      </trkpt>
      <trkpt lat="43.15044" lon="5.75797">
        <ele>44.599998474121</ele>
        <time>2016-05-14T14:45:47.000Z</time>
      </trkpt>
      <trkpt lat="43.15043" lon="5.75818">
        <ele>44</ele>
        <time>2016-05-14T14:45:51.000Z</time>
      </trkpt>
      <trkpt lat="43.15042" lon="5.75823">
        <ele>44</ele>
        <time>2016-05-14T14:45:52.000Z</time>
      </trkpt>
      <trkpt lat="43.15037" lon="5.75862">
        <ele>41.599998474121</ele>
        <time>2016-05-14T14:45:59.000Z</time>
      </trkpt>
      <trkpt lat="43.15035" lon="5.75872">
        <ele>40.599998474121</ele>
        <time>2016-05-14T14:46:01.000Z</time>
      </trkpt>
      <trkpt lat="43.15034" lon="5.75894">
        <ele>39</ele>
        <time>2016-05-14T14:46:05.000Z</time>
      </trkpt>
      <trkpt lat="43.15039" lon="5.75919">
        <ele>38</ele>
        <time>2016-05-14T14:46:10.000Z</time>
      </trkpt>
      <trkpt lat="43.15039" lon="5.75923">
        <ele>38</ele>
        <time>2016-05-14T14:46:11.000Z</time>
      </trkpt>
      <trkpt lat="43.15038" lon="5.75939">
        <ele>36.400001525879</ele>
        <time>2016-05-14T14:46:15.000Z</time>
      </trkpt>
      <trkpt lat="43.15032" lon="5.75956">
        <ele>34.400001525879</ele>
        <time>2016-05-14T14:46:18.000Z</time>
      </trkpt>
      <trkpt lat="43.15026" lon="5.75974">
        <ele>32.599998474121</ele>
        <time>2016-05-14T14:46:21.000Z</time>
      </trkpt>
      <trkpt lat="43.15014" lon="5.76029">
        <ele>30.60000038147</ele>
        <time>2016-05-14T14:46:29.000Z</time>
      </trkpt>
      <trkpt lat="43.15009" lon="5.76043">
        <ele>30.200000762939</ele>
        <time>2016-05-14T14:46:31.000Z</time>
      </trkpt>
      <trkpt lat="43.15004" lon="5.76065">
        <ele>30.39999961853</ele>
        <time>2016-05-14T14:46:35.000Z</time>
      </trkpt>
      <trkpt lat="43.14999" lon="5.76078">
        <ele>30.60000038147</ele>
        <time>2016-05-14T14:46:38.000Z</time>
      </trkpt>
      <trkpt lat="43.14997" lon="5.76084">
        <ele>30.799999237061</ele>
        <time>2016-05-14T14:46:40.000Z</time>
      </trkpt>
      <trkpt lat="43.14987" lon="5.76115">
        <ele>31.200000762939</ele>
        <time>2016-05-14T14:46:47.000Z</time>
      </trkpt>
      <trkpt lat="43.14986" lon="5.7612">
        <ele>31</ele>
        <time>2016-05-14T14:46:48.000Z</time>
      </trkpt>
      <trkpt lat="43.1498" lon="5.76154">
        <ele>29.39999961853</ele>
        <time>2016-05-14T14:46:54.000Z</time>
      </trkpt>
      <trkpt lat="43.14979" lon="5.7616">
        <ele>29</ele>
        <time>2016-05-14T14:46:55.000Z</time>
      </trkpt>
      <trkpt lat="43.14973" lon="5.76196">
        <ele>27.60000038147</ele>
        <time>2016-05-14T14:47:02.000Z</time>
      </trkpt>
      <trkpt lat="43.14966" lon="5.76222">
        <ele>26.60000038147</ele>
        <time>2016-05-14T14:47:07.000Z</time>
      </trkpt>
      <trkpt lat="43.14961" lon="5.76233">
        <ele>26.60000038147</ele>
        <time>2016-05-14T14:47:09.000Z</time>
      </trkpt>
      <trkpt lat="43.14951" lon="5.76266">
        <ele>25.200000762939</ele>
        <time>2016-05-14T14:47:15.000Z</time>
      </trkpt>
      <trkpt lat="43.14943" lon="5.76296">
        <ele>22.200000762939</ele>
        <time>2016-05-14T14:47:21.000Z</time>
      </trkpt>
      <trkpt lat="43.14936" lon="5.76315">
        <ele>21.200000762939</ele>
        <time>2016-05-14T14:47:25.000Z</time>
      </trkpt>
      <trkpt lat="43.14934" lon="5.76323">
        <ele>20.39999961853</ele>
        <time>2016-05-14T14:47:27.000Z</time>
      </trkpt>
      <trkpt lat="43.14933" lon="5.76329">
        <ele>20</ele>
        <time>2016-05-14T14:47:38.000Z</time>
      </trkpt>
      <trkpt lat="43.14934" lon="5.76331">
        <ele>20</ele>
        <time>2016-05-14T14:47:39.000Z</time>
      </trkpt>
      <trkpt lat="43.14941" lon="5.76336">
        <ele>20.200000762939</ele>
        <time>2016-05-14T14:47:42.000Z</time>
      </trkpt>
      <trkpt lat="43.14954" lon="5.7635">
        <ele>20.39999961853</ele>
        <time>2016-05-14T14:47:47.000Z</time>
      </trkpt>
      <trkpt lat="43.14963" lon="5.76365">
        <ele>20.39999961853</ele>
        <time>2016-05-14T14:47:51.000Z</time>
      </trkpt>
      <trkpt lat="43.14966" lon="5.76374">
        <ele>20.200000762939</ele>
        <time>2016-05-14T14:47:53.000Z</time>
      </trkpt>
      <trkpt lat="43.14968" lon="5.76387">
        <ele>19.39999961853</ele>
        <time>2016-05-14T14:47:57.000Z</time>
      </trkpt>
      <trkpt lat="43.14965" lon="5.76393">
        <ele>19</ele>
        <time>2016-05-14T14:49:03.000Z</time>
      </trkpt>
      <trkpt lat="43.14962" lon="5.76391">
        <ele>18.799999237061</ele>
        <time>2016-05-14T14:49:04.000Z</time>
      </trkpt>
      <trkpt lat="43.14958" lon="5.76387">
        <ele>18.60000038147</ele>
        <time>2016-05-14T14:49:05.000Z</time>
      </trkpt>
      <trkpt lat="43.14951" lon="5.76376">
        <ele>18.60000038147</ele>
        <time>2016-05-14T14:49:07.000Z</time>
      </trkpt>
      <trkpt lat="43.14946" lon="5.76371">
        <ele>18.60000038147</ele>
        <time>2016-05-14T14:49:08.000Z</time>
      </trkpt>
      <trkpt lat="43.14935" lon="5.76363">
        <ele>18.200000762939</ele>
        <time>2016-05-14T14:49:10.000Z</time>
      </trkpt>
      <trkpt lat="43.14929" lon="5.76361">
        <ele>17.799999237061</ele>
        <time>2016-05-14T14:49:11.000Z</time>
      </trkpt>
      <trkpt lat="43.14912" lon="5.76366">
        <ele>18.60000038147</ele>
        <time>2016-05-14T14:49:14.000Z</time>
      </trkpt>
      <trkpt lat="43.14899" lon="5.76388">
        <ele>15.60000038147</ele>
        <time>2016-05-14T14:49:17.000Z</time>
      </trkpt>
      <trkpt lat="43.14899" lon="5.76417">
        <ele>16.39999961853</ele>
        <time>2016-05-14T14:49:20.000Z</time>
      </trkpt>
      <trkpt lat="43.14908" lon="5.76433">
        <ele>16.799999237061</ele>
        <time>2016-05-14T14:49:22.000Z</time>
      </trkpt>
      <trkpt lat="43.14927" lon="5.76444">
        <ele>17.39999961853</ele>
        <time>2016-05-14T14:49:25.000Z</time>
      </trkpt>
      <trkpt lat="43.14959" lon="5.76464">
        <ele>19</ele>
        <time>2016-05-14T14:49:31.000Z</time>
      </trkpt>
      <trkpt lat="43.14989" lon="5.76479">
        <ele>21.39999961853</ele>
        <time>2016-05-14T14:49:37.000Z</time>
      </trkpt>
      <trkpt lat="43.15031" lon="5.76493">
        <ele>24.39999961853</ele>
        <time>2016-05-14T14:49:45.000Z</time>
      </trkpt>
      <trkpt lat="43.15052" lon="5.76493">
        <ele>25.39999961853</ele>
        <time>2016-05-14T14:49:49.000Z</time>
      </trkpt>
      <trkpt lat="43.15062" lon="5.76492">
        <ele>25.60000038147</ele>
        <time>2016-05-14T14:49:51.000Z</time>
      </trkpt>
      <trkpt lat="43.15067" lon="5.7649">
        <ele>25.799999237061</ele>
        <time>2016-05-14T14:49:52.000Z</time>
      </trkpt>
      <trkpt lat="43.15077" lon="5.76487">
        <ele>25.799999237061</ele>
        <time>2016-05-14T14:49:54.000Z</time>
      </trkpt>
      <trkpt lat="43.15096" lon="5.76479">
        <ele>25.799999237061</ele>
        <time>2016-05-14T14:49:58.000Z</time>
      </trkpt>
      <trkpt lat="43.15115" lon="5.76477">
        <ele>24.39999961853</ele>
        <time>2016-05-14T14:50:03.000Z</time>
      </trkpt>
      <trkpt lat="43.15121" lon="5.76494">
        <ele>24.799999237061</ele>
        <time>2016-05-14T14:50:07.000Z</time>
      </trkpt>
      <trkpt lat="43.15121" lon="5.765">
        <ele>25.200000762939</ele>
        <time>2016-05-14T14:50:08.000Z</time>
      </trkpt>
      <trkpt lat="43.15124" lon="5.76524">
        <ele>27.39999961853</ele>
        <time>2016-05-14T14:50:12.000Z</time>
      </trkpt>
      <trkpt lat="43.15125" lon="5.76529">
        <ele>28</ele>
        <time>2016-05-14T14:50:13.000Z</time>
      </trkpt>
      <trkpt lat="43.15128" lon="5.76546">
        <ele>29.39999961853</ele>
        <time>2016-05-14T14:50:16.000Z</time>
      </trkpt>
      <trkpt lat="43.15129" lon="5.7656">
        <ele>30.799999237061</ele>
        <time>2016-05-14T14:50:18.000Z</time>
      </trkpt>
      <trkpt lat="43.15129" lon="5.76566">
        <ele>31.39999961853</ele>
        <time>2016-05-14T14:50:19.000Z</time>
      </trkpt>
      <trkpt lat="43.15131" lon="5.76592">
        <ele>33.599998474121</ele>
        <time>2016-05-14T14:50:23.000Z</time>
      </trkpt>
      <trkpt lat="43.15134" lon="5.76603">
        <ele>35.400001525879</ele>
        <time>2016-05-14T14:50:25.000Z</time>
      </trkpt>
      <trkpt lat="43.15147" lon="5.76625">
        <ele>37.200000762939</ele>
        <time>2016-05-14T14:50:30.000Z</time>
      </trkpt>
      <trkpt lat="43.1515" lon="5.76629">
        <ele>37.400001525879</ele>
        <time>2016-05-14T14:50:31.000Z</time>
      </trkpt>
      <trkpt lat="43.15155" lon="5.76639">
        <ele>38.200000762939</ele>
        <time>2016-05-14T14:50:33.000Z</time>
      </trkpt>
      <trkpt lat="43.15161" lon="5.76658">
        <ele>38.599998474121</ele>
        <time>2016-05-14T14:50:36.000Z</time>
      </trkpt>
      <trkpt lat="43.15164" lon="5.7667">
        <ele>38.599998474121</ele>
        <time>2016-05-14T14:50:38.000Z</time>
      </trkpt>
      <trkpt lat="43.15167" lon="5.76675">
        <ele>38.599998474121</ele>
        <time>2016-05-14T14:50:39.000Z</time>
      </trkpt>
      <trkpt lat="43.15173" lon="5.76684">
        <ele>37.799999237061</ele>
        <time>2016-05-14T14:50:41.000Z</time>
      </trkpt>
      <trkpt lat="43.15183" lon="5.76692">
        <ele>37.200000762939</ele>
        <time>2016-05-14T14:50:43.000Z</time>
      </trkpt>
      <trkpt lat="43.15192" lon="5.767">
        <ele>37.599998474121</ele>
        <time>2016-05-14T14:50:45.000Z</time>
      </trkpt>
      <trkpt lat="43.15196" lon="5.76703">
        <ele>37.599998474121</ele>
        <time>2016-05-14T14:50:46.000Z</time>
      </trkpt>
      <trkpt lat="43.152" lon="5.76706">
        <ele>37.599998474121</ele>
        <time>2016-05-14T14:50:47.000Z</time>
      </trkpt>
      <trkpt lat="43.15212" lon="5.76704">
        <ele>37</ele>
        <time>2016-05-14T14:50:50.000Z</time>
      </trkpt>
      <trkpt lat="43.15215" lon="5.76699">
        <ele>36.400001525879</ele>
        <time>2016-05-14T14:50:51.000Z</time>
      </trkpt>
      <trkpt lat="43.15219" lon="5.76689">
        <ele>35.200000762939</ele>
        <time>2016-05-14T14:50:53.000Z</time>
      </trkpt>
      <trkpt lat="43.15222" lon="5.76684">
        <ele>34.799999237061</ele>
        <time>2016-05-14T14:50:54.000Z</time>
      </trkpt>
      <trkpt lat="43.15226" lon="5.76673">
        <ele>34</ele>
        <time>2016-05-14T14:50:56.000Z</time>
      </trkpt>
      <trkpt lat="43.15239" lon="5.76647">
        <ele>32</ele>
        <time>2016-05-14T14:51:01.000Z</time>
      </trkpt>
      <trkpt lat="43.15264" lon="5.76607">
        <ele>30.200000762939</ele>
        <time>2016-05-14T14:51:09.000Z</time>
      </trkpt>
      <trkpt lat="43.15273" lon="5.76593">
        <ele>31</ele>
        <time>2016-05-14T14:51:12.000Z</time>
      </trkpt>
      <trkpt lat="43.15291" lon="5.76576">
        <ele>32.599998474121</ele>
        <time>2016-05-14T14:51:18.000Z</time>
      </trkpt>
      <trkpt lat="43.153" lon="5.76568">
        <ele>32.200000762939</ele>
        <time>2016-05-14T14:51:23.000Z</time>
      </trkpt>
      <trkpt lat="43.15301" lon="5.76569">
        <ele>32.599998474121</ele>
        <time>2016-05-14T14:51:24.000Z</time>
      </trkpt>
      <trkpt lat="43.15315" lon="5.76574">
        <ele>34.200000762939</ele>
        <time>2016-05-14T14:51:29.000Z</time>
      </trkpt>
      <trkpt lat="43.15318" lon="5.76575">
        <ele>34.799999237061</ele>
        <time>2016-05-14T14:51:30.000Z</time>
      </trkpt>
      <trkpt lat="43.15324" lon="5.76577">
        <ele>35.599998474121</ele>
        <time>2016-05-14T14:51:32.000Z</time>
      </trkpt>
      <trkpt lat="43.15331" lon="5.76581">
        <ele>36.599998474121</ele>
        <time>2016-05-14T14:51:34.000Z</time>
      </trkpt>
      <trkpt lat="43.15337" lon="5.76585">
        <ele>37.799999237061</ele>
        <time>2016-05-14T14:51:36.000Z</time>
      </trkpt>
      <trkpt lat="43.1534" lon="5.76587">
        <ele>38.400001525879</ele>
        <time>2016-05-14T14:51:37.000Z</time>
      </trkpt>
      <trkpt lat="43.15344" lon="5.76589">
        <ele>39</ele>
        <time>2016-05-14T14:51:38.000Z</time>
      </trkpt>
      <trkpt lat="43.1535" lon="5.76593">
        <ele>40.200000762939</ele>
        <time>2016-05-14T14:51:40.000Z</time>
      </trkpt>
      <trkpt lat="43.15356" lon="5.76595">
        <ele>41</ele>
        <time>2016-05-14T14:51:42.000Z</time>
      </trkpt>
      <trkpt lat="43.15363" lon="5.76597">
        <ele>42</ele>
        <time>2016-05-14T14:51:44.000Z</time>
      </trkpt>
      <trkpt lat="43.15366" lon="5.76598">
        <ele>42.400001525879</ele>
        <time>2016-05-14T14:51:45.000Z</time>
      </trkpt>
      <trkpt lat="43.1537" lon="5.76599">
        <ele>42.799999237061</ele>
        <time>2016-05-14T14:51:46.000Z</time>
      </trkpt>
      <trkpt lat="43.15379" lon="5.76603">
        <ele>44.400001525879</ele>
        <time>2016-05-14T14:51:49.000Z</time>
      </trkpt>
      <trkpt lat="43.15386" lon="5.7661">
        <ele>46</ele>
        <time>2016-05-14T14:51:52.000Z</time>
      </trkpt>
      <trkpt lat="43.15386" lon="5.76614">
        <ele>46.599998474121</ele>
        <time>2016-05-14T14:51:53.000Z</time>
      </trkpt>
      <trkpt lat="43.15384" lon="5.76621">
        <ele>47.400001525879</ele>
        <time>2016-05-14T14:51:55.000Z</time>
      </trkpt>
      <trkpt lat="43.1537" lon="5.76627">
        <ele>46.799999237061</ele>
        <time>2016-05-14T14:51:59.000Z</time>
      </trkpt>
      <trkpt lat="43.15366" lon="5.76628">
        <ele>46.599998474121</ele>
        <time>2016-05-14T14:52:00.000Z</time>
      </trkpt>
      <trkpt lat="43.15358" lon="5.7663">
        <ele>46.200000762939</ele>
        <time>2016-05-14T14:52:02.000Z</time>
      </trkpt>
      <trkpt lat="43.15351" lon="5.76634">
        <ele>46.200000762939</ele>
        <time>2016-05-14T14:52:04.000Z</time>
      </trkpt>
      <trkpt lat="43.15348" lon="5.76637">
        <ele>46.200000762939</ele>
        <time>2016-05-14T14:52:05.000Z</time>
      </trkpt>
      <trkpt lat="43.15346" lon="5.76641">
        <ele>46.400001525879</ele>
        <time>2016-05-14T14:52:06.000Z</time>
      </trkpt>
      <trkpt lat="43.15344" lon="5.76646">
        <ele>46.599998474121</ele>
        <time>2016-05-14T14:52:07.000Z</time>
      </trkpt>
      <trkpt lat="43.15342" lon="5.76651">
        <ele>46.799999237061</ele>
        <time>2016-05-14T14:52:08.000Z</time>
      </trkpt>
      <trkpt lat="43.15341" lon="5.76657">
        <ele>47</ele>
        <time>2016-05-14T14:52:09.000Z</time>
      </trkpt>
      <trkpt lat="43.15341" lon="5.7667">
        <ele>48</ele>
        <time>2016-05-14T14:52:11.000Z</time>
      </trkpt>
      <trkpt lat="43.15341" lon="5.76675">
        <ele>48.599998474121</ele>
        <time>2016-05-14T14:52:12.000Z</time>
      </trkpt>
      <trkpt lat="43.15341" lon="5.76687">
        <ele>49.599998474121</ele>
        <time>2016-05-14T14:52:14.000Z</time>
      </trkpt>
      <trkpt lat="43.15342" lon="5.76693">
        <ele>50.200000762939</ele>
        <time>2016-05-14T14:52:15.000Z</time>
      </trkpt>
      <trkpt lat="43.15342" lon="5.76698">
        <ele>50.799999237061</ele>
        <time>2016-05-14T14:52:16.000Z</time>
      </trkpt>
      <trkpt lat="43.15342" lon="5.76705">
        <ele>51.200000762939</ele>
        <time>2016-05-14T14:52:17.000Z</time>
      </trkpt>
      <trkpt lat="43.15342" lon="5.76711">
        <ele>51.799999237061</ele>
        <time>2016-05-14T14:52:18.000Z</time>
      </trkpt>
      <trkpt lat="43.15343" lon="5.76716">
        <ele>52.400001525879</ele>
        <time>2016-05-14T14:52:19.000Z</time>
      </trkpt>
      <trkpt lat="43.15343" lon="5.76722">
        <ele>52.799999237061</ele>
        <time>2016-05-14T14:52:20.000Z</time>
      </trkpt>
      <trkpt lat="43.15344" lon="5.76727">
        <ele>53.400001525879</ele>
        <time>2016-05-14T14:52:21.000Z</time>
      </trkpt>
      <trkpt lat="43.15346" lon="5.76737">
        <ele>54.400001525879</ele>
        <time>2016-05-14T14:52:23.000Z</time>
      </trkpt>
      <trkpt lat="43.15347" lon="5.76749">
        <ele>55.599998474121</ele>
        <time>2016-05-14T14:52:25.000Z</time>
      </trkpt>
      <trkpt lat="43.15348" lon="5.76755">
        <ele>56.200000762939</ele>
        <time>2016-05-14T14:52:26.000Z</time>
      </trkpt>
      <trkpt lat="43.1535" lon="5.7676">
        <ele>57</ele>
        <time>2016-05-14T14:52:27.000Z</time>
      </trkpt>
      <trkpt lat="43.15351" lon="5.76766">
        <ele>57.599998474121</ele>
        <time>2016-05-14T14:52:28.000Z</time>
      </trkpt>
      <trkpt lat="43.15352" lon="5.76771">
        <ele>58.200000762939</ele>
        <time>2016-05-14T14:52:29.000Z</time>
      </trkpt>
      <trkpt lat="43.15354" lon="5.7678">
        <ele>59.400001525879</ele>
        <time>2016-05-14T14:52:31.000Z</time>
      </trkpt>
      <trkpt lat="43.15358" lon="5.76789">
        <ele>60.599998474121</ele>
        <time>2016-05-14T14:52:33.000Z</time>
      </trkpt>
      <trkpt lat="43.1536" lon="5.76793">
        <ele>61.400001525879</ele>
        <time>2016-05-14T14:52:34.000Z</time>
      </trkpt>
      <trkpt lat="43.15362" lon="5.76797">
        <ele>62.200000762939</ele>
        <time>2016-05-14T14:52:35.000Z</time>
      </trkpt>
      <trkpt lat="43.15368" lon="5.76808">
        <ele>63.799999237061</ele>
        <time>2016-05-14T14:52:38.000Z</time>
      </trkpt>
      <trkpt lat="43.15372" lon="5.76817">
        <ele>64.400001525879</ele>
        <time>2016-05-14T14:52:40.000Z</time>
      </trkpt>
      <trkpt lat="43.15375" lon="5.76827">
        <ele>64.800003051758</ele>
        <time>2016-05-14T14:52:42.000Z</time>
      </trkpt>
      <trkpt lat="43.15377" lon="5.76832">
        <ele>65</ele>
        <time>2016-05-14T14:52:43.000Z</time>
      </trkpt>
      <trkpt lat="43.1538" lon="5.76853">
        <ele>66.800003051758</ele>
        <time>2016-05-14T14:52:47.000Z</time>
      </trkpt>
      <trkpt lat="43.15381" lon="5.76859">
        <ele>67.400001525879</ele>
        <time>2016-05-14T14:52:48.000Z</time>
      </trkpt>
      <trkpt lat="43.15383" lon="5.76877">
        <ele>69.599998474121</ele>
        <time>2016-05-14T14:52:51.000Z</time>
      </trkpt>
      <trkpt lat="43.15387" lon="5.76889">
        <ele>71.199996948242</ele>
        <time>2016-05-14T14:52:53.000Z</time>
      </trkpt>
      <trkpt lat="43.15403" lon="5.76914">
        <ele>73.199996948242</ele>
        <time>2016-05-14T14:52:58.000Z</time>
      </trkpt>
      <trkpt lat="43.15411" lon="5.76924">
        <ele>74</ele>
        <time>2016-05-14T14:53:00.000Z</time>
      </trkpt>
      <trkpt lat="43.15414" lon="5.76929">
        <ele>74.400001525879</ele>
        <time>2016-05-14T14:53:01.000Z</time>
      </trkpt>
      <trkpt lat="43.1542" lon="5.76943">
        <ele>75.400001525879</ele>
        <time>2016-05-14T14:53:04.000Z</time>
      </trkpt>
      <trkpt lat="43.15422" lon="5.76959">
        <ele>76.199996948242</ele>
        <time>2016-05-14T14:53:07.000Z</time>
      </trkpt>
      <trkpt lat="43.15422" lon="5.76964">
        <ele>76.400001525879</ele>
        <time>2016-05-14T14:53:08.000Z</time>
      </trkpt>
      <trkpt lat="43.1542" lon="5.76995">
        <ele>79</ele>
        <time>2016-05-14T14:53:13.000Z</time>
      </trkpt>
      <trkpt lat="43.15419" lon="5.77013">
        <ele>80.400001525879</ele>
        <time>2016-05-14T14:53:16.000Z</time>
      </trkpt>
      <trkpt lat="43.15418" lon="5.77045">
        <ele>82.599998474121</ele>
        <time>2016-05-14T14:53:21.000Z</time>
      </trkpt>
      <trkpt lat="43.15418" lon="5.77051">
        <ele>83.199996948242</ele>
        <time>2016-05-14T14:53:22.000Z</time>
      </trkpt>
      <trkpt lat="43.15416" lon="5.77069">
        <ele>84</ele>
        <time>2016-05-14T14:53:25.000Z</time>
      </trkpt>
      <trkpt lat="43.15416" lon="5.7708">
        <ele>84.400001525879</ele>
        <time>2016-05-14T14:53:27.000Z</time>
      </trkpt>
      <trkpt lat="43.15416" lon="5.77086">
        <ele>84.400001525879</ele>
        <time>2016-05-14T14:53:28.000Z</time>
      </trkpt>
      <trkpt lat="43.15417" lon="5.77091">
        <ele>84.400001525879</ele>
        <time>2016-05-14T14:53:29.000Z</time>
      </trkpt>
      <trkpt lat="43.15419" lon="5.77096">
        <ele>84.599998474121</ele>
        <time>2016-05-14T14:53:30.000Z</time>
      </trkpt>
      <trkpt lat="43.15423" lon="5.77104">
        <ele>84.400001525879</ele>
        <time>2016-05-14T14:53:32.000Z</time>
      </trkpt>
      <trkpt lat="43.1543" lon="5.77109">
        <ele>84.800003051758</ele>
        <time>2016-05-14T14:53:34.000Z</time>
      </trkpt>
      <trkpt lat="43.15434" lon="5.7711">
        <ele>85.599998474121</ele>
        <time>2016-05-14T14:53:35.000Z</time>
      </trkpt>
      <trkpt lat="43.15445" lon="5.7711">
        <ele>87.599998474121</ele>
        <time>2016-05-14T14:53:38.000Z</time>
      </trkpt>
      <trkpt lat="43.15449" lon="5.77109">
        <ele>88.199996948242</ele>
        <time>2016-05-14T14:53:39.000Z</time>
      </trkpt>
      <trkpt lat="43.15457" lon="5.77104">
        <ele>89.400001525879</ele>
        <time>2016-05-14T14:53:41.000Z</time>
      </trkpt>
      <trkpt lat="43.15462" lon="5.771">
        <ele>90.199996948242</ele>
        <time>2016-05-14T14:53:42.000Z</time>
      </trkpt>
      <trkpt lat="43.1547" lon="5.77094">
        <ele>91.599998474121</ele>
        <time>2016-05-14T14:53:44.000Z</time>
      </trkpt>
      <trkpt lat="43.15474" lon="5.77092">
        <ele>92.199996948242</ele>
        <time>2016-05-14T14:53:45.000Z</time>
      </trkpt>
      <trkpt lat="43.15481" lon="5.77091">
        <ele>93.599998474121</ele>
        <time>2016-05-14T14:53:47.000Z</time>
      </trkpt>
      <trkpt lat="43.15484" lon="5.77092">
        <ele>94.199996948242</ele>
        <time>2016-05-14T14:53:48.000Z</time>
      </trkpt>
      <trkpt lat="43.15487" lon="5.77093">
        <ele>94.599998474121</ele>
        <time>2016-05-14T14:53:49.000Z</time>
      </trkpt>
      <trkpt lat="43.15491" lon="5.77101">
        <ele>95.400001525879</ele>
        <time>2016-05-14T14:53:51.000Z</time>
      </trkpt>
      <trkpt lat="43.15492" lon="5.77107">
        <ele>95.800003051758</ele>
        <time>2016-05-14T14:53:52.000Z</time>
      </trkpt>
      <trkpt lat="43.15493" lon="5.77112">
        <ele>96.199996948242</ele>
        <time>2016-05-14T14:53:53.000Z</time>
      </trkpt>
      <trkpt lat="43.15494" lon="5.77118">
        <ele>96.400001525879</ele>
        <time>2016-05-14T14:53:54.000Z</time>
      </trkpt>
      <trkpt lat="43.15494" lon="5.77124">
        <ele>96.599998474121</ele>
        <time>2016-05-14T14:53:55.000Z</time>
      </trkpt>
      <trkpt lat="43.15491" lon="5.77137">
        <ele>96.400001525879</ele>
        <time>2016-05-14T14:53:57.000Z</time>
      </trkpt>
      <trkpt lat="43.15487" lon="5.77149">
        <ele>97.800003051758</ele>
        <time>2016-05-14T14:53:59.000Z</time>
      </trkpt>
      <trkpt lat="43.15486" lon="5.77155">
        <ele>98.800003051758</ele>
        <time>2016-05-14T14:54:00.000Z</time>
      </trkpt>
      <trkpt lat="43.15484" lon="5.77166">
        <ele>100.40000152588</ele>
        <time>2016-05-14T14:54:02.000Z</time>
      </trkpt>
      <trkpt lat="43.15483" lon="5.77171">
        <ele>101.40000152588</ele>
        <time>2016-05-14T14:54:03.000Z</time>
      </trkpt>
      <trkpt lat="43.15482" lon="5.77177">
        <ele>102.19999694824</ele>
        <time>2016-05-14T14:54:04.000Z</time>
      </trkpt>
      <trkpt lat="43.15479" lon="5.77189">
        <ele>104</ele>
        <time>2016-05-14T14:54:06.000Z</time>
      </trkpt>
      <trkpt lat="43.15477" lon="5.77201">
        <ele>105.19999694824</ele>
        <time>2016-05-14T14:54:08.000Z</time>
      </trkpt>
      <trkpt lat="43.15476" lon="5.77207">
        <ele>105.80000305176</ele>
        <time>2016-05-14T14:54:09.000Z</time>
      </trkpt>
      <trkpt lat="43.15473" lon="5.77226">
        <ele>108</ele>
        <time>2016-05-14T14:54:12.000Z</time>
      </trkpt>
      <trkpt lat="43.15467" lon="5.77251">
        <ele>111.40000152588</ele>
        <time>2016-05-14T14:54:16.000Z</time>
      </trkpt>
      <trkpt lat="43.15465" lon="5.77257">
        <ele>112.19999694824</ele>
        <time>2016-05-14T14:54:17.000Z</time>
      </trkpt>
      <trkpt lat="43.15462" lon="5.77268">
        <ele>113.19999694824</ele>
        <time>2016-05-14T14:54:19.000Z</time>
      </trkpt>
      <trkpt lat="43.15456" lon="5.77287">
        <ele>114.59999847412</ele>
        <time>2016-05-14T14:54:22.000Z</time>
      </trkpt>
      <trkpt lat="43.15451" lon="5.77304">
        <ele>115.59999847412</ele>
        <time>2016-05-14T14:54:25.000Z</time>
      </trkpt>
      <trkpt lat="43.15449" lon="5.7731">
        <ele>116.40000152588</ele>
        <time>2016-05-14T14:54:26.000Z</time>
      </trkpt>
      <trkpt lat="43.15444" lon="5.77327">
        <ele>118</ele>
        <time>2016-05-14T14:54:29.000Z</time>
      </trkpt>
      <trkpt lat="43.15437" lon="5.77352">
        <ele>119.80000305176</ele>
        <time>2016-05-14T14:54:34.000Z</time>
      </trkpt>
      <trkpt lat="43.15433" lon="5.77368">
        <ele>120.80000305176</ele>
        <time>2016-05-14T14:54:37.000Z</time>
      </trkpt>
      <trkpt lat="43.1543" lon="5.77379">
        <ele>121.59999847412</ele>
        <time>2016-05-14T14:54:39.000Z</time>
      </trkpt>
      <trkpt lat="43.15426" lon="5.77397">
        <ele>123.19999694824</ele>
        <time>2016-05-14T14:54:42.000Z</time>
      </trkpt>
      <trkpt lat="43.15423" lon="5.77409">
        <ele>124.80000305176</ele>
        <time>2016-05-14T14:54:44.000Z</time>
      </trkpt>
      <trkpt lat="43.15419" lon="5.77421">
        <ele>126.59999847412</ele>
        <time>2016-05-14T14:54:46.000Z</time>
      </trkpt>
      <trkpt lat="43.15416" lon="5.77432">
        <ele>128.39999389648</ele>
        <time>2016-05-14T14:54:48.000Z</time>
      </trkpt>
      <trkpt lat="43.15415" lon="5.77438">
        <ele>129.19999694824</ele>
        <time>2016-05-14T14:54:49.000Z</time>
      </trkpt>
      <trkpt lat="43.15412" lon="5.7745">
        <ele>130.80000305176</ele>
        <time>2016-05-14T14:54:51.000Z</time>
      </trkpt>
      <trkpt lat="43.15407" lon="5.77467">
        <ele>132</ele>
        <time>2016-05-14T14:54:54.000Z</time>
      </trkpt>
      <trkpt lat="43.15404" lon="5.77479">
        <ele>132.19999694824</ele>
        <time>2016-05-14T14:54:56.000Z</time>
      </trkpt>
      <trkpt lat="43.15401" lon="5.77488">
        <ele>132.60000610352</ele>
        <time>2016-05-14T14:54:58.000Z</time>
      </trkpt>
      <trkpt lat="43.154" lon="5.77493">
        <ele>132.60000610352</ele>
        <time>2016-05-14T14:54:59.000Z</time>
      </trkpt>
      <trkpt lat="43.15399" lon="5.77498">
        <ele>132.80000305176</ele>
        <time>2016-05-14T14:55:00.000Z</time>
      </trkpt>
      <trkpt lat="43.15396" lon="5.77507">
        <ele>133</ele>
        <time>2016-05-14T14:55:02.000Z</time>
      </trkpt>
      <trkpt lat="43.15393" lon="5.77517">
        <ele>133.39999389648</ele>
        <time>2016-05-14T14:55:04.000Z</time>
      </trkpt>
      <trkpt lat="43.15391" lon="5.77526">
        <ele>132.39999389648</ele>
        <time>2016-05-14T14:55:06.000Z</time>
      </trkpt>
      <trkpt lat="43.15391" lon="5.77533">
        <ele>131.39999389648</ele>
        <time>2016-05-14T14:55:08.000Z</time>
      </trkpt>
      <trkpt lat="43.15393" lon="5.77539">
        <ele>130.80000305176</ele>
        <time>2016-05-14T14:55:10.000Z</time>
      </trkpt>
      <trkpt lat="43.15394" lon="5.77542">
        <ele>130.39999389648</ele>
        <time>2016-05-14T14:55:11.000Z</time>
      </trkpt>
      <trkpt lat="43.15396" lon="5.77545">
        <ele>130</ele>
        <time>2016-05-14T14:55:12.000Z</time>
      </trkpt>
      <trkpt lat="43.15405" lon="5.77558">
        <ele>129</ele>
        <time>2016-05-14T14:55:16.000Z</time>
      </trkpt>
      <trkpt lat="43.15408" lon="5.77561">
        <ele>128.80000305176</ele>
        <time>2016-05-14T14:55:17.000Z</time>
      </trkpt>
      <trkpt lat="43.15419" lon="5.77571">
        <ele>128.60000610352</ele>
        <time>2016-05-14T14:55:21.000Z</time>
      </trkpt>
      <trkpt lat="43.15423" lon="5.7757">
        <ele>128.80000305176</ele>
        <time>2016-05-14T14:55:22.000Z</time>
      </trkpt>
      <trkpt lat="43.1543" lon="5.77561">
        <ele>130.80000305176</ele>
        <time>2016-05-14T14:55:25.000Z</time>
      </trkpt>
      <trkpt lat="43.15429" lon="5.77557">
        <ele>130.39999389648</ele>
        <time>2016-05-14T14:55:26.000Z</time>
      </trkpt>
      <trkpt lat="43.15426" lon="5.77549">
        <ele>130.19999694824</ele>
        <time>2016-05-14T14:55:28.000Z</time>
      </trkpt>
      <trkpt lat="43.15426" lon="5.77543">
        <ele>130.19999694824</ele>
        <time>2016-05-14T14:55:30.000Z</time>
      </trkpt>
      <trkpt lat="43.15428" lon="5.77542">
        <ele>130</ele>
        <time>2016-05-14T14:55:31.000Z</time>
      </trkpt>
      <trkpt lat="43.1543" lon="5.77543">
        <ele>131.19999694824</ele>
        <time>2016-05-14T14:55:32.000Z</time>
      </trkpt>
      <trkpt lat="43.15436" lon="5.77549">
        <ele>134</ele>
        <time>2016-05-14T14:55:35.000Z</time>
      </trkpt>
      <trkpt lat="43.15438" lon="5.77553">
        <ele>135</ele>
        <time>2016-05-14T14:55:36.000Z</time>
      </trkpt>
      <trkpt lat="43.15444" lon="5.77572">
        <ele>137.19999694824</ele>
        <time>2016-05-14T14:55:40.000Z</time>
      </trkpt>
      <trkpt lat="43.15448" lon="5.77582">
        <ele>138</ele>
        <time>2016-05-14T14:55:42.000Z</time>
      </trkpt>
      <trkpt lat="43.15453" lon="5.77604">
        <ele>139.19999694824</ele>
        <time>2016-05-14T14:55:46.000Z</time>
      </trkpt>
      <trkpt lat="43.15454" lon="5.77609">
        <ele>139.39999389648</ele>
        <time>2016-05-14T14:55:47.000Z</time>
      </trkpt>
      <trkpt lat="43.15456" lon="5.7762">
        <ele>139.39999389648</ele>
        <time>2016-05-14T14:55:49.000Z</time>
      </trkpt>
      <trkpt lat="43.15459" lon="5.77637">
        <ele>139.80000305176</ele>
        <time>2016-05-14T14:55:52.000Z</time>
      </trkpt>
      <trkpt lat="43.15461" lon="5.77654">
        <ele>140.80000305176</ele>
        <time>2016-05-14T14:55:55.000Z</time>
      </trkpt>
      <trkpt lat="43.15462" lon="5.77659">
        <ele>141</ele>
        <time>2016-05-14T14:55:56.000Z</time>
      </trkpt>
      <trkpt lat="43.15462" lon="5.77665">
        <ele>141</ele>
        <time>2016-05-14T14:55:57.000Z</time>
      </trkpt>
      <trkpt lat="43.15463" lon="5.77677">
        <ele>141.39999389648</ele>
        <time>2016-05-14T14:55:59.000Z</time>
      </trkpt>
      <trkpt lat="43.15463" lon="5.77687">
        <ele>141.39999389648</ele>
        <time>2016-05-14T14:56:01.000Z</time>
      </trkpt>
      <trkpt lat="43.15463" lon="5.77692">
        <ele>141.39999389648</ele>
        <time>2016-05-14T14:56:02.000Z</time>
      </trkpt>
      <trkpt lat="43.15463" lon="5.77697">
        <ele>141.39999389648</ele>
        <time>2016-05-14T14:56:03.000Z</time>
      </trkpt>
      <trkpt lat="43.15461" lon="5.77706">
        <ele>140.60000610352</ele>
        <time>2016-05-14T14:56:07.000Z</time>
      </trkpt>
      <trkpt lat="43.15461" lon="5.77709">
        <ele>140.39999389648</ele>
        <time>2016-05-14T14:57:42.000Z</time>
      </trkpt>
      <trkpt lat="43.15462" lon="5.77712">
        <ele>140.80000305176</ele>
        <time>2016-05-14T14:57:43.000Z</time>
      </trkpt>
      <trkpt lat="43.15468" lon="5.77737">
        <ele>142.39999389648</ele>
        <time>2016-05-14T14:57:48.000Z</time>
      </trkpt>
      <trkpt lat="43.15475" lon="5.77758">
        <ele>144.19999694824</ele>
        <time>2016-05-14T14:57:52.000Z</time>
      </trkpt>
      <trkpt lat="43.15481" lon="5.77778">
        <ele>146</ele>
        <time>2016-05-14T14:57:56.000Z</time>
      </trkpt>
      <trkpt lat="43.15484" lon="5.77793">
        <ele>147.19999694824</ele>
        <time>2016-05-14T14:57:59.000Z</time>
      </trkpt>
      <trkpt lat="43.15487" lon="5.77809">
        <ele>147.60000610352</ele>
        <time>2016-05-14T14:58:02.000Z</time>
      </trkpt>
      <trkpt lat="43.15487" lon="5.77814">
        <ele>147.19999694824</ele>
        <time>2016-05-14T14:58:03.000Z</time>
      </trkpt>
      <trkpt lat="43.15487" lon="5.77821">
        <ele>146</ele>
        <time>2016-05-14T14:58:05.000Z</time>
      </trkpt>
      <trkpt lat="43.15486" lon="5.77825">
        <ele>145.19999694824</ele>
        <time>2016-05-14T14:58:07.000Z</time>
      </trkpt>
      <trkpt lat="43.15487" lon="5.77827">
        <ele>145.39999389648</ele>
        <time>2016-05-14T14:59:56.000Z</time>
      </trkpt>
      <trkpt lat="43.15489" lon="5.7783">
        <ele>145.80000305176</ele>
        <time>2016-05-14T14:59:57.000Z</time>
      </trkpt>
      <trkpt lat="43.15491" lon="5.77843">
        <ele>144.80000305176</ele>
        <time>2016-05-14T15:00:00.000Z</time>
      </trkpt>
      <trkpt lat="43.15493" lon="5.77848">
        <ele>144.80000305176</ele>
        <time>2016-05-14T15:00:01.000Z</time>
      </trkpt>
      <trkpt lat="43.15498" lon="5.77861">
        <ele>145.19999694824</ele>
        <time>2016-05-14T15:00:04.000Z</time>
      </trkpt>
      <trkpt lat="43.15504" lon="5.77871">
        <ele>146.19999694824</ele>
        <time>2016-05-14T15:00:07.000Z</time>
      </trkpt>
      <trkpt lat="43.15512" lon="5.7788">
        <ele>148.39999389648</ele>
        <time>2016-05-14T15:00:10.000Z</time>
      </trkpt>
      <trkpt lat="43.15523" lon="5.77886">
        <ele>150</ele>
        <time>2016-05-14T15:00:13.000Z</time>
      </trkpt>
      <trkpt lat="43.15528" lon="5.7789">
        <ele>150.60000610352</ele>
        <time>2016-05-14T15:00:15.000Z</time>
      </trkpt>
      <trkpt lat="43.15531" lon="5.77892">
        <ele>151</ele>
        <time>2016-05-14T15:00:16.000Z</time>
      </trkpt>
      <trkpt lat="43.15537" lon="5.77896">
        <ele>151.80000305176</ele>
        <time>2016-05-14T15:00:18.000Z</time>
      </trkpt>
      <trkpt lat="43.15551" lon="5.77904">
        <ele>154</ele>
        <time>2016-05-14T15:00:22.000Z</time>
      </trkpt>
      <trkpt lat="43.15563" lon="5.77916">
        <ele>155.60000610352</ele>
        <time>2016-05-14T15:00:26.000Z</time>
      </trkpt>
      <trkpt lat="43.15572" lon="5.77924">
        <ele>156.60000610352</ele>
        <time>2016-05-14T15:00:29.000Z</time>
      </trkpt>
      <trkpt lat="43.15576" lon="5.77927">
        <ele>157</ele>
        <time>2016-05-14T15:00:30.000Z</time>
      </trkpt>
      <trkpt lat="43.1559" lon="5.77931">
        <ele>159.80000305176</ele>
        <time>2016-05-14T15:00:34.000Z</time>
      </trkpt>
      <trkpt lat="43.15597" lon="5.7793">
        <ele>161.80000305176</ele>
        <time>2016-05-14T15:00:36.000Z</time>
      </trkpt>
      <trkpt lat="43.15612" lon="5.77926">
        <ele>166.19999694824</ele>
        <time>2016-05-14T15:00:40.000Z</time>
      </trkpt>
      <trkpt lat="43.15623" lon="5.7792">
        <ele>169.80000305176</ele>
        <time>2016-05-14T15:00:43.000Z</time>
      </trkpt>
      <trkpt lat="43.1563" lon="5.77915">
        <ele>170.80000305176</ele>
        <time>2016-05-14T15:00:45.000Z</time>
      </trkpt>
      <trkpt lat="43.1564" lon="5.77907">
        <ele>171.60000610352</ele>
        <time>2016-05-14T15:00:48.000Z</time>
      </trkpt>
      <trkpt lat="43.15644" lon="5.77905">
        <ele>172</ele>
        <time>2016-05-14T15:00:49.000Z</time>
      </trkpt>
      <trkpt lat="43.15656" lon="5.77899">
        <ele>173.19999694824</ele>
        <time>2016-05-14T15:00:53.000Z</time>
      </trkpt>
      <trkpt lat="43.15664" lon="5.77899">
        <ele>173.80000305176</ele>
        <time>2016-05-14T15:00:55.000Z</time>
      </trkpt>
      <trkpt lat="43.15671" lon="5.77898">
        <ele>174.60000610352</ele>
        <time>2016-05-14T15:00:57.000Z</time>
      </trkpt>
      <trkpt lat="43.15682" lon="5.77893">
        <ele>176.80000305176</ele>
        <time>2016-05-14T15:01:00.000Z</time>
      </trkpt>
      <trkpt lat="43.15686" lon="5.7789">
        <ele>177.19999694824</ele>
        <time>2016-05-14T15:01:01.000Z</time>
      </trkpt>
      <trkpt lat="43.15693" lon="5.77886">
        <ele>178.60000610352</ele>
        <time>2016-05-14T15:01:03.000Z</time>
      </trkpt>
      <trkpt lat="43.15707" lon="5.77877">
        <ele>183.80000305176</ele>
        <time>2016-05-14T15:01:07.000Z</time>
      </trkpt>
      <trkpt lat="43.15714" lon="5.77874">
        <ele>185.80000305176</ele>
        <time>2016-05-14T15:01:09.000Z</time>
      </trkpt>
      <trkpt lat="43.15717" lon="5.77873">
        <ele>186.60000610352</ele>
        <time>2016-05-14T15:01:10.000Z</time>
      </trkpt>
      <trkpt lat="43.15725" lon="5.77876">
        <ele>187.80000305176</ele>
        <time>2016-05-14T15:01:13.000Z</time>
      </trkpt>
      <trkpt lat="43.15727" lon="5.77879">
        <ele>187.39999389648</ele>
        <time>2016-05-14T15:01:14.000Z</time>
      </trkpt>
      <trkpt lat="43.15729" lon="5.77889">
        <ele>185.80000305176</ele>
        <time>2016-05-14T15:01:16.000Z</time>
      </trkpt>
      <trkpt lat="43.15725" lon="5.77912">
        <ele>189</ele>
        <time>2016-05-14T15:01:20.000Z</time>
      </trkpt>
      <trkpt lat="43.15724" lon="5.77917">
        <ele>189.60000610352</ele>
        <time>2016-05-14T15:01:21.000Z</time>
      </trkpt>
      <trkpt lat="43.15718" lon="5.77934">
        <ele>190.60000610352</ele>
        <time>2016-05-14T15:01:25.000Z</time>
      </trkpt>
      <trkpt lat="43.15713" lon="5.77948">
        <ele>189.60000610352</ele>
        <time>2016-05-14T15:01:28.000Z</time>
      </trkpt>
      <trkpt lat="43.1571" lon="5.77958">
        <ele>188.80000305176</ele>
        <time>2016-05-14T15:01:30.000Z</time>
      </trkpt>
      <trkpt lat="43.15697" lon="5.77985">
        <ele>184.39999389648</ele>
        <time>2016-05-14T15:01:36.000Z</time>
      </trkpt>
      <trkpt lat="43.15683" lon="5.78005">
        <ele>180.60000610352</ele>
        <time>2016-05-14T15:01:41.000Z</time>
      </trkpt>
      <trkpt lat="43.15678" lon="5.78012">
        <ele>179.39999389648</ele>
        <time>2016-05-14T15:01:43.000Z</time>
      </trkpt>
      <trkpt lat="43.1567" lon="5.78022">
        <ele>178</ele>
        <time>2016-05-14T15:01:46.000Z</time>
      </trkpt>
      <trkpt lat="43.15668" lon="5.7803">
        <ele>177.39999389648</ele>
        <time>2016-05-14T15:01:48.000Z</time>
      </trkpt>
      <trkpt lat="43.15671" lon="5.78041">
        <ele>178.80000305176</ele>
        <time>2016-05-14T15:01:51.000Z</time>
      </trkpt>
      <trkpt lat="43.15673" lon="5.78043">
        <ele>179.39999389648</ele>
        <time>2016-05-14T15:01:52.000Z</time>
      </trkpt>
      <trkpt lat="43.15679" lon="5.78044">
        <ele>181</ele>
        <time>2016-05-14T15:01:55.000Z</time>
      </trkpt>
      <trkpt lat="43.15685" lon="5.78034">
        <ele>182.19999694824</ele>
        <time>2016-05-14T15:01:59.000Z</time>
      </trkpt>
      <trkpt lat="43.15697" lon="5.78021">
        <ele>185</ele>
        <time>2016-05-14T15:02:04.000Z</time>
      </trkpt>
      <trkpt lat="43.15707" lon="5.78008">
        <ele>187.39999389648</ele>
        <time>2016-05-14T15:02:08.000Z</time>
      </trkpt>
      <trkpt lat="43.15714" lon="5.77996">
        <ele>190</ele>
        <time>2016-05-14T15:02:11.000Z</time>
      </trkpt>
      <trkpt lat="43.1572" lon="5.77988">
        <ele>192.19999694824</ele>
        <time>2016-05-14T15:02:13.000Z</time>
      </trkpt>
      <trkpt lat="43.15726" lon="5.77981">
        <ele>194.39999389648</ele>
        <time>2016-05-14T15:02:15.000Z</time>
      </trkpt>
      <trkpt lat="43.15734" lon="5.7797">
        <ele>197.39999389648</ele>
        <time>2016-05-14T15:02:18.000Z</time>
      </trkpt>
      <trkpt lat="43.15742" lon="5.77958">
        <ele>199.80000305176</ele>
        <time>2016-05-14T15:02:21.000Z</time>
      </trkpt>
      <trkpt lat="43.15754" lon="5.77941">
        <ele>200</ele>
        <time>2016-05-14T15:02:25.000Z</time>
      </trkpt>
      <trkpt lat="43.15762" lon="5.77928">
        <ele>199.39999389648</ele>
        <time>2016-05-14T15:02:28.000Z</time>
      </trkpt>
      <trkpt lat="43.1577" lon="5.77914">
        <ele>199.39999389648</ele>
        <time>2016-05-14T15:02:31.000Z</time>
      </trkpt>
      <trkpt lat="43.15778" lon="5.77902">
        <ele>199.60000610352</ele>
        <time>2016-05-14T15:02:34.000Z</time>
      </trkpt>
      <trkpt lat="43.1578" lon="5.77899">
        <ele>199.60000610352</ele>
        <time>2016-05-14T15:02:35.000Z</time>
      </trkpt>
      <trkpt lat="43.1579" lon="5.77889">
        <ele>200.39999389648</ele>
        <time>2016-05-14T15:02:39.000Z</time>
      </trkpt>
      <trkpt lat="43.15796" lon="5.77885">
        <ele>202.19999694824</ele>
        <time>2016-05-14T15:02:41.000Z</time>
      </trkpt>
      <trkpt lat="43.15806" lon="5.77882">
        <ele>205.19999694824</ele>
        <time>2016-05-14T15:02:44.000Z</time>
      </trkpt>
      <trkpt lat="43.15819" lon="5.77879">
        <ele>209</ele>
        <time>2016-05-14T15:02:48.000Z</time>
      </trkpt>
      <trkpt lat="43.15828" lon="5.77877">
        <ele>211.60000610352</ele>
        <time>2016-05-14T15:02:51.000Z</time>
      </trkpt>
      <trkpt lat="43.15835" lon="5.77867">
        <ele>213.39999389648</ele>
        <time>2016-05-14T15:02:54.000Z</time>
      </trkpt>
      <trkpt lat="43.15838" lon="5.77853">
        <ele>213.60000610352</ele>
        <time>2016-05-14T15:02:57.000Z</time>
      </trkpt>
      <trkpt lat="43.15837" lon="5.77848">
        <ele>213.19999694824</ele>
        <time>2016-05-14T15:02:58.000Z</time>
      </trkpt>
      <trkpt lat="43.15834" lon="5.7784">
        <ele>212.39999389648</ele>
        <time>2016-05-14T15:03:00.000Z</time>
      </trkpt>
      <trkpt lat="43.1583" lon="5.77826">
        <ele>211.19999694824</ele>
        <time>2016-05-14T15:03:03.000Z</time>
      </trkpt>
      <trkpt lat="43.15829" lon="5.77822">
        <ele>210.80000305176</ele>
        <time>2016-05-14T15:03:04.000Z</time>
      </trkpt>
      <trkpt lat="43.15828" lon="5.77808">
        <ele>210.19999694824</ele>
        <time>2016-05-14T15:03:07.000Z</time>
      </trkpt>
      <trkpt lat="43.15829" lon="5.77794">
        <ele>213.39999389648</ele>
        <time>2016-05-14T15:03:10.000Z</time>
      </trkpt>
      <trkpt lat="43.15828" lon="5.7779">
        <ele>214.80000305176</ele>
        <time>2016-05-14T15:03:11.000Z</time>
      </trkpt>
      <trkpt lat="43.15826" lon="5.77781">
        <ele>216.39999389648</ele>
        <time>2016-05-14T15:03:13.000Z</time>
      </trkpt>
      <trkpt lat="43.15822" lon="5.77774">
        <ele>217.19999694824</ele>
        <time>2016-05-14T15:03:15.000Z</time>
      </trkpt>
      <trkpt lat="43.1582" lon="5.77771">
        <ele>217.39999389648</ele>
        <time>2016-05-14T15:03:16.000Z</time>
      </trkpt>
      <trkpt lat="43.15817" lon="5.77769">
        <ele>217.39999389648</ele>
        <time>2016-05-14T15:03:17.000Z</time>
      </trkpt>
      <trkpt lat="43.15807" lon="5.77767">
        <ele>216.80000305176</ele>
        <time>2016-05-14T15:03:20.000Z</time>
      </trkpt>
      <trkpt lat="43.15803" lon="5.77765">
        <ele>216.60000610352</ele>
        <time>2016-05-14T15:03:21.000Z</time>
      </trkpt>
      <trkpt lat="43.15797" lon="5.7776">
        <ele>216.60000610352</ele>
        <time>2016-05-14T15:03:23.000Z</time>
      </trkpt>
      <trkpt lat="43.15785" lon="5.7775">
        <ele>216.80000305176</ele>
        <time>2016-05-14T15:03:27.000Z</time>
      </trkpt>
      <trkpt lat="43.15773" lon="5.7774">
        <ele>217.19999694824</ele>
        <time>2016-05-14T15:03:31.000Z</time>
      </trkpt>
      <trkpt lat="43.15763" lon="5.77733">
        <ele>216.80000305176</ele>
        <time>2016-05-14T15:03:34.000Z</time>
      </trkpt>
      <trkpt lat="43.15757" lon="5.7773">
        <ele>217.19999694824</ele>
        <time>2016-05-14T15:03:36.000Z</time>
      </trkpt>
      <trkpt lat="43.15748" lon="5.7773">
        <ele>217.60000610352</ele>
        <time>2016-05-14T15:03:39.000Z</time>
      </trkpt>
      <trkpt lat="43.15744" lon="5.7773">
        <ele>217.60000610352</ele>
        <time>2016-05-14T15:03:40.000Z</time>
      </trkpt>
      <trkpt lat="43.15737" lon="5.77729">
        <ele>217.80000305176</ele>
        <time>2016-05-14T15:03:42.000Z</time>
      </trkpt>
      <trkpt lat="43.15727" lon="5.77729">
        <ele>217.80000305176</ele>
        <time>2016-05-14T15:03:45.000Z</time>
      </trkpt>
      <trkpt lat="43.15716" lon="5.7773">
        <ele>217.80000305176</ele>
        <time>2016-05-14T15:03:48.000Z</time>
      </trkpt>
      <trkpt lat="43.1569" lon="5.77737">
        <ele>216</ele>
        <time>2016-05-14T15:03:55.000Z</time>
      </trkpt>
      <trkpt lat="43.15679" lon="5.77739">
        <ele>215.60000610352</ele>
        <time>2016-05-14T15:03:58.000Z</time>
      </trkpt>
      <trkpt lat="43.15665" lon="5.77739">
        <ele>213</ele>
        <time>2016-05-14T15:04:02.000Z</time>
      </trkpt>
      <trkpt lat="43.15662" lon="5.77738">
        <ele>212.60000610352</ele>
        <time>2016-05-14T15:04:03.000Z</time>
      </trkpt>
      <trkpt lat="43.15656" lon="5.77734">
        <ele>212.60000610352</ele>
        <time>2016-05-14T15:04:05.000Z</time>
      </trkpt>
      <trkpt lat="43.15648" lon="5.77726">
        <ele>213.60000610352</ele>
        <time>2016-05-14T15:04:08.000Z</time>
      </trkpt>
      <trkpt lat="43.15642" lon="5.77714">
        <ele>214.19999694824</ele>
        <time>2016-05-14T15:04:11.000Z</time>
      </trkpt>
      <trkpt lat="43.15641" lon="5.77705">
        <ele>214.80000305176</ele>
        <time>2016-05-14T15:04:13.000Z</time>
      </trkpt>
      <trkpt lat="43.15642" lon="5.77686">
        <ele>216.39999389648</ele>
        <time>2016-05-14T15:04:17.000Z</time>
      </trkpt>
      <trkpt lat="43.15642" lon="5.77676">
        <ele>217.80000305176</ele>
        <time>2016-05-14T15:04:19.000Z</time>
      </trkpt>
      <trkpt lat="43.15643" lon="5.77667">
        <ele>219.19999694824</ele>
        <time>2016-05-14T15:04:21.000Z</time>
      </trkpt>
      <trkpt lat="43.15643" lon="5.77662">
        <ele>220</ele>
        <time>2016-05-14T15:04:22.000Z</time>
      </trkpt>
      <trkpt lat="43.15644" lon="5.77658">
        <ele>220.80000305176</ele>
        <time>2016-05-14T15:04:23.000Z</time>
      </trkpt>
      <trkpt lat="43.15648" lon="5.77638">
        <ele>224.80000305176</ele>
        <time>2016-05-14T15:04:28.000Z</time>
      </trkpt>
      <trkpt lat="43.15654" lon="5.7763">
        <ele>226.60000610352</ele>
        <time>2016-05-14T15:04:32.000Z</time>
      </trkpt>
      <trkpt lat="43.15658" lon="5.77626">
        <ele>227.80000305176</ele>
        <time>2016-05-14T15:07:09.000Z</time>
      </trkpt>
      <trkpt lat="43.1566" lon="5.77625">
        <ele>228.39999389648</ele>
        <time>2016-05-14T15:07:10.000Z</time>
      </trkpt>
      <trkpt lat="43.15666" lon="5.77628">
        <ele>230</ele>
        <time>2016-05-14T15:07:13.000Z</time>
      </trkpt>
      <trkpt lat="43.15671" lon="5.77631">
        <ele>231.19999694824</ele>
        <time>2016-05-14T15:07:15.000Z</time>
      </trkpt>
      <trkpt lat="43.15676" lon="5.77639">
        <ele>232.19999694824</ele>
        <time>2016-05-14T15:07:18.000Z</time>
      </trkpt>
      <trkpt lat="43.15676" lon="5.77643">
        <ele>231.80000305176</ele>
        <time>2016-05-14T15:07:19.000Z</time>
      </trkpt>
      <trkpt lat="43.15678" lon="5.77655">
        <ele>230.60000610352</ele>
        <time>2016-05-14T15:07:22.000Z</time>
      </trkpt>
      <trkpt lat="43.15682" lon="5.77671">
        <ele>228.19999694824</ele>
        <time>2016-05-14T15:07:26.000Z</time>
      </trkpt>
      <trkpt lat="43.15692" lon="5.77689">
        <ele>225.60000610352</ele>
        <time>2016-05-14T15:07:31.000Z</time>
      </trkpt>
      <trkpt lat="43.15708" lon="5.77692">
        <ele>224.80000305176</ele>
        <time>2016-05-14T15:07:36.000Z</time>
      </trkpt>
      <trkpt lat="43.15728" lon="5.77686">
        <ele>225.60000610352</ele>
        <time>2016-05-14T15:07:42.000Z</time>
      </trkpt>
      <trkpt lat="43.15736" lon="5.77677">
        <ele>228</ele>
        <time>2016-05-14T15:07:45.000Z</time>
      </trkpt>
      <trkpt lat="43.15746" lon="5.7767">
        <ele>230.19999694824</ele>
        <time>2016-05-14T15:07:48.000Z</time>
      </trkpt>
      <trkpt lat="43.15758" lon="5.77663">
        <ele>232.39999389648</ele>
        <time>2016-05-14T15:07:52.000Z</time>
      </trkpt>
      <trkpt lat="43.15764" lon="5.7766">
        <ele>233.60000610352</ele>
        <time>2016-05-14T15:07:54.000Z</time>
      </trkpt>
      <trkpt lat="43.1578" lon="5.77659">
        <ele>235.60000610352</ele>
        <time>2016-05-14T15:07:59.000Z</time>
      </trkpt>
      <trkpt lat="43.15793" lon="5.77661">
        <ele>236.60000610352</ele>
        <time>2016-05-14T15:08:03.000Z</time>
      </trkpt>
      <trkpt lat="43.15803" lon="5.77656">
        <ele>238.60000610352</ele>
        <time>2016-05-14T15:08:06.000Z</time>
      </trkpt>
      <trkpt lat="43.15813" lon="5.77652">
        <ele>240.60000610352</ele>
        <time>2016-05-14T15:08:09.000Z</time>
      </trkpt>
      <trkpt lat="43.15822" lon="5.77651">
        <ele>241.80000305176</ele>
        <time>2016-05-14T15:08:12.000Z</time>
      </trkpt>
      <trkpt lat="43.1584" lon="5.77652">
        <ele>243.39999389648</ele>
        <time>2016-05-14T15:08:18.000Z</time>
      </trkpt>
      <trkpt lat="43.15853" lon="5.77658">
        <ele>245.60000610352</ele>
        <time>2016-05-14T15:08:22.000Z</time>
      </trkpt>
      <trkpt lat="43.15856" lon="5.77659">
        <ele>246.39999389648</ele>
        <time>2016-05-14T15:08:23.000Z</time>
      </trkpt>
      <trkpt lat="43.15864" lon="5.77666">
        <ele>247.60000610352</ele>
        <time>2016-05-14T15:08:26.000Z</time>
      </trkpt>
      <trkpt lat="43.15872" lon="5.77675">
        <ele>248.39999389648</ele>
        <time>2016-05-14T15:08:29.000Z</time>
      </trkpt>
      <trkpt lat="43.15889" lon="5.77692">
        <ele>250.39999389648</ele>
        <time>2016-05-14T15:08:35.000Z</time>
      </trkpt>
      <trkpt lat="43.15897" lon="5.77703">
        <ele>250.60000610352</ele>
        <time>2016-05-14T15:08:38.000Z</time>
      </trkpt>
      <trkpt lat="43.15902" lon="5.77714">
        <ele>250</ele>
        <time>2016-05-14T15:08:41.000Z</time>
      </trkpt>
      <trkpt lat="43.15909" lon="5.77726">
        <ele>249.80000305176</ele>
        <time>2016-05-14T15:08:44.000Z</time>
      </trkpt>
      <trkpt lat="43.1591" lon="5.7773">
        <ele>249.80000305176</ele>
        <time>2016-05-14T15:08:45.000Z</time>
      </trkpt>
      <trkpt lat="43.15912" lon="5.77734">
        <ele>249.60000610352</ele>
        <time>2016-05-14T15:08:46.000Z</time>
      </trkpt>
      <trkpt lat="43.15921" lon="5.77756">
        <ele>249.19999694824</ele>
        <time>2016-05-14T15:08:51.000Z</time>
      </trkpt>
      <trkpt lat="43.15924" lon="5.77764">
        <ele>249.19999694824</ele>
        <time>2016-05-14T15:08:53.000Z</time>
      </trkpt>
      <trkpt lat="43.15939" lon="5.77789">
        <ele>249.80000305176</ele>
        <time>2016-05-14T15:09:00.000Z</time>
      </trkpt>
      <trkpt lat="43.15959" lon="5.77809">
        <ele>253.39999389648</ele>
        <time>2016-05-14T15:09:07.000Z</time>
      </trkpt>
      <trkpt lat="43.15968" lon="5.77817">
        <ele>255</ele>
        <time>2016-05-14T15:09:10.000Z</time>
      </trkpt>
      <trkpt lat="43.15976" lon="5.77824">
        <ele>256.79998779297</ele>
        <time>2016-05-14T15:09:13.000Z</time>
      </trkpt>
      <trkpt lat="43.15982" lon="5.7783">
        <ele>258</ele>
        <time>2016-05-14T15:09:15.000Z</time>
      </trkpt>
      <trkpt lat="43.15993" lon="5.77835">
        <ele>260.60000610352</ele>
        <time>2016-05-14T15:09:18.000Z</time>
      </trkpt>
      <trkpt lat="43.15999" lon="5.77839">
        <ele>262</ele>
        <time>2016-05-14T15:09:20.000Z</time>
      </trkpt>
      <trkpt lat="43.16002" lon="5.77841">
        <ele>262.79998779297</ele>
        <time>2016-05-14T15:09:21.000Z</time>
      </trkpt>
      <trkpt lat="43.16008" lon="5.77845">
        <ele>264.20001220703</ele>
        <time>2016-05-14T15:09:23.000Z</time>
      </trkpt>
      <trkpt lat="43.16014" lon="5.77848">
        <ele>265.60000610352</ele>
        <time>2016-05-14T15:09:25.000Z</time>
      </trkpt>
      <trkpt lat="43.16019" lon="5.77853">
        <ele>266.79998779297</ele>
        <time>2016-05-14T15:09:27.000Z</time>
      </trkpt>
      <trkpt lat="43.16022" lon="5.77855">
        <ele>267.39999389648</ele>
        <time>2016-05-14T15:09:28.000Z</time>
      </trkpt>
      <trkpt lat="43.16039" lon="5.77869">
        <ele>270.79998779297</ele>
        <time>2016-05-14T15:09:34.000Z</time>
      </trkpt>
      <trkpt lat="43.1605" lon="5.77879">
        <ele>272.79998779297</ele>
        <time>2016-05-14T15:09:38.000Z</time>
      </trkpt>
      <trkpt lat="43.16058" lon="5.77886">
        <ele>274.39999389648</ele>
        <time>2016-05-14T15:09:41.000Z</time>
      </trkpt>
      <trkpt lat="43.16065" lon="5.77894">
        <ele>276.39999389648</ele>
        <time>2016-05-14T15:09:44.000Z</time>
      </trkpt>
      <trkpt lat="43.1607" lon="5.779">
        <ele>278</ele>
        <time>2016-05-14T15:09:46.000Z</time>
      </trkpt>
      <trkpt lat="43.16073" lon="5.77907">
        <ele>279.20001220703</ele>
        <time>2016-05-14T15:09:48.000Z</time>
      </trkpt>
      <trkpt lat="43.16078" lon="5.77918">
        <ele>281</ele>
        <time>2016-05-14T15:09:51.000Z</time>
      </trkpt>
      <trkpt lat="43.16082" lon="5.77932">
        <ele>282.20001220703</ele>
        <time>2016-05-14T15:09:54.000Z</time>
      </trkpt>
      <trkpt lat="43.16083" lon="5.77937">
        <ele>282.60000610352</ele>
        <time>2016-05-14T15:09:55.000Z</time>
      </trkpt>
      <trkpt lat="43.16083" lon="5.77951">
        <ele>283.20001220703</ele>
        <time>2016-05-14T15:09:58.000Z</time>
      </trkpt>
      <trkpt lat="43.16082" lon="5.77965">
        <ele>283.60000610352</ele>
        <time>2016-05-14T15:10:01.000Z</time>
      </trkpt>
      <trkpt lat="43.16077" lon="5.77982">
        <ele>282.60000610352</ele>
        <time>2016-05-14T15:10:05.000Z</time>
      </trkpt>
      <trkpt lat="43.16074" lon="5.7799">
        <ele>281.60000610352</ele>
        <time>2016-05-14T15:10:07.000Z</time>
      </trkpt>
      <trkpt lat="43.16071" lon="5.77998">
        <ele>280.79998779297</ele>
        <time>2016-05-14T15:10:09.000Z</time>
      </trkpt>
      <trkpt lat="43.16065" lon="5.78008">
        <ele>278.79998779297</ele>
        <time>2016-05-14T15:10:13.000Z</time>
      </trkpt>
      <trkpt lat="43.16061" lon="5.78011">
        <ele>278</ele>
        <time>2016-05-14T15:10:15.000Z</time>
      </trkpt>
      <trkpt lat="43.16059" lon="5.78015">
        <ele>277.39999389648</ele>
        <time>2016-05-14T15:10:17.000Z</time>
      </trkpt>
      <trkpt lat="43.16059" lon="5.78017">
        <ele>277.20001220703</ele>
        <time>2016-05-14T15:10:18.000Z</time>
      </trkpt>
      <trkpt lat="43.16056" lon="5.78023">
        <ele>277.20001220703</ele>
        <time>2016-05-14T15:10:21.000Z</time>
      </trkpt>
      <trkpt lat="43.16054" lon="5.78028">
        <ele>277.60000610352</ele>
        <time>2016-05-14T15:10:24.000Z</time>
      </trkpt>
      <trkpt lat="43.16056" lon="5.7803">
        <ele>278</ele>
        <time>2016-05-14T15:10:26.000Z</time>
      </trkpt>
      <trkpt lat="43.16059" lon="5.78026">
        <ele>278</ele>
        <time>2016-05-14T15:10:30.000Z</time>
      </trkpt>
      <trkpt lat="43.1606" lon="5.78026">
        <ele>278</ele>
        <time>2016-05-14T15:10:31.000Z</time>
      </trkpt>
      <trkpt lat="43.16058" lon="5.78031">
        <ele>278.20001220703</ele>
        <time>2016-05-14T15:12:26.000Z</time>
      </trkpt>
      <trkpt lat="43.16053" lon="5.78032">
        <ele>277.79998779297</ele>
        <time>2016-05-14T15:12:28.000Z</time>
      </trkpt>
      <trkpt lat="43.16032" lon="5.78041">
        <ele>276.79998779297</ele>
        <time>2016-05-14T15:12:33.000Z</time>
      </trkpt>
      <trkpt lat="43.16005" lon="5.78054">
        <ele>274.39999389648</ele>
        <time>2016-05-14T15:12:38.000Z</time>
      </trkpt>
      <trkpt lat="43.16" lon="5.78057">
        <ele>273.20001220703</ele>
        <time>2016-05-14T15:12:39.000Z</time>
      </trkpt>
      <trkpt lat="43.1599" lon="5.78062">
        <ele>270.20001220703</ele>
        <time>2016-05-14T15:12:41.000Z</time>
      </trkpt>
      <trkpt lat="43.15982" lon="5.78071">
        <ele>267.39999389648</ele>
        <time>2016-05-14T15:12:43.000Z</time>
      </trkpt>
      <trkpt lat="43.15978" lon="5.78076">
        <ele>266</ele>
        <time>2016-05-14T15:12:44.000Z</time>
      </trkpt>
      <trkpt lat="43.15975" lon="5.78083">
        <ele>264.60000610352</ele>
        <time>2016-05-14T15:12:45.000Z</time>
      </trkpt>
      <trkpt lat="43.1597" lon="5.78098">
        <ele>262</ele>
        <time>2016-05-14T15:12:47.000Z</time>
      </trkpt>
      <trkpt lat="43.15968" lon="5.78106">
        <ele>261.39999389648</ele>
        <time>2016-05-14T15:12:48.000Z</time>
      </trkpt>
      <trkpt lat="43.15967" lon="5.78115">
        <ele>260.79998779297</ele>
        <time>2016-05-14T15:12:49.000Z</time>
      </trkpt>
      <trkpt lat="43.15965" lon="5.78124">
        <ele>260.39999389648</ele>
        <time>2016-05-14T15:12:50.000Z</time>
      </trkpt>
      <trkpt lat="43.15964" lon="5.78147">
        <ele>256.60000610352</ele>
        <time>2016-05-14T15:12:53.000Z</time>
      </trkpt>
      <trkpt lat="43.15964" lon="5.78153">
        <ele>254.60000610352</ele>
        <time>2016-05-14T15:12:54.000Z</time>
      </trkpt>
      <trkpt lat="43.15965" lon="5.7816">
        <ele>252.60000610352</ele>
        <time>2016-05-14T15:12:55.000Z</time>
      </trkpt>
      <trkpt lat="43.15969" lon="5.7817">
        <ele>250.19999694824</ele>
        <time>2016-05-14T15:12:57.000Z</time>
      </trkpt>
      <trkpt lat="43.15981" lon="5.7818">
        <ele>249</ele>
        <time>2016-05-14T15:13:00.000Z</time>
      </trkpt>
      <trkpt lat="43.15987" lon="5.78183">
        <ele>249.19999694824</ele>
        <time>2016-05-14T15:13:01.000Z</time>
      </trkpt>
      <trkpt lat="43.16001" lon="5.78188">
        <ele>250</ele>
        <time>2016-05-14T15:13:03.000Z</time>
      </trkpt>
      <trkpt lat="43.16015" lon="5.78192">
        <ele>250.60000610352</ele>
        <time>2016-05-14T15:13:05.000Z</time>
      </trkpt>
      <trkpt lat="43.16022" lon="5.78194">
        <ele>250.60000610352</ele>
        <time>2016-05-14T15:13:06.000Z</time>
      </trkpt>
      <trkpt lat="43.16028" lon="5.78195">
        <ele>250.80000305176</ele>
        <time>2016-05-14T15:13:07.000Z</time>
      </trkpt>
      <trkpt lat="43.16041" lon="5.78193">
        <ele>252.39999389648</ele>
        <time>2016-05-14T15:13:09.000Z</time>
      </trkpt>
      <trkpt lat="43.16048" lon="5.7819">
        <ele>254</ele>
        <time>2016-05-14T15:13:10.000Z</time>
      </trkpt>
      <trkpt lat="43.16054" lon="5.78186">
        <ele>255.60000610352</ele>
        <time>2016-05-14T15:13:11.000Z</time>
      </trkpt>
      <trkpt lat="43.16071" lon="5.7817">
        <ele>258.39999389648</ele>
        <time>2016-05-14T15:13:14.000Z</time>
      </trkpt>
      <trkpt lat="43.16077" lon="5.78166">
        <ele>259</ele>
        <time>2016-05-14T15:13:15.000Z</time>
      </trkpt>
      <trkpt lat="43.16083" lon="5.78163">
        <ele>259.60000610352</ele>
        <time>2016-05-14T15:13:16.000Z</time>
      </trkpt>
      <trkpt lat="43.16096" lon="5.78162">
        <ele>259.60000610352</ele>
        <time>2016-05-14T15:13:18.000Z</time>
      </trkpt>
      <trkpt lat="43.16103" lon="5.78164">
        <ele>260.79998779297</ele>
        <time>2016-05-14T15:13:19.000Z</time>
      </trkpt>
      <trkpt lat="43.16114" lon="5.78177">
        <ele>260.79998779297</ele>
        <time>2016-05-14T15:13:21.000Z</time>
      </trkpt>
      <trkpt lat="43.16117" lon="5.78185">
        <ele>259.79998779297</ele>
        <time>2016-05-14T15:13:22.000Z</time>
      </trkpt>
      <trkpt lat="43.16121" lon="5.78207">
        <ele>256.20001220703</ele>
        <time>2016-05-14T15:13:24.000Z</time>
      </trkpt>
      <trkpt lat="43.16123" lon="5.7823">
        <ele>254.19999694824</ele>
        <time>2016-05-14T15:13:26.000Z</time>
      </trkpt>
      <trkpt lat="43.16124" lon="5.78242">
        <ele>254.60000610352</ele>
        <time>2016-05-14T15:13:27.000Z</time>
      </trkpt>
      <trkpt lat="43.16125" lon="5.78265">
        <ele>254</ele>
        <time>2016-05-14T15:13:29.000Z</time>
      </trkpt>
      <trkpt lat="43.16126" lon="5.78277">
        <ele>253.39999389648</ele>
        <time>2016-05-14T15:13:30.000Z</time>
      </trkpt>
      <trkpt lat="43.16127" lon="5.78298">
        <ele>252</ele>
        <time>2016-05-14T15:13:32.000Z</time>
      </trkpt>
      <trkpt lat="43.16127" lon="5.78327">
        <ele>253.80000305176</ele>
        <time>2016-05-14T15:13:35.000Z</time>
      </trkpt>
      <trkpt lat="43.16124" lon="5.78374">
        <ele>254.39999389648</ele>
        <time>2016-05-14T15:13:41.000Z</time>
      </trkpt>
      <trkpt lat="43.16122" lon="5.78382">
        <ele>254</ele>
        <time>2016-05-14T15:13:42.000Z</time>
      </trkpt>
      <trkpt lat="43.16115" lon="5.7841">
        <ele>252.60000610352</ele>
        <time>2016-05-14T15:13:46.000Z</time>
      </trkpt>
      <trkpt lat="43.1611" lon="5.78429">
        <ele>251.39999389648</ele>
        <time>2016-05-14T15:13:49.000Z</time>
      </trkpt>
      <trkpt lat="43.16106" lon="5.7844">
        <ele>250.39999389648</ele>
        <time>2016-05-14T15:13:51.000Z</time>
      </trkpt>
      <trkpt lat="43.16101" lon="5.78461">
        <ele>249.60000610352</ele>
        <time>2016-05-14T15:13:55.000Z</time>
      </trkpt>
      <trkpt lat="43.16099" lon="5.78501">
        <ele>245</ele>
        <time>2016-05-14T15:14:03.000Z</time>
      </trkpt>
      <trkpt lat="43.16104" lon="5.78527">
        <ele>243.80000305176</ele>
        <time>2016-05-14T15:14:09.000Z</time>
      </trkpt>
      <trkpt lat="43.16107" lon="5.78534">
        <ele>244</ele>
        <time>2016-05-14T15:14:11.000Z</time>
      </trkpt>
      <trkpt lat="43.16115" lon="5.78558">
        <ele>244.60000610352</ele>
        <time>2016-05-14T15:14:17.000Z</time>
      </trkpt>
      <trkpt lat="43.16117" lon="5.78562">
        <ele>244.39999389648</ele>
        <time>2016-05-14T15:14:18.000Z</time>
      </trkpt>
      <trkpt lat="43.16127" lon="5.78586">
        <ele>244</ele>
        <time>2016-05-14T15:14:23.000Z</time>
      </trkpt>
      <trkpt lat="43.16134" lon="5.78606">
        <ele>244.60000610352</ele>
        <time>2016-05-14T15:14:27.000Z</time>
      </trkpt>
      <trkpt lat="43.16138" lon="5.78616">
        <ele>245</ele>
        <time>2016-05-14T15:14:29.000Z</time>
      </trkpt>
      <trkpt lat="43.16151" lon="5.78639">
        <ele>247.80000305176</ele>
        <time>2016-05-14T15:14:34.000Z</time>
      </trkpt>
      <trkpt lat="43.16158" lon="5.78647">
        <ele>249.60000610352</ele>
        <time>2016-05-14T15:14:36.000Z</time>
      </trkpt>
      <trkpt lat="43.16177" lon="5.78671">
        <ele>255.19999694824</ele>
        <time>2016-05-14T15:14:42.000Z</time>
      </trkpt>
      <trkpt lat="43.1618" lon="5.78675">
        <ele>254.80000305176</ele>
        <time>2016-05-14T15:14:43.000Z</time>
      </trkpt>
      <trkpt lat="43.1619" lon="5.78694">
        <ele>250.80000305176</ele>
        <time>2016-05-14T15:14:47.000Z</time>
      </trkpt>
      <trkpt lat="43.16194" lon="5.78704">
        <ele>248.80000305176</ele>
        <time>2016-05-14T15:14:49.000Z</time>
      </trkpt>
      <trkpt lat="43.16195" lon="5.7871">
        <ele>248.19999694824</ele>
        <time>2016-05-14T15:14:50.000Z</time>
      </trkpt>
      <trkpt lat="43.16193" lon="5.78743">
        <ele>246.39999389648</ele>
        <time>2016-05-14T15:14:55.000Z</time>
      </trkpt>
      <trkpt lat="43.16191" lon="5.78749">
        <ele>248.60000610352</ele>
        <time>2016-05-14T15:14:56.000Z</time>
      </trkpt>
      <trkpt lat="43.16181" lon="5.78769">
        <ele>257.79998779297</ele>
        <time>2016-05-14T15:15:00.000Z</time>
      </trkpt>
      <trkpt lat="43.16175" lon="5.78777">
        <ele>261</ele>
        <time>2016-05-14T15:15:02.000Z</time>
      </trkpt>
      <trkpt lat="43.16172" lon="5.7878">
        <ele>261</ele>
        <time>2016-05-14T15:15:03.000Z</time>
      </trkpt>
      <trkpt lat="43.16166" lon="5.78784">
        <ele>261</ele>
        <time>2016-05-14T15:15:05.000Z</time>
      </trkpt>
      <trkpt lat="43.16161" lon="5.78789">
        <ele>261.20001220703</ele>
        <time>2016-05-14T15:15:07.000Z</time>
      </trkpt>
      <trkpt lat="43.16154" lon="5.78798">
        <ele>263</ele>
        <time>2016-05-14T15:15:10.000Z</time>
      </trkpt>
      <trkpt lat="43.16153" lon="5.78802">
        <ele>264</ele>
        <time>2016-05-14T15:15:11.000Z</time>
      </trkpt>
      <trkpt lat="43.16144" lon="5.78821">
        <ele>266.20001220703</ele>
        <time>2016-05-14T15:15:15.000Z</time>
      </trkpt>
      <trkpt lat="43.1614" lon="5.7883">
        <ele>266.79998779297</ele>
        <time>2016-05-14T15:15:17.000Z</time>
      </trkpt>
      <trkpt lat="43.16134" lon="5.78839">
        <ele>267.60000610352</ele>
        <time>2016-05-14T15:15:19.000Z</time>
      </trkpt>
      <trkpt lat="43.16127" lon="5.78846">
        <ele>268.60000610352</ele>
        <time>2016-05-14T15:15:21.000Z</time>
      </trkpt>
      <trkpt lat="43.1612" lon="5.78851">
        <ele>269.60000610352</ele>
        <time>2016-05-14T15:15:23.000Z</time>
      </trkpt>
      <trkpt lat="43.1611" lon="5.78858">
        <ele>271.20001220703</ele>
        <time>2016-05-14T15:15:26.000Z</time>
      </trkpt>
      <trkpt lat="43.16103" lon="5.78866">
        <ele>272.79998779297</ele>
        <time>2016-05-14T15:15:28.000Z</time>
      </trkpt>
      <trkpt lat="43.16101" lon="5.78871">
        <ele>273.79998779297</ele>
        <time>2016-05-14T15:15:29.000Z</time>
      </trkpt>
      <trkpt lat="43.16096" lon="5.78886">
        <ele>276.60000610352</ele>
        <time>2016-05-14T15:15:32.000Z</time>
      </trkpt>
      <trkpt lat="43.16094" lon="5.78902">
        <ele>278.20001220703</ele>
        <time>2016-05-14T15:15:35.000Z</time>
      </trkpt>
      <trkpt lat="43.16093" lon="5.78908">
        <ele>278.60000610352</ele>
        <time>2016-05-14T15:15:36.000Z</time>
      </trkpt>
      <trkpt lat="43.16092" lon="5.7892">
        <ele>279.60000610352</ele>
        <time>2016-05-14T15:15:38.000Z</time>
      </trkpt>
      <trkpt lat="43.16089" lon="5.78937">
        <ele>281</ele>
        <time>2016-05-14T15:15:41.000Z</time>
      </trkpt>
      <trkpt lat="43.16087" lon="5.78948">
        <ele>282</ele>
        <time>2016-05-14T15:15:43.000Z</time>
      </trkpt>
      <trkpt lat="43.16084" lon="5.78964">
        <ele>283.39999389648</ele>
        <time>2016-05-14T15:15:46.000Z</time>
      </trkpt>
      <trkpt lat="43.16079" lon="5.78981">
        <ele>285</ele>
        <time>2016-05-14T15:15:49.000Z</time>
      </trkpt>
      <trkpt lat="43.16075" lon="5.7899">
        <ele>285.79998779297</ele>
        <time>2016-05-14T15:15:51.000Z</time>
      </trkpt>
      <trkpt lat="43.16072" lon="5.78995">
        <ele>286.20001220703</ele>
        <time>2016-05-14T15:15:52.000Z</time>
      </trkpt>
      <trkpt lat="43.16064" lon="5.79007">
        <ele>287.20001220703</ele>
        <time>2016-05-14T15:15:55.000Z</time>
      </trkpt>
      <trkpt lat="43.16055" lon="5.79019">
        <ele>288.20001220703</ele>
        <time>2016-05-14T15:15:58.000Z</time>
      </trkpt>
      <trkpt lat="43.16052" lon="5.79023">
        <ele>288</ele>
        <time>2016-05-14T15:15:59.000Z</time>
      </trkpt>
      <trkpt lat="43.16042" lon="5.79035">
        <ele>287.79998779297</ele>
        <time>2016-05-14T15:16:02.000Z</time>
      </trkpt>
      <trkpt lat="43.16031" lon="5.79053">
        <ele>287.60000610352</ele>
        <time>2016-05-14T15:16:06.000Z</time>
      </trkpt>
      <trkpt lat="43.16028" lon="5.79057">
        <ele>287.79998779297</ele>
        <time>2016-05-14T15:16:07.000Z</time>
      </trkpt>
      <trkpt lat="43.16024" lon="5.79068">
        <ele>288.20001220703</ele>
        <time>2016-05-14T15:16:09.000Z</time>
      </trkpt>
      <trkpt lat="43.16022" lon="5.79073">
        <ele>288.60000610352</ele>
        <time>2016-05-14T15:16:10.000Z</time>
      </trkpt>
      <trkpt lat="43.16021" lon="5.79085">
        <ele>289.20001220703</ele>
        <time>2016-05-14T15:16:12.000Z</time>
      </trkpt>
      <trkpt lat="43.16019" lon="5.79107">
        <ele>290.39999389648</ele>
        <time>2016-05-14T15:16:16.000Z</time>
      </trkpt>
      <trkpt lat="43.16017" lon="5.79129">
        <ele>291.60000610352</ele>
        <time>2016-05-14T15:16:20.000Z</time>
      </trkpt>
      <trkpt lat="43.16017" lon="5.79134">
        <ele>292</ele>
        <time>2016-05-14T15:16:21.000Z</time>
      </trkpt>
      <trkpt lat="43.16018" lon="5.79141">
        <ele>292.39999389648</ele>
        <time>2016-05-14T15:16:23.000Z</time>
      </trkpt>
      <trkpt lat="43.16021" lon="5.79149">
        <ele>292.79998779297</ele>
        <time>2016-05-14T15:16:26.000Z</time>
      </trkpt>
      <trkpt lat="43.16022" lon="5.79158">
        <ele>293.60000610352</ele>
        <time>2016-05-14T15:18:18.000Z</time>
      </trkpt>
      <trkpt lat="43.16015" lon="5.79165">
        <ele>294</ele>
        <time>2016-05-14T15:18:22.000Z</time>
      </trkpt>
      <trkpt lat="43.16012" lon="5.79179">
        <ele>295</ele>
        <time>2016-05-14T15:18:25.000Z</time>
      </trkpt>
      <trkpt lat="43.16011" lon="5.79189">
        <ele>295.60000610352</ele>
        <time>2016-05-14T15:18:27.000Z</time>
      </trkpt>
      <trkpt lat="43.16011" lon="5.79203">
        <ele>296.60000610352</ele>
        <time>2016-05-14T15:18:30.000Z</time>
      </trkpt>
      <trkpt lat="43.16015" lon="5.79211">
        <ele>297.39999389648</ele>
        <time>2016-05-14T15:18:32.000Z</time>
      </trkpt>
      <trkpt lat="43.16017" lon="5.79216">
        <ele>297.60000610352</ele>
        <time>2016-05-14T15:18:33.000Z</time>
      </trkpt>
      <trkpt lat="43.16023" lon="5.79221">
        <ele>298.20001220703</ele>
        <time>2016-05-14T15:18:35.000Z</time>
      </trkpt>
      <trkpt lat="43.16026" lon="5.79223">
        <ele>298.20001220703</ele>
        <time>2016-05-14T15:18:36.000Z</time>
      </trkpt>
      <trkpt lat="43.1603" lon="5.79225">
        <ele>298.20001220703</ele>
        <time>2016-05-14T15:18:37.000Z</time>
      </trkpt>
      <trkpt lat="43.16037" lon="5.79229">
        <ele>298.20001220703</ele>
        <time>2016-05-14T15:18:39.000Z</time>
      </trkpt>
      <trkpt lat="43.1605" lon="5.7924">
        <ele>298</ele>
        <time>2016-05-14T15:18:43.000Z</time>
      </trkpt>
      <trkpt lat="43.16052" lon="5.79244">
        <ele>298</ele>
        <time>2016-05-14T15:18:44.000Z</time>
      </trkpt>
      <trkpt lat="43.16055" lon="5.7926">
        <ele>297.60000610352</ele>
        <time>2016-05-14T15:18:47.000Z</time>
      </trkpt>
      <trkpt lat="43.16055" lon="5.79266">
        <ele>297.60000610352</ele>
        <time>2016-05-14T15:18:48.000Z</time>
      </trkpt>
      <trkpt lat="43.16054" lon="5.79277">
        <ele>299</ele>
        <time>2016-05-14T15:18:50.000Z</time>
      </trkpt>
      <trkpt lat="43.16049" lon="5.79297">
        <ele>302</ele>
        <time>2016-05-14T15:18:54.000Z</time>
      </trkpt>
      <trkpt lat="43.16045" lon="5.79311">
        <ele>302.60000610352</ele>
        <time>2016-05-14T15:18:57.000Z</time>
      </trkpt>
      <trkpt lat="43.16039" lon="5.79325">
        <ele>301.20001220703</ele>
        <time>2016-05-14T15:19:00.000Z</time>
      </trkpt>
      <trkpt lat="43.16034" lon="5.79332">
        <ele>302</ele>
        <time>2016-05-14T15:19:02.000Z</time>
      </trkpt>
      <trkpt lat="43.16031" lon="5.79335">
        <ele>303.39999389648</ele>
        <time>2016-05-14T15:19:03.000Z</time>
      </trkpt>
      <trkpt lat="43.1602" lon="5.79339">
        <ele>308</ele>
        <time>2016-05-14T15:19:06.000Z</time>
      </trkpt>
      <trkpt lat="43.16009" lon="5.79343">
        <ele>312</ele>
        <time>2016-05-14T15:19:09.000Z</time>
      </trkpt>
      <trkpt lat="43.15997" lon="5.79346">
        <ele>311.79998779297</ele>
        <time>2016-05-14T15:19:12.000Z</time>
      </trkpt>
      <trkpt lat="43.1599" lon="5.7935">
        <ele>311.79998779297</ele>
        <time>2016-05-14T15:19:14.000Z</time>
      </trkpt>
      <trkpt lat="43.15979" lon="5.79357">
        <ele>312</ele>
        <time>2016-05-14T15:19:17.000Z</time>
      </trkpt>
      <trkpt lat="43.15965" lon="5.79367">
        <ele>314.60000610352</ele>
        <time>2016-05-14T15:19:21.000Z</time>
      </trkpt>
      <trkpt lat="43.15958" lon="5.79372">
        <ele>315.79998779297</ele>
        <time>2016-05-14T15:19:23.000Z</time>
      </trkpt>
      <trkpt lat="43.15951" lon="5.79377">
        <ele>317</ele>
        <time>2016-05-14T15:19:25.000Z</time>
      </trkpt>
      <trkpt lat="43.15936" lon="5.79386">
        <ele>319.20001220703</ele>
        <time>2016-05-14T15:19:29.000Z</time>
      </trkpt>
      <trkpt lat="43.15932" lon="5.79388">
        <ele>319.79998779297</ele>
        <time>2016-05-14T15:19:30.000Z</time>
      </trkpt>
      <trkpt lat="43.15925" lon="5.79393">
        <ele>320</ele>
        <time>2016-05-14T15:19:32.000Z</time>
      </trkpt>
      <trkpt lat="43.15915" lon="5.794">
        <ele>319.60000610352</ele>
        <time>2016-05-14T15:19:35.000Z</time>
      </trkpt>
      <trkpt lat="43.15904" lon="5.79404">
        <ele>319.20001220703</ele>
        <time>2016-05-14T15:19:38.000Z</time>
      </trkpt>
      <trkpt lat="43.159" lon="5.79405">
        <ele>319</ele>
        <time>2016-05-14T15:19:39.000Z</time>
      </trkpt>
      <trkpt lat="43.15889" lon="5.79409">
        <ele>318.39999389648</ele>
        <time>2016-05-14T15:19:42.000Z</time>
      </trkpt>
      <trkpt lat="43.15884" lon="5.79415">
        <ele>318.39999389648</ele>
        <time>2016-05-14T15:19:44.000Z</time>
      </trkpt>
      <trkpt lat="43.15882" lon="5.79425">
        <ele>318.60000610352</ele>
        <time>2016-05-14T15:19:46.000Z</time>
      </trkpt>
      <trkpt lat="43.15882" lon="5.79435">
        <ele>319</ele>
        <time>2016-05-14T15:19:48.000Z</time>
      </trkpt>
      <trkpt lat="43.15883" lon="5.7944">
        <ele>319.39999389648</ele>
        <time>2016-05-14T15:19:49.000Z</time>
      </trkpt>
      <trkpt lat="43.15889" lon="5.79461">
        <ele>320.60000610352</ele>
        <time>2016-05-14T15:19:53.000Z</time>
      </trkpt>
      <trkpt lat="43.15905" lon="5.79504">
        <ele>319.60000610352</ele>
        <time>2016-05-14T15:20:01.000Z</time>
      </trkpt>
      <trkpt lat="43.15926" lon="5.79545">
        <ele>317.60000610352</ele>
        <time>2016-05-14T15:20:07.000Z</time>
      </trkpt>
      <trkpt lat="43.15957" lon="5.79599">
        <ele>318</ele>
        <time>2016-05-14T15:20:15.000Z</time>
      </trkpt>
      <trkpt lat="43.15965" lon="5.79615">
        <ele>318.39999389648</ele>
        <time>2016-05-14T15:20:19.000Z</time>
      </trkpt>
      <trkpt lat="43.15966" lon="5.79619">
        <ele>318.60000610352</ele>
        <time>2016-05-14T15:20:21.000Z</time>
      </trkpt>
      <trkpt lat="43.15966" lon="5.79623">
        <ele>318.60000610352</ele>
        <time>2016-05-14T15:21:38.000Z</time>
      </trkpt>
      <trkpt lat="43.15963" lon="5.79636">
        <ele>319</ele>
        <time>2016-05-14T15:21:43.000Z</time>
      </trkpt>
      <trkpt lat="43.1595" lon="5.79653">
        <ele>320.20001220703</ele>
        <time>2016-05-14T15:21:48.000Z</time>
      </trkpt>
      <trkpt lat="43.1593" lon="5.79674">
        <ele>323.20001220703</ele>
        <time>2016-05-14T15:21:54.000Z</time>
      </trkpt>
      <trkpt lat="43.15914" lon="5.79688">
        <ele>324</ele>
        <time>2016-05-14T15:21:59.000Z</time>
      </trkpt>
      <trkpt lat="43.15902" lon="5.797">
        <ele>324.39999389648</ele>
        <time>2016-05-14T15:22:03.000Z</time>
      </trkpt>
      <trkpt lat="43.15888" lon="5.79715">
        <ele>325</ele>
        <time>2016-05-14T15:22:08.000Z</time>
      </trkpt>
      <trkpt lat="43.15883" lon="5.79722">
        <ele>325.20001220703</ele>
        <time>2016-05-14T15:22:10.000Z</time>
      </trkpt>
      <trkpt lat="43.15876" lon="5.79735">
        <ele>325.39999389648</ele>
        <time>2016-05-14T15:22:13.000Z</time>
      </trkpt>
      <trkpt lat="43.15871" lon="5.79749">
        <ele>326</ele>
        <time>2016-05-14T15:22:16.000Z</time>
      </trkpt>
      <trkpt lat="43.1587" lon="5.79754">
        <ele>326.60000610352</ele>
        <time>2016-05-14T15:22:17.000Z</time>
      </trkpt>
      <trkpt lat="43.15867" lon="5.79776">
        <ele>329.79998779297</ele>
        <time>2016-05-14T15:22:21.000Z</time>
      </trkpt>
      <trkpt lat="43.15866" lon="5.79793">
        <ele>332.20001220703</ele>
        <time>2016-05-14T15:22:24.000Z</time>
      </trkpt>
      <trkpt lat="43.15865" lon="5.79798">
        <ele>333</ele>
        <time>2016-05-14T15:22:25.000Z</time>
      </trkpt>
      <trkpt lat="43.15856" lon="5.79815">
        <ele>333.79998779297</ele>
        <time>2016-05-14T15:22:29.000Z</time>
      </trkpt>
      <trkpt lat="43.15837" lon="5.79824">
        <ele>335.20001220703</ele>
        <time>2016-05-14T15:22:34.000Z</time>
      </trkpt>
      <trkpt lat="43.15811" lon="5.79827">
        <ele>331.39999389648</ele>
        <time>2016-05-14T15:22:39.000Z</time>
      </trkpt>
      <trkpt lat="43.15793" lon="5.79834">
        <ele>329</ele>
        <time>2016-05-14T15:22:43.000Z</time>
      </trkpt>
      <trkpt lat="43.15789" lon="5.79837">
        <ele>329</ele>
        <time>2016-05-14T15:22:44.000Z</time>
      </trkpt>
      <trkpt lat="43.15777" lon="5.79847">
        <ele>329.20001220703</ele>
        <time>2016-05-14T15:22:48.000Z</time>
      </trkpt>
      <trkpt lat="43.15771" lon="5.79853">
        <ele>329.39999389648</ele>
        <time>2016-05-14T15:22:51.000Z</time>
      </trkpt>
      <trkpt lat="43.15767" lon="5.7986">
        <ele>330</ele>
        <time>2016-05-14T15:22:54.000Z</time>
      </trkpt>
      <trkpt lat="43.15766" lon="5.79863">
        <ele>330.39999389648</ele>
        <time>2016-05-14T15:22:55.000Z</time>
      </trkpt>
      <trkpt lat="43.15764" lon="5.79874">
        <ele>332</ele>
        <time>2016-05-14T15:22:59.000Z</time>
      </trkpt>
      <trkpt lat="43.15763" lon="5.79877">
        <ele>332.39999389648</ele>
        <time>2016-05-14T15:23:00.000Z</time>
      </trkpt>
      <trkpt lat="43.1576" lon="5.79901">
        <ele>334.60000610352</ele>
        <time>2016-05-14T15:23:05.000Z</time>
      </trkpt>
      <trkpt lat="43.15759" lon="5.79913">
        <ele>335.20001220703</ele>
        <time>2016-05-14T15:23:07.000Z</time>
      </trkpt>
      <trkpt lat="43.15758" lon="5.79937">
        <ele>336.60000610352</ele>
        <time>2016-05-14T15:23:11.000Z</time>
      </trkpt>
      <trkpt lat="43.15758" lon="5.79955">
        <ele>338</ele>
        <time>2016-05-14T15:23:14.000Z</time>
      </trkpt>
      <trkpt lat="43.15758" lon="5.79961">
        <ele>338.39999389648</ele>
        <time>2016-05-14T15:23:15.000Z</time>
      </trkpt>
      <trkpt lat="43.15758" lon="5.79992">
        <ele>340.79998779297</ele>
        <time>2016-05-14T15:23:20.000Z</time>
      </trkpt>
      <trkpt lat="43.15757" lon="5.80022">
        <ele>342.60000610352</ele>
        <time>2016-05-14T15:23:25.000Z</time>
      </trkpt>
      <trkpt lat="43.15756" lon="5.80028">
        <ele>342.79998779297</ele>
        <time>2016-05-14T15:23:26.000Z</time>
      </trkpt>
      <trkpt lat="43.1575" lon="5.80089">
        <ele>345.79998779297</ele>
        <time>2016-05-14T15:23:36.000Z</time>
      </trkpt>
      <trkpt lat="43.15748" lon="5.80107">
        <ele>346.79998779297</ele>
        <time>2016-05-14T15:23:39.000Z</time>
      </trkpt>
      <trkpt lat="43.15745" lon="5.80125">
        <ele>347.39999389648</ele>
        <time>2016-05-14T15:23:42.000Z</time>
      </trkpt>
      <trkpt lat="43.15741" lon="5.80136">
        <ele>347.79998779297</ele>
        <time>2016-05-14T15:23:44.000Z</time>
      </trkpt>
      <trkpt lat="43.15739" lon="5.80142">
        <ele>347.60000610352</ele>
        <time>2016-05-14T15:23:45.000Z</time>
      </trkpt>
      <trkpt lat="43.15732" lon="5.80166">
        <ele>347</ele>
        <time>2016-05-14T15:23:49.000Z</time>
      </trkpt>
      <trkpt lat="43.15726" lon="5.80188">
        <ele>346.79998779297</ele>
        <time>2016-05-14T15:23:53.000Z</time>
      </trkpt>
      <trkpt lat="43.15721" lon="5.80211">
        <ele>348.60000610352</ele>
        <time>2016-05-14T15:23:57.000Z</time>
      </trkpt>
      <trkpt lat="43.15716" lon="5.80228">
        <ele>349</ele>
        <time>2016-05-14T15:24:00.000Z</time>
      </trkpt>
      <trkpt lat="43.15711" lon="5.80238">
        <ele>348.60000610352</ele>
        <time>2016-05-14T15:24:02.000Z</time>
      </trkpt>
      <trkpt lat="43.15702" lon="5.80253">
        <ele>348</ele>
        <time>2016-05-14T15:24:05.000Z</time>
      </trkpt>
      <trkpt lat="43.15686" lon="5.80281">
        <ele>348.79998779297</ele>
        <time>2016-05-14T15:24:11.000Z</time>
      </trkpt>
      <trkpt lat="43.15677" lon="5.80293">
        <ele>349</ele>
        <time>2016-05-14T15:24:14.000Z</time>
      </trkpt>
      <trkpt lat="43.15669" lon="5.80304">
        <ele>348.39999389648</ele>
        <time>2016-05-14T15:24:17.000Z</time>
      </trkpt>
      <trkpt lat="43.15655" lon="5.80328">
        <ele>343.60000610352</ele>
        <time>2016-05-14T15:24:23.000Z</time>
      </trkpt>
      <trkpt lat="43.15653" lon="5.80348">
        <ele>340.79998779297</ele>
        <time>2016-05-14T15:24:27.000Z</time>
      </trkpt>
      <trkpt lat="43.15654" lon="5.80353">
        <ele>340.39999389648</ele>
        <time>2016-05-14T15:24:28.000Z</time>
      </trkpt>
      <trkpt lat="43.15657" lon="5.80358">
        <ele>340.20001220703</ele>
        <time>2016-05-14T15:24:29.000Z</time>
      </trkpt>
      <trkpt lat="43.15667" lon="5.80368">
        <ele>340.60000610352</ele>
        <time>2016-05-14T15:24:32.000Z</time>
      </trkpt>
      <trkpt lat="43.15685" lon="5.80388">
        <ele>341</ele>
        <time>2016-05-14T15:24:39.000Z</time>
      </trkpt>
      <trkpt lat="43.15697" lon="5.80407">
        <ele>341.39999389648</ele>
        <time>2016-05-14T15:24:44.000Z</time>
      </trkpt>
      <trkpt lat="43.15722" lon="5.80441">
        <ele>341.79998779297</ele>
        <time>2016-05-14T15:24:51.000Z</time>
      </trkpt>
      <trkpt lat="43.15746" lon="5.80481">
        <ele>342.20001220703</ele>
        <time>2016-05-14T15:24:58.000Z</time>
      </trkpt>
      <trkpt lat="43.15765" lon="5.80527">
        <ele>345.20001220703</ele>
        <time>2016-05-14T15:25:06.000Z</time>
      </trkpt>
      <trkpt lat="43.15775" lon="5.80561">
        <ele>345.60000610352</ele>
        <time>2016-05-14T15:25:12.000Z</time>
      </trkpt>
      <trkpt lat="43.15776" lon="5.80566">
        <ele>346.60000610352</ele>
        <time>2016-05-14T15:25:13.000Z</time>
      </trkpt>
      <trkpt lat="43.1577" lon="5.80593">
        <ele>349.79998779297</ele>
        <time>2016-05-14T15:25:18.000Z</time>
      </trkpt>
      <trkpt lat="43.15769" lon="5.80598">
        <ele>350.39999389648</ele>
        <time>2016-05-14T15:25:19.000Z</time>
      </trkpt>
      <trkpt lat="43.15751" lon="5.80634">
        <ele>351.79998779297</ele>
        <time>2016-05-14T15:25:27.000Z</time>
      </trkpt>
      <trkpt lat="43.15745" lon="5.80646">
        <ele>351.60000610352</ele>
        <time>2016-05-14T15:25:30.000Z</time>
      </trkpt>
      <trkpt lat="43.15732" lon="5.80673">
        <ele>351.39999389648</ele>
        <time>2016-05-14T15:25:36.000Z</time>
      </trkpt>
      <trkpt lat="43.15718" lon="5.80703">
        <ele>352</ele>
        <time>2016-05-14T15:25:42.000Z</time>
      </trkpt>
      <trkpt lat="43.15706" lon="5.80727">
        <ele>352</ele>
        <time>2016-05-14T15:25:47.000Z</time>
      </trkpt>
      <trkpt lat="43.15693" lon="5.80749">
        <ele>349.79998779297</ele>
        <time>2016-05-14T15:25:52.000Z</time>
      </trkpt>
      <trkpt lat="43.15687" lon="5.80762">
        <ele>348.39999389648</ele>
        <time>2016-05-14T15:25:55.000Z</time>
      </trkpt>
      <trkpt lat="43.15685" lon="5.80767">
        <ele>348</ele>
        <time>2016-05-14T15:25:56.000Z</time>
      </trkpt>
      <trkpt lat="43.15684" lon="5.80787">
        <ele>348.20001220703</ele>
        <time>2016-05-14T15:26:00.000Z</time>
      </trkpt>
      <trkpt lat="43.15694" lon="5.80803">
        <ele>351.20001220703</ele>
        <time>2016-05-14T15:26:04.000Z</time>
      </trkpt>
      <trkpt lat="43.15699" lon="5.80811">
        <ele>352.79998779297</ele>
        <time>2016-05-14T15:26:06.000Z</time>
      </trkpt>
      <trkpt lat="43.15716" lon="5.80839">
        <ele>358</ele>
        <time>2016-05-14T15:26:13.000Z</time>
      </trkpt>
      <trkpt lat="43.15732" lon="5.80871">
        <ele>362.79998779297</ele>
        <time>2016-05-14T15:26:21.000Z</time>
      </trkpt>
      <trkpt lat="43.15734" lon="5.80889">
        <ele>364</ele>
        <time>2016-05-14T15:26:25.000Z</time>
      </trkpt>
      <trkpt lat="43.15722" lon="5.80907">
        <ele>363.20001220703</ele>
        <time>2016-05-14T15:26:30.000Z</time>
      </trkpt>
      <trkpt lat="43.15713" lon="5.80917">
        <ele>362.20001220703</ele>
        <time>2016-05-14T15:26:33.000Z</time>
      </trkpt>
      <trkpt lat="43.15697" lon="5.80928">
        <ele>358.60000610352</ele>
        <time>2016-05-14T15:26:38.000Z</time>
      </trkpt>
      <trkpt lat="43.15686" lon="5.80933">
        <ele>355.79998779297</ele>
        <time>2016-05-14T15:26:43.000Z</time>
      </trkpt>
      <trkpt lat="43.15681" lon="5.80935">
        <ele>354.39999389648</ele>
        <time>2016-05-14T15:26:47.000Z</time>
      </trkpt>
      <trkpt lat="43.15677" lon="5.80934">
        <ele>352.79998779297</ele>
        <time>2016-05-14T15:26:49.000Z</time>
      </trkpt>
      <trkpt lat="43.15665" lon="5.80936">
        <ele>348</ele>
        <time>2016-05-14T15:26:51.000Z</time>
      </trkpt>
      <trkpt lat="43.15662" lon="5.8094">
        <ele>346.60000610352</ele>
        <time>2016-05-14T15:26:52.000Z</time>
      </trkpt>
      <trkpt lat="43.15653" lon="5.80966">
        <ele>344.79998779297</ele>
        <time>2016-05-14T15:26:56.000Z</time>
      </trkpt>
      <trkpt lat="43.15648" lon="5.80996">
        <ele>344</ele>
        <time>2016-05-14T15:27:00.000Z</time>
      </trkpt>
      <trkpt lat="43.15646" lon="5.81022">
        <ele>344.60000610352</ele>
        <time>2016-05-14T15:27:03.000Z</time>
      </trkpt>
      <trkpt lat="43.15647" lon="5.81049">
        <ele>349.20001220703</ele>
        <time>2016-05-14T15:27:06.000Z</time>
      </trkpt>
      <trkpt lat="43.15649" lon="5.81066">
        <ele>352</ele>
        <time>2016-05-14T15:27:08.000Z</time>
      </trkpt>
      <trkpt lat="43.15649" lon="5.81074">
        <ele>353.20001220703</ele>
        <time>2016-05-14T15:27:09.000Z</time>
      </trkpt>
      <trkpt lat="43.1565" lon="5.81081">
        <ele>354</ele>
        <time>2016-05-14T15:27:10.000Z</time>
      </trkpt>
      <trkpt lat="43.15649" lon="5.81089">
        <ele>354.60000610352</ele>
        <time>2016-05-14T15:27:11.000Z</time>
      </trkpt>
      <trkpt lat="43.15647" lon="5.81095">
        <ele>354.60000610352</ele>
        <time>2016-05-14T15:27:12.000Z</time>
      </trkpt>
      <trkpt lat="43.15634" lon="5.81105">
        <ele>352.20001220703</ele>
        <time>2016-05-14T15:27:15.000Z</time>
      </trkpt>
      <trkpt lat="43.15615" lon="5.81104">
        <ele>347.60000610352</ele>
        <time>2016-05-14T15:27:18.000Z</time>
      </trkpt>
      <trkpt lat="43.15602" lon="5.81106">
        <ele>345</ele>
        <time>2016-05-14T15:27:20.000Z</time>
      </trkpt>
      <trkpt lat="43.15596" lon="5.81107">
        <ele>344</ele>
        <time>2016-05-14T15:27:21.000Z</time>
      </trkpt>
      <trkpt lat="43.15584" lon="5.81113">
        <ele>341.20001220703</ele>
        <time>2016-05-14T15:27:23.000Z</time>
      </trkpt>
      <trkpt lat="43.15579" lon="5.81118">
        <ele>340.20001220703</ele>
        <time>2016-05-14T15:27:24.000Z</time>
      </trkpt>
      <trkpt lat="43.15574" lon="5.81122">
        <ele>339.20001220703</ele>
        <time>2016-05-14T15:27:25.000Z</time>
      </trkpt>
      <trkpt lat="43.15567" lon="5.81131">
        <ele>337.39999389648</ele>
        <time>2016-05-14T15:27:27.000Z</time>
      </trkpt>
      <trkpt lat="43.15565" lon="5.81134">
        <ele>337</ele>
        <time>2016-05-14T15:27:28.000Z</time>
      </trkpt>
      <trkpt lat="43.15564" lon="5.81136">
        <ele>336.79998779297</ele>
        <time>2016-05-14T15:27:29.000Z</time>
      </trkpt>
      <trkpt lat="43.15563" lon="5.81139">
        <ele>337.20001220703</ele>
        <time>2016-05-14T15:27:37.000Z</time>
      </trkpt>
      <trkpt lat="43.15562" lon="5.81141">
        <ele>336.79998779297</ele>
        <time>2016-05-14T15:27:38.000Z</time>
      </trkpt>
      <trkpt lat="43.15553" lon="5.81157">
        <ele>334.79998779297</ele>
        <time>2016-05-14T15:27:44.000Z</time>
      </trkpt>
      <trkpt lat="43.15548" lon="5.81174">
        <ele>334.79998779297</ele>
        <time>2016-05-14T15:27:48.000Z</time>
      </trkpt>
      <trkpt lat="43.15544" lon="5.8119">
        <ele>336.79998779297</ele>
        <time>2016-05-14T15:27:51.000Z</time>
      </trkpt>
      <trkpt lat="43.15542" lon="5.81201">
        <ele>338.60000610352</ele>
        <time>2016-05-14T15:27:53.000Z</time>
      </trkpt>
      <trkpt lat="43.15538" lon="5.81218">
        <ele>340.60000610352</ele>
        <time>2016-05-14T15:27:56.000Z</time>
      </trkpt>
      <trkpt lat="43.15536" lon="5.81223">
        <ele>341</ele>
        <time>2016-05-14T15:27:57.000Z</time>
      </trkpt>
      <trkpt lat="43.15533" lon="5.81228">
        <ele>341</ele>
        <time>2016-05-14T15:27:58.000Z</time>
      </trkpt>
      <trkpt lat="43.15527" lon="5.81236">
        <ele>340.39999389648</ele>
        <time>2016-05-14T15:28:00.000Z</time>
      </trkpt>
      <trkpt lat="43.15524" lon="5.8124">
        <ele>340.39999389648</ele>
        <time>2016-05-14T15:28:01.000Z</time>
      </trkpt>
      <trkpt lat="43.15518" lon="5.81247">
        <ele>340.60000610352</ele>
        <time>2016-05-14T15:28:03.000Z</time>
      </trkpt>
      <trkpt lat="43.1551" lon="5.81259">
        <ele>341.39999389648</ele>
        <time>2016-05-14T15:28:06.000Z</time>
      </trkpt>
      <trkpt lat="43.155" lon="5.81271">
        <ele>343</ele>
        <time>2016-05-14T15:28:09.000Z</time>
      </trkpt>
      <trkpt lat="43.15493" lon="5.81277">
        <ele>343.79998779297</ele>
        <time>2016-05-14T15:28:11.000Z</time>
      </trkpt>
      <trkpt lat="43.15489" lon="5.81279">
        <ele>343.60000610352</ele>
        <time>2016-05-14T15:28:12.000Z</time>
      </trkpt>
      <trkpt lat="43.15477" lon="5.8128">
        <ele>341</ele>
        <time>2016-05-14T15:28:15.000Z</time>
      </trkpt>
      <trkpt lat="43.15473" lon="5.81279">
        <ele>339.79998779297</ele>
        <time>2016-05-14T15:28:16.000Z</time>
      </trkpt>
      <trkpt lat="43.15469" lon="5.81278">
        <ele>338.39999389648</ele>
        <time>2016-05-14T15:28:17.000Z</time>
      </trkpt>
      <trkpt lat="43.15453" lon="5.8127">
        <ele>332.60000610352</ele>
        <time>2016-05-14T15:28:21.000Z</time>
      </trkpt>
      <trkpt lat="43.15441" lon="5.81263">
        <ele>327.79998779297</ele>
        <time>2016-05-14T15:28:24.000Z</time>
      </trkpt>
      <trkpt lat="43.15437" lon="5.81261">
        <ele>326.39999389648</ele>
        <time>2016-05-14T15:28:25.000Z</time>
      </trkpt>
      <trkpt lat="43.15425" lon="5.81256">
        <ele>322.60000610352</ele>
        <time>2016-05-14T15:28:28.000Z</time>
      </trkpt>
      <trkpt lat="43.15417" lon="5.81255">
        <ele>321.39999389648</ele>
        <time>2016-05-14T15:28:30.000Z</time>
      </trkpt>
      <trkpt lat="43.15413" lon="5.81255">
        <ele>320.79998779297</ele>
        <time>2016-05-14T15:28:31.000Z</time>
      </trkpt>
      <trkpt lat="43.15405" lon="5.81255">
        <ele>319.79998779297</ele>
        <time>2016-05-14T15:28:34.000Z</time>
      </trkpt>
      <trkpt lat="43.15403" lon="5.81256">
        <ele>319.79998779297</ele>
        <time>2016-05-14T15:29:20.000Z</time>
      </trkpt>
      <trkpt lat="43.15401" lon="5.81256">
        <ele>319.60000610352</ele>
        <time>2016-05-14T15:29:21.000Z</time>
      </trkpt>
      <trkpt lat="43.15385" lon="5.81257">
        <ele>317.39999389648</ele>
        <time>2016-05-14T15:29:25.000Z</time>
      </trkpt>
      <trkpt lat="43.15365" lon="5.81259">
        <ele>312.60000610352</ele>
        <time>2016-05-14T15:29:29.000Z</time>
      </trkpt>
      <trkpt lat="43.15356" lon="5.81264">
        <ele>310.20001220703</ele>
        <time>2016-05-14T15:29:31.000Z</time>
      </trkpt>
      <trkpt lat="43.15353" lon="5.81266">
        <ele>309.20001220703</ele>
        <time>2016-05-14T15:29:32.000Z</time>
      </trkpt>
      <trkpt lat="43.1535" lon="5.81269">
        <ele>308.39999389648</ele>
        <time>2016-05-14T15:29:33.000Z</time>
      </trkpt>
      <trkpt lat="43.15343" lon="5.81277">
        <ele>306.60000610352</ele>
        <time>2016-05-14T15:29:36.000Z</time>
      </trkpt>
      <trkpt lat="43.15333" lon="5.8129">
        <ele>303.39999389648</ele>
        <time>2016-05-14T15:29:41.000Z</time>
      </trkpt>
      <trkpt lat="43.15332" lon="5.81292">
        <ele>303</ele>
        <time>2016-05-14T15:29:42.000Z</time>
      </trkpt>
      <trkpt lat="43.15334" lon="5.81293">
        <ele>303.79998779297</ele>
        <time>2016-05-14T15:29:46.000Z</time>
      </trkpt>
      <trkpt lat="43.15334" lon="5.81294">
        <ele>303.79998779297</ele>
        <time>2016-05-14T15:29:51.000Z</time>
      </trkpt>
      <trkpt lat="43.15331" lon="5.81299">
        <ele>303</ele>
        <time>2016-05-14T15:29:53.000Z</time>
      </trkpt>
      <trkpt lat="43.15325" lon="5.81309">
        <ele>300.39999389648</ele>
        <time>2016-05-14T15:29:57.000Z</time>
      </trkpt>
      <trkpt lat="43.15322" lon="5.81312">
        <ele>299</ele>
        <time>2016-05-14T15:31:01.000Z</time>
      </trkpt>
      <trkpt lat="43.15319" lon="5.81318">
        <ele>296.60000610352</ele>
        <time>2016-05-14T15:31:03.000Z</time>
      </trkpt>
      <trkpt lat="43.15318" lon="5.81327">
        <ele>294.20001220703</ele>
        <time>2016-05-14T15:31:05.000Z</time>
      </trkpt>
      <trkpt lat="43.15319" lon="5.81333">
        <ele>293.79998779297</ele>
        <time>2016-05-14T15:31:06.000Z</time>
      </trkpt>
      <trkpt lat="43.15334" lon="5.81345">
        <ele>296.39999389648</ele>
        <time>2016-05-14T15:31:09.000Z</time>
      </trkpt>
      <trkpt lat="43.1534" lon="5.8135">
        <ele>297.39999389648</ele>
        <time>2016-05-14T15:31:10.000Z</time>
      </trkpt>
      <trkpt lat="43.15351" lon="5.81364">
        <ele>299.39999389648</ele>
        <time>2016-05-14T15:31:12.000Z</time>
      </trkpt>
      <trkpt lat="43.15356" lon="5.81372">
        <ele>300</ele>
        <time>2016-05-14T15:31:13.000Z</time>
      </trkpt>
      <trkpt lat="43.15362" lon="5.81392">
        <ele>299.60000610352</ele>
        <time>2016-05-14T15:31:15.000Z</time>
      </trkpt>
      <trkpt lat="43.15364" lon="5.81403">
        <ele>300.39999389648</ele>
        <time>2016-05-14T15:31:16.000Z</time>
      </trkpt>
      <trkpt lat="43.15366" lon="5.81414">
        <ele>300.79998779297</ele>
        <time>2016-05-14T15:31:17.000Z</time>
      </trkpt>
      <trkpt lat="43.15368" lon="5.81424">
        <ele>301</ele>
        <time>2016-05-14T15:31:18.000Z</time>
      </trkpt>
      <trkpt lat="43.15371" lon="5.81435">
        <ele>301.39999389648</ele>
        <time>2016-05-14T15:31:19.000Z</time>
      </trkpt>
      <trkpt lat="43.15378" lon="5.81455">
        <ele>303.39999389648</ele>
        <time>2016-05-14T15:31:21.000Z</time>
      </trkpt>
      <trkpt lat="43.1539" lon="5.81481">
        <ele>309.20001220703</ele>
        <time>2016-05-14T15:31:24.000Z</time>
      </trkpt>
      <trkpt lat="43.15393" lon="5.81489">
        <ele>311</ele>
        <time>2016-05-14T15:31:25.000Z</time>
      </trkpt>
      <trkpt lat="43.15394" lon="5.81495">
        <ele>312.39999389648</ele>
        <time>2016-05-14T15:31:26.000Z</time>
      </trkpt>
      <trkpt lat="43.15395" lon="5.81506">
        <ele>313.39999389648</ele>
        <time>2016-05-14T15:31:28.000Z</time>
      </trkpt>
      <trkpt lat="43.15394" lon="5.81515">
        <ele>313.39999389648</ele>
        <time>2016-05-14T15:31:30.000Z</time>
      </trkpt>
      <trkpt lat="43.15389" lon="5.81534">
        <ele>312.60000610352</ele>
        <time>2016-05-14T15:31:34.000Z</time>
      </trkpt>
      <trkpt lat="43.1538" lon="5.81554">
        <ele>310</ele>
        <time>2016-05-14T15:31:38.000Z</time>
      </trkpt>
      <trkpt lat="43.15372" lon="5.81574">
        <ele>303.79998779297</ele>
        <time>2016-05-14T15:31:42.000Z</time>
      </trkpt>
      <trkpt lat="43.15365" lon="5.81596">
        <ele>298.39999389648</ele>
        <time>2016-05-14T15:31:46.000Z</time>
      </trkpt>
      <trkpt lat="43.15365" lon="5.81608">
        <ele>297.20001220703</ele>
        <time>2016-05-14T15:31:48.000Z</time>
      </trkpt>
      <trkpt lat="43.15369" lon="5.81631">
        <ele>297.39999389648</ele>
        <time>2016-05-14T15:31:52.000Z</time>
      </trkpt>
      <trkpt lat="43.15381" lon="5.81639">
        <ele>302</ele>
        <time>2016-05-14T15:31:55.000Z</time>
      </trkpt>
      <trkpt lat="43.15385" lon="5.81641">
        <ele>303.60000610352</ele>
        <time>2016-05-14T15:31:56.000Z</time>
      </trkpt>
      <trkpt lat="43.15393" lon="5.81644">
        <ele>306.20001220703</ele>
        <time>2016-05-14T15:31:58.000Z</time>
      </trkpt>
      <trkpt lat="43.154" lon="5.81653">
        <ele>306.79998779297</ele>
        <time>2016-05-14T15:32:00.000Z</time>
      </trkpt>
      <trkpt lat="43.15405" lon="5.81665">
        <ele>305</ele>
        <time>2016-05-14T15:32:02.000Z</time>
      </trkpt>
      <trkpt lat="43.15409" lon="5.81683">
        <ele>301.60000610352</ele>
        <time>2016-05-14T15:32:05.000Z</time>
      </trkpt>
      <trkpt lat="43.15413" lon="5.81694">
        <ele>299.60000610352</ele>
        <time>2016-05-14T15:32:07.000Z</time>
      </trkpt>
      <trkpt lat="43.15419" lon="5.81723">
        <ele>294</ele>
        <time>2016-05-14T15:32:12.000Z</time>
      </trkpt>
      <trkpt lat="43.15421" lon="5.81732">
        <ele>291</ele>
        <time>2016-05-14T15:32:14.000Z</time>
      </trkpt>
      <trkpt lat="43.15426" lon="5.8174">
        <ele>290.20001220703</ele>
        <time>2016-05-14T15:32:16.000Z</time>
      </trkpt>
      <trkpt lat="43.15433" lon="5.81745">
        <ele>289.39999389648</ele>
        <time>2016-05-14T15:32:18.000Z</time>
      </trkpt>
      <trkpt lat="43.15437" lon="5.81746">
        <ele>289</ele>
        <time>2016-05-14T15:32:19.000Z</time>
      </trkpt>
      <trkpt lat="43.15441" lon="5.81748">
        <ele>288.79998779297</ele>
        <time>2016-05-14T15:32:20.000Z</time>
      </trkpt>
      <trkpt lat="43.15449" lon="5.81749">
        <ele>289</ele>
        <time>2016-05-14T15:32:22.000Z</time>
      </trkpt>
      <trkpt lat="43.15453" lon="5.81748">
        <ele>289.79998779297</ele>
        <time>2016-05-14T15:32:23.000Z</time>
      </trkpt>
      <trkpt lat="43.15465" lon="5.81742">
        <ele>294</ele>
        <time>2016-05-14T15:32:26.000Z</time>
      </trkpt>
      <trkpt lat="43.15473" lon="5.81737">
        <ele>297.20001220703</ele>
        <time>2016-05-14T15:32:28.000Z</time>
      </trkpt>
      <trkpt lat="43.15481" lon="5.81731">
        <ele>300.79998779297</ele>
        <time>2016-05-14T15:32:30.000Z</time>
      </trkpt>
      <trkpt lat="43.15485" lon="5.81729">
        <ele>302.60000610352</ele>
        <time>2016-05-14T15:32:31.000Z</time>
      </trkpt>
      <trkpt lat="43.15493" lon="5.81726">
        <ele>304.60000610352</ele>
        <time>2016-05-14T15:32:33.000Z</time>
      </trkpt>
      <trkpt lat="43.15502" lon="5.81728">
        <ele>305.20001220703</ele>
        <time>2016-05-14T15:32:35.000Z</time>
      </trkpt>
      <trkpt lat="43.15506" lon="5.81729">
        <ele>305</ele>
        <time>2016-05-14T15:32:36.000Z</time>
      </trkpt>
      <trkpt lat="43.15515" lon="5.81733">
        <ele>305.20001220703</ele>
        <time>2016-05-14T15:32:38.000Z</time>
      </trkpt>
      <trkpt lat="43.15523" lon="5.81736">
        <ele>306.60000610352</ele>
        <time>2016-05-14T15:32:40.000Z</time>
      </trkpt>
      <trkpt lat="43.15527" lon="5.81736">
        <ele>307.60000610352</ele>
        <time>2016-05-14T15:32:41.000Z</time>
      </trkpt>
      <trkpt lat="43.15545" lon="5.8174">
        <ele>311</ele>
        <time>2016-05-14T15:32:45.000Z</time>
      </trkpt>
      <trkpt lat="43.15549" lon="5.81741">
        <ele>311.60000610352</ele>
        <time>2016-05-14T15:32:46.000Z</time>
      </trkpt>
      <trkpt lat="43.15558" lon="5.81746">
        <ele>312.39999389648</ele>
        <time>2016-05-14T15:32:48.000Z</time>
      </trkpt>
      <trkpt lat="43.15562" lon="5.81749">
        <ele>312.20001220703</ele>
        <time>2016-05-14T15:32:49.000Z</time>
      </trkpt>
      <trkpt lat="43.15572" lon="5.81761">
        <ele>310</ele>
        <time>2016-05-14T15:32:52.000Z</time>
      </trkpt>
      <trkpt lat="43.15576" lon="5.81765">
        <ele>309.20001220703</ele>
        <time>2016-05-14T15:32:53.000Z</time>
      </trkpt>
      <trkpt lat="43.15582" lon="5.81772">
        <ele>308</ele>
        <time>2016-05-14T15:32:55.000Z</time>
      </trkpt>
      <trkpt lat="43.15597" lon="5.81786">
        <ele>306.20001220703</ele>
        <time>2016-05-14T15:32:59.000Z</time>
      </trkpt>
      <trkpt lat="43.15601" lon="5.81789">
        <ele>306.20001220703</ele>
        <time>2016-05-14T15:33:00.000Z</time>
      </trkpt>
      <trkpt lat="43.1562" lon="5.81804">
        <ele>305.60000610352</ele>
        <time>2016-05-14T15:33:05.000Z</time>
      </trkpt>
      <trkpt lat="43.15631" lon="5.81812">
        <ele>308.60000610352</ele>
        <time>2016-05-14T15:33:08.000Z</time>
      </trkpt>
      <trkpt lat="43.15643" lon="5.8182">
        <ele>312.20001220703</ele>
        <time>2016-05-14T15:33:11.000Z</time>
      </trkpt>
      <trkpt lat="43.15659" lon="5.81829">
        <ele>316.79998779297</ele>
        <time>2016-05-14T15:33:15.000Z</time>
      </trkpt>
      <trkpt lat="43.15665" lon="5.81836">
        <ele>318.60000610352</ele>
        <time>2016-05-14T15:33:17.000Z</time>
      </trkpt>
      <trkpt lat="43.15674" lon="5.8185">
        <ele>320.60000610352</ele>
        <time>2016-05-14T15:33:20.000Z</time>
      </trkpt>
      <trkpt lat="43.15678" lon="5.81862">
        <ele>321.20001220703</ele>
        <time>2016-05-14T15:33:22.000Z</time>
      </trkpt>
      <trkpt lat="43.15677" lon="5.81888">
        <ele>320</ele>
        <time>2016-05-14T15:33:26.000Z</time>
      </trkpt>
      <trkpt lat="43.15672" lon="5.81905">
        <ele>320.60000610352</ele>
        <time>2016-05-14T15:33:29.000Z</time>
      </trkpt>
      <trkpt lat="43.15667" lon="5.81917">
        <ele>320.60000610352</ele>
        <time>2016-05-14T15:33:31.000Z</time>
      </trkpt>
      <trkpt lat="43.15664" lon="5.81922">
        <ele>320.39999389648</ele>
        <time>2016-05-14T15:33:32.000Z</time>
      </trkpt>
      <trkpt lat="43.15644" lon="5.81955">
        <ele>319.20001220703</ele>
        <time>2016-05-14T15:33:38.000Z</time>
      </trkpt>
      <trkpt lat="43.15616" lon="5.81995">
        <ele>319.79998779297</ele>
        <time>2016-05-14T15:33:46.000Z</time>
      </trkpt>
      <trkpt lat="43.15589" lon="5.82023">
        <ele>312.60000610352</ele>
        <time>2016-05-14T15:33:53.000Z</time>
      </trkpt>
      <trkpt lat="43.15578" lon="5.82033">
        <ele>308.20001220703</ele>
        <time>2016-05-14T15:33:56.000Z</time>
      </trkpt>
      <trkpt lat="43.15568" lon="5.82044">
        <ele>303.39999389648</ele>
        <time>2016-05-14T15:33:59.000Z</time>
      </trkpt>
      <trkpt lat="43.15563" lon="5.82054">
        <ele>301</ele>
        <time>2016-05-14T15:34:01.000Z</time>
      </trkpt>
      <trkpt lat="43.15558" lon="5.82083">
        <ele>297.20001220703</ele>
        <time>2016-05-14T15:34:06.000Z</time>
      </trkpt>
      <trkpt lat="43.15559" lon="5.8209">
        <ele>297.20001220703</ele>
        <time>2016-05-14T15:34:07.000Z</time>
      </trkpt>
      <trkpt lat="43.15564" lon="5.82125">
        <ele>300.20001220703</ele>
        <time>2016-05-14T15:34:13.000Z</time>
      </trkpt>
      <trkpt lat="43.15573" lon="5.82165">
        <ele>299.39999389648</ele>
        <time>2016-05-14T15:34:20.000Z</time>
      </trkpt>
      <trkpt lat="43.15575" lon="5.82171">
        <ele>299.20001220703</ele>
        <time>2016-05-14T15:34:21.000Z</time>
      </trkpt>
      <trkpt lat="43.15579" lon="5.82183">
        <ele>299</ele>
        <time>2016-05-14T15:34:25.000Z</time>
      </trkpt>
      <trkpt lat="43.15581" lon="5.82185">
        <ele>299.79998779297</ele>
        <time>2016-05-14T15:35:33.000Z</time>
      </trkpt>
      <trkpt lat="43.15585" lon="5.8219">
        <ele>300.79998779297</ele>
        <time>2016-05-14T15:35:35.000Z</time>
      </trkpt>
      <trkpt lat="43.15603" lon="5.82211">
        <ele>305</ele>
        <time>2016-05-14T15:35:40.000Z</time>
      </trkpt>
      <trkpt lat="43.1563" lon="5.82246">
        <ele>307.39999389648</ele>
        <time>2016-05-14T15:35:47.000Z</time>
      </trkpt>
      <trkpt lat="43.1564" lon="5.82263">
        <ele>307.39999389648</ele>
        <time>2016-05-14T15:35:50.000Z</time>
      </trkpt>
      <trkpt lat="43.15657" lon="5.8229">
        <ele>307.20001220703</ele>
        <time>2016-05-14T15:35:55.000Z</time>
      </trkpt>
      <trkpt lat="43.1566" lon="5.82296">
        <ele>307.20001220703</ele>
        <time>2016-05-14T15:35:56.000Z</time>
      </trkpt>
      <trkpt lat="43.15675" lon="5.82324">
        <ele>307.79998779297</ele>
        <time>2016-05-14T15:36:01.000Z</time>
      </trkpt>
      <trkpt lat="43.1568" lon="5.82337">
        <ele>307.60000610352</ele>
        <time>2016-05-14T15:36:03.000Z</time>
      </trkpt>
      <trkpt lat="43.15696" lon="5.82373">
        <ele>307.39999389648</ele>
        <time>2016-05-14T15:36:09.000Z</time>
      </trkpt>
      <trkpt lat="43.15702" lon="5.82386">
        <ele>307.20001220703</ele>
        <time>2016-05-14T15:36:11.000Z</time>
      </trkpt>
      <trkpt lat="43.1571" lon="5.82404">
        <ele>306.60000610352</ele>
        <time>2016-05-14T15:36:14.000Z</time>
      </trkpt>
      <trkpt lat="43.15715" lon="5.82424">
        <ele>305</ele>
        <time>2016-05-14T15:36:17.000Z</time>
      </trkpt>
      <trkpt lat="43.15725" lon="5.82478">
        <ele>303.60000610352</ele>
        <time>2016-05-14T15:36:25.000Z</time>
      </trkpt>
      <trkpt lat="43.15727" lon="5.82492">
        <ele>302.60000610352</ele>
        <time>2016-05-14T15:36:27.000Z</time>
      </trkpt>
      <trkpt lat="43.15732" lon="5.82534">
        <ele>300.20001220703</ele>
        <time>2016-05-14T15:36:33.000Z</time>
      </trkpt>
      <trkpt lat="43.15732" lon="5.82542">
        <ele>300.79998779297</ele>
        <time>2016-05-14T15:36:34.000Z</time>
      </trkpt>
      <trkpt lat="43.15731" lon="5.82556">
        <ele>301.79998779297</ele>
        <time>2016-05-14T15:36:36.000Z</time>
      </trkpt>
      <trkpt lat="43.15726" lon="5.82583">
        <ele>298.79998779297</ele>
        <time>2016-05-14T15:36:40.000Z</time>
      </trkpt>
      <trkpt lat="43.15715" lon="5.82624">
        <ele>300.20001220703</ele>
        <time>2016-05-14T15:36:46.000Z</time>
      </trkpt>
      <trkpt lat="43.15712" lon="5.8263">
        <ele>301.20001220703</ele>
        <time>2016-05-14T15:36:47.000Z</time>
      </trkpt>
      <trkpt lat="43.15708" lon="5.82642">
        <ele>302.20001220703</ele>
        <time>2016-05-14T15:36:49.000Z</time>
      </trkpt>
      <trkpt lat="43.15692" lon="5.82675">
        <ele>300</ele>
        <time>2016-05-14T15:36:55.000Z</time>
      </trkpt>
      <trkpt lat="43.15684" lon="5.82679">
        <ele>301.20001220703</ele>
        <time>2016-05-14T15:36:57.000Z</time>
      </trkpt>
      <trkpt lat="43.15675" lon="5.82682">
        <ele>302.39999389648</ele>
        <time>2016-05-14T15:36:59.000Z</time>
      </trkpt>
      <trkpt lat="43.15671" lon="5.82682">
        <ele>302.60000610352</ele>
        <time>2016-05-14T15:37:00.000Z</time>
      </trkpt>
      <trkpt lat="43.15651" lon="5.82681">
        <ele>303.39999389648</ele>
        <time>2016-05-14T15:37:04.000Z</time>
      </trkpt>
      <trkpt lat="43.15609" lon="5.82673">
        <ele>309.60000610352</ele>
        <time>2016-05-14T15:37:12.000Z</time>
      </trkpt>
      <trkpt lat="43.15562" lon="5.82658">
        <ele>315.39999389648</ele>
        <time>2016-05-14T15:37:20.000Z</time>
      </trkpt>
      <trkpt lat="43.15556" lon="5.82654">
        <ele>315.79998779297</ele>
        <time>2016-05-14T15:37:21.000Z</time>
      </trkpt>
      <trkpt lat="43.15542" lon="5.82639">
        <ele>316.60000610352</ele>
        <time>2016-05-14T15:37:24.000Z</time>
      </trkpt>
      <trkpt lat="43.15538" lon="5.82633">
        <ele>316.39999389648</ele>
        <time>2016-05-14T15:37:25.000Z</time>
      </trkpt>
      <trkpt lat="43.1553" lon="5.82619">
        <ele>315.39999389648</ele>
        <time>2016-05-14T15:37:27.000Z</time>
      </trkpt>
      <trkpt lat="43.15525" lon="5.82604">
        <ele>314</ele>
        <time>2016-05-14T15:37:29.000Z</time>
      </trkpt>
      <trkpt lat="43.15513" lon="5.82561">
        <ele>309.60000610352</ele>
        <time>2016-05-14T15:37:35.000Z</time>
      </trkpt>
      <trkpt lat="43.1551" lon="5.82555">
        <ele>309</ele>
        <time>2016-05-14T15:37:36.000Z</time>
      </trkpt>
      <trkpt lat="43.15497" lon="5.82543">
        <ele>307</ele>
        <time>2016-05-14T15:37:39.000Z</time>
      </trkpt>
      <trkpt lat="43.15491" lon="5.82541">
        <ele>306.60000610352</ele>
        <time>2016-05-14T15:37:40.000Z</time>
      </trkpt>
      <trkpt lat="43.15486" lon="5.82539">
        <ele>306.20001220703</ele>
        <time>2016-05-14T15:37:41.000Z</time>
      </trkpt>
      <trkpt lat="43.15463" lon="5.82534">
        <ele>304.79998779297</ele>
        <time>2016-05-14T15:37:45.000Z</time>
      </trkpt>
      <trkpt lat="43.15421" lon="5.82539">
        <ele>303.79998779297</ele>
        <time>2016-05-14T15:37:52.000Z</time>
      </trkpt>
      <trkpt lat="43.1541" lon="5.82542">
        <ele>302.79998779297</ele>
        <time>2016-05-14T15:37:54.000Z</time>
      </trkpt>
      <trkpt lat="43.154" lon="5.8255">
        <ele>300.60000610352</ele>
        <time>2016-05-14T15:37:56.000Z</time>
      </trkpt>
      <trkpt lat="43.15392" lon="5.82572">
        <ele>299.60000610352</ele>
        <time>2016-05-14T15:37:59.000Z</time>
      </trkpt>
      <trkpt lat="43.15395" lon="5.82596">
        <ele>301.20001220703</ele>
        <time>2016-05-14T15:38:02.000Z</time>
      </trkpt>
      <trkpt lat="43.15405" lon="5.82658">
        <ele>306.39999389648</ele>
        <time>2016-05-14T15:38:10.000Z</time>
      </trkpt>
      <trkpt lat="43.15406" lon="5.8268">
        <ele>309.60000610352</ele>
        <time>2016-05-14T15:38:13.000Z</time>
      </trkpt>
      <trkpt lat="43.15405" lon="5.82687">
        <ele>310.20001220703</ele>
        <time>2016-05-14T15:38:14.000Z</time>
      </trkpt>
      <trkpt lat="43.15402" lon="5.827">
        <ele>311.20001220703</ele>
        <time>2016-05-14T15:38:16.000Z</time>
      </trkpt>
      <trkpt lat="43.15391" lon="5.82712">
        <ele>312</ele>
        <time>2016-05-14T15:38:19.000Z</time>
      </trkpt>
      <trkpt lat="43.15386" lon="5.82714">
        <ele>311.79998779297</ele>
        <time>2016-05-14T15:38:20.000Z</time>
      </trkpt>
      <trkpt lat="43.15382" lon="5.82716">
        <ele>311.39999389648</ele>
        <time>2016-05-14T15:38:21.000Z</time>
      </trkpt>
      <trkpt lat="43.15363" lon="5.82723">
        <ele>309.39999389648</ele>
        <time>2016-05-14T15:38:25.000Z</time>
      </trkpt>
      <trkpt lat="43.1533" lon="5.8274">
        <ele>305.39999389648</ele>
        <time>2016-05-14T15:38:32.000Z</time>
      </trkpt>
      <trkpt lat="43.15309" lon="5.82752">
        <ele>301.39999389648</ele>
        <time>2016-05-14T15:38:36.000Z</time>
      </trkpt>
      <trkpt lat="43.15289" lon="5.82769">
        <ele>298.60000610352</ele>
        <time>2016-05-14T15:38:40.000Z</time>
      </trkpt>
      <trkpt lat="43.1528" lon="5.82782">
        <ele>298.79998779297</ele>
        <time>2016-05-14T15:38:42.000Z</time>
      </trkpt>
      <trkpt lat="43.15273" lon="5.82797">
        <ele>300</ele>
        <time>2016-05-14T15:38:44.000Z</time>
      </trkpt>
      <trkpt lat="43.1527" lon="5.82805">
        <ele>300.79998779297</ele>
        <time>2016-05-14T15:38:45.000Z</time>
      </trkpt>
      <trkpt lat="43.15243" lon="5.82866">
        <ele>308</ele>
        <time>2016-05-14T15:38:53.000Z</time>
      </trkpt>
      <trkpt lat="43.15239" lon="5.82873">
        <ele>308.39999389648</ele>
        <time>2016-05-14T15:38:54.000Z</time>
      </trkpt>
      <trkpt lat="43.15234" lon="5.82879">
        <ele>308.60000610352</ele>
        <time>2016-05-14T15:38:55.000Z</time>
      </trkpt>
      <trkpt lat="43.1521" lon="5.8291">
        <ele>307.79998779297</ele>
        <time>2016-05-14T15:39:00.000Z</time>
      </trkpt>
      <trkpt lat="43.15204" lon="5.82914">
        <ele>307</ele>
        <time>2016-05-14T15:39:01.000Z</time>
      </trkpt>
      <trkpt lat="43.15191" lon="5.82917">
        <ele>304.79998779297</ele>
        <time>2016-05-14T15:39:03.000Z</time>
      </trkpt>
      <trkpt lat="43.15167" lon="5.82918">
        <ele>298.60000610352</ele>
        <time>2016-05-14T15:39:07.000Z</time>
      </trkpt>
      <trkpt lat="43.15161" lon="5.82921">
        <ele>297.39999389648</ele>
        <time>2016-05-14T15:39:08.000Z</time>
      </trkpt>
      <trkpt lat="43.15152" lon="5.8293">
        <ele>296.20001220703</ele>
        <time>2016-05-14T15:39:10.000Z</time>
      </trkpt>
      <trkpt lat="43.15144" lon="5.82942">
        <ele>295.60000610352</ele>
        <time>2016-05-14T15:39:12.000Z</time>
      </trkpt>
      <trkpt lat="43.1514" lon="5.82949">
        <ele>294.60000610352</ele>
        <time>2016-05-14T15:39:13.000Z</time>
      </trkpt>
      <trkpt lat="43.15124" lon="5.82978">
        <ele>291</ele>
        <time>2016-05-14T15:39:17.000Z</time>
      </trkpt>
      <trkpt lat="43.15116" lon="5.82993">
        <ele>289.39999389648</ele>
        <time>2016-05-14T15:39:19.000Z</time>
      </trkpt>
      <trkpt lat="43.15105" lon="5.83018">
        <ele>285</ele>
        <time>2016-05-14T15:39:22.000Z</time>
      </trkpt>
      <trkpt lat="43.15093" lon="5.8305">
        <ele>280.39999389648</ele>
        <time>2016-05-14T15:39:26.000Z</time>
      </trkpt>
      <trkpt lat="43.15092" lon="5.83057">
        <ele>279.39999389648</ele>
        <time>2016-05-14T15:39:27.000Z</time>
      </trkpt>
      <trkpt lat="43.15093" lon="5.8308">
        <ele>276</ele>
        <time>2016-05-14T15:39:30.000Z</time>
      </trkpt>
      <trkpt lat="43.15101" lon="5.83101">
        <ele>275.60000610352</ele>
        <time>2016-05-14T15:39:33.000Z</time>
      </trkpt>
      <trkpt lat="43.1511" lon="5.83122">
        <ele>275.79998779297</ele>
        <time>2016-05-14T15:39:36.000Z</time>
      </trkpt>
      <trkpt lat="43.15114" lon="5.83129">
        <ele>276.20001220703</ele>
        <time>2016-05-14T15:39:37.000Z</time>
      </trkpt>
      <trkpt lat="43.1514" lon="5.83182">
        <ele>276.20001220703</ele>
        <time>2016-05-14T15:39:45.000Z</time>
      </trkpt>
      <trkpt lat="43.15165" lon="5.83224">
        <ele>278.20001220703</ele>
        <time>2016-05-14T15:39:52.000Z</time>
      </trkpt>
      <trkpt lat="43.1517" lon="5.83229">
        <ele>278.60000610352</ele>
        <time>2016-05-14T15:39:53.000Z</time>
      </trkpt>
      <trkpt lat="43.15174" lon="5.83233">
        <ele>279</ele>
        <time>2016-05-14T15:39:54.000Z</time>
      </trkpt>
      <trkpt lat="43.15197" lon="5.83252">
        <ele>276.39999389648</ele>
        <time>2016-05-14T15:39:59.000Z</time>
      </trkpt>
      <trkpt lat="43.15202" lon="5.83256">
        <ele>275.79998779297</ele>
        <time>2016-05-14T15:40:00.000Z</time>
      </trkpt>
      <trkpt lat="43.15212" lon="5.83262">
        <ele>274.79998779297</ele>
        <time>2016-05-14T15:40:02.000Z</time>
      </trkpt>
      <trkpt lat="43.15217" lon="5.83265">
        <ele>274.39999389648</ele>
        <time>2016-05-14T15:40:03.000Z</time>
      </trkpt>
      <trkpt lat="43.15233" lon="5.83269">
        <ele>274.79998779297</ele>
        <time>2016-05-14T15:40:06.000Z</time>
      </trkpt>
      <trkpt lat="43.15238" lon="5.83269">
        <ele>275.39999389648</ele>
        <time>2016-05-14T15:40:07.000Z</time>
      </trkpt>
      <trkpt lat="43.15254" lon="5.83265">
        <ele>278.20001220703</ele>
        <time>2016-05-14T15:40:10.000Z</time>
      </trkpt>
      <trkpt lat="43.15263" lon="5.83262">
        <ele>280.20001220703</ele>
        <time>2016-05-14T15:40:12.000Z</time>
      </trkpt>
      <trkpt lat="43.15291" lon="5.83254">
        <ele>282.79998779297</ele>
        <time>2016-05-14T15:40:18.000Z</time>
      </trkpt>
      <trkpt lat="43.153" lon="5.83253">
        <ele>282.79998779297</ele>
        <time>2016-05-14T15:40:20.000Z</time>
      </trkpt>
      <trkpt lat="43.15314" lon="5.8325">
        <ele>283</ele>
        <time>2016-05-14T15:40:23.000Z</time>
      </trkpt>
      <trkpt lat="43.15338" lon="5.83247">
        <ele>283</ele>
        <time>2016-05-14T15:40:28.000Z</time>
      </trkpt>
      <trkpt lat="43.15348" lon="5.83247">
        <ele>283.39999389648</ele>
        <time>2016-05-14T15:40:30.000Z</time>
      </trkpt>
      <trkpt lat="43.15363" lon="5.83252">
        <ele>285</ele>
        <time>2016-05-14T15:40:33.000Z</time>
      </trkpt>
      <trkpt lat="43.15396" lon="5.83269">
        <ele>285.20001220703</ele>
        <time>2016-05-14T15:40:39.000Z</time>
      </trkpt>
      <trkpt lat="43.15433" lon="5.83299">
        <ele>282.20001220703</ele>
        <time>2016-05-14T15:40:46.000Z</time>
      </trkpt>
      <trkpt lat="43.15457" lon="5.83327">
        <ele>282</ele>
        <time>2016-05-14T15:40:51.000Z</time>
      </trkpt>
      <trkpt lat="43.15461" lon="5.83333">
        <ele>282</ele>
        <time>2016-05-14T15:40:52.000Z</time>
      </trkpt>
      <trkpt lat="43.15479" lon="5.83371">
        <ele>281.79998779297</ele>
        <time>2016-05-14T15:40:58.000Z</time>
      </trkpt>
      <trkpt lat="43.1548" lon="5.83381">
        <ele>281.60000610352</ele>
        <time>2016-05-14T15:41:00.000Z</time>
      </trkpt>
      <trkpt lat="43.15478" lon="5.83394">
        <ele>281.79998779297</ele>
        <time>2016-05-14T15:41:03.000Z</time>
      </trkpt>
      <trkpt lat="43.15475" lon="5.83402">
        <ele>282.39999389648</ele>
        <time>2016-05-14T15:41:05.000Z</time>
      </trkpt>
      <trkpt lat="43.15467" lon="5.83413">
        <ele>282.79998779297</ele>
        <time>2016-05-14T15:41:08.000Z</time>
      </trkpt>
      <trkpt lat="43.15464" lon="5.83417">
        <ele>283</ele>
        <time>2016-05-14T15:41:09.000Z</time>
      </trkpt>
      <trkpt lat="43.1546" lon="5.83421">
        <ele>283.20001220703</ele>
        <time>2016-05-14T15:41:10.000Z</time>
      </trkpt>
      <trkpt lat="43.15457" lon="5.83426">
        <ele>284</ele>
        <time>2016-05-14T15:41:11.000Z</time>
      </trkpt>
      <trkpt lat="43.15446" lon="5.83434">
        <ele>285.60000610352</ele>
        <time>2016-05-14T15:41:13.000Z</time>
      </trkpt>
      <trkpt lat="43.15434" lon="5.83441">
        <ele>287</ele>
        <time>2016-05-14T15:41:15.000Z</time>
      </trkpt>
      <trkpt lat="43.15427" lon="5.83444">
        <ele>287.39999389648</ele>
        <time>2016-05-14T15:41:16.000Z</time>
      </trkpt>
      <trkpt lat="43.1542" lon="5.83446">
        <ele>286.39999389648</ele>
        <time>2016-05-14T15:41:17.000Z</time>
      </trkpt>
      <trkpt lat="43.15414" lon="5.83447">
        <ele>285.20001220703</ele>
        <time>2016-05-14T15:41:18.000Z</time>
      </trkpt>
      <trkpt lat="43.15399" lon="5.8345">
        <ele>283.20001220703</ele>
        <time>2016-05-14T15:41:20.000Z</time>
      </trkpt>
      <trkpt lat="43.1537" lon="5.83455">
        <ele>279.79998779297</ele>
        <time>2016-05-14T15:41:24.000Z</time>
      </trkpt>
      <trkpt lat="43.15362" lon="5.83456">
        <ele>279</ele>
        <time>2016-05-14T15:41:25.000Z</time>
      </trkpt>
      <trkpt lat="43.15347" lon="5.83459">
        <ele>277.60000610352</ele>
        <time>2016-05-14T15:41:27.000Z</time>
      </trkpt>
      <trkpt lat="43.15332" lon="5.83464">
        <ele>276.39999389648</ele>
        <time>2016-05-14T15:41:29.000Z</time>
      </trkpt>
      <trkpt lat="43.15318" lon="5.83473">
        <ele>275</ele>
        <time>2016-05-14T15:41:31.000Z</time>
      </trkpt>
      <trkpt lat="43.15311" lon="5.83479">
        <ele>275</ele>
        <time>2016-05-14T15:41:32.000Z</time>
      </trkpt>
      <trkpt lat="43.15297" lon="5.83489">
        <ele>274.79998779297</ele>
        <time>2016-05-14T15:41:34.000Z</time>
      </trkpt>
      <trkpt lat="43.1529" lon="5.83494">
        <ele>274.39999389648</ele>
        <time>2016-05-14T15:41:35.000Z</time>
      </trkpt>
      <trkpt lat="43.15282" lon="5.83497">
        <ele>274</ele>
        <time>2016-05-14T15:41:36.000Z</time>
      </trkpt>
      <trkpt lat="43.15275" lon="5.83501">
        <ele>273.39999389648</ele>
        <time>2016-05-14T15:41:37.000Z</time>
      </trkpt>
      <trkpt lat="43.15267" lon="5.83504">
        <ele>272.60000610352</ele>
        <time>2016-05-14T15:41:38.000Z</time>
      </trkpt>
      <trkpt lat="43.15243" lon="5.83511">
        <ele>272</ele>
        <time>2016-05-14T15:41:41.000Z</time>
      </trkpt>
      <trkpt lat="43.15229" lon="5.83513">
        <ele>271.60000610352</ele>
        <time>2016-05-14T15:41:43.000Z</time>
      </trkpt>
      <trkpt lat="43.15207" lon="5.83515">
        <ele>269.60000610352</ele>
        <time>2016-05-14T15:41:46.000Z</time>
      </trkpt>
      <trkpt lat="43.15184" lon="5.83517">
        <ele>266.60000610352</ele>
        <time>2016-05-14T15:41:49.000Z</time>
      </trkpt>
      <trkpt lat="43.15169" lon="5.83518">
        <ele>264.60000610352</ele>
        <time>2016-05-14T15:41:51.000Z</time>
      </trkpt>
      <trkpt lat="43.15161" lon="5.83519">
        <ele>263.60000610352</ele>
        <time>2016-05-14T15:41:52.000Z</time>
      </trkpt>
      <trkpt lat="43.15145" lon="5.8352">
        <ele>261.60000610352</ele>
        <time>2016-05-14T15:41:54.000Z</time>
      </trkpt>
      <trkpt lat="43.1513" lon="5.83521">
        <ele>258.79998779297</ele>
        <time>2016-05-14T15:41:56.000Z</time>
      </trkpt>
      <trkpt lat="43.15109" lon="5.83524">
        <ele>254.39999389648</ele>
        <time>2016-05-14T15:41:59.000Z</time>
      </trkpt>
      <trkpt lat="43.15102" lon="5.83526">
        <ele>253.19999694824</ele>
        <time>2016-05-14T15:42:00.000Z</time>
      </trkpt>
      <trkpt lat="43.15096" lon="5.83531">
        <ele>252.39999389648</ele>
        <time>2016-05-14T15:42:01.000Z</time>
      </trkpt>
      <trkpt lat="43.15091" lon="5.83537">
        <ele>251.80000305176</ele>
        <time>2016-05-14T15:42:02.000Z</time>
      </trkpt>
      <trkpt lat="43.15083" lon="5.83552">
        <ele>251</ele>
        <time>2016-05-14T15:42:04.000Z</time>
      </trkpt>
      <trkpt lat="43.15081" lon="5.8356">
        <ele>250</ele>
        <time>2016-05-14T15:42:05.000Z</time>
      </trkpt>
      <trkpt lat="43.1508" lon="5.83578">
        <ele>248.39999389648</ele>
        <time>2016-05-14T15:42:07.000Z</time>
      </trkpt>
      <trkpt lat="43.15081" lon="5.83598">
        <ele>247.39999389648</ele>
        <time>2016-05-14T15:42:09.000Z</time>
      </trkpt>
      <trkpt lat="43.15083" lon="5.83608">
        <ele>247.19999694824</ele>
        <time>2016-05-14T15:42:10.000Z</time>
      </trkpt>
      <trkpt lat="43.15089" lon="5.83628">
        <ele>247.39999389648</ele>
        <time>2016-05-14T15:42:12.000Z</time>
      </trkpt>
      <trkpt lat="43.15092" lon="5.83637">
        <ele>247.60000610352</ele>
        <time>2016-05-14T15:42:13.000Z</time>
      </trkpt>
      <trkpt lat="43.15096" lon="5.83647">
        <ele>247.39999389648</ele>
        <time>2016-05-14T15:42:14.000Z</time>
      </trkpt>
      <trkpt lat="43.15102" lon="5.83668">
        <ele>246.60000610352</ele>
        <time>2016-05-14T15:42:16.000Z</time>
      </trkpt>
      <trkpt lat="43.15111" lon="5.83698">
        <ele>245.19999694824</ele>
        <time>2016-05-14T15:42:19.000Z</time>
      </trkpt>
      <trkpt lat="43.15119" lon="5.83727">
        <ele>244</ele>
        <time>2016-05-14T15:42:22.000Z</time>
      </trkpt>
      <trkpt lat="43.15126" lon="5.83755">
        <ele>242.60000610352</ele>
        <time>2016-05-14T15:42:25.000Z</time>
      </trkpt>
      <trkpt lat="43.15131" lon="5.83772">
        <ele>242.19999694824</ele>
        <time>2016-05-14T15:42:27.000Z</time>
      </trkpt>
      <trkpt lat="43.15135" lon="5.83788">
        <ele>241.80000305176</ele>
        <time>2016-05-14T15:42:29.000Z</time>
      </trkpt>
      <trkpt lat="43.15138" lon="5.83795">
        <ele>241.80000305176</ele>
        <time>2016-05-14T15:42:30.000Z</time>
      </trkpt>
      <trkpt lat="43.15142" lon="5.83807">
        <ele>241.80000305176</ele>
        <time>2016-05-14T15:42:32.000Z</time>
      </trkpt>
      <trkpt lat="43.15145" lon="5.83813">
        <ele>242.19999694824</ele>
        <time>2016-05-14T15:42:34.000Z</time>
      </trkpt>
      <trkpt lat="43.15145" lon="5.83815">
        <ele>242.19999694824</ele>
        <time>2016-05-14T15:42:35.000Z</time>
      </trkpt>
      <trkpt lat="43.15146" lon="5.83817">
        <ele>242.39999389648</ele>
        <time>2016-05-14T15:43:36.000Z</time>
      </trkpt>
      <trkpt lat="43.15147" lon="5.83819">
        <ele>242.60000610352</ele>
        <time>2016-05-14T15:43:37.000Z</time>
      </trkpt>
      <trkpt lat="43.15153" lon="5.83828">
        <ele>243.60000610352</ele>
        <time>2016-05-14T15:43:40.000Z</time>
      </trkpt>
      <trkpt lat="43.15155" lon="5.83832">
        <ele>243.80000305176</ele>
        <time>2016-05-14T15:43:41.000Z</time>
      </trkpt>
      <trkpt lat="43.15156" lon="5.83838">
        <ele>244</ele>
        <time>2016-05-14T15:43:42.000Z</time>
      </trkpt>
      <trkpt lat="43.15161" lon="5.83858">
        <ele>244.39999389648</ele>
        <time>2016-05-14T15:43:45.000Z</time>
      </trkpt>
      <trkpt lat="43.15162" lon="5.83865">
        <ele>244.19999694824</ele>
        <time>2016-05-14T15:43:46.000Z</time>
      </trkpt>
      <trkpt lat="43.1516" lon="5.83881">
        <ele>243.39999389648</ele>
        <time>2016-05-14T15:43:48.000Z</time>
      </trkpt>
      <trkpt lat="43.15157" lon="5.83898">
        <ele>242.39999389648</ele>
        <time>2016-05-14T15:43:50.000Z</time>
      </trkpt>
      <trkpt lat="43.15155" lon="5.83907">
        <ele>242</ele>
        <time>2016-05-14T15:43:51.000Z</time>
      </trkpt>
      <trkpt lat="43.15148" lon="5.83935">
        <ele>240.80000305176</ele>
        <time>2016-05-14T15:43:54.000Z</time>
      </trkpt>
      <trkpt lat="43.15142" lon="5.83955">
        <ele>240</ele>
        <time>2016-05-14T15:43:56.000Z</time>
      </trkpt>
      <trkpt lat="43.15136" lon="5.83976">
        <ele>239</ele>
        <time>2016-05-14T15:43:58.000Z</time>
      </trkpt>
      <trkpt lat="43.15123" lon="5.84021">
        <ele>234.80000305176</ele>
        <time>2016-05-14T15:44:02.000Z</time>
      </trkpt>
      <trkpt lat="43.1512" lon="5.84032">
        <ele>233.80000305176</ele>
        <time>2016-05-14T15:44:03.000Z</time>
      </trkpt>
      <trkpt lat="43.15114" lon="5.84055">
        <ele>232</ele>
        <time>2016-05-14T15:44:05.000Z</time>
      </trkpt>
      <trkpt lat="43.15106" lon="5.84077">
        <ele>230.19999694824</ele>
        <time>2016-05-14T15:44:07.000Z</time>
      </trkpt>
      <trkpt lat="43.15098" lon="5.84099">
        <ele>228.80000305176</ele>
        <time>2016-05-14T15:44:09.000Z</time>
      </trkpt>
      <trkpt lat="43.1509" lon="5.84121">
        <ele>227.60000610352</ele>
        <time>2016-05-14T15:44:11.000Z</time>
      </trkpt>
      <trkpt lat="43.15086" lon="5.84132">
        <ele>227.19999694824</ele>
        <time>2016-05-14T15:44:12.000Z</time>
      </trkpt>
      <trkpt lat="43.15078" lon="5.84154">
        <ele>225.80000305176</ele>
        <time>2016-05-14T15:44:14.000Z</time>
      </trkpt>
      <trkpt lat="43.15068" lon="5.84174">
        <ele>223.60000610352</ele>
        <time>2016-05-14T15:44:16.000Z</time>
      </trkpt>
      <trkpt lat="43.15062" lon="5.84184">
        <ele>222.39999389648</ele>
        <time>2016-05-14T15:44:17.000Z</time>
      </trkpt>
      <trkpt lat="43.15055" lon="5.84191">
        <ele>222</ele>
        <time>2016-05-14T15:44:18.000Z</time>
      </trkpt>
      <trkpt lat="43.15033" lon="5.8421">
        <ele>222.60000610352</ele>
        <time>2016-05-14T15:44:21.000Z</time>
      </trkpt>
      <trkpt lat="43.1502" lon="5.8422">
        <ele>222.80000305176</ele>
        <time>2016-05-14T15:44:23.000Z</time>
      </trkpt>
      <trkpt lat="43.15002" lon="5.8423">
        <ele>223.19999694824</ele>
        <time>2016-05-14T15:44:26.000Z</time>
      </trkpt>
      <trkpt lat="43.1498" lon="5.84241">
        <ele>224.60000610352</ele>
        <time>2016-05-14T15:44:31.000Z</time>
      </trkpt>
      <trkpt lat="43.14966" lon="5.84248">
        <ele>225.39999389648</ele>
        <time>2016-05-14T15:44:34.000Z</time>
      </trkpt>
      <trkpt lat="43.14953" lon="5.84257">
        <ele>224.39999389648</ele>
        <time>2016-05-14T15:44:37.000Z</time>
      </trkpt>
      <trkpt lat="43.14944" lon="5.84263">
        <ele>222</ele>
        <time>2016-05-14T15:44:39.000Z</time>
      </trkpt>
      <trkpt lat="43.14939" lon="5.84266">
        <ele>220.80000305176</ele>
        <time>2016-05-14T15:44:40.000Z</time>
      </trkpt>
      <trkpt lat="43.14927" lon="5.84274">
        <ele>217.19999694824</ele>
        <time>2016-05-14T15:44:43.000Z</time>
      </trkpt>
      <trkpt lat="43.14914" lon="5.84283">
        <ele>215</ele>
        <time>2016-05-14T15:44:46.000Z</time>
      </trkpt>
      <trkpt lat="43.14905" lon="5.84285">
        <ele>214.19999694824</ele>
        <time>2016-05-14T15:44:48.000Z</time>
      </trkpt>
      <trkpt lat="43.14895" lon="5.84284">
        <ele>214.80000305176</ele>
        <time>2016-05-14T15:44:50.000Z</time>
      </trkpt>
      <trkpt lat="43.14885" lon="5.84278">
        <ele>216.80000305176</ele>
        <time>2016-05-14T15:44:52.000Z</time>
      </trkpt>
      <trkpt lat="43.14875" lon="5.84269">
        <ele>220</ele>
        <time>2016-05-14T15:44:54.000Z</time>
      </trkpt>
      <trkpt lat="43.14857" lon="5.84257">
        <ele>224.39999389648</ele>
        <time>2016-05-14T15:44:57.000Z</time>
      </trkpt>
      <trkpt lat="43.1485" lon="5.84254">
        <ele>225.39999389648</ele>
        <time>2016-05-14T15:44:58.000Z</time>
      </trkpt>
      <trkpt lat="43.14835" lon="5.84253">
        <ele>226.60000610352</ele>
        <time>2016-05-14T15:45:00.000Z</time>
      </trkpt>
      <trkpt lat="43.14813" lon="5.84266">
        <ele>224.39999389648</ele>
        <time>2016-05-14T15:45:03.000Z</time>
      </trkpt>
      <trkpt lat="43.14806" lon="5.84272">
        <ele>223.39999389648</ele>
        <time>2016-05-14T15:45:04.000Z</time>
      </trkpt>
      <trkpt lat="43.14772" lon="5.84304">
        <ele>222</ele>
        <time>2016-05-14T15:45:09.000Z</time>
      </trkpt>
      <trkpt lat="43.14764" lon="5.84311">
        <ele>220.80000305176</ele>
        <time>2016-05-14T15:45:10.000Z</time>
      </trkpt>
      <trkpt lat="43.14749" lon="5.84326">
        <ele>217</ele>
        <time>2016-05-14T15:45:12.000Z</time>
      </trkpt>
      <trkpt lat="43.14733" lon="5.8434">
        <ele>212.39999389648</ele>
        <time>2016-05-14T15:45:14.000Z</time>
      </trkpt>
      <trkpt lat="43.14717" lon="5.84354">
        <ele>209</ele>
        <time>2016-05-14T15:45:16.000Z</time>
      </trkpt>
      <trkpt lat="43.14709" lon="5.84361">
        <ele>208.19999694824</ele>
        <time>2016-05-14T15:45:17.000Z</time>
      </trkpt>
      <trkpt lat="43.14701" lon="5.84368">
        <ele>207.39999389648</ele>
        <time>2016-05-14T15:45:18.000Z</time>
      </trkpt>
      <trkpt lat="43.14687" lon="5.8438">
        <ele>206</ele>
        <time>2016-05-14T15:45:20.000Z</time>
      </trkpt>
      <trkpt lat="43.14675" lon="5.84391">
        <ele>203.80000305176</ele>
        <time>2016-05-14T15:45:22.000Z</time>
      </trkpt>
      <trkpt lat="43.14662" lon="5.84398">
        <ele>199</ele>
        <time>2016-05-14T15:45:24.000Z</time>
      </trkpt>
      <trkpt lat="43.14654" lon="5.84398">
        <ele>197.60000610352</ele>
        <time>2016-05-14T15:45:25.000Z</time>
      </trkpt>
      <trkpt lat="43.14646" lon="5.84397">
        <ele>197</ele>
        <time>2016-05-14T15:45:26.000Z</time>
      </trkpt>
      <trkpt lat="43.14632" lon="5.84389">
        <ele>197.19999694824</ele>
        <time>2016-05-14T15:45:28.000Z</time>
      </trkpt>
      <trkpt lat="43.14618" lon="5.84378">
        <ele>197</ele>
        <time>2016-05-14T15:45:30.000Z</time>
      </trkpt>
      <trkpt lat="43.14607" lon="5.84363">
        <ele>197.60000610352</ele>
        <time>2016-05-14T15:45:32.000Z</time>
      </trkpt>
      <trkpt lat="43.14603" lon="5.84354">
        <ele>198.39999389648</ele>
        <time>2016-05-14T15:45:33.000Z</time>
      </trkpt>
      <trkpt lat="43.14593" lon="5.84323">
        <ele>201.60000610352</ele>
        <time>2016-05-14T15:45:36.000Z</time>
      </trkpt>
      <trkpt lat="43.14591" lon="5.84313">
        <ele>202.39999389648</ele>
        <time>2016-05-14T15:45:37.000Z</time>
      </trkpt>
      <trkpt lat="43.14589" lon="5.84302">
        <ele>203.39999389648</ele>
        <time>2016-05-14T15:45:38.000Z</time>
      </trkpt>
      <trkpt lat="43.14585" lon="5.84282">
        <ele>203.80000305176</ele>
        <time>2016-05-14T15:45:40.000Z</time>
      </trkpt>
      <trkpt lat="43.14579" lon="5.84253">
        <ele>203.60000610352</ele>
        <time>2016-05-14T15:45:43.000Z</time>
      </trkpt>
      <trkpt lat="43.14576" lon="5.84244">
        <ele>203.39999389648</ele>
        <time>2016-05-14T15:45:44.000Z</time>
      </trkpt>
      <trkpt lat="43.1457" lon="5.84226">
        <ele>202.60000610352</ele>
        <time>2016-05-14T15:45:46.000Z</time>
      </trkpt>
      <trkpt lat="43.14559" lon="5.84199">
        <ele>203</ele>
        <time>2016-05-14T15:45:49.000Z</time>
      </trkpt>
      <trkpt lat="43.14552" lon="5.84181">
        <ele>203.39999389648</ele>
        <time>2016-05-14T15:45:51.000Z</time>
      </trkpt>
      <trkpt lat="43.14549" lon="5.84173">
        <ele>203.19999694824</ele>
        <time>2016-05-14T15:45:52.000Z</time>
      </trkpt>
      <trkpt lat="43.14534" lon="5.84138">
        <ele>202.60000610352</ele>
        <time>2016-05-14T15:45:56.000Z</time>
      </trkpt>
      <trkpt lat="43.1453" lon="5.8413">
        <ele>202.19999694824</ele>
        <time>2016-05-14T15:45:57.000Z</time>
      </trkpt>
      <trkpt lat="43.14525" lon="5.84121">
        <ele>201.60000610352</ele>
        <time>2016-05-14T15:45:58.000Z</time>
      </trkpt>
      <trkpt lat="43.14515" lon="5.84104">
        <ele>200</ele>
        <time>2016-05-14T15:46:00.000Z</time>
      </trkpt>
      <trkpt lat="43.14504" lon="5.84086">
        <ele>198.80000305176</ele>
        <time>2016-05-14T15:46:02.000Z</time>
      </trkpt>
      <trkpt lat="43.14499" lon="5.84076">
        <ele>198.39999389648</ele>
        <time>2016-05-14T15:46:03.000Z</time>
      </trkpt>
      <trkpt lat="43.14487" lon="5.84058">
        <ele>197</ele>
        <time>2016-05-14T15:46:05.000Z</time>
      </trkpt>
      <trkpt lat="43.1447" lon="5.84029">
        <ele>196.39999389648</ele>
        <time>2016-05-14T15:46:08.000Z</time>
      </trkpt>
      <trkpt lat="43.14459" lon="5.84011">
        <ele>196</ele>
        <time>2016-05-14T15:46:10.000Z</time>
      </trkpt>
      <trkpt lat="43.14453" lon="5.84002">
        <ele>195.60000610352</ele>
        <time>2016-05-14T15:46:11.000Z</time>
      </trkpt>
      <trkpt lat="43.1444" lon="5.83987">
        <ele>194.19999694824</ele>
        <time>2016-05-14T15:46:13.000Z</time>
      </trkpt>
      <trkpt lat="43.14425" lon="5.83976">
        <ele>192.19999694824</ele>
        <time>2016-05-14T15:46:15.000Z</time>
      </trkpt>
      <trkpt lat="43.14409" lon="5.83965">
        <ele>191.19999694824</ele>
        <time>2016-05-14T15:46:17.000Z</time>
      </trkpt>
      <trkpt lat="43.14392" lon="5.83954">
        <ele>189.60000610352</ele>
        <time>2016-05-14T15:46:19.000Z</time>
      </trkpt>
      <trkpt lat="43.14375" lon="5.83942">
        <ele>188.19999694824</ele>
        <time>2016-05-14T15:46:21.000Z</time>
      </trkpt>
      <trkpt lat="43.14359" lon="5.8393">
        <ele>187</ele>
        <time>2016-05-14T15:46:23.000Z</time>
      </trkpt>
      <trkpt lat="43.14343" lon="5.83919">
        <ele>185.60000610352</ele>
        <time>2016-05-14T15:46:25.000Z</time>
      </trkpt>
      <trkpt lat="43.14335" lon="5.83914">
        <ele>184.80000305176</ele>
        <time>2016-05-14T15:46:26.000Z</time>
      </trkpt>
      <trkpt lat="43.14328" lon="5.83907">
        <ele>184.19999694824</ele>
        <time>2016-05-14T15:46:27.000Z</time>
      </trkpt>
      <trkpt lat="43.14323" lon="5.83899">
        <ele>184</ele>
        <time>2016-05-14T15:46:28.000Z</time>
      </trkpt>
      <trkpt lat="43.14315" lon="5.83879">
        <ele>183.60000610352</ele>
        <time>2016-05-14T15:46:30.000Z</time>
      </trkpt>
      <trkpt lat="43.14312" lon="5.83869">
        <ele>183.19999694824</ele>
        <time>2016-05-14T15:46:31.000Z</time>
      </trkpt>
      <trkpt lat="43.1431" lon="5.83858">
        <ele>183</ele>
        <time>2016-05-14T15:46:32.000Z</time>
      </trkpt>
      <trkpt lat="43.14302" lon="5.83825">
        <ele>182</ele>
        <time>2016-05-14T15:46:35.000Z</time>
      </trkpt>
      <trkpt lat="43.14297" lon="5.83804">
        <ele>181.19999694824</ele>
        <time>2016-05-14T15:46:37.000Z</time>
      </trkpt>
      <trkpt lat="43.14293" lon="5.83782">
        <ele>179.80000305176</ele>
        <time>2016-05-14T15:46:39.000Z</time>
      </trkpt>
      <trkpt lat="43.14291" lon="5.83772">
        <ele>179.19999694824</ele>
        <time>2016-05-14T15:46:40.000Z</time>
      </trkpt>
      <trkpt lat="43.14289" lon="5.83751">
        <ele>178.19999694824</ele>
        <time>2016-05-14T15:46:42.000Z</time>
      </trkpt>
      <trkpt lat="43.14291" lon="5.83741">
        <ele>178</ele>
        <time>2016-05-14T15:46:43.000Z</time>
      </trkpt>
      <trkpt lat="43.14301" lon="5.83705">
        <ele>177.80000305176</ele>
        <time>2016-05-14T15:46:47.000Z</time>
      </trkpt>
      <trkpt lat="43.14304" lon="5.83689">
        <ele>177.19999694824</ele>
        <time>2016-05-14T15:46:49.000Z</time>
      </trkpt>
      <trkpt lat="43.14302" lon="5.83681">
        <ele>176.39999389648</ele>
        <time>2016-05-14T15:46:50.000Z</time>
      </trkpt>
      <trkpt lat="43.14292" lon="5.83671">
        <ele>174.39999389648</ele>
        <time>2016-05-14T15:46:52.000Z</time>
      </trkpt>
      <trkpt lat="43.14278" lon="5.83675">
        <ele>172.60000610352</ele>
        <time>2016-05-14T15:46:54.000Z</time>
      </trkpt>
      <trkpt lat="43.14261" lon="5.83695">
        <ele>171.39999389648</ele>
        <time>2016-05-14T15:46:57.000Z</time>
      </trkpt>
      <trkpt lat="43.14252" lon="5.83708">
        <ele>172.19999694824</ele>
        <time>2016-05-14T15:46:59.000Z</time>
      </trkpt>
      <trkpt lat="43.14246" lon="5.83716">
        <ele>171.80000305176</ele>
        <time>2016-05-14T15:47:01.000Z</time>
      </trkpt>
      <trkpt lat="43.14241" lon="5.83719">
        <ele>171.19999694824</ele>
        <time>2016-05-14T15:48:45.000Z</time>
      </trkpt>
      <trkpt lat="43.14234" lon="5.83722">
        <ele>170.39999389648</ele>
        <time>2016-05-14T15:48:48.000Z</time>
      </trkpt>
      <trkpt lat="43.1423" lon="5.83724">
        <ele>170.19999694824</ele>
        <time>2016-05-14T15:48:49.000Z</time>
      </trkpt>
      <trkpt lat="43.14226" lon="5.83726">
        <ele>169.80000305176</ele>
        <time>2016-05-14T15:48:50.000Z</time>
      </trkpt>
      <trkpt lat="43.14216" lon="5.83728">
        <ele>168.80000305176</ele>
        <time>2016-05-14T15:48:52.000Z</time>
      </trkpt>
      <trkpt lat="43.14204" lon="5.83731">
        <ele>167.80000305176</ele>
        <time>2016-05-14T15:48:54.000Z</time>
      </trkpt>
      <trkpt lat="43.14191" lon="5.83738">
        <ele>166.60000610352</ele>
        <time>2016-05-14T15:48:56.000Z</time>
      </trkpt>
      <trkpt lat="43.14177" lon="5.8375">
        <ele>163.39999389648</ele>
        <time>2016-05-14T15:48:58.000Z</time>
      </trkpt>
      <trkpt lat="43.14163" lon="5.83763">
        <ele>162.39999389648</ele>
        <time>2016-05-14T15:49:00.000Z</time>
      </trkpt>
      <trkpt lat="43.1414" lon="5.83783">
        <ele>160</ele>
        <time>2016-05-14T15:49:03.000Z</time>
      </trkpt>
      <trkpt lat="43.14116" lon="5.83804">
        <ele>155.80000305176</ele>
        <time>2016-05-14T15:49:06.000Z</time>
      </trkpt>
      <trkpt lat="43.14109" lon="5.83812">
        <ele>154.80000305176</ele>
        <time>2016-05-14T15:49:07.000Z</time>
      </trkpt>
      <trkpt lat="43.14102" lon="5.83821">
        <ele>153.39999389648</ele>
        <time>2016-05-14T15:49:08.000Z</time>
      </trkpt>
      <trkpt lat="43.14088" lon="5.83839">
        <ele>149.19999694824</ele>
        <time>2016-05-14T15:49:10.000Z</time>
      </trkpt>
      <trkpt lat="43.14081" lon="5.83847">
        <ele>147.60000610352</ele>
        <time>2016-05-14T15:49:11.000Z</time>
      </trkpt>
      <trkpt lat="43.14073" lon="5.83853">
        <ele>146.19999694824</ele>
        <time>2016-05-14T15:49:12.000Z</time>
      </trkpt>
      <trkpt lat="43.14064" lon="5.83857">
        <ele>145</ele>
        <time>2016-05-14T15:49:13.000Z</time>
      </trkpt>
      <trkpt lat="43.14054" lon="5.8386">
        <ele>144.39999389648</ele>
        <time>2016-05-14T15:49:14.000Z</time>
      </trkpt>
      <trkpt lat="43.14036" lon="5.83865">
        <ele>143.19999694824</ele>
        <time>2016-05-14T15:49:16.000Z</time>
      </trkpt>
      <trkpt lat="43.14018" lon="5.83865">
        <ele>142.60000610352</ele>
        <time>2016-05-14T15:49:18.000Z</time>
      </trkpt>
      <trkpt lat="43.13999" lon="5.83857">
        <ele>141.60000610352</ele>
        <time>2016-05-14T15:49:20.000Z</time>
      </trkpt>
      <trkpt lat="43.1399" lon="5.8385">
        <ele>141</ele>
        <time>2016-05-14T15:49:21.000Z</time>
      </trkpt>
      <trkpt lat="43.13981" lon="5.83843">
        <ele>140.60000610352</ele>
        <time>2016-05-14T15:49:22.000Z</time>
      </trkpt>
      <trkpt lat="43.13965" lon="5.83829">
        <ele>139.60000610352</ele>
        <time>2016-05-14T15:49:24.000Z</time>
      </trkpt>
      <trkpt lat="43.13949" lon="5.83814">
        <ele>139</ele>
        <time>2016-05-14T15:49:26.000Z</time>
      </trkpt>
      <trkpt lat="43.13943" lon="5.83806">
        <ele>139</ele>
        <time>2016-05-14T15:49:27.000Z</time>
      </trkpt>
      <trkpt lat="43.13937" lon="5.83796">
        <ele>138.19999694824</ele>
        <time>2016-05-14T15:49:28.000Z</time>
      </trkpt>
      <trkpt lat="43.13932" lon="5.83785">
        <ele>137.60000610352</ele>
        <time>2016-05-14T15:49:29.000Z</time>
      </trkpt>
      <trkpt lat="43.13929" lon="5.83771">
        <ele>137.19999694824</ele>
        <time>2016-05-14T15:49:30.000Z</time>
      </trkpt>
      <trkpt lat="43.13925" lon="5.83745">
        <ele>136.60000610352</ele>
        <time>2016-05-14T15:49:32.000Z</time>
      </trkpt>
      <trkpt lat="43.13922" lon="5.83719">
        <ele>136</ele>
        <time>2016-05-14T15:49:34.000Z</time>
      </trkpt>
      <trkpt lat="43.13921" lon="5.83694">
        <ele>135.39999389648</ele>
        <time>2016-05-14T15:49:36.000Z</time>
      </trkpt>
      <trkpt lat="43.13922" lon="5.83681">
        <ele>135.39999389648</ele>
        <time>2016-05-14T15:49:37.000Z</time>
      </trkpt>
      <trkpt lat="43.13923" lon="5.83668">
        <ele>135.60000610352</ele>
        <time>2016-05-14T15:49:38.000Z</time>
      </trkpt>
      <trkpt lat="43.13927" lon="5.83645">
        <ele>136</ele>
        <time>2016-05-14T15:49:40.000Z</time>
      </trkpt>
      <trkpt lat="43.1393" lon="5.83635">
        <ele>137</ele>
        <time>2016-05-14T15:49:41.000Z</time>
      </trkpt>
      <trkpt lat="43.13933" lon="5.83625">
        <ele>138.39999389648</ele>
        <time>2016-05-14T15:49:42.000Z</time>
      </trkpt>
      <trkpt lat="43.13935" lon="5.83616">
        <ele>139.39999389648</ele>
        <time>2016-05-14T15:49:43.000Z</time>
      </trkpt>
      <trkpt lat="43.13935" lon="5.8361">
        <ele>140</ele>
        <time>2016-05-14T15:49:44.000Z</time>
      </trkpt>
      <trkpt lat="43.13933" lon="5.83602">
        <ele>140</ele>
        <time>2016-05-14T15:49:45.000Z</time>
      </trkpt>
      <trkpt lat="43.13927" lon="5.8359">
        <ele>139.39999389648</ele>
        <time>2016-05-14T15:49:47.000Z</time>
      </trkpt>
      <trkpt lat="43.13924" lon="5.83589">
        <ele>139.19999694824</ele>
        <time>2016-05-14T15:49:48.000Z</time>
      </trkpt>
      <trkpt lat="43.13916" lon="5.83598">
        <ele>137.60000610352</ele>
        <time>2016-05-14T15:49:50.000Z</time>
      </trkpt>
      <trkpt lat="43.1391" lon="5.83626">
        <ele>134.60000610352</ele>
        <time>2016-05-14T15:49:52.000Z</time>
      </trkpt>
      <trkpt lat="43.13908" lon="5.83641">
        <ele>132.60000610352</ele>
        <time>2016-05-14T15:49:53.000Z</time>
      </trkpt>
      <trkpt lat="43.13906" lon="5.83663">
        <ele>132.39999389648</ele>
        <time>2016-05-14T15:49:56.000Z</time>
      </trkpt>
      <trkpt lat="43.13903" lon="5.83675">
        <ele>132.19999694824</ele>
        <time>2016-05-14T15:49:57.000Z</time>
      </trkpt>
      <trkpt lat="43.13899" lon="5.83686">
        <ele>131.60000610352</ele>
        <time>2016-05-14T15:49:58.000Z</time>
      </trkpt>
      <trkpt lat="43.13887" lon="5.83707">
        <ele>128.39999389648</ele>
        <time>2016-05-14T15:50:00.000Z</time>
      </trkpt>
      <trkpt lat="43.1388" lon="5.83716">
        <ele>126.40000152588</ele>
        <time>2016-05-14T15:50:01.000Z</time>
      </trkpt>
      <trkpt lat="43.13872" lon="5.83726">
        <ele>124.19999694824</ele>
        <time>2016-05-14T15:50:02.000Z</time>
      </trkpt>
      <trkpt lat="43.13863" lon="5.83735">
        <ele>122.40000152588</ele>
        <time>2016-05-14T15:50:03.000Z</time>
      </trkpt>
      <trkpt lat="43.13846" lon="5.83755">
        <ele>120.59999847412</ele>
        <time>2016-05-14T15:50:05.000Z</time>
      </trkpt>
      <trkpt lat="43.13838" lon="5.83764">
        <ele>120.19999694824</ele>
        <time>2016-05-14T15:50:06.000Z</time>
      </trkpt>
      <trkpt lat="43.1383" lon="5.83774">
        <ele>119.80000305176</ele>
        <time>2016-05-14T15:50:07.000Z</time>
      </trkpt>
      <trkpt lat="43.13805" lon="5.838">
        <ele>116.80000305176</ele>
        <time>2016-05-14T15:50:10.000Z</time>
      </trkpt>
      <trkpt lat="43.13789" lon="5.83817">
        <ele>113.80000305176</ele>
        <time>2016-05-14T15:50:12.000Z</time>
      </trkpt>
      <trkpt lat="43.13773" lon="5.83835">
        <ele>112.59999847412</ele>
        <time>2016-05-14T15:50:14.000Z</time>
      </trkpt>
      <trkpt lat="43.13766" lon="5.83843">
        <ele>113</ele>
        <time>2016-05-14T15:50:15.000Z</time>
      </trkpt>
      <trkpt lat="43.13758" lon="5.83852">
        <ele>113.19999694824</ele>
        <time>2016-05-14T15:50:16.000Z</time>
      </trkpt>
      <trkpt lat="43.1375" lon="5.83861">
        <ele>113</ele>
        <time>2016-05-14T15:50:17.000Z</time>
      </trkpt>
      <trkpt lat="43.13742" lon="5.83871">
        <ele>113</ele>
        <time>2016-05-14T15:50:18.000Z</time>
      </trkpt>
      <trkpt lat="43.13726" lon="5.83888">
        <ele>112.40000152588</ele>
        <time>2016-05-14T15:50:20.000Z</time>
      </trkpt>
      <trkpt lat="43.13709" lon="5.83902">
        <ele>109.59999847412</ele>
        <time>2016-05-14T15:50:22.000Z</time>
      </trkpt>
      <trkpt lat="43.13679" lon="5.83915">
        <ele>105.80000305176</ele>
        <time>2016-05-14T15:50:25.000Z</time>
      </trkpt>
      <trkpt lat="43.13669" lon="5.83919">
        <ele>104.80000305176</ele>
        <time>2016-05-14T15:50:26.000Z</time>
      </trkpt>
      <trkpt lat="43.13659" lon="5.83922">
        <ele>103.80000305176</ele>
        <time>2016-05-14T15:50:27.000Z</time>
      </trkpt>
      <trkpt lat="43.1364" lon="5.83927">
        <ele>102</ele>
        <time>2016-05-14T15:50:29.000Z</time>
      </trkpt>
      <trkpt lat="43.1363" lon="5.83928">
        <ele>101</ele>
        <time>2016-05-14T15:50:30.000Z</time>
      </trkpt>
      <trkpt lat="43.13621" lon="5.83928">
        <ele>99.800003051758</ele>
        <time>2016-05-14T15:50:31.000Z</time>
      </trkpt>
      <trkpt lat="43.13594" lon="5.83924">
        <ele>96.199996948242</ele>
        <time>2016-05-14T15:50:34.000Z</time>
      </trkpt>
      <trkpt lat="43.13567" lon="5.83921">
        <ele>95.199996948242</ele>
        <time>2016-05-14T15:50:37.000Z</time>
      </trkpt>
      <trkpt lat="43.1355" lon="5.8392">
        <ele>94.400001525879</ele>
        <time>2016-05-14T15:50:39.000Z</time>
      </trkpt>
      <trkpt lat="43.13536" lon="5.83922">
        <ele>93.800003051758</ele>
        <time>2016-05-14T15:50:41.000Z</time>
      </trkpt>
      <trkpt lat="43.13529" lon="5.83924">
        <ele>93.400001525879</ele>
        <time>2016-05-14T15:50:42.000Z</time>
      </trkpt>
      <trkpt lat="43.13524" lon="5.83927">
        <ele>93</ele>
        <time>2016-05-14T15:50:43.000Z</time>
      </trkpt>
      <trkpt lat="43.13516" lon="5.83933">
        <ele>92.599998474121</ele>
        <time>2016-05-14T15:50:45.000Z</time>
      </trkpt>
      <trkpt lat="43.13514" lon="5.83935">
        <ele>92.400001525879</ele>
        <time>2016-05-14T15:50:46.000Z</time>
      </trkpt>
      <trkpt lat="43.13513" lon="5.83937">
        <ele>92.400001525879</ele>
        <time>2016-05-14T15:50:47.000Z</time>
      </trkpt>
      <trkpt lat="43.13511" lon="5.83937">
        <ele>92.199996948242</ele>
        <time>2016-05-14T15:50:48.000Z</time>
      </trkpt>
      <trkpt lat="43.13507" lon="5.83935">
        <ele>92.400001525879</ele>
        <time>2016-05-14T15:50:50.000Z</time>
      </trkpt>
      <trkpt lat="43.13492" lon="5.8392">
        <ele>92.800003051758</ele>
        <time>2016-05-14T15:50:55.000Z</time>
      </trkpt>
      <trkpt lat="43.13486" lon="5.83913">
        <ele>93.199996948242</ele>
        <time>2016-05-14T15:50:57.000Z</time>
      </trkpt>
      <trkpt lat="43.1348" lon="5.83902">
        <ele>93.599998474121</ele>
        <time>2016-05-14T15:50:59.000Z</time>
      </trkpt>
      <trkpt lat="43.13466" lon="5.83864">
        <ele>92.400001525879</ele>
        <time>2016-05-14T15:51:04.000Z</time>
      </trkpt>
      <trkpt lat="43.13461" lon="5.83856">
        <ele>92</ele>
        <time>2016-05-14T15:51:05.000Z</time>
      </trkpt>
      <trkpt lat="43.13449" lon="5.83846">
        <ele>91.400001525879</ele>
        <time>2016-05-14T15:51:07.000Z</time>
      </trkpt>
      <trkpt lat="43.13441" lon="5.83841">
        <ele>91.199996948242</ele>
        <time>2016-05-14T15:51:08.000Z</time>
      </trkpt>
      <trkpt lat="43.13427" lon="5.83832">
        <ele>90.599998474121</ele>
        <time>2016-05-14T15:51:10.000Z</time>
      </trkpt>
      <trkpt lat="43.13421" lon="5.83824">
        <ele>90.599998474121</ele>
        <time>2016-05-14T15:51:11.000Z</time>
      </trkpt>
      <trkpt lat="43.13415" lon="5.83815">
        <ele>90.400001525879</ele>
        <time>2016-05-14T15:51:12.000Z</time>
      </trkpt>
      <trkpt lat="43.13405" lon="5.83793">
        <ele>89.199996948242</ele>
        <time>2016-05-14T15:51:14.000Z</time>
      </trkpt>
      <trkpt lat="43.13401" lon="5.83782">
        <ele>88.400001525879</ele>
        <time>2016-05-14T15:51:15.000Z</time>
      </trkpt>
      <trkpt lat="43.13397" lon="5.83771">
        <ele>87.599998474121</ele>
        <time>2016-05-14T15:51:16.000Z</time>
      </trkpt>
      <trkpt lat="43.13394" lon="5.83759">
        <ele>87</ele>
        <time>2016-05-14T15:51:17.000Z</time>
      </trkpt>
      <trkpt lat="43.13393" lon="5.83734">
        <ele>85.599998474121</ele>
        <time>2016-05-14T15:51:19.000Z</time>
      </trkpt>
      <trkpt lat="43.13395" lon="5.83709">
        <ele>83.199996948242</ele>
        <time>2016-05-14T15:51:21.000Z</time>
      </trkpt>
      <trkpt lat="43.13396" lon="5.83696">
        <ele>81.599998474121</ele>
        <time>2016-05-14T15:51:22.000Z</time>
      </trkpt>
      <trkpt lat="43.13398" lon="5.83684">
        <ele>80.800003051758</ele>
        <time>2016-05-14T15:51:23.000Z</time>
      </trkpt>
      <trkpt lat="43.13399" lon="5.8366">
        <ele>79.599998474121</ele>
        <time>2016-05-14T15:51:25.000Z</time>
      </trkpt>
      <trkpt lat="43.134" lon="5.83639">
        <ele>78.599998474121</ele>
        <time>2016-05-14T15:51:27.000Z</time>
      </trkpt>
      <trkpt lat="43.13401" lon="5.83628">
        <ele>78.400001525879</ele>
        <time>2016-05-14T15:51:28.000Z</time>
      </trkpt>
      <trkpt lat="43.13401" lon="5.83579">
        <ele>78.199996948242</ele>
        <time>2016-05-14T15:51:33.000Z</time>
      </trkpt>
      <trkpt lat="43.13402" lon="5.83559">
        <ele>78.599998474121</ele>
        <time>2016-05-14T15:51:35.000Z</time>
      </trkpt>
      <trkpt lat="43.13403" lon="5.83521">
        <ele>76.800003051758</ele>
        <time>2016-05-14T15:51:39.000Z</time>
      </trkpt>
      <trkpt lat="43.13403" lon="5.835">
        <ele>75.599998474121</ele>
        <time>2016-05-14T15:51:42.000Z</time>
      </trkpt>
      <trkpt lat="43.13404" lon="5.83486">
        <ele>74.800003051758</ele>
        <time>2016-05-14T15:51:44.000Z</time>
      </trkpt>
      <trkpt lat="43.13406" lon="5.83462">
        <ele>74</ele>
        <time>2016-05-14T15:51:47.000Z</time>
      </trkpt>
      <trkpt lat="43.13406" lon="5.83443">
        <ele>73.199996948242</ele>
        <time>2016-05-14T15:51:49.000Z</time>
      </trkpt>
      <trkpt lat="43.13406" lon="5.83433">
        <ele>72.400001525879</ele>
        <time>2016-05-14T15:51:50.000Z</time>
      </trkpt>
      <trkpt lat="43.13406" lon="5.83422">
        <ele>71.599998474121</ele>
        <time>2016-05-14T15:51:51.000Z</time>
      </trkpt>
      <trkpt lat="43.13406" lon="5.834">
        <ele>70</ele>
        <time>2016-05-14T15:51:53.000Z</time>
      </trkpt>
      <trkpt lat="43.13406" lon="5.83367">
        <ele>68.400001525879</ele>
        <time>2016-05-14T15:51:56.000Z</time>
      </trkpt>
      <trkpt lat="43.13405" lon="5.83345">
        <ele>68</ele>
        <time>2016-05-14T15:51:58.000Z</time>
      </trkpt>
      <trkpt lat="43.13405" lon="5.83334">
        <ele>67.599998474121</ele>
        <time>2016-05-14T15:51:59.000Z</time>
      </trkpt>
      <trkpt lat="43.13406" lon="5.83303">
        <ele>66.800003051758</ele>
        <time>2016-05-14T15:52:02.000Z</time>
      </trkpt>
      <trkpt lat="43.13407" lon="5.83282">
        <ele>66.400001525879</ele>
        <time>2016-05-14T15:52:04.000Z</time>
      </trkpt>
      <trkpt lat="43.13407" lon="5.83273">
        <ele>65.599998474121</ele>
        <time>2016-05-14T15:52:05.000Z</time>
      </trkpt>
      <trkpt lat="43.13407" lon="5.83254">
        <ele>64.400001525879</ele>
        <time>2016-05-14T15:52:07.000Z</time>
      </trkpt>
      <trkpt lat="43.13406" lon="5.83227">
        <ele>62.400001525879</ele>
        <time>2016-05-14T15:52:10.000Z</time>
      </trkpt>
      <trkpt lat="43.13406" lon="5.83219">
        <ele>62</ele>
        <time>2016-05-14T15:52:11.000Z</time>
      </trkpt>
      <trkpt lat="43.13406" lon="5.83186">
        <ele>61</ele>
        <time>2016-05-14T15:52:15.000Z</time>
      </trkpt>
      <trkpt lat="43.13407" lon="5.83166">
        <ele>60.200000762939</ele>
        <time>2016-05-14T15:52:18.000Z</time>
      </trkpt>
      <trkpt lat="43.13408" lon="5.83154">
        <ele>59.799999237061</ele>
        <time>2016-05-14T15:52:22.000Z</time>
      </trkpt>
      <trkpt lat="43.13408" lon="5.83151">
        <ele>59.599998474121</ele>
        <time>2016-05-14T15:52:38.000Z</time>
      </trkpt>
      <trkpt lat="43.13408" lon="5.83146">
        <ele>59.400001525879</ele>
        <time>2016-05-14T15:52:40.000Z</time>
      </trkpt>
      <trkpt lat="43.1341" lon="5.83124">
        <ele>58.799999237061</ele>
        <time>2016-05-14T15:52:44.000Z</time>
      </trkpt>
      <trkpt lat="43.13412" lon="5.83072">
        <ele>58.200000762939</ele>
        <time>2016-05-14T15:52:52.000Z</time>
      </trkpt>
      <trkpt lat="43.13415" lon="5.83039">
        <ele>57.799999237061</ele>
        <time>2016-05-14T15:52:57.000Z</time>
      </trkpt>
      <trkpt lat="43.1342" lon="5.83019">
        <ele>57.799999237061</ele>
        <time>2016-05-14T15:53:00.000Z</time>
      </trkpt>
      <trkpt lat="43.13432" lon="5.83001">
        <ele>58.200000762939</ele>
        <time>2016-05-14T15:53:04.000Z</time>
      </trkpt>
      <trkpt lat="43.13436" lon="5.82997">
        <ele>58.599998474121</ele>
        <time>2016-05-14T15:53:05.000Z</time>
      </trkpt>
      <trkpt lat="43.1344" lon="5.82993">
        <ele>58.799999237061</ele>
        <time>2016-05-14T15:53:06.000Z</time>
      </trkpt>
      <trkpt lat="43.13459" lon="5.82971">
        <ele>59.200000762939</ele>
        <time>2016-05-14T15:53:11.000Z</time>
      </trkpt>
      <trkpt lat="43.13462" lon="5.82967">
        <ele>59.200000762939</ele>
        <time>2016-05-14T15:53:12.000Z</time>
      </trkpt>
      <trkpt lat="43.13471" lon="5.82953">
        <ele>59.200000762939</ele>
        <time>2016-05-14T15:53:15.000Z</time>
      </trkpt>
      <trkpt lat="43.13473" lon="5.82941">
        <ele>58.799999237061</ele>
        <time>2016-05-14T15:53:17.000Z</time>
      </trkpt>
      <trkpt lat="43.13474" lon="5.82927">
        <ele>58.599998474121</ele>
        <time>2016-05-14T15:53:19.000Z</time>
      </trkpt>
      <trkpt lat="43.13476" lon="5.82891">
        <ele>57.799999237061</ele>
        <time>2016-05-14T15:53:24.000Z</time>
      </trkpt>
      <trkpt lat="43.13481" lon="5.82819">
        <ele>56.400001525879</ele>
        <time>2016-05-14T15:53:33.000Z</time>
      </trkpt>
      <trkpt lat="43.13485" lon="5.82759">
        <ele>54.200000762939</ele>
        <time>2016-05-14T15:53:40.000Z</time>
      </trkpt>
      <trkpt lat="43.13485" lon="5.82742">
        <ele>53.400001525879</ele>
        <time>2016-05-14T15:53:42.000Z</time>
      </trkpt>
      <trkpt lat="43.13485" lon="5.82716">
        <ele>52.200000762939</ele>
        <time>2016-05-14T15:53:45.000Z</time>
      </trkpt>
      <trkpt lat="43.13484" lon="5.82677">
        <ele>50.799999237061</ele>
        <time>2016-05-14T15:53:50.000Z</time>
      </trkpt>
      <trkpt lat="43.13482" lon="5.8263">
        <ele>49.400001525879</ele>
        <time>2016-05-14T15:53:57.000Z</time>
      </trkpt>
      <trkpt lat="43.13486" lon="5.82573">
        <ele>49.400001525879</ele>
        <time>2016-05-14T15:54:06.000Z</time>
      </trkpt>
      <trkpt lat="43.13486" lon="5.8256">
        <ele>49.200000762939</ele>
        <time>2016-05-14T15:54:08.000Z</time>
      </trkpt>
      <trkpt lat="43.13484" lon="5.82535">
        <ele>49.599998474121</ele>
        <time>2016-05-14T15:54:12.000Z</time>
      </trkpt>
      <trkpt lat="43.13483" lon="5.82529">
        <ele>49.599998474121</ele>
        <time>2016-05-14T15:54:13.000Z</time>
      </trkpt>
      <trkpt lat="43.13481" lon="5.82509">
        <ele>50</ele>
        <time>2016-05-14T15:54:16.000Z</time>
      </trkpt>
      <trkpt lat="43.13479" lon="5.82489">
        <ele>50.400001525879</ele>
        <time>2016-05-14T15:54:19.000Z</time>
      </trkpt>
      <trkpt lat="43.13475" lon="5.82468">
        <ele>50.599998474121</ele>
        <time>2016-05-14T15:54:22.000Z</time>
      </trkpt>
      <trkpt lat="43.13471" lon="5.82426">
        <ele>50</ele>
        <time>2016-05-14T15:54:28.000Z</time>
      </trkpt>
      <trkpt lat="43.13469" lon="5.82412">
        <ele>49.799999237061</ele>
        <time>2016-05-14T15:54:30.000Z</time>
      </trkpt>
      <trkpt lat="43.13466" lon="5.8237">
        <ele>49.599998474121</ele>
        <time>2016-05-14T15:54:36.000Z</time>
      </trkpt>
      <trkpt lat="43.13467" lon="5.82321">
        <ele>50.200000762939</ele>
        <time>2016-05-14T15:54:43.000Z</time>
      </trkpt>
      <trkpt lat="43.13468" lon="5.82275">
        <ele>52.200000762939</ele>
        <time>2016-05-14T15:54:50.000Z</time>
      </trkpt>
      <trkpt lat="43.13468" lon="5.82263">
        <ele>53</ele>
        <time>2016-05-14T15:54:52.000Z</time>
      </trkpt>
      <trkpt lat="43.13469" lon="5.82225">
        <ele>53</ele>
        <time>2016-05-14T15:54:58.000Z</time>
      </trkpt>
      <trkpt lat="43.13468" lon="5.82186">
        <ele>56.599998474121</ele>
        <time>2016-05-14T15:55:04.000Z</time>
      </trkpt>
      <trkpt lat="43.13469" lon="5.82165">
        <ele>57.400001525879</ele>
        <time>2016-05-14T15:55:07.000Z</time>
      </trkpt>
      <trkpt lat="43.13469" lon="5.8212">
        <ele>59.400001525879</ele>
        <time>2016-05-14T15:55:14.000Z</time>
      </trkpt>
      <trkpt lat="43.13468" lon="5.82068">
        <ele>62.200000762939</ele>
        <time>2016-05-14T15:55:22.000Z</time>
      </trkpt>
      <trkpt lat="43.13468" lon="5.82055">
        <ele>62.599998474121</ele>
        <time>2016-05-14T15:55:24.000Z</time>
      </trkpt>
      <trkpt lat="43.13471" lon="5.82014">
        <ele>63.799999237061</ele>
        <time>2016-05-14T15:55:30.000Z</time>
      </trkpt>
      <trkpt lat="43.13473" lon="5.81988">
        <ele>63.400001525879</ele>
        <time>2016-05-14T15:55:34.000Z</time>
      </trkpt>
      <trkpt lat="43.13477" lon="5.81976">
        <ele>62.799999237061</ele>
        <time>2016-05-14T15:55:36.000Z</time>
      </trkpt>
      <trkpt lat="43.13479" lon="5.8197">
        <ele>62.200000762939</ele>
        <time>2016-05-14T15:55:37.000Z</time>
      </trkpt>
      <trkpt lat="43.13483" lon="5.81958">
        <ele>61.200000762939</ele>
        <time>2016-05-14T15:55:39.000Z</time>
      </trkpt>
      <trkpt lat="43.13506" lon="5.81896">
        <ele>61</ele>
        <time>2016-05-14T15:55:49.000Z</time>
      </trkpt>
      <trkpt lat="43.13511" lon="5.81883">
        <ele>61.200000762939</ele>
        <time>2016-05-14T15:55:51.000Z</time>
      </trkpt>
      <trkpt lat="43.13525" lon="5.81841">
        <ele>62.799999237061</ele>
        <time>2016-05-14T15:55:58.000Z</time>
      </trkpt>
      <trkpt lat="43.13533" lon="5.81817">
        <ele>63.200000762939</ele>
        <time>2016-05-14T15:56:02.000Z</time>
      </trkpt>
      <trkpt lat="43.13538" lon="5.81795">
        <ele>62.799999237061</ele>
        <time>2016-05-14T15:56:05.000Z</time>
      </trkpt>
      <trkpt lat="43.13547" lon="5.81757">
        <ele>62.799999237061</ele>
        <time>2016-05-14T15:56:10.000Z</time>
      </trkpt>
      <trkpt lat="43.13551" lon="5.81734">
        <ele>62.200000762939</ele>
        <time>2016-05-14T15:56:13.000Z</time>
      </trkpt>
      <trkpt lat="43.13551" lon="5.81726">
        <ele>62.200000762939</ele>
        <time>2016-05-14T15:56:14.000Z</time>
      </trkpt>
      <trkpt lat="43.13546" lon="5.81705">
        <ele>61</ele>
        <time>2016-05-14T15:56:17.000Z</time>
      </trkpt>
      <trkpt lat="43.1354" lon="5.81692">
        <ele>60.400001525879</ele>
        <time>2016-05-14T15:56:19.000Z</time>
      </trkpt>
      <trkpt lat="43.13529" lon="5.81672">
        <ele>59.400001525879</ele>
        <time>2016-05-14T15:56:22.000Z</time>
      </trkpt>
      <trkpt lat="43.13514" lon="5.81654">
        <ele>59</ele>
        <time>2016-05-14T15:56:25.000Z</time>
      </trkpt>
      <trkpt lat="43.13503" lon="5.81646">
        <ele>58.400001525879</ele>
        <time>2016-05-14T15:56:27.000Z</time>
      </trkpt>
      <trkpt lat="43.1349" lon="5.81643">
        <ele>57.799999237061</ele>
        <time>2016-05-14T15:56:29.000Z</time>
      </trkpt>
      <trkpt lat="43.13483" lon="5.81643">
        <ele>57.599998474121</ele>
        <time>2016-05-14T15:56:30.000Z</time>
      </trkpt>
      <trkpt lat="43.13476" lon="5.81642">
        <ele>57.400001525879</ele>
        <time>2016-05-14T15:56:31.000Z</time>
      </trkpt>
      <trkpt lat="43.13464" lon="5.81641">
        <ele>57</ele>
        <time>2016-05-14T15:56:33.000Z</time>
      </trkpt>
      <trkpt lat="43.13437" lon="5.81633">
        <ele>56.200000762939</ele>
        <time>2016-05-14T15:56:37.000Z</time>
      </trkpt>
      <trkpt lat="43.13432" lon="5.81628">
        <ele>55.799999237061</ele>
        <time>2016-05-14T15:56:38.000Z</time>
      </trkpt>
      <trkpt lat="43.13428" lon="5.81611">
        <ele>55.400001525879</ele>
        <time>2016-05-14T15:56:40.000Z</time>
      </trkpt>
      <trkpt lat="43.13417" lon="5.81585">
        <ele>54</ele>
        <time>2016-05-14T15:56:44.000Z</time>
      </trkpt>
      <trkpt lat="43.13411" lon="5.81572">
        <ele>53.200000762939</ele>
        <time>2016-05-14T15:56:46.000Z</time>
      </trkpt>
      <trkpt lat="43.13393" lon="5.81541">
        <ele>51.599998474121</ele>
        <time>2016-05-14T15:56:52.000Z</time>
      </trkpt>
      <trkpt lat="43.1337" lon="5.81497">
        <ele>50</ele>
        <time>2016-05-14T15:57:00.000Z</time>
      </trkpt>
      <trkpt lat="43.13356" lon="5.8145">
        <ele>49.200000762939</ele>
        <time>2016-05-14T15:57:08.000Z</time>
      </trkpt>
      <trkpt lat="43.13341" lon="5.81408">
        <ele>47.799999237061</ele>
        <time>2016-05-14T15:57:15.000Z</time>
      </trkpt>
      <trkpt lat="43.13338" lon="5.814">
        <ele>47.599998474121</ele>
        <time>2016-05-14T15:57:17.000Z</time>
      </trkpt>
      <trkpt lat="43.13337" lon="5.81396">
        <ele>47.599998474121</ele>
        <time>2016-05-14T15:57:19.000Z</time>
      </trkpt>
      <trkpt lat="43.13334" lon="5.8139">
        <ele>47.400001525879</ele>
        <time>2016-05-14T15:57:21.000Z</time>
      </trkpt>
      <trkpt lat="43.13328" lon="5.81381">
        <ele>46.799999237061</ele>
        <time>2016-05-14T15:57:23.000Z</time>
      </trkpt>
      <trkpt lat="43.13318" lon="5.81364">
        <ele>45.599998474121</ele>
        <time>2016-05-14T15:57:26.000Z</time>
      </trkpt>
      <trkpt lat="43.13308" lon="5.81346">
        <ele>44.200000762939</ele>
        <time>2016-05-14T15:57:29.000Z</time>
      </trkpt>
      <trkpt lat="43.13293" lon="5.8132">
        <ele>42.200000762939</ele>
        <time>2016-05-14T15:57:33.000Z</time>
      </trkpt>
      <trkpt lat="43.13279" lon="5.8129">
        <ele>40.599998474121</ele>
        <time>2016-05-14T15:57:38.000Z</time>
      </trkpt>
      <trkpt lat="43.13276" lon="5.81285">
        <ele>40.400001525879</ele>
        <time>2016-05-14T15:57:39.000Z</time>
      </trkpt>
      <trkpt lat="43.13255" lon="5.81244">
        <ele>39.400001525879</ele>
        <time>2016-05-14T15:57:46.000Z</time>
      </trkpt>
      <trkpt lat="43.13227" lon="5.8119">
        <ele>40.200000762939</ele>
        <time>2016-05-14T15:57:55.000Z</time>
      </trkpt>
      <trkpt lat="43.13201" lon="5.8114">
        <ele>41.200000762939</ele>
        <time>2016-05-14T15:58:02.000Z</time>
      </trkpt>
      <trkpt lat="43.13198" lon="5.81133">
        <ele>41.200000762939</ele>
        <time>2016-05-14T15:58:03.000Z</time>
      </trkpt>
      <trkpt lat="43.1319" lon="5.8112">
        <ele>41.599998474121</ele>
        <time>2016-05-14T15:58:05.000Z</time>
      </trkpt>
      <trkpt lat="43.13181" lon="5.81103">
        <ele>41.799999237061</ele>
        <time>2016-05-14T15:58:08.000Z</time>
      </trkpt>
      <trkpt lat="43.13154" lon="5.81056">
        <ele>41.400001525879</ele>
        <time>2016-05-14T15:58:16.000Z</time>
      </trkpt>
      <trkpt lat="43.13125" lon="5.81002">
        <ele>40.799999237061</ele>
        <time>2016-05-14T15:58:25.000Z</time>
      </trkpt>
      <trkpt lat="43.13095" lon="5.80941">
        <ele>40</ele>
        <time>2016-05-14T15:58:35.000Z</time>
      </trkpt>
      <trkpt lat="43.13069" lon="5.80882">
        <ele>39.400001525879</ele>
        <time>2016-05-14T15:58:44.000Z</time>
      </trkpt>
      <trkpt lat="43.1304" lon="5.80826">
        <ele>39.599998474121</ele>
        <time>2016-05-14T15:58:53.000Z</time>
      </trkpt>
      <trkpt lat="43.13009" lon="5.80795">
        <ele>38.799999237061</ele>
        <time>2016-05-14T15:59:00.000Z</time>
      </trkpt>
      <trkpt lat="43.12998" lon="5.80785">
        <ele>38.400001525879</ele>
        <time>2016-05-14T15:59:02.000Z</time>
      </trkpt>
      <trkpt lat="43.12971" lon="5.8076">
        <ele>37.599998474121</ele>
        <time>2016-05-14T15:59:07.000Z</time>
      </trkpt>
      <trkpt lat="43.1296" lon="5.80748">
        <ele>37.200000762939</ele>
        <time>2016-05-14T15:59:09.000Z</time>
      </trkpt>
      <trkpt lat="43.12928" lon="5.80713">
        <ele>36.200000762939</ele>
        <time>2016-05-14T15:59:15.000Z</time>
      </trkpt>
      <trkpt lat="43.12902" lon="5.80671">
        <ele>36.400001525879</ele>
        <time>2016-05-14T15:59:21.000Z</time>
      </trkpt>
      <trkpt lat="43.12881" lon="5.80629">
        <ele>36.200000762939</ele>
        <time>2016-05-14T15:59:27.000Z</time>
      </trkpt>
      <trkpt lat="43.12872" lon="5.80617">
        <ele>35.799999237061</ele>
        <time>2016-05-14T15:59:29.000Z</time>
      </trkpt>
      <trkpt lat="43.12857" lon="5.80599">
        <ele>35</ele>
        <time>2016-05-14T15:59:33.000Z</time>
      </trkpt>
      <trkpt lat="43.12854" lon="5.80595">
        <ele>34.799999237061</ele>
        <time>2016-05-14T15:59:34.000Z</time>
      </trkpt>
      <trkpt lat="43.12852" lon="5.80576">
        <ele>34.599998474121</ele>
        <time>2016-05-14T15:59:37.000Z</time>
      </trkpt>
      <trkpt lat="43.12852" lon="5.80568">
        <ele>34.400001525879</ele>
        <time>2016-05-14T15:59:38.000Z</time>
      </trkpt>
      <trkpt lat="43.12856" lon="5.80528">
        <ele>34.400001525879</ele>
        <time>2016-05-14T15:59:43.000Z</time>
      </trkpt>
      <trkpt lat="43.12859" lon="5.80502">
        <ele>34.599998474121</ele>
        <time>2016-05-14T15:59:46.000Z</time>
      </trkpt>
      <trkpt lat="43.12869" lon="5.80452">
        <ele>34.400001525879</ele>
        <time>2016-05-14T15:59:52.000Z</time>
      </trkpt>
      <trkpt lat="43.12887" lon="5.804">
        <ele>33.799999237061</ele>
        <time>2016-05-14T15:59:59.000Z</time>
      </trkpt>
      <trkpt lat="43.12901" lon="5.80338">
        <ele>34.400001525879</ele>
        <time>2016-05-14T16:00:07.000Z</time>
      </trkpt>
      <trkpt lat="43.12906" lon="5.80283">
        <ele>34.400001525879</ele>
        <time>2016-05-14T16:00:14.000Z</time>
      </trkpt>
      <trkpt lat="43.12908" lon="5.80246">
        <ele>34.599998474121</ele>
        <time>2016-05-14T16:00:19.000Z</time>
      </trkpt>
      <trkpt lat="43.1291" lon="5.80239">
        <ele>34.599998474121</ele>
        <time>2016-05-14T16:00:20.000Z</time>
      </trkpt>
      <trkpt lat="43.1291" lon="5.80232">
        <ele>34.599998474121</ele>
        <time>2016-05-14T16:00:21.000Z</time>
      </trkpt>
      <trkpt lat="43.12905" lon="5.80219">
        <ele>34.400001525879</ele>
        <time>2016-05-14T16:00:23.000Z</time>
      </trkpt>
      <trkpt lat="43.12899" lon="5.80204">
        <ele>34.400001525879</ele>
        <time>2016-05-14T16:00:25.000Z</time>
      </trkpt>
      <trkpt lat="43.12896" lon="5.80187">
        <ele>34.200000762939</ele>
        <time>2016-05-14T16:00:27.000Z</time>
      </trkpt>
      <trkpt lat="43.12895" lon="5.8017">
        <ele>34.200000762939</ele>
        <time>2016-05-14T16:00:29.000Z</time>
      </trkpt>
      <trkpt lat="43.12894" lon="5.80144">
        <ele>34.200000762939</ele>
        <time>2016-05-14T16:00:32.000Z</time>
      </trkpt>
      <trkpt lat="43.12893" lon="5.80127">
        <ele>34</ele>
        <time>2016-05-14T16:00:34.000Z</time>
      </trkpt>
      <trkpt lat="43.12892" lon="5.80085">
        <ele>33.599998474121</ele>
        <time>2016-05-14T16:00:39.000Z</time>
      </trkpt>
      <trkpt lat="43.12891" lon="5.80042">
        <ele>33.200000762939</ele>
        <time>2016-05-14T16:00:44.000Z</time>
      </trkpt>
      <trkpt lat="43.12891" lon="5.79976">
        <ele>32.200000762939</ele>
        <time>2016-05-14T16:00:52.000Z</time>
      </trkpt>
      <trkpt lat="43.1289" lon="5.7996">
        <ele>31.799999237061</ele>
        <time>2016-05-14T16:00:54.000Z</time>
      </trkpt>
      <trkpt lat="43.12891" lon="5.79888">
        <ele>31.60000038147</ele>
        <time>2016-05-14T16:01:03.000Z</time>
      </trkpt>
      <trkpt lat="43.12893" lon="5.79862">
        <ele>31.60000038147</ele>
        <time>2016-05-14T16:01:07.000Z</time>
      </trkpt>
      <trkpt lat="43.12895" lon="5.79856">
        <ele>31.60000038147</ele>
        <time>2016-05-14T16:01:08.000Z</time>
      </trkpt>
      <trkpt lat="43.12894" lon="5.79831">
        <ele>32.400001525879</ele>
        <time>2016-05-14T16:01:12.000Z</time>
      </trkpt>
      <trkpt lat="43.12895" lon="5.79801">
        <ele>33.599998474121</ele>
        <time>2016-05-14T16:01:16.000Z</time>
      </trkpt>
      <trkpt lat="43.12899" lon="5.7973">
        <ele>35.400001525879</ele>
        <time>2016-05-14T16:01:24.000Z</time>
      </trkpt>
      <trkpt lat="43.129" lon="5.79722">
        <ele>35.599998474121</ele>
        <time>2016-05-14T16:01:25.000Z</time>
      </trkpt>
      <trkpt lat="43.12902" lon="5.79662">
        <ele>37.599998474121</ele>
        <time>2016-05-14T16:01:32.000Z</time>
      </trkpt>
      <trkpt lat="43.12903" lon="5.79654">
        <ele>37.799999237061</ele>
        <time>2016-05-14T16:01:33.000Z</time>
      </trkpt>
      <trkpt lat="43.12904" lon="5.7962">
        <ele>39.200000762939</ele>
        <time>2016-05-14T16:01:37.000Z</time>
      </trkpt>
      <trkpt lat="43.12905" lon="5.79597">
        <ele>40.599998474121</ele>
        <time>2016-05-14T16:01:40.000Z</time>
      </trkpt>
      <trkpt lat="43.12905" lon="5.79582">
        <ele>41.599998474121</ele>
        <time>2016-05-14T16:01:42.000Z</time>
      </trkpt>
      <trkpt lat="43.12905" lon="5.79574">
        <ele>42</ele>
        <time>2016-05-14T16:01:43.000Z</time>
      </trkpt>
      <trkpt lat="43.12906" lon="5.79559">
        <ele>43</ele>
        <time>2016-05-14T16:01:45.000Z</time>
      </trkpt>
      <trkpt lat="43.12909" lon="5.79545">
        <ele>43.799999237061</ele>
        <time>2016-05-14T16:01:47.000Z</time>
      </trkpt>
      <trkpt lat="43.12911" lon="5.79538">
        <ele>44</ele>
        <time>2016-05-14T16:01:48.000Z</time>
      </trkpt>
      <trkpt lat="43.12916" lon="5.79525">
        <ele>44.799999237061</ele>
        <time>2016-05-14T16:01:50.000Z</time>
      </trkpt>
      <trkpt lat="43.1292" lon="5.79511">
        <ele>45.799999237061</ele>
        <time>2016-05-14T16:01:52.000Z</time>
      </trkpt>
      <trkpt lat="43.12923" lon="5.79505">
        <ele>46.200000762939</ele>
        <time>2016-05-14T16:01:53.000Z</time>
      </trkpt>
      <trkpt lat="43.12926" lon="5.79498">
        <ele>46.599998474121</ele>
        <time>2016-05-14T16:01:54.000Z</time>
      </trkpt>
      <trkpt lat="43.12929" lon="5.79492">
        <ele>47</ele>
        <time>2016-05-14T16:01:55.000Z</time>
      </trkpt>
      <trkpt lat="43.12933" lon="5.79486">
        <ele>47.200000762939</ele>
        <time>2016-05-14T16:01:56.000Z</time>
      </trkpt>
      <trkpt lat="43.1294" lon="5.79475">
        <ele>47.799999237061</ele>
        <time>2016-05-14T16:01:58.000Z</time>
      </trkpt>
      <trkpt lat="43.12947" lon="5.79463">
        <ele>48.200000762939</ele>
        <time>2016-05-14T16:02:00.000Z</time>
      </trkpt>
      <trkpt lat="43.1296" lon="5.79446">
        <ele>48.400001525879</ele>
        <time>2016-05-14T16:02:03.000Z</time>
      </trkpt>
      <trkpt lat="43.12969" lon="5.79436">
        <ele>48.400001525879</ele>
        <time>2016-05-14T16:02:05.000Z</time>
      </trkpt>
      <trkpt lat="43.12978" lon="5.79426">
        <ele>49.599998474121</ele>
        <time>2016-05-14T16:02:07.000Z</time>
      </trkpt>
      <trkpt lat="43.12988" lon="5.79418">
        <ele>51.200000762939</ele>
        <time>2016-05-14T16:02:09.000Z</time>
      </trkpt>
      <trkpt lat="43.12993" lon="5.79414">
        <ele>52.200000762939</ele>
        <time>2016-05-14T16:02:10.000Z</time>
      </trkpt>
      <trkpt lat="43.13004" lon="5.79406">
        <ele>53.799999237061</ele>
        <time>2016-05-14T16:02:12.000Z</time>
      </trkpt>
      <trkpt lat="43.13025" lon="5.7939">
        <ele>56</ele>
        <time>2016-05-14T16:02:16.000Z</time>
      </trkpt>
      <trkpt lat="43.13047" lon="5.79373">
        <ele>56.799999237061</ele>
        <time>2016-05-14T16:02:20.000Z</time>
      </trkpt>
      <trkpt lat="43.13068" lon="5.79356">
        <ele>57.799999237061</ele>
        <time>2016-05-14T16:02:24.000Z</time>
      </trkpt>
      <trkpt lat="43.13084" lon="5.79345">
        <ele>60.400001525879</ele>
        <time>2016-05-14T16:02:27.000Z</time>
      </trkpt>
      <trkpt lat="43.13095" lon="5.79336">
        <ele>62</ele>
        <time>2016-05-14T16:02:29.000Z</time>
      </trkpt>
      <trkpt lat="43.13111" lon="5.79324">
        <ele>63.200000762939</ele>
        <time>2016-05-14T16:02:32.000Z</time>
      </trkpt>
      <trkpt lat="43.13116" lon="5.79319">
        <ele>63.400001525879</ele>
        <time>2016-05-14T16:02:33.000Z</time>
      </trkpt>
      <trkpt lat="43.13126" lon="5.7931">
        <ele>63.799999237061</ele>
        <time>2016-05-14T16:02:35.000Z</time>
      </trkpt>
      <trkpt lat="43.1314" lon="5.79295">
        <ele>64</ele>
        <time>2016-05-14T16:02:38.000Z</time>
      </trkpt>
      <trkpt lat="43.13154" lon="5.79277">
        <ele>64.199996948242</ele>
        <time>2016-05-14T16:02:41.000Z</time>
      </trkpt>
      <trkpt lat="43.13171" lon="5.79251">
        <ele>66.599998474121</ele>
        <time>2016-05-14T16:02:45.000Z</time>
      </trkpt>
      <trkpt lat="43.13192" lon="5.79219">
        <ele>69.400001525879</ele>
        <time>2016-05-14T16:02:50.000Z</time>
      </trkpt>
      <trkpt lat="43.13203" lon="5.79199">
        <ele>69.800003051758</ele>
        <time>2016-05-14T16:02:53.000Z</time>
      </trkpt>
      <trkpt lat="43.13219" lon="5.79173">
        <ele>71</ele>
        <time>2016-05-14T16:02:57.000Z</time>
      </trkpt>
      <trkpt lat="43.13232" lon="5.79155">
        <ele>73</ele>
        <time>2016-05-14T16:03:00.000Z</time>
      </trkpt>
      <trkpt lat="43.13237" lon="5.79149">
        <ele>73.599998474121</ele>
        <time>2016-05-14T16:03:01.000Z</time>
      </trkpt>
      <trkpt lat="43.13242" lon="5.79144">
        <ele>74.199996948242</ele>
        <time>2016-05-14T16:03:02.000Z</time>
      </trkpt>
      <trkpt lat="43.13247" lon="5.79139">
        <ele>75</ele>
        <time>2016-05-14T16:03:03.000Z</time>
      </trkpt>
      <trkpt lat="43.13262" lon="5.79124">
        <ele>75.800003051758</ele>
        <time>2016-05-14T16:03:06.000Z</time>
      </trkpt>
      <trkpt lat="43.13284" lon="5.79106">
        <ele>76.400001525879</ele>
        <time>2016-05-14T16:03:10.000Z</time>
      </trkpt>
      <trkpt lat="43.13294" lon="5.79096">
        <ele>76.599998474121</ele>
        <time>2016-05-14T16:03:12.000Z</time>
      </trkpt>
      <trkpt lat="43.13319" lon="5.79069">
        <ele>77.199996948242</ele>
        <time>2016-05-14T16:03:17.000Z</time>
      </trkpt>
      <trkpt lat="43.13329" lon="5.79058">
        <ele>77.400001525879</ele>
        <time>2016-05-14T16:03:19.000Z</time>
      </trkpt>
      <trkpt lat="43.13362" lon="5.79018">
        <ele>77.599998474121</ele>
        <time>2016-05-14T16:03:26.000Z</time>
      </trkpt>
      <trkpt lat="43.13399" lon="5.7897">
        <ele>78.199996948242</ele>
        <time>2016-05-14T16:03:34.000Z</time>
      </trkpt>
      <trkpt lat="43.13422" lon="5.78941">
        <ele>78.800003051758</ele>
        <time>2016-05-14T16:03:39.000Z</time>
      </trkpt>
      <trkpt lat="43.13469" lon="5.78888">
        <ele>78</ele>
        <time>2016-05-14T16:03:48.000Z</time>
      </trkpt>
      <trkpt lat="43.13503" lon="5.78849">
        <ele>77.800003051758</ele>
        <time>2016-05-14T16:03:54.000Z</time>
      </trkpt>
      <trkpt lat="43.13509" lon="5.78842">
        <ele>77.400001525879</ele>
        <time>2016-05-14T16:03:55.000Z</time>
      </trkpt>
      <trkpt lat="43.13521" lon="5.78831">
        <ele>77.400001525879</ele>
        <time>2016-05-14T16:03:57.000Z</time>
      </trkpt>
      <trkpt lat="43.13542" lon="5.78808">
        <ele>75.800003051758</ele>
        <time>2016-05-14T16:04:01.000Z</time>
      </trkpt>
      <trkpt lat="43.13546" lon="5.78803">
        <ele>75.400001525879</ele>
        <time>2016-05-14T16:04:02.000Z</time>
      </trkpt>
      <trkpt lat="43.13551" lon="5.78801">
        <ele>75.199996948242</ele>
        <time>2016-05-14T16:04:03.000Z</time>
      </trkpt>
      <trkpt lat="43.13559" lon="5.78793">
        <ele>74.800003051758</ele>
        <time>2016-05-14T16:04:05.000Z</time>
      </trkpt>
      <trkpt lat="43.13563" lon="5.78788">
        <ele>74.400001525879</ele>
        <time>2016-05-14T16:04:06.000Z</time>
      </trkpt>
      <trkpt lat="43.1358" lon="5.78761">
        <ele>72.599998474121</ele>
        <time>2016-05-14T16:04:10.000Z</time>
      </trkpt>
      <trkpt lat="43.13589" lon="5.78748">
        <ele>71.599998474121</ele>
        <time>2016-05-14T16:04:12.000Z</time>
      </trkpt>
      <trkpt lat="43.13613" lon="5.7872">
        <ele>70.599998474121</ele>
        <time>2016-05-14T16:04:17.000Z</time>
      </trkpt>
      <trkpt lat="43.13618" lon="5.78715">
        <ele>70.599998474121</ele>
        <time>2016-05-14T16:04:18.000Z</time>
      </trkpt>
      <trkpt lat="43.13654" lon="5.78681">
        <ele>69.800003051758</ele>
        <time>2016-05-14T16:04:25.000Z</time>
      </trkpt>
      <trkpt lat="43.13677" lon="5.78662">
        <ele>68.599998474121</ele>
        <time>2016-05-14T16:04:29.000Z</time>
      </trkpt>
      <trkpt lat="43.13695" lon="5.78644">
        <ele>66.800003051758</ele>
        <time>2016-05-14T16:04:32.000Z</time>
      </trkpt>
      <trkpt lat="43.13701" lon="5.78637">
        <ele>66.199996948242</ele>
        <time>2016-05-14T16:04:33.000Z</time>
      </trkpt>
      <trkpt lat="43.13716" lon="5.78614">
        <ele>65</ele>
        <time>2016-05-14T16:04:36.000Z</time>
      </trkpt>
      <trkpt lat="43.13725" lon="5.78598">
        <ele>64.400001525879</ele>
        <time>2016-05-14T16:04:38.000Z</time>
      </trkpt>
      <trkpt lat="43.1374" lon="5.78575">
        <ele>63.200000762939</ele>
        <time>2016-05-14T16:04:41.000Z</time>
      </trkpt>
      <trkpt lat="43.13761" lon="5.78549">
        <ele>61.799999237061</ele>
        <time>2016-05-14T16:04:45.000Z</time>
      </trkpt>
      <trkpt lat="43.13766" lon="5.78542">
        <ele>61</ele>
        <time>2016-05-14T16:04:46.000Z</time>
      </trkpt>
      <trkpt lat="43.13788" lon="5.78516">
        <ele>58.200000762939</ele>
        <time>2016-05-14T16:04:50.000Z</time>
      </trkpt>
      <trkpt lat="43.13792" lon="5.78509">
        <ele>57.400001525879</ele>
        <time>2016-05-14T16:04:51.000Z</time>
      </trkpt>
      <trkpt lat="43.13804" lon="5.78495">
        <ele>56.200000762939</ele>
        <time>2016-05-14T16:04:53.000Z</time>
      </trkpt>
      <trkpt lat="43.13817" lon="5.7848">
        <ele>54.799999237061</ele>
        <time>2016-05-14T16:04:55.000Z</time>
      </trkpt>
      <trkpt lat="43.13823" lon="5.78473">
        <ele>54</ele>
        <time>2016-05-14T16:04:56.000Z</time>
      </trkpt>
      <trkpt lat="43.1383" lon="5.78466">
        <ele>53.200000762939</ele>
        <time>2016-05-14T16:04:57.000Z</time>
      </trkpt>
      <trkpt lat="43.13844" lon="5.78453">
        <ele>51</ele>
        <time>2016-05-14T16:04:59.000Z</time>
      </trkpt>
      <trkpt lat="43.13858" lon="5.78439">
        <ele>49.799999237061</ele>
        <time>2016-05-14T16:05:01.000Z</time>
      </trkpt>
      <trkpt lat="43.13872" lon="5.78427">
        <ele>48.400001525879</ele>
        <time>2016-05-14T16:05:03.000Z</time>
      </trkpt>
      <trkpt lat="43.13886" lon="5.78415">
        <ele>47</ele>
        <time>2016-05-14T16:05:05.000Z</time>
      </trkpt>
      <trkpt lat="43.139" lon="5.78402">
        <ele>45.400001525879</ele>
        <time>2016-05-14T16:05:07.000Z</time>
      </trkpt>
      <trkpt lat="43.13906" lon="5.78395">
        <ele>44.599998474121</ele>
        <time>2016-05-14T16:05:08.000Z</time>
      </trkpt>
      <trkpt lat="43.13912" lon="5.78385">
        <ele>44</ele>
        <time>2016-05-14T16:05:09.000Z</time>
      </trkpt>
      <trkpt lat="43.13923" lon="5.78366">
        <ele>42.400001525879</ele>
        <time>2016-05-14T16:05:11.000Z</time>
      </trkpt>
      <trkpt lat="43.13928" lon="5.78354">
        <ele>41.400001525879</ele>
        <time>2016-05-14T16:05:12.000Z</time>
      </trkpt>
      <trkpt lat="43.13933" lon="5.78343">
        <ele>41.400001525879</ele>
        <time>2016-05-14T16:05:13.000Z</time>
      </trkpt>
      <trkpt lat="43.13937" lon="5.7833">
        <ele>41.200000762939</ele>
        <time>2016-05-14T16:05:14.000Z</time>
      </trkpt>
      <trkpt lat="43.13942" lon="5.78318">
        <ele>41</ele>
        <time>2016-05-14T16:05:15.000Z</time>
      </trkpt>
      <trkpt lat="43.13954" lon="5.78294">
        <ele>40.599998474121</ele>
        <time>2016-05-14T16:05:17.000Z</time>
      </trkpt>
      <trkpt lat="43.13965" lon="5.7827">
        <ele>40.400001525879</ele>
        <time>2016-05-14T16:05:19.000Z</time>
      </trkpt>
      <trkpt lat="43.13976" lon="5.78245">
        <ele>39.200000762939</ele>
        <time>2016-05-14T16:05:21.000Z</time>
      </trkpt>
      <trkpt lat="43.13986" lon="5.78222">
        <ele>37.400001525879</ele>
        <time>2016-05-14T16:05:23.000Z</time>
      </trkpt>
      <trkpt lat="43.14" lon="5.7819">
        <ele>36.799999237061</ele>
        <time>2016-05-14T16:05:26.000Z</time>
      </trkpt>
      <trkpt lat="43.14019" lon="5.78147">
        <ele>35.400001525879</ele>
        <time>2016-05-14T16:05:31.000Z</time>
      </trkpt>
      <trkpt lat="43.14027" lon="5.78136">
        <ele>35</ele>
        <time>2016-05-14T16:05:33.000Z</time>
      </trkpt>
      <trkpt lat="43.14035" lon="5.78126">
        <ele>35.200000762939</ele>
        <time>2016-05-14T16:05:35.000Z</time>
      </trkpt>
      <trkpt lat="43.14053" lon="5.78099">
        <ele>36.200000762939</ele>
        <time>2016-05-14T16:05:40.000Z</time>
      </trkpt>
      <trkpt lat="43.14061" lon="5.78088">
        <ele>37.400001525879</ele>
        <time>2016-05-14T16:05:42.000Z</time>
      </trkpt>
      <trkpt lat="43.14065" lon="5.78083">
        <ele>38.200000762939</ele>
        <time>2016-05-14T16:05:43.000Z</time>
      </trkpt>
      <trkpt lat="43.14072" lon="5.78072">
        <ele>39.400001525879</ele>
        <time>2016-05-14T16:05:45.000Z</time>
      </trkpt>
      <trkpt lat="43.14086" lon="5.78049">
        <ele>42.200000762939</ele>
        <time>2016-05-14T16:05:49.000Z</time>
      </trkpt>
      <trkpt lat="43.14094" lon="5.78039">
        <ele>43.599998474121</ele>
        <time>2016-05-14T16:05:51.000Z</time>
      </trkpt>
      <trkpt lat="43.14101" lon="5.78028">
        <ele>44.200000762939</ele>
        <time>2016-05-14T16:05:53.000Z</time>
      </trkpt>
      <trkpt lat="43.14129" lon="5.7799">
        <ele>46</ele>
        <time>2016-05-14T16:06:00.000Z</time>
      </trkpt>
      <trkpt lat="43.14161" lon="5.77949">
        <ele>45.200000762939</ele>
        <time>2016-05-14T16:06:07.000Z</time>
      </trkpt>
      <trkpt lat="43.14185" lon="5.77916">
        <ele>43.400001525879</ele>
        <time>2016-05-14T16:06:13.000Z</time>
      </trkpt>
      <trkpt lat="43.14188" lon="5.7791">
        <ele>43.400001525879</ele>
        <time>2016-05-14T16:06:14.000Z</time>
      </trkpt>
      <trkpt lat="43.1421" lon="5.77864">
        <ele>41</ele>
        <time>2016-05-14T16:06:21.000Z</time>
      </trkpt>
      <trkpt lat="43.14217" lon="5.77849">
        <ele>40.599998474121</ele>
        <time>2016-05-14T16:06:23.000Z</time>
      </trkpt>
      <trkpt lat="43.14226" lon="5.77834">
        <ele>39.599998474121</ele>
        <time>2016-05-14T16:06:25.000Z</time>
      </trkpt>
      <trkpt lat="43.14236" lon="5.7782">
        <ele>38.799999237061</ele>
        <time>2016-05-14T16:06:27.000Z</time>
      </trkpt>
      <trkpt lat="43.14255" lon="5.77796">
        <ele>37.799999237061</ele>
        <time>2016-05-14T16:06:31.000Z</time>
      </trkpt>
      <trkpt lat="43.14267" lon="5.77778">
        <ele>38.200000762939</ele>
        <time>2016-05-14T16:06:34.000Z</time>
      </trkpt>
      <trkpt lat="43.14286" lon="5.77737">
        <ele>39.200000762939</ele>
        <time>2016-05-14T16:06:40.000Z</time>
      </trkpt>
      <trkpt lat="43.14299" lon="5.77683">
        <ele>40.599998474121</ele>
        <time>2016-05-14T16:06:47.000Z</time>
      </trkpt>
      <trkpt lat="43.14309" lon="5.77618">
        <ele>40.200000762939</ele>
        <time>2016-05-14T16:06:55.000Z</time>
      </trkpt>
      <trkpt lat="43.14314" lon="5.77569">
        <ele>41.799999237061</ele>
        <time>2016-05-14T16:07:01.000Z</time>
      </trkpt>
      <trkpt lat="43.14315" lon="5.77562">
        <ele>42</ele>
        <time>2016-05-14T16:07:02.000Z</time>
      </trkpt>
      <trkpt lat="43.1432" lon="5.77533">
        <ele>42.599998474121</ele>
        <time>2016-05-14T16:07:06.000Z</time>
      </trkpt>
      <trkpt lat="43.14323" lon="5.77511">
        <ele>42.799999237061</ele>
        <time>2016-05-14T16:07:09.000Z</time>
      </trkpt>
      <trkpt lat="43.14326" lon="5.77497">
        <ele>43</ele>
        <time>2016-05-14T16:07:11.000Z</time>
      </trkpt>
      <trkpt lat="43.1433" lon="5.77483">
        <ele>43</ele>
        <time>2016-05-14T16:07:13.000Z</time>
      </trkpt>
      <trkpt lat="43.14337" lon="5.77469">
        <ele>43</ele>
        <time>2016-05-14T16:07:15.000Z</time>
      </trkpt>
      <trkpt lat="43.14362" lon="5.77415">
        <ele>42.799999237061</ele>
        <time>2016-05-14T16:07:22.000Z</time>
      </trkpt>
      <trkpt lat="43.14374" lon="5.77386">
        <ele>41.400001525879</ele>
        <time>2016-05-14T16:07:25.000Z</time>
      </trkpt>
      <trkpt lat="43.14385" lon="5.77356">
        <ele>39</ele>
        <time>2016-05-14T16:07:28.000Z</time>
      </trkpt>
      <trkpt lat="43.14389" lon="5.77345">
        <ele>38.200000762939</ele>
        <time>2016-05-14T16:07:29.000Z</time>
      </trkpt>
      <trkpt lat="43.14393" lon="5.77332">
        <ele>37.400001525879</ele>
        <time>2016-05-14T16:07:30.000Z</time>
      </trkpt>
      <trkpt lat="43.14402" lon="5.77309">
        <ele>35.400001525879</ele>
        <time>2016-05-14T16:07:32.000Z</time>
      </trkpt>
      <trkpt lat="43.14409" lon="5.77284">
        <ele>34</ele>
        <time>2016-05-14T16:07:34.000Z</time>
      </trkpt>
      <trkpt lat="43.14413" lon="5.77272">
        <ele>33</ele>
        <time>2016-05-14T16:07:35.000Z</time>
      </trkpt>
      <trkpt lat="43.14417" lon="5.7726">
        <ele>32</ele>
        <time>2016-05-14T16:07:36.000Z</time>
      </trkpt>
      <trkpt lat="43.14424" lon="5.77236">
        <ele>30.200000762939</ele>
        <time>2016-05-14T16:07:38.000Z</time>
      </trkpt>
      <trkpt lat="43.14426" lon="5.77224">
        <ele>29.200000762939</ele>
        <time>2016-05-14T16:07:39.000Z</time>
      </trkpt>
      <trkpt lat="43.14427" lon="5.77211">
        <ele>28.799999237061</ele>
        <time>2016-05-14T16:07:40.000Z</time>
      </trkpt>
      <trkpt lat="43.14428" lon="5.77198">
        <ele>28.60000038147</ele>
        <time>2016-05-14T16:07:41.000Z</time>
      </trkpt>
      <trkpt lat="43.1443" lon="5.77177">
        <ele>28.39999961853</ele>
        <time>2016-05-14T16:07:43.000Z</time>
      </trkpt>
      <trkpt lat="43.14433" lon="5.77162">
        <ele>28</ele>
        <time>2016-05-14T16:07:45.000Z</time>
      </trkpt>
      <trkpt lat="43.14439" lon="5.77149">
        <ele>27.39999961853</ele>
        <time>2016-05-14T16:07:47.000Z</time>
      </trkpt>
      <trkpt lat="43.14446" lon="5.77138">
        <ele>27.200000762939</ele>
        <time>2016-05-14T16:07:49.000Z</time>
      </trkpt>
      <trkpt lat="43.14457" lon="5.77136">
        <ele>26.39999961853</ele>
        <time>2016-05-14T16:07:51.000Z</time>
      </trkpt>
      <trkpt lat="43.14462" lon="5.77133">
        <ele>26</ele>
        <time>2016-05-14T16:07:52.000Z</time>
      </trkpt>
      <trkpt lat="43.14466" lon="5.7713">
        <ele>25.799999237061</ele>
        <time>2016-05-14T16:07:53.000Z</time>
      </trkpt>
      <trkpt lat="43.14463" lon="5.77116">
        <ele>25.200000762939</ele>
        <time>2016-05-14T16:07:55.000Z</time>
      </trkpt>
      <trkpt lat="43.14462" lon="5.77107">
        <ele>24.799999237061</ele>
        <time>2016-05-14T16:07:56.000Z</time>
      </trkpt>
      <trkpt lat="43.14461" lon="5.77098">
        <ele>24.39999961853</ele>
        <time>2016-05-14T16:07:57.000Z</time>
      </trkpt>
      <trkpt lat="43.14464" lon="5.7708">
        <ele>24.200000762939</ele>
        <time>2016-05-14T16:07:59.000Z</time>
      </trkpt>
      <trkpt lat="43.14473" lon="5.77035">
        <ele>24.200000762939</ele>
        <time>2016-05-14T16:08:04.000Z</time>
      </trkpt>
      <trkpt lat="43.14478" lon="5.77018">
        <ele>23.200000762939</ele>
        <time>2016-05-14T16:08:06.000Z</time>
      </trkpt>
      <trkpt lat="43.14494" lon="5.76959">
        <ele>17.60000038147</ele>
        <time>2016-05-14T16:08:13.000Z</time>
      </trkpt>
      <trkpt lat="43.14498" lon="5.76943">
        <ele>16.60000038147</ele>
        <time>2016-05-14T16:08:15.000Z</time>
      </trkpt>
      <trkpt lat="43.14515" lon="5.76875">
        <ele>13.39999961853</ele>
        <time>2016-05-14T16:08:24.000Z</time>
      </trkpt>
      <trkpt lat="43.14524" lon="5.76831">
        <ele>14.39999961853</ele>
        <time>2016-05-14T16:08:31.000Z</time>
      </trkpt>
      <trkpt lat="43.14525" lon="5.76827">
        <ele>14.39999961853</ele>
        <time>2016-05-14T16:08:33.000Z</time>
      </trkpt>
      <trkpt lat="43.14525" lon="5.76826">
        <ele>14.39999961853</ele>
        <time>2016-05-14T16:08:35.000Z</time>
      </trkpt>
      <trkpt lat="43.14527" lon="5.76816">
        <ele>14.199999809265</ele>
        <time>2016-05-14T16:08:40.000Z</time>
      </trkpt>
      <trkpt lat="43.14537" lon="5.76799">
        <ele>13.199999809265</ele>
        <time>2016-05-14T16:08:45.000Z</time>
      </trkpt>
      <trkpt lat="43.1454" lon="5.76794">
        <ele>13.39999961853</ele>
        <time>2016-05-14T16:08:46.000Z</time>
      </trkpt>
      <trkpt lat="43.14551" lon="5.76782">
        <ele>13.800000190735</ele>
        <time>2016-05-14T16:08:48.000Z</time>
      </trkpt>
      <trkpt lat="43.14578" lon="5.76743">
        <ele>13</ele>
        <time>2016-05-14T16:08:54.000Z</time>
      </trkpt>
      <trkpt lat="43.14587" lon="5.76721">
        <ele>12.39999961853</ele>
        <time>2016-05-14T16:08:57.000Z</time>
      </trkpt>
      <trkpt lat="43.14592" lon="5.76707">
        <ele>12.60000038147</ele>
        <time>2016-05-14T16:08:59.000Z</time>
      </trkpt>
      <trkpt lat="43.14598" lon="5.76684">
        <ele>12.800000190735</ele>
        <time>2016-05-14T16:09:02.000Z</time>
      </trkpt>
      <trkpt lat="43.14607" lon="5.76646">
        <ele>13.60000038147</ele>
        <time>2016-05-14T16:09:07.000Z</time>
      </trkpt>
      <trkpt lat="43.14622" lon="5.766">
        <ele>14.800000190735</ele>
        <time>2016-05-14T16:09:13.000Z</time>
      </trkpt>
      <trkpt lat="43.14629" lon="5.76587">
        <ele>15.199999809265</ele>
        <time>2016-05-14T16:09:15.000Z</time>
      </trkpt>
      <trkpt lat="43.14655" lon="5.76553">
        <ele>13.800000190735</ele>
        <time>2016-05-14T16:09:21.000Z</time>
      </trkpt>
      <trkpt lat="43.14695" lon="5.76518">
        <ele>13.800000190735</ele>
        <time>2016-05-14T16:09:29.000Z</time>
      </trkpt>
      <trkpt lat="43.14748" lon="5.76484">
        <ele>13.800000190735</ele>
        <time>2016-05-14T16:09:39.000Z</time>
      </trkpt>
      <trkpt lat="43.14792" lon="5.76463">
        <ele>14.39999961853</ele>
        <time>2016-05-14T16:09:47.000Z</time>
      </trkpt>
      <trkpt lat="43.1482" lon="5.76457">
        <ele>15.60000038147</ele>
        <time>2016-05-14T16:09:52.000Z</time>
      </trkpt>
      <trkpt lat="43.14842" lon="5.76453">
        <ele>15.800000190735</ele>
        <time>2016-05-14T16:09:56.000Z</time>
      </trkpt>
      <trkpt lat="43.14869" lon="5.7645">
        <ele>16.39999961853</ele>
        <time>2016-05-14T16:10:01.000Z</time>
      </trkpt>
      <trkpt lat="43.14884" lon="5.76446">
        <ele>16.60000038147</ele>
        <time>2016-05-14T16:10:04.000Z</time>
      </trkpt>
      <trkpt lat="43.14902" lon="5.76437">
        <ele>16.799999237061</ele>
        <time>2016-05-14T16:10:08.000Z</time>
      </trkpt>
      <trkpt lat="43.14906" lon="5.76435">
        <ele>16.799999237061</ele>
        <time>2016-05-14T16:10:09.000Z</time>
      </trkpt>
      <trkpt lat="43.14931" lon="5.76439">
        <ele>17.39999961853</ele>
        <time>2016-05-14T16:10:14.000Z</time>
      </trkpt>
      <trkpt lat="43.14951" lon="5.76453">
        <ele>18.39999961853</ele>
        <time>2016-05-14T16:10:18.000Z</time>
      </trkpt>
      <trkpt lat="43.14957" lon="5.76457">
        <ele>18.799999237061</ele>
        <time>2016-05-14T16:10:19.000Z</time>
      </trkpt>
      <trkpt lat="43.14994" lon="5.76476">
        <ele>21</ele>
        <time>2016-05-14T16:10:26.000Z</time>
      </trkpt>
      <trkpt lat="43.15019" lon="5.76484">
        <ele>22.799999237061</ele>
        <time>2016-05-14T16:10:30.000Z</time>
      </trkpt>
      <trkpt lat="43.15042" lon="5.7649">
        <ele>24.60000038147</ele>
        <time>2016-05-14T16:10:34.000Z</time>
      </trkpt>
      <trkpt lat="43.15048" lon="5.7649">
        <ele>24.799999237061</ele>
        <time>2016-05-14T16:10:35.000Z</time>
      </trkpt>
      <trkpt lat="43.15073" lon="5.76484">
        <ele>25.39999961853</ele>
        <time>2016-05-14T16:10:39.000Z</time>
      </trkpt>
      <trkpt lat="43.15123" lon="5.76464">
        <ele>24.39999961853</ele>
        <time>2016-05-14T16:10:48.000Z</time>
      </trkpt>
      <trkpt lat="43.15128" lon="5.76461">
        <ele>24.200000762939</ele>
        <time>2016-05-14T16:10:49.000Z</time>
      </trkpt>
      <trkpt lat="43.15159" lon="5.76439">
        <ele>24</ele>
        <time>2016-05-14T16:10:55.000Z</time>
      </trkpt>
      <trkpt lat="43.15202" lon="5.764">
        <ele>23</ele>
        <time>2016-05-14T16:11:04.000Z</time>
      </trkpt>
      <trkpt lat="43.15241" lon="5.76371">
        <ele>23.39999961853</ele>
        <time>2016-05-14T16:11:12.000Z</time>
      </trkpt>
      <trkpt lat="43.15246" lon="5.76369">
        <ele>23.200000762939</ele>
        <time>2016-05-14T16:11:13.000Z</time>
      </trkpt>
      <trkpt lat="43.15267" lon="5.76361">
        <ele>21.799999237061</ele>
        <time>2016-05-14T16:11:17.000Z</time>
      </trkpt>
      <trkpt lat="43.15278" lon="5.76357">
        <ele>21.799999237061</ele>
        <time>2016-05-14T16:11:19.000Z</time>
      </trkpt>
      <trkpt lat="43.15306" lon="5.76352">
        <ele>21.60000038147</ele>
        <time>2016-05-14T16:11:24.000Z</time>
      </trkpt>
      <trkpt lat="43.15318" lon="5.76354">
        <ele>21.39999961853</ele>
        <time>2016-05-14T16:11:26.000Z</time>
      </trkpt>
      <trkpt lat="43.15329" lon="5.76358">
        <ele>21</ele>
        <time>2016-05-14T16:11:28.000Z</time>
      </trkpt>
      <trkpt lat="43.15351" lon="5.76367">
        <ele>20.200000762939</ele>
        <time>2016-05-14T16:11:32.000Z</time>
      </trkpt>
      <trkpt lat="43.15368" lon="5.7637">
        <ele>19.799999237061</ele>
        <time>2016-05-14T16:11:35.000Z</time>
      </trkpt>
      <trkpt lat="43.15387" lon="5.7637">
        <ele>19.799999237061</ele>
        <time>2016-05-14T16:11:38.000Z</time>
      </trkpt>
      <trkpt lat="43.15416" lon="5.76375">
        <ele>19.200000762939</ele>
        <time>2016-05-14T16:11:43.000Z</time>
      </trkpt>
      <trkpt lat="43.15422" lon="5.76377">
        <ele>19</ele>
        <time>2016-05-14T16:11:44.000Z</time>
      </trkpt>
      <trkpt lat="43.15434" lon="5.76379">
        <ele>18.60000038147</ele>
        <time>2016-05-14T16:11:46.000Z</time>
      </trkpt>
      <trkpt lat="43.15474" lon="5.76388">
        <ele>18.60000038147</ele>
        <time>2016-05-14T16:11:53.000Z</time>
      </trkpt>
      <trkpt lat="43.15532" lon="5.76402">
        <ele>19.799999237061</ele>
        <time>2016-05-14T16:12:03.000Z</time>
      </trkpt>
      <trkpt lat="43.15538" lon="5.76403">
        <ele>20</ele>
        <time>2016-05-14T16:12:04.000Z</time>
      </trkpt>
      <trkpt lat="43.15592" lon="5.76415">
        <ele>21.60000038147</ele>
        <time>2016-05-14T16:12:13.000Z</time>
      </trkpt>
      <trkpt lat="43.15631" lon="5.76421">
        <ele>22.799999237061</ele>
        <time>2016-05-14T16:12:20.000Z</time>
      </trkpt>
      <trkpt lat="43.15649" lon="5.76421">
        <ele>23.39999961853</ele>
        <time>2016-05-14T16:12:23.000Z</time>
      </trkpt>
      <trkpt lat="43.15667" lon="5.76421">
        <ele>24</ele>
        <time>2016-05-14T16:12:26.000Z</time>
      </trkpt>
      <trkpt lat="43.15686" lon="5.76423">
        <ele>24.39999961853</ele>
        <time>2016-05-14T16:12:29.000Z</time>
      </trkpt>
      <trkpt lat="43.15704" lon="5.76433">
        <ele>24.200000762939</ele>
        <time>2016-05-14T16:12:32.000Z</time>
      </trkpt>
      <trkpt lat="43.15742" lon="5.76464">
        <ele>24.200000762939</ele>
        <time>2016-05-14T16:12:39.000Z</time>
      </trkpt>
      <trkpt lat="43.15786" lon="5.76496">
        <ele>25</ele>
        <time>2016-05-14T16:12:47.000Z</time>
      </trkpt>
      <trkpt lat="43.15814" lon="5.76512">
        <ele>26.799999237061</ele>
        <time>2016-05-14T16:12:52.000Z</time>
      </trkpt>
      <trkpt lat="43.15831" lon="5.76516">
        <ele>28.39999961853</ele>
        <time>2016-05-14T16:12:55.000Z</time>
      </trkpt>
      <trkpt lat="43.15843" lon="5.76516">
        <ele>29.60000038147</ele>
        <time>2016-05-14T16:12:57.000Z</time>
      </trkpt>
      <trkpt lat="43.15867" lon="5.76515">
        <ele>29.60000038147</ele>
        <time>2016-05-14T16:13:01.000Z</time>
      </trkpt>
      <trkpt lat="43.15873" lon="5.76514">
        <ele>29.60000038147</ele>
        <time>2016-05-14T16:13:02.000Z</time>
      </trkpt>
      <trkpt lat="43.15889" lon="5.76511">
        <ele>29.60000038147</ele>
        <time>2016-05-14T16:13:05.000Z</time>
      </trkpt>
      <trkpt lat="43.15899" lon="5.76503">
        <ele>30</ele>
        <time>2016-05-14T16:13:07.000Z</time>
      </trkpt>
      <trkpt lat="43.15908" lon="5.76492">
        <ele>30.799999237061</ele>
        <time>2016-05-14T16:13:09.000Z</time>
      </trkpt>
      <trkpt lat="43.15912" lon="5.76486">
        <ele>31.200000762939</ele>
        <time>2016-05-14T16:13:10.000Z</time>
      </trkpt>
      <trkpt lat="43.15915" lon="5.7648">
        <ele>31.60000038147</ele>
        <time>2016-05-14T16:13:11.000Z</time>
      </trkpt>
      <trkpt lat="43.15918" lon="5.76473">
        <ele>32</ele>
        <time>2016-05-14T16:13:12.000Z</time>
      </trkpt>
      <trkpt lat="43.1594" lon="5.76431">
        <ele>38</ele>
        <time>2016-05-14T16:13:18.000Z</time>
      </trkpt>
      <trkpt lat="43.15953" lon="5.76407">
        <ele>40.400001525879</ele>
        <time>2016-05-14T16:13:21.000Z</time>
      </trkpt>
      <trkpt lat="43.15965" lon="5.76395">
        <ele>38.200000762939</ele>
        <time>2016-05-14T16:13:23.000Z</time>
      </trkpt>
      <trkpt lat="43.15977" lon="5.76386">
        <ele>36.400001525879</ele>
        <time>2016-05-14T16:13:25.000Z</time>
      </trkpt>
      <trkpt lat="43.15994" lon="5.76375">
        <ele>35</ele>
        <time>2016-05-14T16:13:28.000Z</time>
      </trkpt>
      <trkpt lat="43.16027" lon="5.76366">
        <ele>33.400001525879</ele>
        <time>2016-05-14T16:13:33.000Z</time>
      </trkpt>
      <trkpt lat="43.16058" lon="5.76367">
        <ele>32.200000762939</ele>
        <time>2016-05-14T16:13:38.000Z</time>
      </trkpt>
      <trkpt lat="43.16094" lon="5.7638">
        <ele>27</ele>
        <time>2016-05-14T16:13:44.000Z</time>
      </trkpt>
      <trkpt lat="43.16142" lon="5.764">
        <ele>27.60000038147</ele>
        <time>2016-05-14T16:13:52.000Z</time>
      </trkpt>
      <trkpt lat="43.16198" lon="5.76418">
        <ele>29.39999961853</ele>
        <time>2016-05-14T16:14:01.000Z</time>
      </trkpt>
      <trkpt lat="43.16256" lon="5.76432">
        <ele>31.200000762939</ele>
        <time>2016-05-14T16:14:10.000Z</time>
      </trkpt>
      <trkpt lat="43.16296" lon="5.76439">
        <ele>33</ele>
        <time>2016-05-14T16:14:16.000Z</time>
      </trkpt>
      <trkpt lat="43.16316" lon="5.76444">
        <ele>34</ele>
        <time>2016-05-14T16:14:19.000Z</time>
      </trkpt>
      <trkpt lat="43.16355" lon="5.76458">
        <ele>37.799999237061</ele>
        <time>2016-05-14T16:14:25.000Z</time>
      </trkpt>
      <trkpt lat="43.16361" lon="5.76462">
        <ele>38.200000762939</ele>
        <time>2016-05-14T16:14:26.000Z</time>
      </trkpt>
      <trkpt lat="43.16373" lon="5.76471">
        <ele>38.799999237061</ele>
        <time>2016-05-14T16:14:28.000Z</time>
      </trkpt>
      <trkpt lat="43.16392" lon="5.7649">
        <ele>39</ele>
        <time>2016-05-14T16:14:32.000Z</time>
      </trkpt>
      <trkpt lat="43.16396" lon="5.76495">
        <ele>38.799999237061</ele>
        <time>2016-05-14T16:14:33.000Z</time>
      </trkpt>
      <trkpt lat="43.1641" lon="5.76511">
        <ele>38.799999237061</ele>
        <time>2016-05-14T16:14:36.000Z</time>
      </trkpt>
      <trkpt lat="43.16424" lon="5.76528">
        <ele>38.599998474121</ele>
        <time>2016-05-14T16:14:39.000Z</time>
      </trkpt>
      <trkpt lat="43.16429" lon="5.76534">
        <ele>38.799999237061</ele>
        <time>2016-05-14T16:14:40.000Z</time>
      </trkpt>
      <trkpt lat="43.16452" lon="5.76565">
        <ele>39</ele>
        <time>2016-05-14T16:14:45.000Z</time>
      </trkpt>
      <trkpt lat="43.16456" lon="5.76572">
        <ele>39</ele>
        <time>2016-05-14T16:14:46.000Z</time>
      </trkpt>
      <trkpt lat="43.16471" lon="5.76602">
        <ele>39.799999237061</ele>
        <time>2016-05-14T16:14:50.000Z</time>
      </trkpt>
      <trkpt lat="43.1648" lon="5.76626">
        <ele>41.599998474121</ele>
        <time>2016-05-14T16:14:53.000Z</time>
      </trkpt>
      <trkpt lat="43.16488" lon="5.7665">
        <ele>42.200000762939</ele>
        <time>2016-05-14T16:14:56.000Z</time>
      </trkpt>
      <trkpt lat="43.16496" lon="5.76684">
        <ele>42</ele>
        <time>2016-05-14T16:15:00.000Z</time>
      </trkpt>
      <trkpt lat="43.1651" lon="5.76748">
        <ele>41.400001525879</ele>
        <time>2016-05-14T16:15:07.000Z</time>
      </trkpt>
      <trkpt lat="43.16513" lon="5.76757">
        <ele>41.200000762939</ele>
        <time>2016-05-14T16:15:08.000Z</time>
      </trkpt>
      <trkpt lat="43.16522" lon="5.76781">
        <ele>40.400001525879</ele>
        <time>2016-05-14T16:15:11.000Z</time>
      </trkpt>
      <trkpt lat="43.16526" lon="5.76788">
        <ele>40.200000762939</ele>
        <time>2016-05-14T16:15:12.000Z</time>
      </trkpt>
      <trkpt lat="43.1655" lon="5.76819">
        <ele>40.799999237061</ele>
        <time>2016-05-14T16:15:17.000Z</time>
      </trkpt>
      <trkpt lat="43.16556" lon="5.76824">
        <ele>41.200000762939</ele>
        <time>2016-05-14T16:15:18.000Z</time>
      </trkpt>
      <trkpt lat="43.16562" lon="5.76828">
        <ele>41.400001525879</ele>
        <time>2016-05-14T16:15:19.000Z</time>
      </trkpt>
      <trkpt lat="43.1658" lon="5.76838">
        <ele>42</ele>
        <time>2016-05-14T16:15:22.000Z</time>
      </trkpt>
      <trkpt lat="43.16611" lon="5.76845">
        <ele>41.200000762939</ele>
        <time>2016-05-14T16:15:27.000Z</time>
      </trkpt>
      <trkpt lat="43.1666" lon="5.76858">
        <ele>39.799999237061</ele>
        <time>2016-05-14T16:15:35.000Z</time>
      </trkpt>
      <trkpt lat="43.16703" lon="5.76883">
        <ele>40.200000762939</ele>
        <time>2016-05-14T16:15:43.000Z</time>
      </trkpt>
      <trkpt lat="43.16714" lon="5.76886">
        <ele>40.400001525879</ele>
        <time>2016-05-14T16:15:45.000Z</time>
      </trkpt>
      <trkpt lat="43.16721" lon="5.76889">
        <ele>40.400001525879</ele>
        <time>2016-05-14T16:15:46.000Z</time>
      </trkpt>
      <trkpt lat="43.16726" lon="5.76891">
        <ele>40.400001525879</ele>
        <time>2016-05-14T16:15:47.000Z</time>
      </trkpt>
      <trkpt lat="43.16731" lon="5.76894">
        <ele>40.400001525879</ele>
        <time>2016-05-14T16:15:48.000Z</time>
      </trkpt>
      <trkpt lat="43.16736" lon="5.76897">
        <ele>40.200000762939</ele>
        <time>2016-05-14T16:15:49.000Z</time>
      </trkpt>
      <trkpt lat="43.16746" lon="5.769">
        <ele>40.200000762939</ele>
        <time>2016-05-14T16:15:52.000Z</time>
      </trkpt>
      <trkpt lat="43.16752" lon="5.76887">
        <ele>40.799999237061</ele>
        <time>2016-05-14T16:15:55.000Z</time>
      </trkpt>
      <trkpt lat="43.16774" lon="5.76853">
        <ele>42.799999237061</ele>
        <time>2016-05-14T16:16:01.000Z</time>
      </trkpt>
      <trkpt lat="43.16784" lon="5.76833">
        <ele>44.200000762939</ele>
        <time>2016-05-14T16:16:04.000Z</time>
      </trkpt>
      <trkpt lat="43.16784" lon="5.76814">
        <ele>45.400001525879</ele>
        <time>2016-05-14T16:16:06.000Z</time>
      </trkpt>
      <trkpt lat="43.16777" lon="5.7679">
        <ele>45.400001525879</ele>
        <time>2016-05-14T16:16:09.000Z</time>
      </trkpt>
      <trkpt lat="43.16776" lon="5.76784">
        <ele>45.400001525879</ele>
        <time>2016-05-14T16:16:10.000Z</time>
      </trkpt>
      <trkpt lat="43.16785" lon="5.76769">
        <ele>47</ele>
        <time>2016-05-14T16:16:13.000Z</time>
      </trkpt>
      <trkpt lat="43.16791" lon="5.7676">
        <ele>48</ele>
        <time>2016-05-14T16:16:15.000Z</time>
      </trkpt>
      <trkpt lat="43.16795" lon="5.76756">
        <ele>48.599998474121</ele>
        <time>2016-05-14T16:16:16.000Z</time>
      </trkpt>
      <trkpt lat="43.16803" lon="5.76749">
        <ele>49.599998474121</ele>
        <time>2016-05-14T16:16:18.000Z</time>
      </trkpt>
      <trkpt lat="43.16806" lon="5.76746">
        <ele>50.200000762939</ele>
        <time>2016-05-14T16:16:19.000Z</time>
      </trkpt>
      <trkpt lat="43.1682" lon="5.76736">
        <ele>51.799999237061</ele>
        <time>2016-05-14T16:16:22.000Z</time>
      </trkpt>
      <trkpt lat="43.1683" lon="5.76728">
        <ele>53.200000762939</ele>
        <time>2016-05-14T16:16:24.000Z</time>
      </trkpt>
      <trkpt lat="43.16834" lon="5.76724">
        <ele>53.799999237061</ele>
        <time>2016-05-14T16:16:25.000Z</time>
      </trkpt>
      <trkpt lat="43.16842" lon="5.76715">
        <ele>55</ele>
        <time>2016-05-14T16:16:27.000Z</time>
      </trkpt>
      <trkpt lat="43.16847" lon="5.76708">
        <ele>55.400001525879</ele>
        <time>2016-05-14T16:16:28.000Z</time>
      </trkpt>
      <trkpt lat="43.16851" lon="5.76702">
        <ele>56.200000762939</ele>
        <time>2016-05-14T16:16:29.000Z</time>
      </trkpt>
      <trkpt lat="43.16856" lon="5.76697">
        <ele>56.799999237061</ele>
        <time>2016-05-14T16:16:30.000Z</time>
      </trkpt>
      <trkpt lat="43.16864" lon="5.76686">
        <ele>58</ele>
        <time>2016-05-14T16:16:32.000Z</time>
      </trkpt>
      <trkpt lat="43.16872" lon="5.76677">
        <ele>59.200000762939</ele>
        <time>2016-05-14T16:16:34.000Z</time>
      </trkpt>
      <trkpt lat="43.16882" lon="5.76667">
        <ele>60.200000762939</ele>
        <time>2016-05-14T16:16:36.000Z</time>
      </trkpt>
      <trkpt lat="43.16895" lon="5.76653">
        <ele>60.799999237061</ele>
        <time>2016-05-14T16:16:39.000Z</time>
      </trkpt>
      <trkpt lat="43.16903" lon="5.76644">
        <ele>61.200000762939</ele>
        <time>2016-05-14T16:16:41.000Z</time>
      </trkpt>
      <trkpt lat="43.16911" lon="5.76635">
        <ele>62</ele>
        <time>2016-05-14T16:16:43.000Z</time>
      </trkpt>
      <trkpt lat="43.16916" lon="5.76633">
        <ele>62.799999237061</ele>
        <time>2016-05-14T16:16:44.000Z</time>
      </trkpt>
      <trkpt lat="43.16926" lon="5.76626">
        <ele>63.599998474121</ele>
        <time>2016-05-14T16:16:46.000Z</time>
      </trkpt>
      <trkpt lat="43.16934" lon="5.7662">
        <ele>65.199996948242</ele>
        <time>2016-05-14T16:16:48.000Z</time>
      </trkpt>
      <trkpt lat="43.16938" lon="5.76616">
        <ele>66</ele>
        <time>2016-05-14T16:16:49.000Z</time>
      </trkpt>
      <trkpt lat="43.16942" lon="5.76611">
        <ele>67</ele>
        <time>2016-05-14T16:16:50.000Z</time>
      </trkpt>
      <trkpt lat="43.16946" lon="5.76606">
        <ele>68</ele>
        <time>2016-05-14T16:16:51.000Z</time>
      </trkpt>
      <trkpt lat="43.16951" lon="5.76597">
        <ele>69.400001525879</ele>
        <time>2016-05-14T16:16:54.000Z</time>
      </trkpt>
      <trkpt lat="43.16954" lon="5.76594">
        <ele>70.199996948242</ele>
        <time>2016-05-14T16:16:58.000Z</time>
      </trkpt>
      <trkpt lat="43.16958" lon="5.7659">
        <ele>71.199996948242</ele>
        <time>2016-05-14T16:17:00.000Z</time>
      </trkpt>
      <trkpt lat="43.16962" lon="5.76584">
        <ele>71.800003051758</ele>
        <time>2016-05-14T16:17:02.000Z</time>
      </trkpt>
      <trkpt lat="43.1697" lon="5.76569">
        <ele>72.199996948242</ele>
        <time>2016-05-14T16:17:05.000Z</time>
      </trkpt>
      <trkpt lat="43.16977" lon="5.7656">
        <ele>72.599998474121</ele>
        <time>2016-05-14T16:17:07.000Z</time>
      </trkpt>
      <trkpt lat="43.16984" lon="5.76552">
        <ele>73.400001525879</ele>
        <time>2016-05-14T16:17:09.000Z</time>
      </trkpt>
      <trkpt lat="43.16994" lon="5.76539">
        <ele>75.800003051758</ele>
        <time>2016-05-14T16:17:12.000Z</time>
      </trkpt>
      <trkpt lat="43.16998" lon="5.76535">
        <ele>76.400001525879</ele>
        <time>2016-05-14T16:17:13.000Z</time>
      </trkpt>
      <trkpt lat="43.17006" lon="5.76526">
        <ele>77.400001525879</ele>
        <time>2016-05-14T16:17:15.000Z</time>
      </trkpt>
      <trkpt lat="43.17013" lon="5.76518">
        <ele>78.599998474121</ele>
        <time>2016-05-14T16:17:17.000Z</time>
      </trkpt>
      <trkpt lat="43.17017" lon="5.76513">
        <ele>79.599998474121</ele>
        <time>2016-05-14T16:17:18.000Z</time>
      </trkpt>
      <trkpt lat="43.17024" lon="5.76504">
        <ele>81.800003051758</ele>
        <time>2016-05-14T16:17:20.000Z</time>
      </trkpt>
      <trkpt lat="43.17033" lon="5.7649">
        <ele>84</ele>
        <time>2016-05-14T16:17:22.000Z</time>
      </trkpt>
      <trkpt lat="43.17036" lon="5.76484">
        <ele>83.800003051758</ele>
        <time>2016-05-14T16:17:23.000Z</time>
      </trkpt>
      <trkpt lat="43.17043" lon="5.76473">
        <ele>83.400001525879</ele>
        <time>2016-05-14T16:17:25.000Z</time>
      </trkpt>
      <trkpt lat="43.17047" lon="5.76458">
        <ele>84.599998474121</ele>
        <time>2016-05-14T16:17:27.000Z</time>
      </trkpt>
      <trkpt lat="43.17049" lon="5.7645">
        <ele>85.199996948242</ele>
        <time>2016-05-14T16:17:28.000Z</time>
      </trkpt>
      <trkpt lat="43.17051" lon="5.76435">
        <ele>86.400001525879</ele>
        <time>2016-05-14T16:17:30.000Z</time>
      </trkpt>
      <trkpt lat="43.17051" lon="5.76428">
        <ele>87</ele>
        <time>2016-05-14T16:17:31.000Z</time>
      </trkpt>
      <trkpt lat="43.17055" lon="5.76398">
        <ele>84.199996948242</ele>
        <time>2016-05-14T16:17:35.000Z</time>
      </trkpt>
      <trkpt lat="43.17056" lon="5.76391">
        <ele>83.400001525879</ele>
        <time>2016-05-14T16:17:36.000Z</time>
      </trkpt>
      <trkpt lat="43.1706" lon="5.76377">
        <ele>84</ele>
        <time>2016-05-14T16:17:38.000Z</time>
      </trkpt>
      <trkpt lat="43.17069" lon="5.76348">
        <ele>85.400001525879</ele>
        <time>2016-05-14T16:17:42.000Z</time>
      </trkpt>
      <trkpt lat="43.17071" lon="5.76333">
        <ele>85.599998474121</ele>
        <time>2016-05-14T16:17:44.000Z</time>
      </trkpt>
      <trkpt lat="43.17073" lon="5.76327">
        <ele>85.599998474121</ele>
        <time>2016-05-14T16:17:45.000Z</time>
      </trkpt>
      <trkpt lat="43.17079" lon="5.76316">
        <ele>85</ele>
        <time>2016-05-14T16:17:47.000Z</time>
      </trkpt>
      <trkpt lat="43.1709" lon="5.76318">
        <ele>83.199996948242</ele>
        <time>2016-05-14T16:17:49.000Z</time>
      </trkpt>
      <trkpt lat="43.17099" lon="5.76323">
        <ele>83</ele>
        <time>2016-05-14T16:17:51.000Z</time>
      </trkpt>
      <trkpt lat="43.1711" lon="5.76328">
        <ele>84.199996948242</ele>
        <time>2016-05-14T16:17:53.000Z</time>
      </trkpt>
      <trkpt lat="43.17115" lon="5.76328">
        <ele>84.800003051758</ele>
        <time>2016-05-14T16:17:54.000Z</time>
      </trkpt>
      <trkpt lat="43.1712" lon="5.76329">
        <ele>85.400001525879</ele>
        <time>2016-05-14T16:17:55.000Z</time>
      </trkpt>
      <trkpt lat="43.17135" lon="5.76329">
        <ele>86.800003051758</ele>
        <time>2016-05-14T16:17:58.000Z</time>
      </trkpt>
      <trkpt lat="43.17145" lon="5.76329">
        <ele>87.800003051758</ele>
        <time>2016-05-14T16:18:00.000Z</time>
      </trkpt>
      <trkpt lat="43.1715" lon="5.76329">
        <ele>88.199996948242</ele>
        <time>2016-05-14T16:18:01.000Z</time>
      </trkpt>
      <trkpt lat="43.17154" lon="5.76328">
        <ele>88.800003051758</ele>
        <time>2016-05-14T16:18:02.000Z</time>
      </trkpt>
      <trkpt lat="43.17159" lon="5.76327">
        <ele>89.199996948242</ele>
        <time>2016-05-14T16:18:03.000Z</time>
      </trkpt>
      <trkpt lat="43.17168" lon="5.76325">
        <ele>90</ele>
        <time>2016-05-14T16:18:05.000Z</time>
      </trkpt>
      <trkpt lat="43.17177" lon="5.76325">
        <ele>91</ele>
        <time>2016-05-14T16:18:07.000Z</time>
      </trkpt>
      <trkpt lat="43.17182" lon="5.76326">
        <ele>91.800003051758</ele>
        <time>2016-05-14T16:18:08.000Z</time>
      </trkpt>
      <trkpt lat="43.17189" lon="5.76333">
        <ele>93.400001525879</ele>
        <time>2016-05-14T16:18:10.000Z</time>
      </trkpt>
      <trkpt lat="43.17191" lon="5.76338">
        <ele>93.800003051758</ele>
        <time>2016-05-14T16:18:11.000Z</time>
      </trkpt>
      <trkpt lat="43.17193" lon="5.76343">
        <ele>94.199996948242</ele>
        <time>2016-05-14T16:18:12.000Z</time>
      </trkpt>
      <trkpt lat="43.17194" lon="5.76348">
        <ele>94.599998474121</ele>
        <time>2016-05-14T16:18:13.000Z</time>
      </trkpt>
      <trkpt lat="43.17196" lon="5.7636">
        <ele>95</ele>
        <time>2016-05-14T16:18:15.000Z</time>
      </trkpt>
      <trkpt lat="43.17198" lon="5.7637">
        <ele>95.400001525879</ele>
        <time>2016-05-14T16:18:17.000Z</time>
      </trkpt>
      <trkpt lat="43.172" lon="5.7638">
        <ele>95.800003051758</ele>
        <time>2016-05-14T16:18:19.000Z</time>
      </trkpt>
      <trkpt lat="43.17203" lon="5.76389">
        <ele>96.400001525879</ele>
        <time>2016-05-14T16:18:21.000Z</time>
      </trkpt>
      <trkpt lat="43.17207" lon="5.764">
        <ele>97</ele>
        <time>2016-05-14T16:18:23.000Z</time>
      </trkpt>
      <trkpt lat="43.1721" lon="5.76412">
        <ele>97.400001525879</ele>
        <time>2016-05-14T16:18:25.000Z</time>
      </trkpt>
      <trkpt lat="43.17211" lon="5.76419">
        <ele>97.400001525879</ele>
        <time>2016-05-14T16:18:26.000Z</time>
      </trkpt>
      <trkpt lat="43.17211" lon="5.76426">
        <ele>98</ele>
        <time>2016-05-14T16:18:27.000Z</time>
      </trkpt>
      <trkpt lat="43.17211" lon="5.76439">
        <ele>100</ele>
        <time>2016-05-14T16:18:29.000Z</time>
      </trkpt>
      <trkpt lat="43.1721" lon="5.76445">
        <ele>100.80000305176</ele>
        <time>2016-05-14T16:18:30.000Z</time>
      </trkpt>
      <trkpt lat="43.17208" lon="5.76457">
        <ele>102.40000152588</ele>
        <time>2016-05-14T16:18:32.000Z</time>
      </trkpt>
      <trkpt lat="43.17206" lon="5.76462">
        <ele>103.19999694824</ele>
        <time>2016-05-14T16:18:33.000Z</time>
      </trkpt>
      <trkpt lat="43.17209" lon="5.76478">
        <ele>104.80000305176</ele>
        <time>2016-05-14T16:18:36.000Z</time>
      </trkpt>
      <trkpt lat="43.17213" lon="5.76479">
        <ele>105.19999694824</ele>
        <time>2016-05-14T16:18:37.000Z</time>
      </trkpt>
      <trkpt lat="43.1722" lon="5.76476">
        <ele>105.40000152588</ele>
        <time>2016-05-14T16:18:39.000Z</time>
      </trkpt>
      <trkpt lat="43.17223" lon="5.76475">
        <ele>105.40000152588</ele>
        <time>2016-05-14T16:18:40.000Z</time>
      </trkpt>
      <trkpt lat="43.17227" lon="5.76473">
        <ele>105.40000152588</ele>
        <time>2016-05-14T16:18:41.000Z</time>
      </trkpt>
      <trkpt lat="43.1724" lon="5.76468">
        <ele>105.40000152588</ele>
        <time>2016-05-14T16:18:44.000Z</time>
      </trkpt>
      <trkpt lat="43.17247" lon="5.76464">
        <ele>105.19999694824</ele>
        <time>2016-05-14T16:18:46.000Z</time>
      </trkpt>
      <trkpt lat="43.1725" lon="5.76462">
        <ele>105.19999694824</ele>
        <time>2016-05-14T16:18:47.000Z</time>
      </trkpt>
      <trkpt lat="43.1726" lon="5.76457">
        <ele>107</ele>
        <time>2016-05-14T16:18:50.000Z</time>
      </trkpt>
      <trkpt lat="43.17267" lon="5.76453">
        <ele>108</ele>
        <time>2016-05-14T16:18:52.000Z</time>
      </trkpt>
      <trkpt lat="43.17274" lon="5.76448">
        <ele>108.80000305176</ele>
        <time>2016-05-14T16:18:54.000Z</time>
      </trkpt>
      <trkpt lat="43.17278" lon="5.76445">
        <ele>109.19999694824</ele>
        <time>2016-05-14T16:18:55.000Z</time>
      </trkpt>
      <trkpt lat="43.17285" lon="5.76438">
        <ele>110</ele>
        <time>2016-05-14T16:18:57.000Z</time>
      </trkpt>
      <trkpt lat="43.17292" lon="5.76431">
        <ele>110.80000305176</ele>
        <time>2016-05-14T16:18:59.000Z</time>
      </trkpt>
      <trkpt lat="43.17298" lon="5.76425">
        <ele>111.59999847412</ele>
        <time>2016-05-14T16:19:01.000Z</time>
      </trkpt>
      <trkpt lat="43.17309" lon="5.76416">
        <ele>113.19999694824</ele>
        <time>2016-05-14T16:19:04.000Z</time>
      </trkpt>
      <trkpt lat="43.17318" lon="5.76406">
        <ele>114.40000152588</ele>
        <time>2016-05-14T16:19:07.000Z</time>
      </trkpt>
      <trkpt lat="43.17326" lon="5.76394">
        <ele>115.80000305176</ele>
        <time>2016-05-14T16:19:10.000Z</time>
      </trkpt>
      <trkpt lat="43.17331" lon="5.76385">
        <ele>116.59999847412</ele>
        <time>2016-05-14T16:19:12.000Z</time>
      </trkpt>
      <trkpt lat="43.17335" lon="5.76382">
        <ele>116.80000305176</ele>
        <time>2016-05-14T16:19:13.000Z</time>
      </trkpt>
      <trkpt lat="43.17339" lon="5.76378">
        <ele>117.40000152588</ele>
        <time>2016-05-14T16:19:14.000Z</time>
      </trkpt>
      <trkpt lat="43.17352" lon="5.76371">
        <ele>118.19999694824</ele>
        <time>2016-05-14T16:19:17.000Z</time>
      </trkpt>
      <trkpt lat="43.17357" lon="5.76369">
        <ele>118</ele>
        <time>2016-05-14T16:19:18.000Z</time>
      </trkpt>
      <trkpt lat="43.1737" lon="5.76364">
        <ele>118</ele>
        <time>2016-05-14T16:19:21.000Z</time>
      </trkpt>
      <trkpt lat="43.17378" lon="5.76362">
        <ele>118</ele>
        <time>2016-05-14T16:19:23.000Z</time>
      </trkpt>
      <trkpt lat="43.17383" lon="5.76362">
        <ele>117.80000305176</ele>
        <time>2016-05-14T16:19:24.000Z</time>
      </trkpt>
      <trkpt lat="43.17387" lon="5.76362">
        <ele>117.80000305176</ele>
        <time>2016-05-14T16:19:25.000Z</time>
      </trkpt>
      <trkpt lat="43.17392" lon="5.76361">
        <ele>117.80000305176</ele>
        <time>2016-05-14T16:19:26.000Z</time>
      </trkpt>
      <trkpt lat="43.17401" lon="5.76357">
        <ele>118.19999694824</ele>
        <time>2016-05-14T16:19:28.000Z</time>
      </trkpt>
      <trkpt lat="43.17405" lon="5.76354">
        <ele>118.80000305176</ele>
        <time>2016-05-14T16:19:29.000Z</time>
      </trkpt>
      <trkpt lat="43.17412" lon="5.76346">
        <ele>120.40000152588</ele>
        <time>2016-05-14T16:19:31.000Z</time>
      </trkpt>
      <trkpt lat="43.17419" lon="5.76339">
        <ele>122</ele>
        <time>2016-05-14T16:19:33.000Z</time>
      </trkpt>
      <trkpt lat="43.1743" lon="5.76328">
        <ele>124.19999694824</ele>
        <time>2016-05-14T16:19:36.000Z</time>
      </trkpt>
      <trkpt lat="43.17437" lon="5.76322">
        <ele>124.80000305176</ele>
        <time>2016-05-14T16:19:38.000Z</time>
      </trkpt>
      <trkpt lat="43.17451" lon="5.76308">
        <ele>126</ele>
        <time>2016-05-14T16:19:42.000Z</time>
      </trkpt>
      <trkpt lat="43.17459" lon="5.76301">
        <ele>126.59999847412</ele>
        <time>2016-05-14T16:19:44.000Z</time>
      </trkpt>
      <trkpt lat="43.17472" lon="5.76293">
        <ele>127.19999694824</ele>
        <time>2016-05-14T16:19:47.000Z</time>
      </trkpt>
      <trkpt lat="43.17486" lon="5.76287">
        <ele>127.59999847412</ele>
        <time>2016-05-14T16:19:50.000Z</time>
      </trkpt>
      <trkpt lat="43.17517" lon="5.76274">
        <ele>129</ele>
        <time>2016-05-14T16:19:56.000Z</time>
      </trkpt>
      <trkpt lat="43.17534" lon="5.76276">
        <ele>129.39999389648</ele>
        <time>2016-05-14T16:19:59.000Z</time>
      </trkpt>
      <trkpt lat="43.17549" lon="5.76291">
        <ele>127.59999847412</ele>
        <time>2016-05-14T16:20:02.000Z</time>
      </trkpt>
      <trkpt lat="43.17556" lon="5.76305">
        <ele>126</ele>
        <time>2016-05-14T16:20:04.000Z</time>
      </trkpt>
      <trkpt lat="43.17559" lon="5.76313">
        <ele>125</ele>
        <time>2016-05-14T16:20:05.000Z</time>
      </trkpt>
      <trkpt lat="43.17565" lon="5.76329">
        <ele>122.80000305176</ele>
        <time>2016-05-14T16:20:07.000Z</time>
      </trkpt>
      <trkpt lat="43.17575" lon="5.76354">
        <ele>119.40000152588</ele>
        <time>2016-05-14T16:20:10.000Z</time>
      </trkpt>
      <trkpt lat="43.17578" lon="5.7636">
        <ele>118.59999847412</ele>
        <time>2016-05-14T16:20:11.000Z</time>
      </trkpt>
      <trkpt lat="43.17581" lon="5.76364">
        <ele>118.19999694824</ele>
        <time>2016-05-14T16:20:12.000Z</time>
      </trkpt>
      <trkpt lat="43.17587" lon="5.76367">
        <ele>117.80000305176</ele>
        <time>2016-05-14T16:20:14.000Z</time>
      </trkpt>
      <trkpt lat="43.17591" lon="5.76365">
        <ele>118.19999694824</ele>
        <time>2016-05-14T16:20:15.000Z</time>
      </trkpt>
      <trkpt lat="43.17598" lon="5.76359">
        <ele>119</ele>
        <time>2016-05-14T16:20:17.000Z</time>
      </trkpt>
      <trkpt lat="43.17602" lon="5.76355">
        <ele>119.40000152588</ele>
        <time>2016-05-14T16:20:18.000Z</time>
      </trkpt>
      <trkpt lat="43.17611" lon="5.76346">
        <ele>120.19999694824</ele>
        <time>2016-05-14T16:20:20.000Z</time>
      </trkpt>
      <trkpt lat="43.17646" lon="5.76314">
        <ele>122.59999847412</ele>
        <time>2016-05-14T16:20:28.000Z</time>
      </trkpt>
      <trkpt lat="43.1767" lon="5.76297">
        <ele>123.19999694824</ele>
        <time>2016-05-14T16:20:34.000Z</time>
      </trkpt>
      <trkpt lat="43.17679" lon="5.76292">
        <ele>124</ele>
        <time>2016-05-14T16:20:36.000Z</time>
      </trkpt>
      <trkpt lat="43.17689" lon="5.76289">
        <ele>123.19999694824</ele>
        <time>2016-05-14T16:20:38.000Z</time>
      </trkpt>
      <trkpt lat="43.17711" lon="5.76281">
        <ele>121.40000152588</ele>
        <time>2016-05-14T16:20:42.000Z</time>
      </trkpt>
      <trkpt lat="43.17748" lon="5.7627">
        <ele>119.40000152588</ele>
        <time>2016-05-14T16:20:49.000Z</time>
      </trkpt>
      <trkpt lat="43.17758" lon="5.76264">
        <ele>120</ele>
        <time>2016-05-14T16:20:51.000Z</time>
      </trkpt>
      <trkpt lat="43.17767" lon="5.76253">
        <ele>121.59999847412</ele>
        <time>2016-05-14T16:20:53.000Z</time>
      </trkpt>
      <trkpt lat="43.17774" lon="5.76241">
        <ele>123.40000152588</ele>
        <time>2016-05-14T16:20:55.000Z</time>
      </trkpt>
      <trkpt lat="43.17779" lon="5.76236">
        <ele>124</ele>
        <time>2016-05-14T16:20:56.000Z</time>
      </trkpt>
      <trkpt lat="43.17784" lon="5.76231">
        <ele>124.19999694824</ele>
        <time>2016-05-14T16:20:57.000Z</time>
      </trkpt>
      <trkpt lat="43.17797" lon="5.76223">
        <ele>124.40000152588</ele>
        <time>2016-05-14T16:20:59.000Z</time>
      </trkpt>
      <trkpt lat="43.17802" lon="5.76221">
        <ele>124.19999694824</ele>
        <time>2016-05-14T16:21:00.000Z</time>
      </trkpt>
      <trkpt lat="43.17807" lon="5.7622">
        <ele>123.59999847412</ele>
        <time>2016-05-14T16:21:01.000Z</time>
      </trkpt>
      <trkpt lat="43.17816" lon="5.76223">
        <ele>121.80000305176</ele>
        <time>2016-05-14T16:21:03.000Z</time>
      </trkpt>
      <trkpt lat="43.17818" lon="5.76225">
        <ele>120.80000305176</ele>
        <time>2016-05-14T16:21:04.000Z</time>
      </trkpt>
      <trkpt lat="43.17819" lon="5.76232">
        <ele>119</ele>
        <time>2016-05-14T16:22:49.000Z</time>
      </trkpt>
      <trkpt lat="43.17821" lon="5.76234">
        <ele>118.19999694824</ele>
        <time>2016-05-14T16:22:50.000Z</time>
      </trkpt>
      <trkpt lat="43.17833" lon="5.76251">
        <ele>112.40000152588</ele>
        <time>2016-05-14T16:22:54.000Z</time>
      </trkpt>
      <trkpt lat="43.17841" lon="5.76261">
        <ele>109</ele>
        <time>2016-05-14T16:22:56.000Z</time>
      </trkpt>
      <trkpt lat="43.17851" lon="5.76269">
        <ele>106.40000152588</ele>
        <time>2016-05-14T16:22:58.000Z</time>
      </trkpt>
      <trkpt lat="43.17865" lon="5.7627">
        <ele>105.19999694824</ele>
        <time>2016-05-14T16:23:01.000Z</time>
      </trkpt>
      <trkpt lat="43.1787" lon="5.76269">
        <ele>105.40000152588</ele>
        <time>2016-05-14T16:23:02.000Z</time>
      </trkpt>
      <trkpt lat="43.17884" lon="5.7626">
        <ele>106.59999847412</ele>
        <time>2016-05-14T16:23:06.000Z</time>
      </trkpt>
      <trkpt lat="43.17914" lon="5.76241">
        <ele>105.59999847412</ele>
        <time>2016-05-14T16:23:13.000Z</time>
      </trkpt>
      <trkpt lat="43.17945" lon="5.76222">
        <ele>105.80000305176</ele>
        <time>2016-05-14T16:23:19.000Z</time>
      </trkpt>
      <trkpt lat="43.17949" lon="5.76219">
        <ele>105.80000305176</ele>
        <time>2016-05-14T16:23:20.000Z</time>
      </trkpt>
      <trkpt lat="43.17958" lon="5.76214">
        <ele>106.40000152588</ele>
        <time>2016-05-14T16:23:22.000Z</time>
      </trkpt>
      <trkpt lat="43.17981" lon="5.76197">
        <ele>108.40000152588</ele>
        <time>2016-05-14T16:23:27.000Z</time>
      </trkpt>
      <trkpt lat="43.17985" lon="5.76194">
        <ele>108.59999847412</ele>
        <time>2016-05-14T16:23:28.000Z</time>
      </trkpt>
      <trkpt lat="43.17989" lon="5.76192">
        <ele>108</ele>
        <time>2016-05-14T16:23:29.000Z</time>
      </trkpt>
      <trkpt lat="43.18004" lon="5.76193">
        <ele>105</ele>
        <time>2016-05-14T16:23:32.000Z</time>
      </trkpt>
      <trkpt lat="43.18013" lon="5.762">
        <ele>103</ele>
        <time>2016-05-14T16:23:34.000Z</time>
      </trkpt>
      <trkpt lat="43.18026" lon="5.7621">
        <ele>102.19999694824</ele>
        <time>2016-05-14T16:23:37.000Z</time>
      </trkpt>
      <trkpt lat="43.18045" lon="5.7622">
        <ele>101.59999847412</ele>
        <time>2016-05-14T16:23:41.000Z</time>
      </trkpt>
      <trkpt lat="43.1805" lon="5.76221">
        <ele>101.40000152588</ele>
        <time>2016-05-14T16:23:42.000Z</time>
      </trkpt>
      <trkpt lat="43.18061" lon="5.76223">
        <ele>101.59999847412</ele>
        <time>2016-05-14T16:23:44.000Z</time>
      </trkpt>
      <trkpt lat="43.18085" lon="5.76224">
        <ele>101.80000305176</ele>
        <time>2016-05-14T16:23:48.000Z</time>
      </trkpt>
      <trkpt lat="43.18097" lon="5.76225">
        <ele>101.59999847412</ele>
        <time>2016-05-14T16:23:50.000Z</time>
      </trkpt>
      <trkpt lat="43.1811" lon="5.76228">
        <ele>100.59999847412</ele>
        <time>2016-05-14T16:23:53.000Z</time>
      </trkpt>
      <trkpt lat="43.18117" lon="5.76229">
        <ele>100</ele>
        <time>2016-05-14T16:23:55.000Z</time>
      </trkpt>
      <trkpt lat="43.18125" lon="5.76229">
        <ele>99.599998474121</ele>
        <time>2016-05-14T16:23:57.000Z</time>
      </trkpt>
      <trkpt lat="43.18129" lon="5.76227">
        <ele>99.400001525879</ele>
        <time>2016-05-14T16:23:58.000Z</time>
      </trkpt>
      <trkpt lat="43.18139" lon="5.76224">
        <ele>99</ele>
        <time>2016-05-14T16:24:00.000Z</time>
      </trkpt>
      <trkpt lat="43.18168" lon="5.76217">
        <ele>97.800003051758</ele>
        <time>2016-05-14T16:24:05.000Z</time>
      </trkpt>
      <trkpt lat="43.18175" lon="5.76217">
        <ele>97.400001525879</ele>
        <time>2016-05-14T16:24:06.000Z</time>
      </trkpt>
      <trkpt lat="43.18203" lon="5.76218">
        <ele>96.199996948242</ele>
        <time>2016-05-14T16:24:10.000Z</time>
      </trkpt>
      <trkpt lat="43.18218" lon="5.7622">
        <ele>95.199996948242</ele>
        <time>2016-05-14T16:24:12.000Z</time>
      </trkpt>
      <trkpt lat="43.18241" lon="5.76222">
        <ele>93.800003051758</ele>
        <time>2016-05-14T16:24:15.000Z</time>
      </trkpt>
      <trkpt lat="43.18256" lon="5.76222">
        <ele>93.199996948242</ele>
        <time>2016-05-14T16:24:17.000Z</time>
      </trkpt>
      <trkpt lat="43.1827" lon="5.76221">
        <ele>92.400001525879</ele>
        <time>2016-05-14T16:24:19.000Z</time>
      </trkpt>
      <trkpt lat="43.18305" lon="5.76217">
        <ele>90.400001525879</ele>
        <time>2016-05-14T16:24:24.000Z</time>
      </trkpt>
      <trkpt lat="43.18325" lon="5.76213">
        <ele>89.400001525879</ele>
        <time>2016-05-14T16:24:27.000Z</time>
      </trkpt>
      <trkpt lat="43.18358" lon="5.76211">
        <ele>87.599998474121</ele>
        <time>2016-05-14T16:24:32.000Z</time>
      </trkpt>
      <trkpt lat="43.18369" lon="5.76212">
        <ele>87</ele>
        <time>2016-05-14T16:24:34.000Z</time>
      </trkpt>
      <trkpt lat="43.18374" lon="5.76212">
        <ele>86.599998474121</ele>
        <time>2016-05-14T16:24:35.000Z</time>
      </trkpt>
      <trkpt lat="43.18382" lon="5.76213">
        <ele>86.199996948242</ele>
        <time>2016-05-14T16:24:37.000Z</time>
      </trkpt>
      <trkpt lat="43.1839" lon="5.76213">
        <ele>85.800003051758</ele>
        <time>2016-05-14T16:24:39.000Z</time>
      </trkpt>
      <trkpt lat="43.18394" lon="5.76213">
        <ele>85.599998474121</ele>
        <time>2016-05-14T16:24:40.000Z</time>
      </trkpt>
      <trkpt lat="43.18412" lon="5.76208">
        <ele>85.400001525879</ele>
        <time>2016-05-14T16:24:44.000Z</time>
      </trkpt>
      <trkpt lat="43.18424" lon="5.76205">
        <ele>84.400001525879</ele>
        <time>2016-05-14T16:24:46.000Z</time>
      </trkpt>
      <trkpt lat="43.18431" lon="5.76202">
        <ele>84</ele>
        <time>2016-05-14T16:24:47.000Z</time>
      </trkpt>
      <trkpt lat="43.18437" lon="5.76198">
        <ele>83.800003051758</ele>
        <time>2016-05-14T16:24:48.000Z</time>
      </trkpt>
      <trkpt lat="43.1845" lon="5.7619">
        <ele>83.199996948242</ele>
        <time>2016-05-14T16:24:50.000Z</time>
      </trkpt>
      <trkpt lat="43.18463" lon="5.76182">
        <ele>82.400001525879</ele>
        <time>2016-05-14T16:24:52.000Z</time>
      </trkpt>
      <trkpt lat="43.18481" lon="5.76171">
        <ele>81.800003051758</ele>
        <time>2016-05-14T16:24:55.000Z</time>
      </trkpt>
      <trkpt lat="43.1851" lon="5.76153">
        <ele>80.800003051758</ele>
        <time>2016-05-14T16:25:01.000Z</time>
      </trkpt>
      <trkpt lat="43.18536" lon="5.76135">
        <ele>81.599998474121</ele>
        <time>2016-05-14T16:25:07.000Z</time>
      </trkpt>
      <trkpt lat="43.18543" lon="5.76127">
        <ele>82</ele>
        <time>2016-05-14T16:25:09.000Z</time>
      </trkpt>
      <trkpt lat="43.18549" lon="5.76116">
        <ele>82.599998474121</ele>
        <time>2016-05-14T16:25:11.000Z</time>
      </trkpt>
      <trkpt lat="43.18552" lon="5.7611">
        <ele>83</ele>
        <time>2016-05-14T16:25:12.000Z</time>
      </trkpt>
      <trkpt lat="43.18555" lon="5.76105">
        <ele>83.400001525879</ele>
        <time>2016-05-14T16:25:13.000Z</time>
      </trkpt>
      <trkpt lat="43.18558" lon="5.76099">
        <ele>83.599998474121</ele>
        <time>2016-05-14T16:25:14.000Z</time>
      </trkpt>
      <trkpt lat="43.18561" lon="5.76093">
        <ele>84</ele>
        <time>2016-05-14T16:25:15.000Z</time>
      </trkpt>
      <trkpt lat="43.18572" lon="5.76069">
        <ele>85.599998474121</ele>
        <time>2016-05-14T16:25:19.000Z</time>
      </trkpt>
      <trkpt lat="43.18587" lon="5.76041">
        <ele>87.199996948242</ele>
        <time>2016-05-14T16:25:24.000Z</time>
      </trkpt>
      <trkpt lat="43.18597" lon="5.76025">
        <ele>88</ele>
        <time>2016-05-14T16:25:27.000Z</time>
      </trkpt>
      <trkpt lat="43.18616" lon="5.76001">
        <ele>89</ele>
        <time>2016-05-14T16:25:32.000Z</time>
      </trkpt>
      <trkpt lat="43.18643" lon="5.75978">
        <ele>88.800003051758</ele>
        <time>2016-05-14T16:25:38.000Z</time>
      </trkpt>
      <trkpt lat="43.18667" lon="5.75965">
        <ele>88.400001525879</ele>
        <time>2016-05-14T16:25:44.000Z</time>
      </trkpt>
      <trkpt lat="43.18689" lon="5.75953">
        <ele>87</ele>
        <time>2016-05-14T16:25:49.000Z</time>
      </trkpt>
      <trkpt lat="43.18699" lon="5.75948">
        <ele>86.599998474121</ele>
        <time>2016-05-14T16:25:51.000Z</time>
      </trkpt>
      <trkpt lat="43.18709" lon="5.75943">
        <ele>86.199996948242</ele>
        <time>2016-05-14T16:25:53.000Z</time>
      </trkpt>
      <trkpt lat="43.18732" lon="5.75937">
        <ele>84.800003051758</ele>
        <time>2016-05-14T16:25:57.000Z</time>
      </trkpt>
      <trkpt lat="43.18758" lon="5.75932">
        <ele>82</ele>
        <time>2016-05-14T16:26:01.000Z</time>
      </trkpt>
      <trkpt lat="43.18765" lon="5.7593">
        <ele>81.199996948242</ele>
        <time>2016-05-14T16:26:02.000Z</time>
      </trkpt>
      <trkpt lat="43.18779" lon="5.75923">
        <ele>80.199996948242</ele>
        <time>2016-05-14T16:26:04.000Z</time>
      </trkpt>
      <trkpt lat="43.18798" lon="5.75916">
        <ele>78.800003051758</ele>
        <time>2016-05-14T16:26:07.000Z</time>
      </trkpt>
      <trkpt lat="43.18817" lon="5.75913">
        <ele>78</ele>
        <time>2016-05-14T16:26:10.000Z</time>
      </trkpt>
      <trkpt lat="43.18835" lon="5.75911">
        <ele>77.199996948242</ele>
        <time>2016-05-14T16:26:13.000Z</time>
      </trkpt>
      <trkpt lat="43.18865" lon="5.75909">
        <ele>76.599998474121</ele>
        <time>2016-05-14T16:26:18.000Z</time>
      </trkpt>
      <trkpt lat="43.18886" lon="5.75907">
        <ele>76.800003051758</ele>
        <time>2016-05-14T16:26:22.000Z</time>
      </trkpt>
      <trkpt lat="43.18901" lon="5.75903">
        <ele>77.199996948242</ele>
        <time>2016-05-14T16:26:25.000Z</time>
      </trkpt>
      <trkpt lat="43.1891" lon="5.75897">
        <ele>77.400001525879</ele>
        <time>2016-05-14T16:26:27.000Z</time>
      </trkpt>
      <trkpt lat="43.1892" lon="5.75881">
        <ele>78</ele>
        <time>2016-05-14T16:26:30.000Z</time>
      </trkpt>
      <trkpt lat="43.18927" lon="5.75871">
        <ele>77.599998474121</ele>
        <time>2016-05-14T16:26:32.000Z</time>
      </trkpt>
      <trkpt lat="43.18939" lon="5.75858">
        <ele>77.599998474121</ele>
        <time>2016-05-14T16:26:35.000Z</time>
      </trkpt>
      <trkpt lat="43.18949" lon="5.75853">
        <ele>77.599998474121</ele>
        <time>2016-05-14T16:26:37.000Z</time>
      </trkpt>
      <trkpt lat="43.18983" lon="5.7584">
        <ele>78.400001525879</ele>
        <time>2016-05-14T16:26:44.000Z</time>
      </trkpt>
      <trkpt lat="43.19008" lon="5.75832">
        <ele>79.199996948242</ele>
        <time>2016-05-14T16:26:49.000Z</time>
      </trkpt>
      <trkpt lat="43.19021" lon="5.75827">
        <ele>80</ele>
        <time>2016-05-14T16:26:52.000Z</time>
      </trkpt>
      <trkpt lat="43.19034" lon="5.75821">
        <ele>81</ele>
        <time>2016-05-14T16:26:55.000Z</time>
      </trkpt>
      <trkpt lat="43.19047" lon="5.75812">
        <ele>82.199996948242</ele>
        <time>2016-05-14T16:26:58.000Z</time>
      </trkpt>
      <trkpt lat="43.19055" lon="5.75808">
        <ele>83.199996948242</ele>
        <time>2016-05-14T16:27:00.000Z</time>
      </trkpt>
      <trkpt lat="43.1906" lon="5.75807">
        <ele>83.599998474121</ele>
        <time>2016-05-14T16:27:01.000Z</time>
      </trkpt>
      <trkpt lat="43.19068" lon="5.75804">
        <ele>84.400001525879</ele>
        <time>2016-05-14T16:27:03.000Z</time>
      </trkpt>
      <trkpt lat="43.19085" lon="5.75795">
        <ele>86.199996948242</ele>
        <time>2016-05-14T16:27:07.000Z</time>
      </trkpt>
      <trkpt lat="43.19089" lon="5.75792">
        <ele>86.599998474121</ele>
        <time>2016-05-14T16:27:08.000Z</time>
      </trkpt>
      <trkpt lat="43.19102" lon="5.75783">
        <ele>87.599998474121</ele>
        <time>2016-05-14T16:27:11.000Z</time>
      </trkpt>
      <trkpt lat="43.19118" lon="5.75766">
        <ele>88.599998474121</ele>
        <time>2016-05-14T16:27:15.000Z</time>
      </trkpt>
      <trkpt lat="43.19133" lon="5.75749">
        <ele>89.800003051758</ele>
        <time>2016-05-14T16:27:19.000Z</time>
      </trkpt>
      <trkpt lat="43.19147" lon="5.75732">
        <ele>91.400001525879</ele>
        <time>2016-05-14T16:27:23.000Z</time>
      </trkpt>
      <trkpt lat="43.19151" lon="5.75728">
        <ele>91.800003051758</ele>
        <time>2016-05-14T16:27:24.000Z</time>
      </trkpt>
      <trkpt lat="43.19158" lon="5.7572">
        <ele>92.599998474121</ele>
        <time>2016-05-14T16:27:26.000Z</time>
      </trkpt>
      <trkpt lat="43.19168" lon="5.75708">
        <ele>93.599998474121</ele>
        <time>2016-05-14T16:27:29.000Z</time>
      </trkpt>
      <trkpt lat="43.19178" lon="5.75695">
        <ele>94</ele>
        <time>2016-05-14T16:27:32.000Z</time>
      </trkpt>
      <trkpt lat="43.19185" lon="5.75686">
        <ele>94</ele>
        <time>2016-05-14T16:27:34.000Z</time>
      </trkpt>
      <trkpt lat="43.19203" lon="5.75657">
        <ele>94</ele>
        <time>2016-05-14T16:27:40.000Z</time>
      </trkpt>
      <trkpt lat="43.19206" lon="5.75653">
        <ele>94</ele>
        <time>2016-05-14T16:27:41.000Z</time>
      </trkpt>
      <trkpt lat="43.19216" lon="5.75628">
        <ele>93.800003051758</ele>
        <time>2016-05-14T16:27:46.000Z</time>
      </trkpt>
      <trkpt lat="43.19218" lon="5.75622">
        <ele>93.599998474121</ele>
        <time>2016-05-14T16:27:47.000Z</time>
      </trkpt>
      <trkpt lat="43.1922" lon="5.75604">
        <ele>93.199996948242</ele>
        <time>2016-05-14T16:27:50.000Z</time>
      </trkpt>
      <trkpt lat="43.19225" lon="5.75595">
        <ele>93.400001525879</ele>
        <time>2016-05-14T16:27:52.000Z</time>
      </trkpt>
      <trkpt lat="43.19236" lon="5.75587">
        <ele>94.400001525879</ele>
        <time>2016-05-14T16:27:56.000Z</time>
      </trkpt>
      <trkpt lat="43.19243" lon="5.75589">
        <ele>94.599998474121</ele>
        <time>2016-05-14T16:27:58.000Z</time>
      </trkpt>
      <trkpt lat="43.19248" lon="5.7559">
        <ele>94.800003051758</ele>
        <time>2016-05-14T16:28:00.000Z</time>
      </trkpt>
      <trkpt lat="43.19251" lon="5.75589">
        <ele>95</ele>
        <time>2016-05-14T16:28:01.000Z</time>
      </trkpt>
      <trkpt lat="43.19266" lon="5.75574">
        <ele>96.400001525879</ele>
        <time>2016-05-14T16:28:06.000Z</time>
      </trkpt>
      <trkpt lat="43.19278" lon="5.75572">
        <ele>97.199996948242</ele>
        <time>2016-05-14T16:28:09.000Z</time>
      </trkpt>
      <trkpt lat="43.19282" lon="5.75573">
        <ele>97.400001525879</ele>
        <time>2016-05-14T16:28:10.000Z</time>
      </trkpt>
      <trkpt lat="43.19291" lon="5.75579">
        <ele>97.599998474121</ele>
        <time>2016-05-14T16:28:12.000Z</time>
      </trkpt>
      <trkpt lat="43.19299" lon="5.75588">
        <ele>97.800003051758</ele>
        <time>2016-05-14T16:28:14.000Z</time>
      </trkpt>
      <trkpt lat="43.19306" lon="5.75597">
        <ele>97.599998474121</ele>
        <time>2016-05-14T16:28:16.000Z</time>
      </trkpt>
      <trkpt lat="43.19309" lon="5.75602">
        <ele>97.599998474121</ele>
        <time>2016-05-14T16:28:17.000Z</time>
      </trkpt>
      <trkpt lat="43.19319" lon="5.75616">
        <ele>97.599998474121</ele>
        <time>2016-05-14T16:28:20.000Z</time>
      </trkpt>
      <trkpt lat="43.19336" lon="5.7564">
        <ele>97.400001525879</ele>
        <time>2016-05-14T16:28:25.000Z</time>
      </trkpt>
      <trkpt lat="43.19342" lon="5.75649">
        <ele>97.400001525879</ele>
        <time>2016-05-14T16:28:27.000Z</time>
      </trkpt>
      <trkpt lat="43.19352" lon="5.75663">
        <ele>98.599998474121</ele>
        <time>2016-05-14T16:28:30.000Z</time>
      </trkpt>
      <trkpt lat="43.19362" lon="5.75678">
        <ele>100.19999694824</ele>
        <time>2016-05-14T16:28:33.000Z</time>
      </trkpt>
      <trkpt lat="43.19368" lon="5.7569">
        <ele>100.80000305176</ele>
        <time>2016-05-14T16:28:35.000Z</time>
      </trkpt>
      <trkpt lat="43.19372" lon="5.75701">
        <ele>101.19999694824</ele>
        <time>2016-05-14T16:28:37.000Z</time>
      </trkpt>
      <trkpt lat="43.19377" lon="5.75718">
        <ele>101.59999847412</ele>
        <time>2016-05-14T16:28:40.000Z</time>
      </trkpt>
      <trkpt lat="43.19385" lon="5.75734">
        <ele>103</ele>
        <time>2016-05-14T16:28:43.000Z</time>
      </trkpt>
      <trkpt lat="43.19388" lon="5.75739">
        <ele>103.59999847412</ele>
        <time>2016-05-14T16:28:44.000Z</time>
      </trkpt>
      <trkpt lat="43.19403" lon="5.7575">
        <ele>106.59999847412</ele>
        <time>2016-05-14T16:28:48.000Z</time>
      </trkpt>
      <trkpt lat="43.19408" lon="5.75752">
        <ele>107.40000152588</ele>
        <time>2016-05-14T16:28:49.000Z</time>
      </trkpt>
      <trkpt lat="43.19416" lon="5.75758">
        <ele>109</ele>
        <time>2016-05-14T16:28:51.000Z</time>
      </trkpt>
      <trkpt lat="43.1942" lon="5.75763">
        <ele>109.80000305176</ele>
        <time>2016-05-14T16:28:52.000Z</time>
      </trkpt>
      <trkpt lat="43.19423" lon="5.75768">
        <ele>110.40000152588</ele>
        <time>2016-05-14T16:28:53.000Z</time>
      </trkpt>
      <trkpt lat="43.19426" lon="5.7578">
        <ele>111</ele>
        <time>2016-05-14T16:28:55.000Z</time>
      </trkpt>
      <trkpt lat="43.19427" lon="5.75786">
        <ele>111</ele>
        <time>2016-05-14T16:28:56.000Z</time>
      </trkpt>
      <trkpt lat="43.19428" lon="5.75792">
        <ele>111</ele>
        <time>2016-05-14T16:28:57.000Z</time>
      </trkpt>
      <trkpt lat="43.19428" lon="5.75818">
        <ele>109.80000305176</ele>
        <time>2016-05-14T16:29:01.000Z</time>
      </trkpt>
      <trkpt lat="43.19429" lon="5.75844">
        <ele>107.80000305176</ele>
        <time>2016-05-14T16:29:05.000Z</time>
      </trkpt>
      <trkpt lat="43.19431" lon="5.75856">
        <ele>107.19999694824</ele>
        <time>2016-05-14T16:29:07.000Z</time>
      </trkpt>
      <trkpt lat="43.19436" lon="5.75867">
        <ele>107.19999694824</ele>
        <time>2016-05-14T16:29:09.000Z</time>
      </trkpt>
      <trkpt lat="43.1945" lon="5.75883">
        <ele>108.40000152588</ele>
        <time>2016-05-14T16:29:13.000Z</time>
      </trkpt>
      <trkpt lat="43.19454" lon="5.75887">
        <ele>108.80000305176</ele>
        <time>2016-05-14T16:29:14.000Z</time>
      </trkpt>
      <trkpt lat="43.19473" lon="5.75907">
        <ele>111.80000305176</ele>
        <time>2016-05-14T16:29:19.000Z</time>
      </trkpt>
      <trkpt lat="43.19477" lon="5.7591">
        <ele>112.59999847412</ele>
        <time>2016-05-14T16:29:20.000Z</time>
      </trkpt>
      <trkpt lat="43.19482" lon="5.75912">
        <ele>113.19999694824</ele>
        <time>2016-05-14T16:29:21.000Z</time>
      </trkpt>
      <trkpt lat="43.19493" lon="5.75905">
        <ele>115.40000152588</ele>
        <time>2016-05-14T16:29:24.000Z</time>
      </trkpt>
      <trkpt lat="43.19499" lon="5.75896">
        <ele>116.59999847412</ele>
        <time>2016-05-14T16:29:26.000Z</time>
      </trkpt>
      <trkpt lat="43.19504" lon="5.75887">
        <ele>117.80000305176</ele>
        <time>2016-05-14T16:29:28.000Z</time>
      </trkpt>
      <trkpt lat="43.19509" lon="5.75876">
        <ele>119.19999694824</ele>
        <time>2016-05-14T16:29:30.000Z</time>
      </trkpt>
      <trkpt lat="43.19511" lon="5.7587">
        <ele>120</ele>
        <time>2016-05-14T16:29:31.000Z</time>
      </trkpt>
      <trkpt lat="43.19518" lon="5.75855">
        <ele>121.59999847412</ele>
        <time>2016-05-14T16:29:34.000Z</time>
      </trkpt>
      <trkpt lat="43.19526" lon="5.75843">
        <ele>123.19999694824</ele>
        <time>2016-05-14T16:29:37.000Z</time>
      </trkpt>
      <trkpt lat="43.19529" lon="5.7584">
        <ele>123.80000305176</ele>
        <time>2016-05-14T16:29:38.000Z</time>
      </trkpt>
      <trkpt lat="43.19532" lon="5.75838">
        <ele>124.19999694824</ele>
        <time>2016-05-14T16:29:39.000Z</time>
      </trkpt>
      <trkpt lat="43.19537" lon="5.75834">
        <ele>125</ele>
        <time>2016-05-14T16:29:41.000Z</time>
      </trkpt>
      <trkpt lat="43.1954" lon="5.75828">
        <ele>125.59999847412</ele>
        <time>2016-05-14T16:29:43.000Z</time>
      </trkpt>
      <trkpt lat="43.19538" lon="5.75812">
        <ele>126.40000152588</ele>
        <time>2016-05-14T16:29:46.000Z</time>
      </trkpt>
      <trkpt lat="43.19537" lon="5.75806">
        <ele>126.59999847412</ele>
        <time>2016-05-14T16:29:47.000Z</time>
      </trkpt>
      <trkpt lat="43.19536" lon="5.75796">
        <ele>126.80000305176</ele>
        <time>2016-05-14T16:29:49.000Z</time>
      </trkpt>
      <trkpt lat="43.1954" lon="5.75786">
        <ele>127.19999694824</ele>
        <time>2016-05-14T16:29:52.000Z</time>
      </trkpt>
      <trkpt lat="43.19542" lon="5.75782">
        <ele>127.59999847412</ele>
        <time>2016-05-14T16:29:53.000Z</time>
      </trkpt>
      <trkpt lat="43.19551" lon="5.75772">
        <ele>128.60000610352</ele>
        <time>2016-05-14T16:29:56.000Z</time>
      </trkpt>
      <trkpt lat="43.1956" lon="5.75762">
        <ele>130.39999389648</ele>
        <time>2016-05-14T16:29:59.000Z</time>
      </trkpt>
      <trkpt lat="43.19563" lon="5.75759">
        <ele>131.19999694824</ele>
        <time>2016-05-14T16:30:00.000Z</time>
      </trkpt>
      <trkpt lat="43.19569" lon="5.75753">
        <ele>133</ele>
        <time>2016-05-14T16:30:02.000Z</time>
      </trkpt>
      <trkpt lat="43.19574" lon="5.75748">
        <ele>134.39999389648</ele>
        <time>2016-05-14T16:30:04.000Z</time>
      </trkpt>
      <trkpt lat="43.19577" lon="5.75744">
        <ele>135.39999389648</ele>
        <time>2016-05-14T16:30:06.000Z</time>
      </trkpt>
      <trkpt lat="43.19579" lon="5.75743">
        <ele>135.80000305176</ele>
        <time>2016-05-14T16:30:07.000Z</time>
      </trkpt>
    </trkseg>
  </trk>
</gpx>